<?xml version="1.0" encoding="UTF-8" standalone="no" ?>
<gpx xmlns="http://www.topografix.com/GPX/1/1" xmlns:xsi="http://www.w3.org/2001/XMLSchema-instance" xsi:schemaLocation="http://www.topografix.com/GPX/1/1 http://www.topografix.com/GPX/1/1/gpx.xsd" version="1.1" creator="VisuGPX - https://www.visugpx.com">
  <metadata>
    <name>Pic rouge de Bassiès en boucle</name>
    <desc><![CDATA[Pic rouge de Bassiès en boucle]]></desc>
  </metadata>
  <trk>
    <name><![CDATA[Rando-course]]></name>
    <cmt><![CDATA[pic rouge de Bassies]]></cmt>
    <trkseg>
      <trkpt lat="42.71013" lon="1.42564">
        <ele>1178.7136230469</ele>
        <time>2012-06-24T05:25:37Z</time>
      </trkpt>
      <trkpt lat="42.71013" lon="1.42563">
        <ele>1179.1940917969</ele>
        <time>2012-06-24T05:25:38Z</time>
      </trkpt>
      <trkpt lat="42.71016" lon="1.42557">
        <ele>1175.8295898438</ele>
        <time>2012-06-24T05:25:47Z</time>
      </trkpt>
      <trkpt lat="42.71018" lon="1.42553">
        <ele>1172.9458007812</ele>
        <time>2012-06-24T05:25:54Z</time>
      </trkpt>
      <trkpt lat="42.71019" lon="1.42551">
        <ele>1172.4650878906</ele>
        <time>2012-06-24T05:26:02Z</time>
      </trkpt>
      <trkpt lat="42.71024" lon="1.42551">
        <ele>1173.9069824219</ele>
        <time>2012-06-24T05:26:09Z</time>
      </trkpt>
      <trkpt lat="42.71027" lon="1.42551">
        <ele>1178.2329101562</ele>
        <time>2012-06-24T05:26:17Z</time>
      </trkpt>
      <trkpt lat="42.71031" lon="1.4255">
        <ele>1179.6748046875</ele>
        <time>2012-06-24T05:26:24Z</time>
      </trkpt>
      <trkpt lat="42.71034" lon="1.4255">
        <ele>1179.1940917969</ele>
        <time>2012-06-24T05:26:30Z</time>
      </trkpt>
      <trkpt lat="42.71033" lon="1.42546">
        <ele>1177.7521972656</ele>
        <time>2012-06-24T05:26:35Z</time>
      </trkpt>
      <trkpt lat="42.71033" lon="1.42544">
        <ele>1174.8684082031</ele>
        <time>2012-06-24T05:26:42Z</time>
      </trkpt>
      <trkpt lat="42.7103" lon="1.42542">
        <ele>1179.6748046875</ele>
        <time>2012-06-24T05:26:52Z</time>
      </trkpt>
      <trkpt lat="42.71029" lon="1.42537">
        <ele>1180.1557617188</ele>
        <time>2012-06-24T05:27:01Z</time>
      </trkpt>
      <trkpt lat="42.71031" lon="1.42532">
        <ele>1182.0783691406</ele>
        <time>2012-06-24T05:27:08Z</time>
      </trkpt>
      <trkpt lat="42.71035" lon="1.4253">
        <ele>1184.4816894531</ele>
        <time>2012-06-24T05:27:15Z</time>
      </trkpt>
      <trkpt lat="42.71032" lon="1.42521">
        <ele>1187.3654785156</ele>
        <time>2012-06-24T05:27:22Z</time>
      </trkpt>
      <trkpt lat="42.7103" lon="1.42517">
        <ele>1185.9235839844</ele>
        <time>2012-06-24T05:27:26Z</time>
      </trkpt>
      <trkpt lat="42.71024" lon="1.42504">
        <ele>1186.884765625</ele>
        <time>2012-06-24T05:27:36Z</time>
      </trkpt>
      <trkpt lat="42.71017" lon="1.4249">
        <ele>1188.3269042969</ele>
        <time>2012-06-24T05:27:46Z</time>
      </trkpt>
      <trkpt lat="42.71012" lon="1.42479">
        <ele>1189.2880859375</ele>
        <time>2012-06-24T05:27:54Z</time>
      </trkpt>
      <trkpt lat="42.71008" lon="1.42466">
        <ele>1190.2495117188</ele>
        <time>2012-06-24T05:28:03Z</time>
      </trkpt>
      <trkpt lat="42.71005" lon="1.42456">
        <ele>1192.6528320312</ele>
        <time>2012-06-24T05:28:10Z</time>
      </trkpt>
      <trkpt lat="42.70999" lon="1.42443">
        <ele>1197.9401855469</ele>
        <time>2012-06-24T05:28:17Z</time>
      </trkpt>
      <trkpt lat="42.70995" lon="1.42433">
        <ele>1201.3046875</ele>
        <time>2012-06-24T05:28:22Z</time>
      </trkpt>
      <trkpt lat="42.70991" lon="1.4242">
        <ele>1200.3435058594</ele>
        <time>2012-06-24T05:28:29Z</time>
      </trkpt>
      <trkpt lat="42.70989" lon="1.42407">
        <ele>1195.0559082031</ele>
        <time>2012-06-24T05:28:38Z</time>
      </trkpt>
      <trkpt lat="42.70986" lon="1.42396">
        <ele>1190.7299804688</ele>
        <time>2012-06-24T05:28:46Z</time>
      </trkpt>
      <trkpt lat="42.70982" lon="1.42382">
        <ele>1190.2495117188</ele>
        <time>2012-06-24T05:28:54Z</time>
      </trkpt>
      <trkpt lat="42.7098" lon="1.42364">
        <ele>1191.2106933594</ele>
        <time>2012-06-24T05:29:04Z</time>
      </trkpt>
      <trkpt lat="42.70977" lon="1.42352">
        <ele>1191.69140625</ele>
        <time>2012-06-24T05:29:12Z</time>
      </trkpt>
      <trkpt lat="42.70972" lon="1.42344">
        <ele>1193.6140136719</ele>
        <time>2012-06-24T05:29:20Z</time>
      </trkpt>
      <trkpt lat="42.70967" lon="1.42335">
        <ele>1193.6140136719</ele>
        <time>2012-06-24T05:29:27Z</time>
      </trkpt>
      <trkpt lat="42.70963" lon="1.42324">
        <ele>1191.2106933594</ele>
        <time>2012-06-24T05:29:34Z</time>
      </trkpt>
      <trkpt lat="42.70961" lon="1.42309">
        <ele>1192.1721191406</ele>
        <time>2012-06-24T05:29:42Z</time>
      </trkpt>
      <trkpt lat="42.70959" lon="1.4229">
        <ele>1194.0947265625</ele>
        <time>2012-06-24T05:29:52Z</time>
      </trkpt>
      <trkpt lat="42.70959" lon="1.42272">
        <ele>1196.017578125</ele>
        <time>2012-06-24T05:30:02Z</time>
      </trkpt>
      <trkpt lat="42.70956" lon="1.42252">
        <ele>1201.3046875</ele>
        <time>2012-06-24T05:30:13Z</time>
      </trkpt>
      <trkpt lat="42.70954" lon="1.4224">
        <ele>1196.017578125</ele>
        <time>2012-06-24T05:30:22Z</time>
      </trkpt>
      <trkpt lat="42.70951" lon="1.42227">
        <ele>1196.9787597656</ele>
        <time>2012-06-24T05:30:30Z</time>
      </trkpt>
      <trkpt lat="42.7095" lon="1.42213">
        <ele>1196.9787597656</ele>
        <time>2012-06-24T05:30:38Z</time>
      </trkpt>
      <trkpt lat="42.70951" lon="1.42202">
        <ele>1196.4982910156</ele>
        <time>2012-06-24T05:30:46Z</time>
      </trkpt>
      <trkpt lat="42.70949" lon="1.42195">
        <ele>1198.9013671875</ele>
        <time>2012-06-24T05:30:52Z</time>
      </trkpt>
      <trkpt lat="42.70948" lon="1.4219">
        <ele>1198.4206542969</ele>
        <time>2012-06-24T05:30:56Z</time>
      </trkpt>
      <trkpt lat="42.70948" lon="1.42186">
        <ele>1197.9401855469</ele>
        <time>2012-06-24T05:30:59Z</time>
      </trkpt>
      <trkpt lat="42.70946" lon="1.42174">
        <ele>1195.5366210938</ele>
        <time>2012-06-24T05:31:08Z</time>
      </trkpt>
      <trkpt lat="42.70943" lon="1.42161">
        <ele>1199.8627929688</ele>
        <time>2012-06-24T05:31:16Z</time>
      </trkpt>
      <trkpt lat="42.70942" lon="1.42154">
        <ele>1199.3820800781</ele>
        <time>2012-06-24T05:31:21Z</time>
      </trkpt>
      <trkpt lat="42.70941" lon="1.4215">
        <ele>1197.4594726562</ele>
        <time>2012-06-24T05:31:24Z</time>
      </trkpt>
      <trkpt lat="42.70938" lon="1.42143">
        <ele>1199.3820800781</ele>
        <time>2012-06-24T05:31:31Z</time>
      </trkpt>
      <trkpt lat="42.70935" lon="1.42134">
        <ele>1200.8239746094</ele>
        <time>2012-06-24T05:31:39Z</time>
      </trkpt>
      <trkpt lat="42.70934" lon="1.42128">
        <ele>1204.6691894531</ele>
        <time>2012-06-24T05:31:44Z</time>
      </trkpt>
      <trkpt lat="42.70932" lon="1.42123">
        <ele>1207.0725097656</ele>
        <time>2012-06-24T05:31:50Z</time>
      </trkpt>
      <trkpt lat="42.7093" lon="1.42118">
        <ele>1208.0339355469</ele>
        <time>2012-06-24T05:31:56Z</time>
      </trkpt>
      <trkpt lat="42.7093" lon="1.42116">
        <ele>1206.591796875</ele>
        <time>2012-06-24T05:32:00Z</time>
      </trkpt>
      <trkpt lat="42.70929" lon="1.42113">
        <ele>1205.6306152344</ele>
        <time>2012-06-24T05:32:04Z</time>
      </trkpt>
      <trkpt lat="42.70927" lon="1.42108">
        <ele>1205.1499023438</ele>
        <time>2012-06-24T05:32:10Z</time>
      </trkpt>
      <trkpt lat="42.70928" lon="1.42104">
        <ele>1203.2272949219</ele>
        <time>2012-06-24T05:32:16Z</time>
      </trkpt>
      <trkpt lat="42.70928" lon="1.42099">
        <ele>1203.2272949219</ele>
        <time>2012-06-24T05:32:23Z</time>
      </trkpt>
      <trkpt lat="42.70928" lon="1.42094">
        <ele>1202.7465820312</ele>
        <time>2012-06-24T05:32:30Z</time>
      </trkpt>
      <trkpt lat="42.70929" lon="1.4209">
        <ele>1201.7854003906</ele>
        <time>2012-06-24T05:32:36Z</time>
      </trkpt>
      <trkpt lat="42.7093" lon="1.42091">
        <ele>1202.2658691406</ele>
        <time>2012-06-24T05:32:41Z</time>
      </trkpt>
      <trkpt lat="42.70934" lon="1.42096">
        <ele>1201.7854003906</ele>
        <time>2012-06-24T05:32:47Z</time>
      </trkpt>
      <trkpt lat="42.70937" lon="1.42103">
        <ele>1201.7854003906</ele>
        <time>2012-06-24T05:32:53Z</time>
      </trkpt>
      <trkpt lat="42.70938" lon="1.42105">
        <ele>1203.2272949219</ele>
        <time>2012-06-24T05:32:55Z</time>
      </trkpt>
      <trkpt lat="42.70941" lon="1.42109">
        <ele>1203.2272949219</ele>
        <time>2012-06-24T05:32:58Z</time>
      </trkpt>
      <trkpt lat="42.70948" lon="1.42114">
        <ele>1207.5532226562</ele>
        <time>2012-06-24T05:33:04Z</time>
      </trkpt>
      <trkpt lat="42.7095" lon="1.42117">
        <ele>1208.5144042969</ele>
        <time>2012-06-24T05:33:07Z</time>
      </trkpt>
      <trkpt lat="42.70955" lon="1.42126">
        <ele>1209.9562988281</ele>
        <time>2012-06-24T05:33:15Z</time>
      </trkpt>
      <trkpt lat="42.70955" lon="1.42128">
        <ele>1211.3984375</ele>
        <time>2012-06-24T05:33:16Z</time>
      </trkpt>
      <trkpt lat="42.70956" lon="1.42131">
        <ele>1214.7631835938</ele>
        <time>2012-06-24T05:33:19Z</time>
      </trkpt>
      <trkpt lat="42.70962" lon="1.42138">
        <ele>1215.724609375</ele>
        <time>2012-06-24T05:33:27Z</time>
      </trkpt>
      <trkpt lat="42.70964" lon="1.42142">
        <ele>1214.2824707031</ele>
        <time>2012-06-24T05:33:31Z</time>
      </trkpt>
      <trkpt lat="42.70966" lon="1.42144">
        <ele>1213.8017578125</ele>
        <time>2012-06-24T05:33:33Z</time>
      </trkpt>
      <trkpt lat="42.70967" lon="1.42147">
        <ele>1213.8017578125</ele>
        <time>2012-06-24T05:33:36Z</time>
      </trkpt>
      <trkpt lat="42.70968" lon="1.42156">
        <ele>1216.6857910156</ele>
        <time>2012-06-24T05:33:41Z</time>
      </trkpt>
      <trkpt lat="42.70969" lon="1.42162">
        <ele>1216.6857910156</ele>
        <time>2012-06-24T05:33:45Z</time>
      </trkpt>
      <trkpt lat="42.7097" lon="1.42166">
        <ele>1217.1665039062</ele>
        <time>2012-06-24T05:33:49Z</time>
      </trkpt>
      <trkpt lat="42.70972" lon="1.42172">
        <ele>1220.0502929688</ele>
        <time>2012-06-24T05:33:53Z</time>
      </trkpt>
      <trkpt lat="42.70975" lon="1.42182">
        <ele>1221.01171875</ele>
        <time>2012-06-24T05:34:00Z</time>
      </trkpt>
      <trkpt lat="42.70976" lon="1.42191">
        <ele>1223.4150390625</ele>
        <time>2012-06-24T05:34:06Z</time>
      </trkpt>
      <trkpt lat="42.7098" lon="1.42202">
        <ele>1223.8955078125</ele>
        <time>2012-06-24T05:34:13Z</time>
      </trkpt>
      <trkpt lat="42.70983" lon="1.42215">
        <ele>1226.298828125</ele>
        <time>2012-06-24T05:34:20Z</time>
      </trkpt>
      <trkpt lat="42.70983" lon="1.42219">
        <ele>1226.298828125</ele>
        <time>2012-06-24T05:34:22Z</time>
      </trkpt>
      <trkpt lat="42.70984" lon="1.42231">
        <ele>1224.3762207031</ele>
        <time>2012-06-24T05:34:28Z</time>
      </trkpt>
      <trkpt lat="42.70985" lon="1.42246">
        <ele>1223.4150390625</ele>
        <time>2012-06-24T05:34:36Z</time>
      </trkpt>
      <trkpt lat="42.70987" lon="1.42255">
        <ele>1220.0502929688</ele>
        <time>2012-06-24T05:34:42Z</time>
      </trkpt>
      <trkpt lat="42.70987" lon="1.42264">
        <ele>1218.6083984375</ele>
        <time>2012-06-24T05:34:47Z</time>
      </trkpt>
      <trkpt lat="42.7099" lon="1.42274">
        <ele>1216.6857910156</ele>
        <time>2012-06-24T05:34:53Z</time>
      </trkpt>
      <trkpt lat="42.70991" lon="1.42278">
        <ele>1216.205078125</ele>
        <time>2012-06-24T05:34:59Z</time>
      </trkpt>
      <trkpt lat="42.70992" lon="1.42278">
        <ele>1214.2824707031</ele>
        <time>2012-06-24T05:35:09Z</time>
      </trkpt>
      <trkpt lat="42.70994" lon="1.42282">
        <ele>1215.2438964844</ele>
        <time>2012-06-24T05:35:16Z</time>
      </trkpt>
      <trkpt lat="42.70996" lon="1.4229">
        <ele>1216.205078125</ele>
        <time>2012-06-24T05:35:23Z</time>
      </trkpt>
      <trkpt lat="42.71001" lon="1.42297">
        <ele>1216.6857910156</ele>
        <time>2012-06-24T05:35:30Z</time>
      </trkpt>
      <trkpt lat="42.71002" lon="1.42297">
        <ele>1216.6857910156</ele>
        <time>2012-06-24T05:35:31Z</time>
      </trkpt>
      <trkpt lat="42.71009" lon="1.42303">
        <ele>1217.1665039062</ele>
        <time>2012-06-24T05:35:39Z</time>
      </trkpt>
      <trkpt lat="42.71013" lon="1.42308">
        <ele>1218.6083984375</ele>
        <time>2012-06-24T05:35:45Z</time>
      </trkpt>
      <trkpt lat="42.71016" lon="1.42309">
        <ele>1218.6083984375</ele>
        <time>2012-06-24T05:35:53Z</time>
      </trkpt>
      <trkpt lat="42.71018" lon="1.42308">
        <ele>1219.0891113281</ele>
        <time>2012-06-24T05:35:59Z</time>
      </trkpt>
      <trkpt lat="42.71014" lon="1.42302">
        <ele>1219.5698242188</ele>
        <time>2012-06-24T05:36:06Z</time>
      </trkpt>
      <trkpt lat="42.71009" lon="1.42294">
        <ele>1221.4921875</ele>
        <time>2012-06-24T05:36:14Z</time>
      </trkpt>
      <trkpt lat="42.71007" lon="1.42287">
        <ele>1222.4536132812</ele>
        <time>2012-06-24T05:36:20Z</time>
      </trkpt>
      <trkpt lat="42.71005" lon="1.42279">
        <ele>1222.9343261719</ele>
        <time>2012-06-24T05:36:27Z</time>
      </trkpt>
      <trkpt lat="42.71006" lon="1.42271">
        <ele>1225.3374023438</ele>
        <time>2012-06-24T05:36:33Z</time>
      </trkpt>
      <trkpt lat="42.71005" lon="1.42269">
        <ele>1225.8181152344</ele>
        <time>2012-06-24T05:36:34Z</time>
      </trkpt>
      <trkpt lat="42.71006" lon="1.42264">
        <ele>1227.7407226562</ele>
        <time>2012-06-24T05:36:38Z</time>
      </trkpt>
      <trkpt lat="42.71005" lon="1.42258">
        <ele>1232.0668945312</ele>
        <time>2012-06-24T05:36:44Z</time>
      </trkpt>
      <trkpt lat="42.71005" lon="1.42253">
        <ele>1234.9509277344</ele>
        <time>2012-06-24T05:36:49Z</time>
      </trkpt>
      <trkpt lat="42.71006" lon="1.42245">
        <ele>1234.4702148438</ele>
        <time>2012-06-24T05:36:55Z</time>
      </trkpt>
      <trkpt lat="42.71007" lon="1.4224">
        <ele>1233.9895019531</ele>
        <time>2012-06-24T05:37:01Z</time>
      </trkpt>
      <trkpt lat="42.71008" lon="1.42234">
        <ele>1233.0280761719</ele>
        <time>2012-06-24T05:37:07Z</time>
      </trkpt>
      <trkpt lat="42.71009" lon="1.42228">
        <ele>1233.9895019531</ele>
        <time>2012-06-24T05:37:14Z</time>
      </trkpt>
      <trkpt lat="42.7101" lon="1.42224">
        <ele>1236.8732910156</ele>
        <time>2012-06-24T05:37:19Z</time>
      </trkpt>
      <trkpt lat="42.71011" lon="1.4222">
        <ele>1237.8347167969</ele>
        <time>2012-06-24T05:37:23Z</time>
      </trkpt>
      <trkpt lat="42.71013" lon="1.42216">
        <ele>1239.7573242188</ele>
        <time>2012-06-24T05:37:29Z</time>
      </trkpt>
      <trkpt lat="42.71014" lon="1.42214">
        <ele>1241.6799316406</ele>
        <time>2012-06-24T05:37:35Z</time>
      </trkpt>
      <trkpt lat="42.71017" lon="1.4221">
        <ele>1243.6025390625</ele>
        <time>2012-06-24T05:37:41Z</time>
      </trkpt>
      <trkpt lat="42.71018" lon="1.42205">
        <ele>1245.0446777344</ele>
        <time>2012-06-24T05:37:47Z</time>
      </trkpt>
      <trkpt lat="42.71019" lon="1.422">
        <ele>1248.8898925781</ele>
        <time>2012-06-24T05:37:54Z</time>
      </trkpt>
      <trkpt lat="42.71019" lon="1.42195">
        <ele>1250.8125</ele>
        <time>2012-06-24T05:38:00Z</time>
      </trkpt>
      <trkpt lat="42.7102" lon="1.4219">
        <ele>1251.7739257812</ele>
        <time>2012-06-24T05:38:06Z</time>
      </trkpt>
      <trkpt lat="42.71021" lon="1.42185">
        <ele>1252.7351074219</ele>
        <time>2012-06-24T05:38:12Z</time>
      </trkpt>
      <trkpt lat="42.71021" lon="1.4218">
        <ele>1254.1772460938</ele>
        <time>2012-06-24T05:38:17Z</time>
      </trkpt>
      <trkpt lat="42.71022" lon="1.42177">
        <ele>1254.6577148438</ele>
        <time>2012-06-24T05:38:22Z</time>
      </trkpt>
      <trkpt lat="42.71023" lon="1.42172">
        <ele>1254.1772460938</ele>
        <time>2012-06-24T05:38:28Z</time>
      </trkpt>
      <trkpt lat="42.71023" lon="1.42168">
        <ele>1255.1384277344</ele>
        <time>2012-06-24T05:38:34Z</time>
      </trkpt>
      <trkpt lat="42.71023" lon="1.42162">
        <ele>1256.5803222656</ele>
        <time>2012-06-24T05:38:41Z</time>
      </trkpt>
      <trkpt lat="42.71027" lon="1.42159">
        <ele>1257.5417480469</ele>
        <time>2012-06-24T05:38:47Z</time>
      </trkpt>
      <trkpt lat="42.7103" lon="1.42156">
        <ele>1257.5417480469</ele>
        <time>2012-06-24T05:38:53Z</time>
      </trkpt>
      <trkpt lat="42.71031" lon="1.42153">
        <ele>1258.9836425781</ele>
        <time>2012-06-24T05:38:59Z</time>
      </trkpt>
      <trkpt lat="42.71032" lon="1.42149">
        <ele>1259.9448242188</ele>
        <time>2012-06-24T05:39:04Z</time>
      </trkpt>
      <trkpt lat="42.71031" lon="1.42146">
        <ele>1265.7131347656</ele>
        <time>2012-06-24T05:39:08Z</time>
      </trkpt>
      <trkpt lat="42.7103" lon="1.42144">
        <ele>1268.5969238281</ele>
        <time>2012-06-24T05:39:13Z</time>
      </trkpt>
      <trkpt lat="42.71031" lon="1.42138">
        <ele>1270.0388183594</ele>
        <time>2012-06-24T05:39:19Z</time>
      </trkpt>
      <trkpt lat="42.71033" lon="1.42132">
        <ele>1269.5583496094</ele>
        <time>2012-06-24T05:39:25Z</time>
      </trkpt>
      <trkpt lat="42.71033" lon="1.42125">
        <ele>1271.0002441406</ele>
        <time>2012-06-24T05:39:31Z</time>
      </trkpt>
      <trkpt lat="42.71033" lon="1.42118">
        <ele>1270.0388183594</ele>
        <time>2012-06-24T05:39:37Z</time>
      </trkpt>
      <trkpt lat="42.71033" lon="1.42112">
        <ele>1271.4807128906</ele>
        <time>2012-06-24T05:39:43Z</time>
      </trkpt>
      <trkpt lat="42.71034" lon="1.42107">
        <ele>1272.9228515625</ele>
        <time>2012-06-24T05:39:48Z</time>
      </trkpt>
      <trkpt lat="42.71035" lon="1.42101">
        <ele>1273.8840332031</ele>
        <time>2012-06-24T05:39:53Z</time>
      </trkpt>
      <trkpt lat="42.71034" lon="1.42096">
        <ele>1276.7683105469</ele>
        <time>2012-06-24T05:39:59Z</time>
      </trkpt>
      <trkpt lat="42.71033" lon="1.4209">
        <ele>1279.6520996094</ele>
        <time>2012-06-24T05:40:05Z</time>
      </trkpt>
      <trkpt lat="42.71033" lon="1.42085">
        <ele>1282.0554199219</ele>
        <time>2012-06-24T05:40:10Z</time>
      </trkpt>
      <trkpt lat="42.71035" lon="1.42078">
        <ele>1283.0166015625</ele>
        <time>2012-06-24T05:40:17Z</time>
      </trkpt>
      <trkpt lat="42.71037" lon="1.42074">
        <ele>1283.0166015625</ele>
        <time>2012-06-24T05:40:22Z</time>
      </trkpt>
      <trkpt lat="42.71038" lon="1.42068">
        <ele>1284.4587402344</ele>
        <time>2012-06-24T05:40:29Z</time>
      </trkpt>
      <trkpt lat="42.71038" lon="1.4206">
        <ele>1286.3813476562</ele>
        <time>2012-06-24T05:40:36Z</time>
      </trkpt>
      <trkpt lat="42.7104" lon="1.42053">
        <ele>1285.419921875</ele>
        <time>2012-06-24T05:40:42Z</time>
      </trkpt>
      <trkpt lat="42.71042" lon="1.42046">
        <ele>1285.9006347656</ele>
        <time>2012-06-24T05:40:50Z</time>
      </trkpt>
      <trkpt lat="42.71045" lon="1.42038">
        <ele>1286.8618164062</ele>
        <time>2012-06-24T05:40:57Z</time>
      </trkpt>
      <trkpt lat="42.71047" lon="1.42033">
        <ele>1286.8618164062</ele>
        <time>2012-06-24T05:41:03Z</time>
      </trkpt>
      <trkpt lat="42.71049" lon="1.42027">
        <ele>1288.7846679688</ele>
        <time>2012-06-24T05:41:09Z</time>
      </trkpt>
      <trkpt lat="42.7105" lon="1.42022">
        <ele>1290.70703125</ele>
        <time>2012-06-24T05:41:15Z</time>
      </trkpt>
      <trkpt lat="42.71052" lon="1.42015">
        <ele>1292.1494140625</ele>
        <time>2012-06-24T05:41:21Z</time>
      </trkpt>
      <trkpt lat="42.71054" lon="1.42008">
        <ele>1294.0720214844</ele>
        <time>2012-06-24T05:41:27Z</time>
      </trkpt>
      <trkpt lat="42.71055" lon="1.41999">
        <ele>1295.5139160156</ele>
        <time>2012-06-24T05:41:35Z</time>
      </trkpt>
      <trkpt lat="42.71057" lon="1.41991">
        <ele>1297.9172363281</ele>
        <time>2012-06-24T05:41:42Z</time>
      </trkpt>
      <trkpt lat="42.7106" lon="1.41986">
        <ele>1300.8010253906</ele>
        <time>2012-06-24T05:41:49Z</time>
      </trkpt>
      <trkpt lat="42.71062" lon="1.4198">
        <ele>1300.8010253906</ele>
        <time>2012-06-24T05:41:55Z</time>
      </trkpt>
      <trkpt lat="42.71064" lon="1.41973">
        <ele>1304.1657714844</ele>
        <time>2012-06-24T05:42:02Z</time>
      </trkpt>
      <trkpt lat="42.71067" lon="1.41966">
        <ele>1304.1657714844</ele>
        <time>2012-06-24T05:42:08Z</time>
      </trkpt>
      <trkpt lat="42.71068" lon="1.41959">
        <ele>1303.6850585938</ele>
        <time>2012-06-24T05:42:14Z</time>
      </trkpt>
      <trkpt lat="42.71069" lon="1.41953">
        <ele>1303.2043457031</ele>
        <time>2012-06-24T05:42:20Z</time>
      </trkpt>
      <trkpt lat="42.71071" lon="1.41947">
        <ele>1304.1657714844</ele>
        <time>2012-06-24T05:42:27Z</time>
      </trkpt>
      <trkpt lat="42.71072" lon="1.41939">
        <ele>1304.6462402344</ele>
        <time>2012-06-24T05:42:35Z</time>
      </trkpt>
      <trkpt lat="42.71072" lon="1.41933">
        <ele>1306.0881347656</ele>
        <time>2012-06-24T05:42:41Z</time>
      </trkpt>
      <trkpt lat="42.71072" lon="1.41928">
        <ele>1308.0112304688</ele>
        <time>2012-06-24T05:42:47Z</time>
      </trkpt>
      <trkpt lat="42.71074" lon="1.41923">
        <ele>1311.3757324219</ele>
        <time>2012-06-24T05:42:53Z</time>
      </trkpt>
      <trkpt lat="42.71074" lon="1.41919">
        <ele>1313.2983398438</ele>
        <time>2012-06-24T05:42:58Z</time>
      </trkpt>
      <trkpt lat="42.71073" lon="1.41916">
        <ele>1313.7788085938</ele>
        <time>2012-06-24T05:43:03Z</time>
      </trkpt>
      <trkpt lat="42.71074" lon="1.41907">
        <ele>1314.2595214844</ele>
        <time>2012-06-24T05:43:11Z</time>
      </trkpt>
      <trkpt lat="42.71075" lon="1.41902">
        <ele>1317.6240234375</ele>
        <time>2012-06-24T05:43:17Z</time>
      </trkpt>
      <trkpt lat="42.71076" lon="1.41896">
        <ele>1321.4692382812</ele>
        <time>2012-06-24T05:43:24Z</time>
      </trkpt>
      <trkpt lat="42.71077" lon="1.41894">
        <ele>1324.8342285156</ele>
        <time>2012-06-24T05:43:29Z</time>
      </trkpt>
      <trkpt lat="42.71081" lon="1.4189">
        <ele>1326.7568359375</ele>
        <time>2012-06-24T05:43:35Z</time>
      </trkpt>
      <trkpt lat="42.71082" lon="1.41887">
        <ele>1326.7568359375</ele>
        <time>2012-06-24T05:43:39Z</time>
      </trkpt>
      <trkpt lat="42.71085" lon="1.41882">
        <ele>1326.7568359375</ele>
        <time>2012-06-24T05:43:47Z</time>
      </trkpt>
      <trkpt lat="42.71086" lon="1.41878">
        <ele>1329.1599121094</ele>
        <time>2012-06-24T05:43:54Z</time>
      </trkpt>
      <trkpt lat="42.71088" lon="1.41872">
        <ele>1329.1599121094</ele>
        <time>2012-06-24T05:44:01Z</time>
      </trkpt>
      <trkpt lat="42.71091" lon="1.41865">
        <ele>1330.1213378906</ele>
        <time>2012-06-24T05:44:10Z</time>
      </trkpt>
      <trkpt lat="42.71093" lon="1.41858">
        <ele>1330.1213378906</ele>
        <time>2012-06-24T05:44:17Z</time>
      </trkpt>
      <trkpt lat="42.71094" lon="1.41854">
        <ele>1329.640625</ele>
        <time>2012-06-24T05:44:22Z</time>
      </trkpt>
      <trkpt lat="42.71096" lon="1.41847">
        <ele>1331.5632324219</ele>
        <time>2012-06-24T05:44:29Z</time>
      </trkpt>
      <trkpt lat="42.71099" lon="1.41842">
        <ele>1333.9665527344</ele>
        <time>2012-06-24T05:44:36Z</time>
      </trkpt>
      <trkpt lat="42.711" lon="1.4184">
        <ele>1337.8117675781</ele>
        <time>2012-06-24T05:44:45Z</time>
      </trkpt>
      <trkpt lat="42.711" lon="1.41833">
        <ele>1346.4638671875</ele>
        <time>2012-06-24T05:45:02Z</time>
      </trkpt>
      <trkpt lat="42.71103" lon="1.41828">
        <ele>1345.9831542969</ele>
        <time>2012-06-24T05:45:08Z</time>
      </trkpt>
      <trkpt lat="42.71106" lon="1.41821">
        <ele>1346.4638671875</ele>
        <time>2012-06-24T05:45:15Z</time>
      </trkpt>
      <trkpt lat="42.71109" lon="1.41815">
        <ele>1346.9443359375</ele>
        <time>2012-06-24T05:45:22Z</time>
      </trkpt>
      <trkpt lat="42.71111" lon="1.41808">
        <ele>1347.9057617188</ele>
        <time>2012-06-24T05:45:29Z</time>
      </trkpt>
      <trkpt lat="42.71113" lon="1.41803">
        <ele>1348.3862304688</ele>
        <time>2012-06-24T05:45:36Z</time>
      </trkpt>
      <trkpt lat="42.71114" lon="1.41797">
        <ele>1348.3862304688</ele>
        <time>2012-06-24T05:45:43Z</time>
      </trkpt>
      <trkpt lat="42.71115" lon="1.41793">
        <ele>1348.3862304688</ele>
        <time>2012-06-24T05:45:49Z</time>
      </trkpt>
      <trkpt lat="42.71118" lon="1.41785">
        <ele>1348.3862304688</ele>
        <time>2012-06-24T05:45:57Z</time>
      </trkpt>
      <trkpt lat="42.7112" lon="1.41777">
        <ele>1350.7895507812</ele>
        <time>2012-06-24T05:46:05Z</time>
      </trkpt>
      <trkpt lat="42.71122" lon="1.41767">
        <ele>1353.6735839844</ele>
        <time>2012-06-24T05:46:13Z</time>
      </trkpt>
      <trkpt lat="42.71123" lon="1.4176">
        <ele>1357.0383300781</ele>
        <time>2012-06-24T05:46:19Z</time>
      </trkpt>
      <trkpt lat="42.71125" lon="1.41752">
        <ele>1358.9609375</ele>
        <time>2012-06-24T05:46:25Z</time>
      </trkpt>
      <trkpt lat="42.71128" lon="1.41743">
        <ele>1360.8835449219</ele>
        <time>2012-06-24T05:46:32Z</time>
      </trkpt>
      <trkpt lat="42.7113" lon="1.41736">
        <ele>1361.8449707031</ele>
        <time>2012-06-24T05:46:38Z</time>
      </trkpt>
      <trkpt lat="42.71134" lon="1.41731">
        <ele>1362.8061523438</ele>
        <time>2012-06-24T05:46:43Z</time>
      </trkpt>
      <trkpt lat="42.71137" lon="1.41726">
        <ele>1363.7673339844</ele>
        <time>2012-06-24T05:46:49Z</time>
      </trkpt>
      <trkpt lat="42.7114" lon="1.41718">
        <ele>1363.7673339844</ele>
        <time>2012-06-24T05:46:56Z</time>
      </trkpt>
      <trkpt lat="42.71141" lon="1.41712">
        <ele>1363.2868652344</ele>
        <time>2012-06-24T05:47:02Z</time>
      </trkpt>
      <trkpt lat="42.71143" lon="1.41703">
        <ele>1365.6901855469</ele>
        <time>2012-06-24T05:47:09Z</time>
      </trkpt>
      <trkpt lat="42.71144" lon="1.41695">
        <ele>1365.6901855469</ele>
        <time>2012-06-24T05:47:16Z</time>
      </trkpt>
      <trkpt lat="42.71148" lon="1.41691">
        <ele>1367.1320800781</ele>
        <time>2012-06-24T05:47:26Z</time>
      </trkpt>
      <trkpt lat="42.71148" lon="1.41689">
        <ele>1367.6125488281</ele>
        <time>2012-06-24T05:47:35Z</time>
      </trkpt>
      <trkpt lat="42.71147" lon="1.41689">
        <ele>1366.1706542969</ele>
        <time>2012-06-24T05:47:43Z</time>
      </trkpt>
      <trkpt lat="42.71147" lon="1.41689">
        <ele>1365.6901855469</ele>
        <time>2012-06-24T05:47:48Z</time>
      </trkpt>
      <trkpt lat="42.71147" lon="1.4169">
        <ele>1366.6513671875</ele>
        <time>2012-06-24T05:48:04Z</time>
      </trkpt>
      <trkpt lat="42.71146" lon="1.41691">
        <ele>1367.6125488281</ele>
        <time>2012-06-24T05:48:11Z</time>
      </trkpt>
      <trkpt lat="42.71148" lon="1.41688">
        <ele>1365.2094726562</ele>
        <time>2012-06-24T05:48:23Z</time>
      </trkpt>
      <trkpt lat="42.71147" lon="1.41692">
        <ele>1366.6513671875</ele>
        <time>2012-06-24T05:48:32Z</time>
      </trkpt>
      <trkpt lat="42.71146" lon="1.41694">
        <ele>1367.1320800781</ele>
        <time>2012-06-24T05:48:33Z</time>
      </trkpt>
      <trkpt lat="42.71147" lon="1.41706">
        <ele>1370.0158691406</ele>
        <time>2012-06-24T05:48:41Z</time>
      </trkpt>
      <trkpt lat="42.71144" lon="1.41706">
        <ele>1369.5354003906</ele>
        <time>2012-06-24T05:48:49Z</time>
      </trkpt>
      <trkpt lat="42.71144" lon="1.41695">
        <ele>1368.0932617188</ele>
        <time>2012-06-24T05:48:56Z</time>
      </trkpt>
      <trkpt lat="42.71146" lon="1.41681">
        <ele>1366.1706542969</ele>
        <time>2012-06-24T05:49:05Z</time>
      </trkpt>
      <trkpt lat="42.71147" lon="1.41673">
        <ele>1364.248046875</ele>
        <time>2012-06-24T05:49:10Z</time>
      </trkpt>
      <trkpt lat="42.71147" lon="1.41656">
        <ele>1363.7673339844</ele>
        <time>2012-06-24T05:49:19Z</time>
      </trkpt>
      <trkpt lat="42.71148" lon="1.41645">
        <ele>1362.8061523438</ele>
        <time>2012-06-24T05:49:25Z</time>
      </trkpt>
      <trkpt lat="42.71145" lon="1.41633">
        <ele>1366.1706542969</ele>
        <time>2012-06-24T05:49:32Z</time>
      </trkpt>
      <trkpt lat="42.71144" lon="1.41618">
        <ele>1371.4577636719</ele>
        <time>2012-06-24T05:49:41Z</time>
      </trkpt>
      <trkpt lat="42.71148" lon="1.41608">
        <ele>1370.4965820312</ele>
        <time>2012-06-24T05:49:49Z</time>
      </trkpt>
      <trkpt lat="42.71151" lon="1.41601">
        <ele>1371.4577636719</ele>
        <time>2012-06-24T05:49:54Z</time>
      </trkpt>
      <trkpt lat="42.71153" lon="1.41593">
        <ele>1377.7065429688</ele>
        <time>2012-06-24T05:49:59Z</time>
      </trkpt>
      <trkpt lat="42.71155" lon="1.41585">
        <ele>1383.955078125</ele>
        <time>2012-06-24T05:50:05Z</time>
      </trkpt>
      <trkpt lat="42.71155" lon="1.41583">
        <ele>1382.0324707031</ele>
        <time>2012-06-24T05:50:09Z</time>
      </trkpt>
      <trkpt lat="42.71152" lon="1.41578">
        <ele>1379.1484375</ele>
        <time>2012-06-24T05:50:15Z</time>
      </trkpt>
      <trkpt lat="42.71151" lon="1.41571">
        <ele>1373.861328125</ele>
        <time>2012-06-24T05:50:22Z</time>
      </trkpt>
      <trkpt lat="42.71149" lon="1.41563">
        <ele>1373.861328125</ele>
        <time>2012-06-24T05:50:28Z</time>
      </trkpt>
      <trkpt lat="42.71146" lon="1.41551">
        <ele>1380.1098632812</ele>
        <time>2012-06-24T05:50:35Z</time>
      </trkpt>
      <trkpt lat="42.71146" lon="1.41542">
        <ele>1384.4357910156</ele>
        <time>2012-06-24T05:50:40Z</time>
      </trkpt>
      <trkpt lat="42.71147" lon="1.41534">
        <ele>1389.7231445312</ele>
        <time>2012-06-24T05:50:44Z</time>
      </trkpt>
      <trkpt lat="42.71147" lon="1.41528">
        <ele>1394.5295410156</ele>
        <time>2012-06-24T05:50:48Z</time>
      </trkpt>
      <trkpt lat="42.71143" lon="1.41518">
        <ele>1397.8942871094</ele>
        <time>2012-06-24T05:50:55Z</time>
      </trkpt>
      <trkpt lat="42.7114" lon="1.41511">
        <ele>1401.2587890625</ele>
        <time>2012-06-24T05:51:01Z</time>
      </trkpt>
      <trkpt lat="42.71138" lon="1.41505">
        <ele>1403.662109375</ele>
        <time>2012-06-24T05:51:05Z</time>
      </trkpt>
      <trkpt lat="42.71137" lon="1.41499">
        <ele>1404.1430664062</ele>
        <time>2012-06-24T05:51:09Z</time>
      </trkpt>
      <trkpt lat="42.71139" lon="1.41489">
        <ele>1402.7006835938</ele>
        <time>2012-06-24T05:51:15Z</time>
      </trkpt>
      <trkpt lat="42.7114" lon="1.41488">
        <ele>1402.2199707031</ele>
        <time>2012-06-24T05:51:16Z</time>
      </trkpt>
      <trkpt lat="42.71143" lon="1.41477">
        <ele>1399.8168945312</ele>
        <time>2012-06-24T05:51:23Z</time>
      </trkpt>
      <trkpt lat="42.71151" lon="1.41463">
        <ele>1389.2424316406</ele>
        <time>2012-06-24T05:51:32Z</time>
      </trkpt>
      <trkpt lat="42.71153" lon="1.41451">
        <ele>1395.0102539062</ele>
        <time>2012-06-24T05:51:39Z</time>
      </trkpt>
      <trkpt lat="42.71157" lon="1.41439">
        <ele>1395.4909667969</ele>
        <time>2012-06-24T05:51:47Z</time>
      </trkpt>
      <trkpt lat="42.71162" lon="1.41431">
        <ele>1392.1264648438</ele>
        <time>2012-06-24T05:51:54Z</time>
      </trkpt>
      <trkpt lat="42.71164" lon="1.41422">
        <ele>1396.9328613281</ele>
        <time>2012-06-24T05:52:00Z</time>
      </trkpt>
      <trkpt lat="42.71165" lon="1.41415">
        <ele>1396.4523925781</ele>
        <time>2012-06-24T05:52:06Z</time>
      </trkpt>
      <trkpt lat="42.71167" lon="1.41403">
        <ele>1398.85546875</ele>
        <time>2012-06-24T05:52:13Z</time>
      </trkpt>
      <trkpt lat="42.71168" lon="1.41393">
        <ele>1395.4909667969</ele>
        <time>2012-06-24T05:52:20Z</time>
      </trkpt>
      <trkpt lat="42.71167" lon="1.4138">
        <ele>1396.4523925781</ele>
        <time>2012-06-24T05:52:27Z</time>
      </trkpt>
      <trkpt lat="42.71169" lon="1.41371">
        <ele>1395.0102539062</ele>
        <time>2012-06-24T05:52:34Z</time>
      </trkpt>
      <trkpt lat="42.7117" lon="1.4136">
        <ele>1395.9716796875</ele>
        <time>2012-06-24T05:52:41Z</time>
      </trkpt>
      <trkpt lat="42.7117" lon="1.41355">
        <ele>1395.9716796875</ele>
        <time>2012-06-24T05:52:45Z</time>
      </trkpt>
      <trkpt lat="42.71172" lon="1.41349">
        <ele>1395.4909667969</ele>
        <time>2012-06-24T05:52:49Z</time>
      </trkpt>
      <trkpt lat="42.71173" lon="1.41344">
        <ele>1391.1650390625</ele>
        <time>2012-06-24T05:52:53Z</time>
      </trkpt>
      <trkpt lat="42.71176" lon="1.41334">
        <ele>1390.2038574219</ele>
        <time>2012-06-24T05:53:00Z</time>
      </trkpt>
      <trkpt lat="42.71178" lon="1.4133">
        <ele>1390.6843261719</ele>
        <time>2012-06-24T05:53:03Z</time>
      </trkpt>
      <trkpt lat="42.71179" lon="1.41321">
        <ele>1396.4523925781</ele>
        <time>2012-06-24T05:53:08Z</time>
      </trkpt>
      <trkpt lat="42.71178" lon="1.41309">
        <ele>1404.6235351562</ele>
        <time>2012-06-24T05:53:14Z</time>
      </trkpt>
      <trkpt lat="42.7118" lon="1.41301">
        <ele>1407.5075683594</ele>
        <time>2012-06-24T05:53:19Z</time>
      </trkpt>
      <trkpt lat="42.71183" lon="1.41294">
        <ele>1405.1042480469</ele>
        <time>2012-06-24T05:53:24Z</time>
      </trkpt>
      <trkpt lat="42.71189" lon="1.41282">
        <ele>1403.1813964844</ele>
        <time>2012-06-24T05:53:32Z</time>
      </trkpt>
      <trkpt lat="42.7119" lon="1.4128">
        <ele>1402.7006835938</ele>
        <time>2012-06-24T05:53:33Z</time>
      </trkpt>
      <trkpt lat="42.71193" lon="1.41272">
        <ele>1402.7006835938</ele>
        <time>2012-06-24T05:53:39Z</time>
      </trkpt>
      <trkpt lat="42.71199" lon="1.41261">
        <ele>1401.7395019531</ele>
        <time>2012-06-24T05:53:47Z</time>
      </trkpt>
      <trkpt lat="42.71204" lon="1.41252">
        <ele>1401.2587890625</ele>
        <time>2012-06-24T05:53:53Z</time>
      </trkpt>
      <trkpt lat="42.71209" lon="1.41245">
        <ele>1400.7780761719</ele>
        <time>2012-06-24T05:53:59Z</time>
      </trkpt>
      <trkpt lat="42.71214" lon="1.41241">
        <ele>1400.2976074219</ele>
        <time>2012-06-24T05:54:05Z</time>
      </trkpt>
      <trkpt lat="42.7122" lon="1.41237">
        <ele>1400.7780761719</ele>
        <time>2012-06-24T05:54:11Z</time>
      </trkpt>
      <trkpt lat="42.71226" lon="1.41234">
        <ele>1402.2199707031</ele>
        <time>2012-06-24T05:54:18Z</time>
      </trkpt>
      <trkpt lat="42.71231" lon="1.41226">
        <ele>1402.7006835938</ele>
        <time>2012-06-24T05:54:25Z</time>
      </trkpt>
      <trkpt lat="42.71232" lon="1.41225">
        <ele>1402.7006835938</ele>
        <time>2012-06-24T05:54:26Z</time>
      </trkpt>
      <trkpt lat="42.71236" lon="1.4122">
        <ele>1402.2199707031</ele>
        <time>2012-06-24T05:54:30Z</time>
      </trkpt>
      <trkpt lat="42.71244" lon="1.41212">
        <ele>1402.2199707031</ele>
        <time>2012-06-24T05:54:38Z</time>
      </trkpt>
      <trkpt lat="42.71253" lon="1.41196">
        <ele>1414.7172851562</ele>
        <time>2012-06-24T05:54:49Z</time>
      </trkpt>
      <trkpt lat="42.7126" lon="1.41191">
        <ele>1415.6787109375</ele>
        <time>2012-06-24T05:54:56Z</time>
      </trkpt>
      <trkpt lat="42.71264" lon="1.41185">
        <ele>1413.755859375</ele>
        <time>2012-06-24T05:55:02Z</time>
      </trkpt>
      <trkpt lat="42.71265" lon="1.41179">
        <ele>1408.9494628906</ele>
        <time>2012-06-24T05:55:09Z</time>
      </trkpt>
      <trkpt lat="42.71264" lon="1.41177">
        <ele>1407.5075683594</ele>
        <time>2012-06-24T05:55:14Z</time>
      </trkpt>
      <trkpt lat="42.7126" lon="1.41175">
        <ele>1407.98828125</ele>
        <time>2012-06-24T05:55:19Z</time>
      </trkpt>
      <trkpt lat="42.71255" lon="1.41173">
        <ele>1408.9494628906</ele>
        <time>2012-06-24T05:55:25Z</time>
      </trkpt>
      <trkpt lat="42.71251" lon="1.41172">
        <ele>1409.9106445312</ele>
        <time>2012-06-24T05:55:31Z</time>
      </trkpt>
      <trkpt lat="42.71247" lon="1.41168">
        <ele>1408.9494628906</ele>
        <time>2012-06-24T05:55:37Z</time>
      </trkpt>
      <trkpt lat="42.71244" lon="1.41156">
        <ele>1407.0268554688</ele>
        <time>2012-06-24T05:55:45Z</time>
      </trkpt>
      <trkpt lat="42.71241" lon="1.41142">
        <ele>1408.9494628906</ele>
        <time>2012-06-24T05:55:53Z</time>
      </trkpt>
      <trkpt lat="42.71239" lon="1.41126">
        <ele>1414.2365722656</ele>
        <time>2012-06-24T05:56:01Z</time>
      </trkpt>
      <trkpt lat="42.71238" lon="1.41112">
        <ele>1419.0432128906</ele>
        <time>2012-06-24T05:56:08Z</time>
      </trkpt>
      <trkpt lat="42.71238" lon="1.41101">
        <ele>1414.7172851562</ele>
        <time>2012-06-24T05:56:16Z</time>
      </trkpt>
      <trkpt lat="42.71236" lon="1.41098">
        <ele>1413.755859375</ele>
        <time>2012-06-24T05:56:19Z</time>
      </trkpt>
      <trkpt lat="42.71236" lon="1.41088">
        <ele>1413.275390625</ele>
        <time>2012-06-24T05:56:24Z</time>
      </trkpt>
      <trkpt lat="42.71235" lon="1.41072">
        <ele>1418.5625</ele>
        <time>2012-06-24T05:56:34Z</time>
      </trkpt>
      <trkpt lat="42.71236" lon="1.41063">
        <ele>1418.0817871094</ele>
        <time>2012-06-24T05:56:40Z</time>
      </trkpt>
      <trkpt lat="42.71237" lon="1.41055">
        <ele>1415.6787109375</ele>
        <time>2012-06-24T05:56:45Z</time>
      </trkpt>
      <trkpt lat="42.71239" lon="1.4104">
        <ele>1416.1591796875</ele>
        <time>2012-06-24T05:56:54Z</time>
      </trkpt>
      <trkpt lat="42.71241" lon="1.41036">
        <ele>1415.1979980469</ele>
        <time>2012-06-24T05:56:56Z</time>
      </trkpt>
      <trkpt lat="42.71249" lon="1.41023">
        <ele>1418.5625</ele>
        <time>2012-06-24T05:57:04Z</time>
      </trkpt>
      <trkpt lat="42.71252" lon="1.41008">
        <ele>1425.2917480469</ele>
        <time>2012-06-24T05:57:11Z</time>
      </trkpt>
      <trkpt lat="42.71252" lon="1.40999">
        <ele>1428.6564941406</ele>
        <time>2012-06-24T05:57:16Z</time>
      </trkpt>
      <trkpt lat="42.71251" lon="1.40995">
        <ele>1422.888671875</ele>
        <time>2012-06-24T05:57:22Z</time>
      </trkpt>
      <trkpt lat="42.71247" lon="1.4099">
        <ele>1420.4853515625</ele>
        <time>2012-06-24T05:57:30Z</time>
      </trkpt>
      <trkpt lat="42.71244" lon="1.40986">
        <ele>1418.5625</ele>
        <time>2012-06-24T05:57:36Z</time>
      </trkpt>
      <trkpt lat="42.71239" lon="1.40975">
        <ele>1417.1206054688</ele>
        <time>2012-06-24T05:57:46Z</time>
      </trkpt>
      <trkpt lat="42.71236" lon="1.40967">
        <ele>1417.1206054688</ele>
        <time>2012-06-24T05:57:53Z</time>
      </trkpt>
      <trkpt lat="42.71237" lon="1.40962">
        <ele>1417.6010742188</ele>
        <time>2012-06-24T05:58:00Z</time>
      </trkpt>
      <trkpt lat="42.71235" lon="1.40957">
        <ele>1418.0817871094</ele>
        <time>2012-06-24T05:58:14Z</time>
      </trkpt>
      <trkpt lat="42.71231" lon="1.40944">
        <ele>1417.6010742188</ele>
        <time>2012-06-24T05:58:23Z</time>
      </trkpt>
      <trkpt lat="42.71227" lon="1.40926">
        <ele>1418.5625</ele>
        <time>2012-06-24T05:58:33Z</time>
      </trkpt>
      <trkpt lat="42.71224" lon="1.40913">
        <ele>1418.5625</ele>
        <time>2012-06-24T05:58:41Z</time>
      </trkpt>
      <trkpt lat="42.71218" lon="1.40902">
        <ele>1418.5625</ele>
        <time>2012-06-24T05:58:48Z</time>
      </trkpt>
      <trkpt lat="42.71214" lon="1.4089">
        <ele>1420.0046386719</ele>
        <time>2012-06-24T05:58:56Z</time>
      </trkpt>
      <trkpt lat="42.71212" lon="1.40881">
        <ele>1421.4465332031</ele>
        <time>2012-06-24T05:59:02Z</time>
      </trkpt>
      <trkpt lat="42.71206" lon="1.40867">
        <ele>1422.888671875</ele>
        <time>2012-06-24T05:59:11Z</time>
      </trkpt>
      <trkpt lat="42.71199" lon="1.40854">
        <ele>1423.3693847656</ele>
        <time>2012-06-24T05:59:20Z</time>
      </trkpt>
      <trkpt lat="42.71195" lon="1.40843">
        <ele>1424.3305664062</ele>
        <time>2012-06-24T05:59:27Z</time>
      </trkpt>
      <trkpt lat="42.71188" lon="1.40827">
        <ele>1426.2531738281</ele>
        <time>2012-06-24T05:59:38Z</time>
      </trkpt>
      <trkpt lat="42.71188" lon="1.40825">
        <ele>1425.7724609375</ele>
        <time>2012-06-24T05:59:46Z</time>
      </trkpt>
      <trkpt lat="42.71182" lon="1.40816">
        <ele>1426.7338867188</ele>
        <time>2012-06-24T05:59:53Z</time>
      </trkpt>
      <trkpt lat="42.71177" lon="1.40805">
        <ele>1427.6950683594</ele>
        <time>2012-06-24T06:00:01Z</time>
      </trkpt>
      <trkpt lat="42.71173" lon="1.40795">
        <ele>1427.6950683594</ele>
        <time>2012-06-24T06:00:08Z</time>
      </trkpt>
      <trkpt lat="42.7117" lon="1.40787">
        <ele>1426.7338867188</ele>
        <time>2012-06-24T06:00:14Z</time>
      </trkpt>
      <trkpt lat="42.71166" lon="1.40779">
        <ele>1426.2531738281</ele>
        <time>2012-06-24T06:00:21Z</time>
      </trkpt>
      <trkpt lat="42.71161" lon="1.4077">
        <ele>1425.2917480469</ele>
        <time>2012-06-24T06:00:28Z</time>
      </trkpt>
      <trkpt lat="42.71158" lon="1.40766">
        <ele>1424.8112792969</ele>
        <time>2012-06-24T06:00:31Z</time>
      </trkpt>
      <trkpt lat="42.71155" lon="1.40758">
        <ele>1423.8498535156</ele>
        <time>2012-06-24T06:00:39Z</time>
      </trkpt>
      <trkpt lat="42.71152" lon="1.40752">
        <ele>1422.4079589844</ele>
        <time>2012-06-24T06:00:43Z</time>
      </trkpt>
      <trkpt lat="42.71151" lon="1.40747">
        <ele>1421.4465332031</ele>
        <time>2012-06-24T06:00:47Z</time>
      </trkpt>
      <trkpt lat="42.71146" lon="1.40742">
        <ele>1420.9660644531</ele>
        <time>2012-06-24T06:00:53Z</time>
      </trkpt>
      <trkpt lat="42.71144" lon="1.40739">
        <ele>1420.9660644531</ele>
        <time>2012-06-24T06:00:56Z</time>
      </trkpt>
      <trkpt lat="42.71139" lon="1.40731">
        <ele>1420.4853515625</ele>
        <time>2012-06-24T06:01:02Z</time>
      </trkpt>
      <trkpt lat="42.71135" lon="1.40718">
        <ele>1421.4465332031</ele>
        <time>2012-06-24T06:01:11Z</time>
      </trkpt>
      <trkpt lat="42.71135" lon="1.4071">
        <ele>1421.4465332031</ele>
        <time>2012-06-24T06:01:17Z</time>
      </trkpt>
      <trkpt lat="42.71132" lon="1.40702">
        <ele>1422.4079589844</ele>
        <time>2012-06-24T06:01:23Z</time>
      </trkpt>
      <trkpt lat="42.71131" lon="1.40694">
        <ele>1422.888671875</ele>
        <time>2012-06-24T06:01:29Z</time>
      </trkpt>
      <trkpt lat="42.71128" lon="1.40686">
        <ele>1421.9272460938</ele>
        <time>2012-06-24T06:01:34Z</time>
      </trkpt>
      <trkpt lat="42.71128" lon="1.40675">
        <ele>1423.3693847656</ele>
        <time>2012-06-24T06:01:40Z</time>
      </trkpt>
      <trkpt lat="42.71126" lon="1.4067">
        <ele>1422.4079589844</ele>
        <time>2012-06-24T06:01:44Z</time>
      </trkpt>
      <trkpt lat="42.71123" lon="1.40659">
        <ele>1421.9272460938</ele>
        <time>2012-06-24T06:01:51Z</time>
      </trkpt>
      <trkpt lat="42.71121" lon="1.40649">
        <ele>1422.4079589844</ele>
        <time>2012-06-24T06:01:57Z</time>
      </trkpt>
      <trkpt lat="42.7112" lon="1.40649">
        <ele>1421.9272460938</ele>
        <time>2012-06-24T06:01:58Z</time>
      </trkpt>
      <trkpt lat="42.71118" lon="1.40635">
        <ele>1423.3693847656</ele>
        <time>2012-06-24T06:02:08Z</time>
      </trkpt>
      <trkpt lat="42.71119" lon="1.40625">
        <ele>1425.2917480469</ele>
        <time>2012-06-24T06:02:16Z</time>
      </trkpt>
      <trkpt lat="42.71119" lon="1.40615">
        <ele>1425.2917480469</ele>
        <time>2012-06-24T06:02:23Z</time>
      </trkpt>
      <trkpt lat="42.71119" lon="1.40608">
        <ele>1425.2917480469</ele>
        <time>2012-06-24T06:02:28Z</time>
      </trkpt>
      <trkpt lat="42.71119" lon="1.40597">
        <ele>1425.2917480469</ele>
        <time>2012-06-24T06:02:35Z</time>
      </trkpt>
      <trkpt lat="42.71119" lon="1.40594">
        <ele>1424.8112792969</ele>
        <time>2012-06-24T06:02:38Z</time>
      </trkpt>
      <trkpt lat="42.71117" lon="1.40586">
        <ele>1424.3305664062</ele>
        <time>2012-06-24T06:02:44Z</time>
      </trkpt>
      <trkpt lat="42.71117" lon="1.40575">
        <ele>1422.888671875</ele>
        <time>2012-06-24T06:02:51Z</time>
      </trkpt>
      <trkpt lat="42.71119" lon="1.40563">
        <ele>1423.3693847656</ele>
        <time>2012-06-24T06:02:58Z</time>
      </trkpt>
      <trkpt lat="42.71119" lon="1.4055">
        <ele>1424.3305664062</ele>
        <time>2012-06-24T06:03:07Z</time>
      </trkpt>
      <trkpt lat="42.71119" lon="1.40544">
        <ele>1423.3693847656</ele>
        <time>2012-06-24T06:03:13Z</time>
      </trkpt>
      <trkpt lat="42.71117" lon="1.40537">
        <ele>1424.8112792969</ele>
        <time>2012-06-24T06:03:18Z</time>
      </trkpt>
      <trkpt lat="42.71116" lon="1.40534">
        <ele>1423.8498535156</ele>
        <time>2012-06-24T06:03:21Z</time>
      </trkpt>
      <trkpt lat="42.71115" lon="1.40528">
        <ele>1422.888671875</ele>
        <time>2012-06-24T06:03:25Z</time>
      </trkpt>
      <trkpt lat="42.71117" lon="1.40523">
        <ele>1422.4079589844</ele>
        <time>2012-06-24T06:03:28Z</time>
      </trkpt>
      <trkpt lat="42.71117" lon="1.40516">
        <ele>1425.2917480469</ele>
        <time>2012-06-24T06:03:34Z</time>
      </trkpt>
      <trkpt lat="42.71118" lon="1.40507">
        <ele>1424.3305664062</ele>
        <time>2012-06-24T06:03:41Z</time>
      </trkpt>
      <trkpt lat="42.71119" lon="1.40499">
        <ele>1422.4079589844</ele>
        <time>2012-06-24T06:03:46Z</time>
      </trkpt>
      <trkpt lat="42.7112" lon="1.40494">
        <ele>1421.4465332031</ele>
        <time>2012-06-24T06:03:50Z</time>
      </trkpt>
      <trkpt lat="42.71122" lon="1.40482">
        <ele>1419.5239257812</ele>
        <time>2012-06-24T06:03:59Z</time>
      </trkpt>
      <trkpt lat="42.71124" lon="1.40473">
        <ele>1417.1206054688</ele>
        <time>2012-06-24T06:04:07Z</time>
      </trkpt>
      <trkpt lat="42.71125" lon="1.40468">
        <ele>1416.6398925781</ele>
        <time>2012-06-24T06:04:10Z</time>
      </trkpt>
      <trkpt lat="42.71131" lon="1.40458">
        <ele>1416.6398925781</ele>
        <time>2012-06-24T06:04:18Z</time>
      </trkpt>
      <trkpt lat="42.71134" lon="1.40448">
        <ele>1414.7172851562</ele>
        <time>2012-06-24T06:04:26Z</time>
      </trkpt>
      <trkpt lat="42.71136" lon="1.40438">
        <ele>1414.2365722656</ele>
        <time>2012-06-24T06:04:33Z</time>
      </trkpt>
      <trkpt lat="42.71138" lon="1.40427">
        <ele>1413.755859375</ele>
        <time>2012-06-24T06:04:40Z</time>
      </trkpt>
      <trkpt lat="42.71139" lon="1.40417">
        <ele>1413.275390625</ele>
        <time>2012-06-24T06:04:46Z</time>
      </trkpt>
      <trkpt lat="42.7114" lon="1.40409">
        <ele>1412.3139648438</ele>
        <time>2012-06-24T06:04:53Z</time>
      </trkpt>
      <trkpt lat="42.71142" lon="1.40401">
        <ele>1410.8720703125</ele>
        <time>2012-06-24T06:05:01Z</time>
      </trkpt>
      <trkpt lat="42.71141" lon="1.40396">
        <ele>1408.9494628906</ele>
        <time>2012-06-24T06:05:07Z</time>
      </trkpt>
      <trkpt lat="42.71144" lon="1.40389">
        <ele>1407.98828125</ele>
        <time>2012-06-24T06:05:14Z</time>
      </trkpt>
      <trkpt lat="42.71147" lon="1.40388">
        <ele>1407.98828125</ele>
        <time>2012-06-24T06:05:20Z</time>
      </trkpt>
      <trkpt lat="42.71149" lon="1.40382">
        <ele>1407.0268554688</ele>
        <time>2012-06-24T06:05:27Z</time>
      </trkpt>
      <trkpt lat="42.71154" lon="1.40375">
        <ele>1406.0654296875</ele>
        <time>2012-06-24T06:05:34Z</time>
      </trkpt>
      <trkpt lat="42.71156" lon="1.40373">
        <ele>1405.1042480469</ele>
        <time>2012-06-24T06:05:36Z</time>
      </trkpt>
      <trkpt lat="42.71162" lon="1.40366">
        <ele>1403.662109375</ele>
        <time>2012-06-24T06:05:43Z</time>
      </trkpt>
      <trkpt lat="42.71168" lon="1.40358">
        <ele>1404.6235351562</ele>
        <time>2012-06-24T06:05:50Z</time>
      </trkpt>
      <trkpt lat="42.71169" lon="1.40357">
        <ele>1405.1042480469</ele>
        <time>2012-06-24T06:05:51Z</time>
      </trkpt>
      <trkpt lat="42.71176" lon="1.40348">
        <ele>1406.0654296875</ele>
        <time>2012-06-24T06:05:59Z</time>
      </trkpt>
      <trkpt lat="42.71182" lon="1.40343">
        <ele>1406.0654296875</ele>
        <time>2012-06-24T06:06:05Z</time>
      </trkpt>
      <trkpt lat="42.71192" lon="1.40334">
        <ele>1406.5461425781</ele>
        <time>2012-06-24T06:06:15Z</time>
      </trkpt>
      <trkpt lat="42.71202" lon="1.40326">
        <ele>1407.98828125</ele>
        <time>2012-06-24T06:06:25Z</time>
      </trkpt>
      <trkpt lat="42.7121" lon="1.40319">
        <ele>1409.9106445312</ele>
        <time>2012-06-24T06:06:33Z</time>
      </trkpt>
      <trkpt lat="42.71215" lon="1.40315">
        <ele>1410.3913574219</ele>
        <time>2012-06-24T06:06:38Z</time>
      </trkpt>
      <trkpt lat="42.71223" lon="1.40308">
        <ele>1411.3527832031</ele>
        <time>2012-06-24T06:06:46Z</time>
      </trkpt>
      <trkpt lat="42.7123" lon="1.40298">
        <ele>1410.3913574219</ele>
        <time>2012-06-24T06:06:55Z</time>
      </trkpt>
      <trkpt lat="42.71233" lon="1.40294">
        <ele>1410.3913574219</ele>
        <time>2012-06-24T06:06:58Z</time>
      </trkpt>
      <trkpt lat="42.71243" lon="1.40288">
        <ele>1410.8720703125</ele>
        <time>2012-06-24T06:07:07Z</time>
      </trkpt>
      <trkpt lat="42.7125" lon="1.40282">
        <ele>1411.8334960938</ele>
        <time>2012-06-24T06:07:14Z</time>
      </trkpt>
      <trkpt lat="42.7125" lon="1.40281">
        <ele>1410.8720703125</ele>
        <time>2012-06-24T06:07:23Z</time>
      </trkpt>
      <trkpt lat="42.7125" lon="1.40274">
        <ele>1409.9106445312</ele>
        <time>2012-06-24T06:07:28Z</time>
      </trkpt>
      <trkpt lat="42.7125" lon="1.40264">
        <ele>1409.9106445312</ele>
        <time>2012-06-24T06:07:34Z</time>
      </trkpt>
      <trkpt lat="42.71252" lon="1.40254">
        <ele>1411.3527832031</ele>
        <time>2012-06-24T06:07:40Z</time>
      </trkpt>
      <trkpt lat="42.71253" lon="1.40255">
        <ele>1408.46875</ele>
        <time>2012-06-24T06:07:48Z</time>
      </trkpt>
      <trkpt lat="42.71254" lon="1.40257">
        <ele>1407.98828125</ele>
        <time>2012-06-24T06:07:53Z</time>
      </trkpt>
      <trkpt lat="42.71254" lon="1.40268">
        <ele>1408.9494628906</ele>
        <time>2012-06-24T06:08:00Z</time>
      </trkpt>
      <trkpt lat="42.71254" lon="1.40279">
        <ele>1409.9106445312</ele>
        <time>2012-06-24T06:08:08Z</time>
      </trkpt>
      <trkpt lat="42.71254" lon="1.40281">
        <ele>1409.4301757812</ele>
        <time>2012-06-24T06:08:13Z</time>
      </trkpt>
      <trkpt lat="42.71258" lon="1.40278">
        <ele>1407.98828125</ele>
        <time>2012-06-24T06:08:17Z</time>
      </trkpt>
      <trkpt lat="42.71265" lon="1.40271">
        <ele>1409.9106445312</ele>
        <time>2012-06-24T06:08:23Z</time>
      </trkpt>
      <trkpt lat="42.71272" lon="1.40268">
        <ele>1409.9106445312</ele>
        <time>2012-06-24T06:08:29Z</time>
      </trkpt>
      <trkpt lat="42.71273" lon="1.40267">
        <ele>1409.9106445312</ele>
        <time>2012-06-24T06:08:30Z</time>
      </trkpt>
      <trkpt lat="42.71279" lon="1.40265">
        <ele>1410.8720703125</ele>
        <time>2012-06-24T06:08:37Z</time>
      </trkpt>
      <trkpt lat="42.71284" lon="1.40263">
        <ele>1410.8720703125</ele>
        <time>2012-06-24T06:08:42Z</time>
      </trkpt>
      <trkpt lat="42.71291" lon="1.40261">
        <ele>1411.8334960938</ele>
        <time>2012-06-24T06:08:48Z</time>
      </trkpt>
      <trkpt lat="42.71297" lon="1.4026">
        <ele>1414.2365722656</ele>
        <time>2012-06-24T06:08:59Z</time>
      </trkpt>
      <trkpt lat="42.71301" lon="1.4026">
        <ele>1415.6787109375</ele>
        <time>2012-06-24T06:09:06Z</time>
      </trkpt>
      <trkpt lat="42.71304" lon="1.40258">
        <ele>1415.6787109375</ele>
        <time>2012-06-24T06:09:16Z</time>
      </trkpt>
      <trkpt lat="42.71308" lon="1.40255">
        <ele>1416.6398925781</ele>
        <time>2012-06-24T06:09:21Z</time>
      </trkpt>
      <trkpt lat="42.71313" lon="1.40252">
        <ele>1417.6010742188</ele>
        <time>2012-06-24T06:09:27Z</time>
      </trkpt>
      <trkpt lat="42.71318" lon="1.40252">
        <ele>1418.5625</ele>
        <time>2012-06-24T06:09:33Z</time>
      </trkpt>
      <trkpt lat="42.71324" lon="1.40251">
        <ele>1420.0046386719</ele>
        <time>2012-06-24T06:09:39Z</time>
      </trkpt>
      <trkpt lat="42.71328" lon="1.40252">
        <ele>1420.9660644531</ele>
        <time>2012-06-24T06:09:44Z</time>
      </trkpt>
      <trkpt lat="42.71331" lon="1.40251">
        <ele>1423.8498535156</ele>
        <time>2012-06-24T06:09:49Z</time>
      </trkpt>
      <trkpt lat="42.71336" lon="1.40247">
        <ele>1426.2531738281</ele>
        <time>2012-06-24T06:09:55Z</time>
      </trkpt>
      <trkpt lat="42.71342" lon="1.40245">
        <ele>1427.6950683594</ele>
        <time>2012-06-24T06:10:02Z</time>
      </trkpt>
      <trkpt lat="42.71344" lon="1.40247">
        <ele>1429.6176757812</ele>
        <time>2012-06-24T06:10:09Z</time>
      </trkpt>
      <trkpt lat="42.71348" lon="1.40247">
        <ele>1432.0209960938</ele>
        <time>2012-06-24T06:10:15Z</time>
      </trkpt>
      <trkpt lat="42.71351" lon="1.40247">
        <ele>1432.5017089844</ele>
        <time>2012-06-24T06:10:20Z</time>
      </trkpt>
      <trkpt lat="42.71354" lon="1.40249">
        <ele>1433.462890625</ele>
        <time>2012-06-24T06:10:26Z</time>
      </trkpt>
      <trkpt lat="42.71358" lon="1.40245">
        <ele>1434.4243164062</ele>
        <time>2012-06-24T06:10:32Z</time>
      </trkpt>
      <trkpt lat="42.71363" lon="1.40242">
        <ele>1435.3854980469</ele>
        <time>2012-06-24T06:10:38Z</time>
      </trkpt>
      <trkpt lat="42.71369" lon="1.4024">
        <ele>1436.3471679688</ele>
        <time>2012-06-24T06:10:45Z</time>
      </trkpt>
      <trkpt lat="42.71375" lon="1.40234">
        <ele>1437.3083496094</ele>
        <time>2012-06-24T06:10:52Z</time>
      </trkpt>
      <trkpt lat="42.71379" lon="1.40233">
        <ele>1437.7890625</ele>
        <time>2012-06-24T06:10:56Z</time>
      </trkpt>
      <trkpt lat="42.71382" lon="1.40229">
        <ele>1437.7890625</ele>
        <time>2012-06-24T06:11:03Z</time>
      </trkpt>
      <trkpt lat="42.71387" lon="1.40224">
        <ele>1439.2309570312</ele>
        <time>2012-06-24T06:11:08Z</time>
      </trkpt>
      <trkpt lat="42.71395" lon="1.4022">
        <ele>1441.1535644531</ele>
        <time>2012-06-24T06:11:16Z</time>
      </trkpt>
      <trkpt lat="42.71402" lon="1.4022">
        <ele>1441.6342773438</ele>
        <time>2012-06-24T06:11:22Z</time>
      </trkpt>
      <trkpt lat="42.71402" lon="1.4022">
        <ele>1442.1149902344</ele>
        <time>2012-06-24T06:11:23Z</time>
      </trkpt>
      <trkpt lat="42.71409" lon="1.40219">
        <ele>1442.595703125</ele>
        <time>2012-06-24T06:11:30Z</time>
      </trkpt>
      <trkpt lat="42.71413" lon="1.40219">
        <ele>1443.5568847656</ele>
        <time>2012-06-24T06:11:36Z</time>
      </trkpt>
      <trkpt lat="42.71417" lon="1.40221">
        <ele>1444.9987792969</ele>
        <time>2012-06-24T06:11:43Z</time>
      </trkpt>
      <trkpt lat="42.7142" lon="1.40222">
        <ele>1445.4794921875</ele>
        <time>2012-06-24T06:11:49Z</time>
      </trkpt>
      <trkpt lat="42.71423" lon="1.40223">
        <ele>1446.9213867188</ele>
        <time>2012-06-24T06:11:55Z</time>
      </trkpt>
      <trkpt lat="42.71428" lon="1.40222">
        <ele>1448.36328125</ele>
        <time>2012-06-24T06:12:02Z</time>
      </trkpt>
      <trkpt lat="42.71432" lon="1.4022">
        <ele>1449.3247070312</ele>
        <time>2012-06-24T06:12:08Z</time>
      </trkpt>
      <trkpt lat="42.71437" lon="1.40218">
        <ele>1451.2473144531</ele>
        <time>2012-06-24T06:12:16Z</time>
      </trkpt>
      <trkpt lat="42.71442" lon="1.40216">
        <ele>1452.2087402344</ele>
        <time>2012-06-24T06:12:23Z</time>
      </trkpt>
      <trkpt lat="42.71447" lon="1.40214">
        <ele>1453.1701660156</ele>
        <time>2012-06-24T06:12:29Z</time>
      </trkpt>
      <trkpt lat="42.7145" lon="1.40214">
        <ele>1454.6120605469</ele>
        <time>2012-06-24T06:12:35Z</time>
      </trkpt>
      <trkpt lat="42.71452" lon="1.40213">
        <ele>1455.5734863281</ele>
        <time>2012-06-24T06:12:41Z</time>
      </trkpt>
      <trkpt lat="42.71454" lon="1.40211">
        <ele>1456.5346679688</ele>
        <time>2012-06-24T06:12:48Z</time>
      </trkpt>
      <trkpt lat="42.71457" lon="1.4021">
        <ele>1457.0153808594</ele>
        <time>2012-06-24T06:12:54Z</time>
      </trkpt>
      <trkpt lat="42.7146" lon="1.40206">
        <ele>1457.9768066406</ele>
        <time>2012-06-24T06:13:00Z</time>
      </trkpt>
      <trkpt lat="42.71464" lon="1.402">
        <ele>1458.4572753906</ele>
        <time>2012-06-24T06:13:07Z</time>
      </trkpt>
      <trkpt lat="42.71469" lon="1.40197">
        <ele>1459.4187011719</ele>
        <time>2012-06-24T06:13:12Z</time>
      </trkpt>
      <trkpt lat="42.71474" lon="1.40198">
        <ele>1460.3798828125</ele>
        <time>2012-06-24T06:13:18Z</time>
      </trkpt>
      <trkpt lat="42.71478" lon="1.40198">
        <ele>1461.3413085938</ele>
        <time>2012-06-24T06:13:23Z</time>
      </trkpt>
      <trkpt lat="42.71481" lon="1.40194">
        <ele>1460.3798828125</ele>
        <time>2012-06-24T06:13:29Z</time>
      </trkpt>
      <trkpt lat="42.71485" lon="1.4019">
        <ele>1460.3798828125</ele>
        <time>2012-06-24T06:13:34Z</time>
      </trkpt>
      <trkpt lat="42.71489" lon="1.40187">
        <ele>1460.8605957031</ele>
        <time>2012-06-24T06:13:40Z</time>
      </trkpt>
      <trkpt lat="42.71494" lon="1.40184">
        <ele>1463.2639160156</ele>
        <time>2012-06-24T06:13:47Z</time>
      </trkpt>
      <trkpt lat="42.71498" lon="1.40179">
        <ele>1463.2639160156</ele>
        <time>2012-06-24T06:13:53Z</time>
      </trkpt>
      <trkpt lat="42.71504" lon="1.40172">
        <ele>1464.2250976562</ele>
        <time>2012-06-24T06:14:01Z</time>
      </trkpt>
      <trkpt lat="42.71509" lon="1.40164">
        <ele>1464.7058105469</ele>
        <time>2012-06-24T06:14:09Z</time>
      </trkpt>
      <trkpt lat="42.71511" lon="1.40158">
        <ele>1465.1865234375</ele>
        <time>2012-06-24T06:14:16Z</time>
      </trkpt>
      <trkpt lat="42.71514" lon="1.40154">
        <ele>1466.1477050781</ele>
        <time>2012-06-24T06:14:22Z</time>
      </trkpt>
      <trkpt lat="42.71516" lon="1.40151">
        <ele>1466.1477050781</ele>
        <time>2012-06-24T06:14:29Z</time>
      </trkpt>
      <trkpt lat="42.71521" lon="1.40147">
        <ele>1468.0705566406</ele>
        <time>2012-06-24T06:14:35Z</time>
      </trkpt>
      <trkpt lat="42.71524" lon="1.40147">
        <ele>1469.9931640625</ele>
        <time>2012-06-24T06:14:40Z</time>
      </trkpt>
      <trkpt lat="42.71525" lon="1.40147">
        <ele>1471.9157714844</ele>
        <time>2012-06-24T06:14:47Z</time>
      </trkpt>
      <trkpt lat="42.71529" lon="1.40144">
        <ele>1473.3579101562</ele>
        <time>2012-06-24T06:14:53Z</time>
      </trkpt>
      <trkpt lat="42.71529" lon="1.40144">
        <ele>1473.3579101562</ele>
        <time>2012-06-24T06:15:08Z</time>
      </trkpt>
      <trkpt lat="42.7153" lon="1.40146">
        <ele>1472.8771972656</ele>
        <time>2012-06-24T06:15:14Z</time>
      </trkpt>
      <trkpt lat="42.71533" lon="1.40144">
        <ele>1472.396484375</ele>
        <time>2012-06-24T06:15:19Z</time>
      </trkpt>
      <trkpt lat="42.71535" lon="1.4014">
        <ele>1476.2416992188</ele>
        <time>2012-06-24T06:15:24Z</time>
      </trkpt>
      <trkpt lat="42.71538" lon="1.40138">
        <ele>1478.6450195312</ele>
        <time>2012-06-24T06:15:29Z</time>
      </trkpt>
      <trkpt lat="42.71542" lon="1.40135">
        <ele>1480.0869140625</ele>
        <time>2012-06-24T06:15:34Z</time>
      </trkpt>
      <trkpt lat="42.71548" lon="1.40129">
        <ele>1482.490234375</ele>
        <time>2012-06-24T06:15:42Z</time>
      </trkpt>
      <trkpt lat="42.71553" lon="1.40125">
        <ele>1483.4514160156</ele>
        <time>2012-06-24T06:15:48Z</time>
      </trkpt>
      <trkpt lat="42.71558" lon="1.4012">
        <ele>1484.4130859375</ele>
        <time>2012-06-24T06:15:55Z</time>
      </trkpt>
      <trkpt lat="42.71564" lon="1.40115">
        <ele>1484.4130859375</ele>
        <time>2012-06-24T06:16:01Z</time>
      </trkpt>
      <trkpt lat="42.71568" lon="1.40109">
        <ele>1484.4130859375</ele>
        <time>2012-06-24T06:16:08Z</time>
      </trkpt>
      <trkpt lat="42.71574" lon="1.40101">
        <ele>1484.8937988281</ele>
        <time>2012-06-24T06:16:15Z</time>
      </trkpt>
      <trkpt lat="42.71579" lon="1.40093">
        <ele>1485.8549804688</ele>
        <time>2012-06-24T06:16:23Z</time>
      </trkpt>
      <trkpt lat="42.71587" lon="1.40088">
        <ele>1486.8161621094</ele>
        <time>2012-06-24T06:16:31Z</time>
      </trkpt>
      <trkpt lat="42.71591" lon="1.40086">
        <ele>1488.2583007812</ele>
        <time>2012-06-24T06:16:35Z</time>
      </trkpt>
      <trkpt lat="42.71599" lon="1.40082">
        <ele>1490.6613769531</ele>
        <time>2012-06-24T06:16:43Z</time>
      </trkpt>
      <trkpt lat="42.71603" lon="1.4008">
        <ele>1492.103515625</ele>
        <time>2012-06-24T06:16:48Z</time>
      </trkpt>
      <trkpt lat="42.71607" lon="1.40078">
        <ele>1493.0646972656</ele>
        <time>2012-06-24T06:16:54Z</time>
      </trkpt>
      <trkpt lat="42.71611" lon="1.4008">
        <ele>1494.5065917969</ele>
        <time>2012-06-24T06:17:00Z</time>
      </trkpt>
      <trkpt lat="42.71614" lon="1.40081">
        <ele>1494.9873046875</ele>
        <time>2012-06-24T06:17:05Z</time>
      </trkpt>
      <trkpt lat="42.71618" lon="1.4008">
        <ele>1496.4294433594</ele>
        <time>2012-06-24T06:17:11Z</time>
      </trkpt>
      <trkpt lat="42.71621" lon="1.4008">
        <ele>1496.9099121094</ele>
        <time>2012-06-24T06:17:16Z</time>
      </trkpt>
      <trkpt lat="42.71622" lon="1.40083">
        <ele>1498.3518066406</ele>
        <time>2012-06-24T06:17:21Z</time>
      </trkpt>
      <trkpt lat="42.71624" lon="1.40086">
        <ele>1500.2749023438</ele>
        <time>2012-06-24T06:17:26Z</time>
      </trkpt>
      <trkpt lat="42.71626" lon="1.40087">
        <ele>1500.2749023438</ele>
        <time>2012-06-24T06:17:31Z</time>
      </trkpt>
      <trkpt lat="42.71629" lon="1.40087">
        <ele>1500.7553710938</ele>
        <time>2012-06-24T06:17:36Z</time>
      </trkpt>
      <trkpt lat="42.71631" lon="1.40087">
        <ele>1501.2360839844</ele>
        <time>2012-06-24T06:17:42Z</time>
      </trkpt>
      <trkpt lat="42.71634" lon="1.40085">
        <ele>1501.716796875</ele>
        <time>2012-06-24T06:17:49Z</time>
      </trkpt>
      <trkpt lat="42.71636" lon="1.4008">
        <ele>1502.6779785156</ele>
        <time>2012-06-24T06:17:55Z</time>
      </trkpt>
      <trkpt lat="42.71639" lon="1.40075">
        <ele>1504.1201171875</ele>
        <time>2012-06-24T06:18:01Z</time>
      </trkpt>
      <trkpt lat="42.71642" lon="1.40076">
        <ele>1504.6005859375</ele>
        <time>2012-06-24T06:18:06Z</time>
      </trkpt>
      <trkpt lat="42.71643" lon="1.40077">
        <ele>1506.5231933594</ele>
        <time>2012-06-24T06:18:10Z</time>
      </trkpt>
      <trkpt lat="42.71649" lon="1.40075">
        <ele>1508.4458007812</ele>
        <time>2012-06-24T06:18:18Z</time>
      </trkpt>
      <trkpt lat="42.71651" lon="1.40075">
        <ele>1508.9265136719</ele>
        <time>2012-06-24T06:18:25Z</time>
      </trkpt>
      <trkpt lat="42.71653" lon="1.40075">
        <ele>1509.8876953125</ele>
        <time>2012-06-24T06:18:30Z</time>
      </trkpt>
      <trkpt lat="42.71656" lon="1.40075">
        <ele>1511.810546875</ele>
        <time>2012-06-24T06:18:36Z</time>
      </trkpt>
      <trkpt lat="42.71655" lon="1.40079">
        <ele>1512.291015625</ele>
        <time>2012-06-24T06:18:41Z</time>
      </trkpt>
      <trkpt lat="42.71653" lon="1.40086">
        <ele>1513.7329101562</ele>
        <time>2012-06-24T06:18:47Z</time>
      </trkpt>
      <trkpt lat="42.71651" lon="1.40094">
        <ele>1514.2136230469</ele>
        <time>2012-06-24T06:18:55Z</time>
      </trkpt>
      <trkpt lat="42.7165" lon="1.40102">
        <ele>1516.6171875</ele>
        <time>2012-06-24T06:19:02Z</time>
      </trkpt>
      <trkpt lat="42.71647" lon="1.40107">
        <ele>1518.0590820312</ele>
        <time>2012-06-24T06:19:09Z</time>
      </trkpt>
      <trkpt lat="42.71645" lon="1.40114">
        <ele>1520.4624023438</ele>
        <time>2012-06-24T06:19:16Z</time>
      </trkpt>
      <trkpt lat="42.71642" lon="1.40119">
        <ele>1521.4235839844</ele>
        <time>2012-06-24T06:19:21Z</time>
      </trkpt>
      <trkpt lat="42.71637" lon="1.40126">
        <ele>1522.3850097656</ele>
        <time>2012-06-24T06:19:29Z</time>
      </trkpt>
      <trkpt lat="42.71634" lon="1.4013">
        <ele>1522.8657226562</ele>
        <time>2012-06-24T06:19:34Z</time>
      </trkpt>
      <trkpt lat="42.71631" lon="1.40133">
        <ele>1523.3464355469</ele>
        <time>2012-06-24T06:19:39Z</time>
      </trkpt>
      <trkpt lat="42.71629" lon="1.40134">
        <ele>1523.3464355469</ele>
        <time>2012-06-24T06:19:44Z</time>
      </trkpt>
      <trkpt lat="42.71629" lon="1.40137">
        <ele>1517.5783691406</ele>
        <time>2012-06-24T06:19:56Z</time>
      </trkpt>
      <trkpt lat="42.71624" lon="1.40142">
        <ele>1517.0979003906</ele>
        <time>2012-06-24T06:20:04Z</time>
      </trkpt>
      <trkpt lat="42.7162" lon="1.40148">
        <ele>1518.5397949219</ele>
        <time>2012-06-24T06:20:10Z</time>
      </trkpt>
      <trkpt lat="42.71618" lon="1.40151">
        <ele>1520.4624023438</ele>
        <time>2012-06-24T06:20:14Z</time>
      </trkpt>
      <trkpt lat="42.71614" lon="1.40157">
        <ele>1522.3850097656</ele>
        <time>2012-06-24T06:20:21Z</time>
      </trkpt>
      <trkpt lat="42.7161" lon="1.40163">
        <ele>1523.8269042969</ele>
        <time>2012-06-24T06:20:26Z</time>
      </trkpt>
      <trkpt lat="42.71608" lon="1.40165">
        <ele>1525.7495117188</ele>
        <time>2012-06-24T06:20:30Z</time>
      </trkpt>
      <trkpt lat="42.71605" lon="1.40168">
        <ele>1527.1916503906</ele>
        <time>2012-06-24T06:20:34Z</time>
      </trkpt>
      <trkpt lat="42.716" lon="1.40175">
        <ele>1528.6335449219</ele>
        <time>2012-06-24T06:20:40Z</time>
      </trkpt>
      <trkpt lat="42.716" lon="1.40176">
        <ele>1528.6335449219</ele>
        <time>2012-06-24T06:20:41Z</time>
      </trkpt>
      <trkpt lat="42.71595" lon="1.40184">
        <ele>1529.5947265625</ele>
        <time>2012-06-24T06:20:48Z</time>
      </trkpt>
      <trkpt lat="42.71593" lon="1.40187">
        <ele>1530.5561523438</ele>
        <time>2012-06-24T06:20:51Z</time>
      </trkpt>
      <trkpt lat="42.71591" lon="1.40191">
        <ele>1530.0754394531</ele>
        <time>2012-06-24T06:20:56Z</time>
      </trkpt>
      <trkpt lat="42.71589" lon="1.40194">
        <ele>1531.5173339844</ele>
        <time>2012-06-24T06:21:01Z</time>
      </trkpt>
      <trkpt lat="42.71587" lon="1.40198">
        <ele>1531.0368652344</ele>
        <time>2012-06-24T06:21:05Z</time>
      </trkpt>
      <trkpt lat="42.71585" lon="1.40202">
        <ele>1531.5173339844</ele>
        <time>2012-06-24T06:21:09Z</time>
      </trkpt>
      <trkpt lat="42.71582" lon="1.40208">
        <ele>1532.9594726562</ele>
        <time>2012-06-24T06:21:15Z</time>
      </trkpt>
      <trkpt lat="42.71584" lon="1.4021">
        <ele>1534.8823242188</ele>
        <time>2012-06-24T06:21:21Z</time>
      </trkpt>
      <trkpt lat="42.71585" lon="1.40209">
        <ele>1535.8435058594</ele>
        <time>2012-06-24T06:21:26Z</time>
      </trkpt>
      <trkpt lat="42.71587" lon="1.40208">
        <ele>1537.7661132812</ele>
        <time>2012-06-24T06:21:32Z</time>
      </trkpt>
      <trkpt lat="42.71588" lon="1.4021">
        <ele>1538.2468261719</ele>
        <time>2012-06-24T06:21:40Z</time>
      </trkpt>
      <trkpt lat="42.71589" lon="1.40209">
        <ele>1539.2080078125</ele>
        <time>2012-06-24T06:21:50Z</time>
      </trkpt>
      <trkpt lat="42.71592" lon="1.40209">
        <ele>1540.6499023438</ele>
        <time>2012-06-24T06:21:55Z</time>
      </trkpt>
      <trkpt lat="42.71597" lon="1.40204">
        <ele>1543.0532226562</ele>
        <time>2012-06-24T06:22:03Z</time>
      </trkpt>
      <trkpt lat="42.716" lon="1.40201">
        <ele>1544.4951171875</ele>
        <time>2012-06-24T06:22:08Z</time>
      </trkpt>
      <trkpt lat="42.71603" lon="1.40197">
        <ele>1544.0146484375</ele>
        <time>2012-06-24T06:22:15Z</time>
      </trkpt>
      <trkpt lat="42.71608" lon="1.40194">
        <ele>1543.5339355469</ele>
        <time>2012-06-24T06:22:21Z</time>
      </trkpt>
      <trkpt lat="42.71614" lon="1.40188">
        <ele>1547.3791503906</ele>
        <time>2012-06-24T06:22:29Z</time>
      </trkpt>
      <trkpt lat="42.7162" lon="1.40186">
        <ele>1549.7827148438</ele>
        <time>2012-06-24T06:22:36Z</time>
      </trkpt>
      <trkpt lat="42.71623" lon="1.40185">
        <ele>1550.7438964844</ele>
        <time>2012-06-24T06:22:42Z</time>
      </trkpt>
      <trkpt lat="42.7163" lon="1.40181">
        <ele>1551.224609375</ele>
        <time>2012-06-24T06:22:50Z</time>
      </trkpt>
      <trkpt lat="42.71635" lon="1.40179">
        <ele>1554.1086425781</ele>
        <time>2012-06-24T06:22:57Z</time>
      </trkpt>
      <trkpt lat="42.7164" lon="1.40179">
        <ele>1555.5505371094</ele>
        <time>2012-06-24T06:23:04Z</time>
      </trkpt>
      <trkpt lat="42.71643" lon="1.40179">
        <ele>1556.51171875</ele>
        <time>2012-06-24T06:23:11Z</time>
      </trkpt>
      <trkpt lat="42.71648" lon="1.40177">
        <ele>1557.4731445312</ele>
        <time>2012-06-24T06:23:17Z</time>
      </trkpt>
      <trkpt lat="42.71653" lon="1.40175">
        <ele>1558.9150390625</ele>
        <time>2012-06-24T06:23:24Z</time>
      </trkpt>
      <trkpt lat="42.71659" lon="1.40169">
        <ele>1559.8762207031</ele>
        <time>2012-06-24T06:23:32Z</time>
      </trkpt>
      <trkpt lat="42.71663" lon="1.40167">
        <ele>1560.8376464844</ele>
        <time>2012-06-24T06:23:37Z</time>
      </trkpt>
      <trkpt lat="42.71666" lon="1.40165">
        <ele>1561.7990722656</ele>
        <time>2012-06-24T06:23:43Z</time>
      </trkpt>
      <trkpt lat="42.7167" lon="1.40163">
        <ele>1562.2795410156</ele>
        <time>2012-06-24T06:23:49Z</time>
      </trkpt>
      <trkpt lat="42.71675" lon="1.4016">
        <ele>1563.2409667969</ele>
        <time>2012-06-24T06:23:55Z</time>
      </trkpt>
      <trkpt lat="42.71683" lon="1.40156">
        <ele>1564.6831054688</ele>
        <time>2012-06-24T06:24:04Z</time>
      </trkpt>
      <trkpt lat="42.71687" lon="1.40156">
        <ele>1565.64453125</ele>
        <time>2012-06-24T06:24:11Z</time>
      </trkpt>
      <trkpt lat="42.71692" lon="1.40153">
        <ele>1567.0864257812</ele>
        <time>2012-06-24T06:24:18Z</time>
      </trkpt>
      <trkpt lat="42.71694" lon="1.40151">
        <ele>1568.0476074219</ele>
        <time>2012-06-24T06:24:24Z</time>
      </trkpt>
      <trkpt lat="42.71698" lon="1.40146">
        <ele>1568.5283203125</ele>
        <time>2012-06-24T06:24:30Z</time>
      </trkpt>
      <trkpt lat="42.71701" lon="1.40143">
        <ele>1569.0090332031</ele>
        <time>2012-06-24T06:24:36Z</time>
      </trkpt>
      <trkpt lat="42.71704" lon="1.40141">
        <ele>1570.4509277344</ele>
        <time>2012-06-24T06:24:42Z</time>
      </trkpt>
      <trkpt lat="42.71708" lon="1.40137">
        <ele>1571.412109375</ele>
        <time>2012-06-24T06:24:48Z</time>
      </trkpt>
      <trkpt lat="42.71711" lon="1.40135">
        <ele>1571.8928222656</ele>
        <time>2012-06-24T06:24:53Z</time>
      </trkpt>
      <trkpt lat="42.71716" lon="1.40129">
        <ele>1572.3735351562</ele>
        <time>2012-06-24T06:25:02Z</time>
      </trkpt>
      <trkpt lat="42.71722" lon="1.4013">
        <ele>1573.8154296875</ele>
        <time>2012-06-24T06:25:08Z</time>
      </trkpt>
      <trkpt lat="42.71727" lon="1.40131">
        <ele>1574.7768554688</ele>
        <time>2012-06-24T06:25:14Z</time>
      </trkpt>
      <trkpt lat="42.71734" lon="1.4013">
        <ele>1576.6994628906</ele>
        <time>2012-06-24T06:25:21Z</time>
      </trkpt>
      <trkpt lat="42.71741" lon="1.40129">
        <ele>1577.6606445312</ele>
        <time>2012-06-24T06:25:28Z</time>
      </trkpt>
      <trkpt lat="42.71745" lon="1.4013">
        <ele>1578.1413574219</ele>
        <time>2012-06-24T06:25:34Z</time>
      </trkpt>
      <trkpt lat="42.71748" lon="1.40133">
        <ele>1578.1413574219</ele>
        <time>2012-06-24T06:25:40Z</time>
      </trkpt>
      <trkpt lat="42.71749" lon="1.40133">
        <ele>1577.1801757812</ele>
        <time>2012-06-24T06:25:46Z</time>
      </trkpt>
      <trkpt lat="42.7175" lon="1.40131">
        <ele>1576.21875</ele>
        <time>2012-06-24T06:25:52Z</time>
      </trkpt>
      <trkpt lat="42.71757" lon="1.40125">
        <ele>1576.6994628906</ele>
        <time>2012-06-24T06:25:59Z</time>
      </trkpt>
      <trkpt lat="42.7176" lon="1.40124">
        <ele>1577.1801757812</ele>
        <time>2012-06-24T06:26:05Z</time>
      </trkpt>
      <trkpt lat="42.71761" lon="1.40119">
        <ele>1578.6220703125</ele>
        <time>2012-06-24T06:26:14Z</time>
      </trkpt>
      <trkpt lat="42.71761" lon="1.40112">
        <ele>1580.0642089844</ele>
        <time>2012-06-24T06:26:21Z</time>
      </trkpt>
      <trkpt lat="42.71763" lon="1.40104">
        <ele>1581.0256347656</ele>
        <time>2012-06-24T06:26:28Z</time>
      </trkpt>
      <trkpt lat="42.71766" lon="1.401">
        <ele>1581.5061035156</ele>
        <time>2012-06-24T06:26:33Z</time>
      </trkpt>
      <trkpt lat="42.7177" lon="1.40096">
        <ele>1583.4287109375</ele>
        <time>2012-06-24T06:26:40Z</time>
      </trkpt>
      <trkpt lat="42.71773" lon="1.40094">
        <ele>1583.9094238281</ele>
        <time>2012-06-24T06:26:47Z</time>
      </trkpt>
      <trkpt lat="42.71776" lon="1.40091">
        <ele>1584.3901367188</ele>
        <time>2012-06-24T06:26:53Z</time>
      </trkpt>
      <trkpt lat="42.7178" lon="1.40083">
        <ele>1587.2739257812</ele>
        <time>2012-06-24T06:27:03Z</time>
      </trkpt>
      <trkpt lat="42.71784" lon="1.40077">
        <ele>1587.7546386719</ele>
        <time>2012-06-24T06:27:10Z</time>
      </trkpt>
      <trkpt lat="42.71789" lon="1.40071">
        <ele>1589.6772460938</ele>
        <time>2012-06-24T06:27:18Z</time>
      </trkpt>
      <trkpt lat="42.71793" lon="1.40067">
        <ele>1590.1579589844</ele>
        <time>2012-06-24T06:27:24Z</time>
      </trkpt>
      <trkpt lat="42.71797" lon="1.40066">
        <ele>1591.119140625</ele>
        <time>2012-06-24T06:27:28Z</time>
      </trkpt>
      <trkpt lat="42.71803" lon="1.40064">
        <ele>1593.0417480469</ele>
        <time>2012-06-24T06:27:35Z</time>
      </trkpt>
      <trkpt lat="42.71807" lon="1.40064">
        <ele>1593.5224609375</ele>
        <time>2012-06-24T06:27:39Z</time>
      </trkpt>
      <trkpt lat="42.71809" lon="1.40064">
        <ele>1594.4836425781</ele>
        <time>2012-06-24T06:27:42Z</time>
      </trkpt>
      <trkpt lat="42.71812" lon="1.40058">
        <ele>1595.92578125</ele>
        <time>2012-06-24T06:27:48Z</time>
      </trkpt>
      <trkpt lat="42.71815" lon="1.40053">
        <ele>1597.8486328125</ele>
        <time>2012-06-24T06:27:54Z</time>
      </trkpt>
      <trkpt lat="42.71819" lon="1.40049">
        <ele>1599.7712402344</ele>
        <time>2012-06-24T06:28:00Z</time>
      </trkpt>
      <trkpt lat="42.7182" lon="1.40043">
        <ele>1601.6938476562</ele>
        <time>2012-06-24T06:28:06Z</time>
      </trkpt>
      <trkpt lat="42.71824" lon="1.40035">
        <ele>1603.6164550781</ele>
        <time>2012-06-24T06:28:14Z</time>
      </trkpt>
      <trkpt lat="42.71828" lon="1.40029">
        <ele>1605.0583496094</ele>
        <time>2012-06-24T06:28:21Z</time>
      </trkpt>
      <trkpt lat="42.7183" lon="1.40034">
        <ele>1605.5390625</ele>
        <time>2012-06-24T06:28:25Z</time>
      </trkpt>
      <trkpt lat="42.7183" lon="1.40038">
        <ele>1605.0583496094</ele>
        <time>2012-06-24T06:28:28Z</time>
      </trkpt>
      <trkpt lat="42.7183" lon="1.40046">
        <ele>1606.5002441406</ele>
        <time>2012-06-24T06:28:34Z</time>
      </trkpt>
      <trkpt lat="42.71828" lon="1.40051">
        <ele>1606.5002441406</ele>
        <time>2012-06-24T06:28:40Z</time>
      </trkpt>
      <trkpt lat="42.71829" lon="1.4006">
        <ele>1602.6550292969</ele>
        <time>2012-06-24T06:28:46Z</time>
      </trkpt>
      <trkpt lat="42.71829" lon="1.40066">
        <ele>1605.5390625</ele>
        <time>2012-06-24T06:28:52Z</time>
      </trkpt>
      <trkpt lat="42.71826" lon="1.40071">
        <ele>1606.01953125</ele>
        <time>2012-06-24T06:28:58Z</time>
      </trkpt>
      <trkpt lat="42.71823" lon="1.40077">
        <ele>1606.5002441406</ele>
        <time>2012-06-24T06:29:04Z</time>
      </trkpt>
      <trkpt lat="42.71819" lon="1.40083">
        <ele>1607.4616699219</ele>
        <time>2012-06-24T06:29:11Z</time>
      </trkpt>
      <trkpt lat="42.71815" lon="1.40089">
        <ele>1607.9423828125</ele>
        <time>2012-06-24T06:29:17Z</time>
      </trkpt>
      <trkpt lat="42.71813" lon="1.40098">
        <ele>1608.4228515625</ele>
        <time>2012-06-24T06:29:25Z</time>
      </trkpt>
      <trkpt lat="42.7181" lon="1.40107">
        <ele>1609.8647460938</ele>
        <time>2012-06-24T06:29:33Z</time>
      </trkpt>
      <trkpt lat="42.71807" lon="1.40113">
        <ele>1610.3454589844</ele>
        <time>2012-06-24T06:29:39Z</time>
      </trkpt>
      <trkpt lat="42.71804" lon="1.40119">
        <ele>1610.826171875</ele>
        <time>2012-06-24T06:29:46Z</time>
      </trkpt>
      <trkpt lat="42.71801" lon="1.40123">
        <ele>1611.3068847656</ele>
        <time>2012-06-24T06:29:52Z</time>
      </trkpt>
      <trkpt lat="42.71797" lon="1.40129">
        <ele>1612.2683105469</ele>
        <time>2012-06-24T06:29:59Z</time>
      </trkpt>
      <trkpt lat="42.71794" lon="1.40135">
        <ele>1612.7490234375</ele>
        <time>2012-06-24T06:30:04Z</time>
      </trkpt>
      <trkpt lat="42.71791" lon="1.40141">
        <ele>1611.7875976562</ele>
        <time>2012-06-24T06:30:10Z</time>
      </trkpt>
      <trkpt lat="42.7179" lon="1.40145">
        <ele>1611.3068847656</ele>
        <time>2012-06-24T06:30:16Z</time>
      </trkpt>
      <trkpt lat="42.71788" lon="1.40149">
        <ele>1612.7490234375</ele>
        <time>2012-06-24T06:30:22Z</time>
      </trkpt>
      <trkpt lat="42.71787" lon="1.40151">
        <ele>1613.2297363281</ele>
        <time>2012-06-24T06:30:27Z</time>
      </trkpt>
      <trkpt lat="42.71787" lon="1.40156">
        <ele>1613.7102050781</ele>
        <time>2012-06-24T06:30:33Z</time>
      </trkpt>
      <trkpt lat="42.71786" lon="1.40157">
        <ele>1613.2297363281</ele>
        <time>2012-06-24T06:30:39Z</time>
      </trkpt>
      <trkpt lat="42.71786" lon="1.40161">
        <ele>1611.7875976562</ele>
        <time>2012-06-24T06:30:46Z</time>
      </trkpt>
      <trkpt lat="42.71785" lon="1.40167">
        <ele>1611.7875976562</ele>
        <time>2012-06-24T06:30:52Z</time>
      </trkpt>
      <trkpt lat="42.71783" lon="1.40169">
        <ele>1612.7490234375</ele>
        <time>2012-06-24T06:30:57Z</time>
      </trkpt>
      <trkpt lat="42.71781" lon="1.40173">
        <ele>1613.2297363281</ele>
        <time>2012-06-24T06:31:02Z</time>
      </trkpt>
      <trkpt lat="42.7178" lon="1.40177">
        <ele>1614.6716308594</ele>
        <time>2012-06-24T06:31:09Z</time>
      </trkpt>
      <trkpt lat="42.71782" lon="1.40177">
        <ele>1617.0749511719</ele>
        <time>2012-06-24T06:31:14Z</time>
      </trkpt>
      <trkpt lat="42.71783" lon="1.40176">
        <ele>1619.4782714844</ele>
        <time>2012-06-24T06:31:21Z</time>
      </trkpt>
      <trkpt lat="42.71783" lon="1.40177">
        <ele>1619.4782714844</ele>
        <time>2012-06-24T06:31:26Z</time>
      </trkpt>
      <trkpt lat="42.71783" lon="1.40176">
        <ele>1620.439453125</ele>
        <time>2012-06-24T06:31:32Z</time>
      </trkpt>
      <trkpt lat="42.71783" lon="1.40178">
        <ele>1619.9587402344</ele>
        <time>2012-06-24T06:31:40Z</time>
      </trkpt>
      <trkpt lat="42.71785" lon="1.40181">
        <ele>1620.439453125</ele>
        <time>2012-06-24T06:31:48Z</time>
      </trkpt>
      <trkpt lat="42.71788" lon="1.40179">
        <ele>1622.3620605469</ele>
        <time>2012-06-24T06:31:57Z</time>
      </trkpt>
      <trkpt lat="42.71791" lon="1.40178">
        <ele>1623.8039550781</ele>
        <time>2012-06-24T06:32:04Z</time>
      </trkpt>
      <trkpt lat="42.71793" lon="1.40177">
        <ele>1625.2458496094</ele>
        <time>2012-06-24T06:32:11Z</time>
      </trkpt>
      <trkpt lat="42.71795" lon="1.40175">
        <ele>1626.2072753906</ele>
        <time>2012-06-24T06:32:18Z</time>
      </trkpt>
      <trkpt lat="42.71798" lon="1.40173">
        <ele>1628.1301269531</ele>
        <time>2012-06-24T06:32:24Z</time>
      </trkpt>
      <trkpt lat="42.718" lon="1.40171">
        <ele>1629.5720214844</ele>
        <time>2012-06-24T06:32:30Z</time>
      </trkpt>
      <trkpt lat="42.71801" lon="1.40169">
        <ele>1631.9753417969</ele>
        <time>2012-06-24T06:32:36Z</time>
      </trkpt>
      <trkpt lat="42.71805" lon="1.40165">
        <ele>1633.4172363281</ele>
        <time>2012-06-24T06:32:43Z</time>
      </trkpt>
      <trkpt lat="42.71806" lon="1.40161">
        <ele>1634.3786621094</ele>
        <time>2012-06-24T06:32:49Z</time>
      </trkpt>
      <trkpt lat="42.71808" lon="1.40156">
        <ele>1634.859375</ele>
        <time>2012-06-24T06:32:55Z</time>
      </trkpt>
      <trkpt lat="42.71809" lon="1.40152">
        <ele>1635.33984375</ele>
        <time>2012-06-24T06:33:02Z</time>
      </trkpt>
      <trkpt lat="42.71811" lon="1.40149">
        <ele>1635.8205566406</ele>
        <time>2012-06-24T06:33:08Z</time>
      </trkpt>
      <trkpt lat="42.71814" lon="1.40148">
        <ele>1635.8205566406</ele>
        <time>2012-06-24T06:33:15Z</time>
      </trkpt>
      <trkpt lat="42.71817" lon="1.40148">
        <ele>1636.3012695312</ele>
        <time>2012-06-24T06:33:20Z</time>
      </trkpt>
      <trkpt lat="42.71818" lon="1.40147">
        <ele>1635.33984375</ele>
        <time>2012-06-24T06:33:26Z</time>
      </trkpt>
      <trkpt lat="42.71819" lon="1.40144">
        <ele>1633.8979492188</ele>
        <time>2012-06-24T06:33:31Z</time>
      </trkpt>
      <trkpt lat="42.7182" lon="1.40142">
        <ele>1632.4560546875</ele>
        <time>2012-06-24T06:33:37Z</time>
      </trkpt>
      <trkpt lat="42.71822" lon="1.40141">
        <ele>1631.0141601562</ele>
        <time>2012-06-24T06:33:41Z</time>
      </trkpt>
      <trkpt lat="42.71822" lon="1.40138">
        <ele>1631.4946289062</ele>
        <time>2012-06-24T06:33:47Z</time>
      </trkpt>
      <trkpt lat="42.71824" lon="1.40138">
        <ele>1631.0141601562</ele>
        <time>2012-06-24T06:33:51Z</time>
      </trkpt>
      <trkpt lat="42.71825" lon="1.40135">
        <ele>1630.5334472656</ele>
        <time>2012-06-24T06:33:59Z</time>
      </trkpt>
      <trkpt lat="42.71825" lon="1.40134">
        <ele>1630.5334472656</ele>
        <time>2012-06-24T06:34:05Z</time>
      </trkpt>
      <trkpt lat="42.71825" lon="1.40133">
        <ele>1630.052734375</ele>
        <time>2012-06-24T06:34:11Z</time>
      </trkpt>
      <trkpt lat="42.71824" lon="1.40131">
        <ele>1629.0913085938</ele>
        <time>2012-06-24T06:34:16Z</time>
      </trkpt>
      <trkpt lat="42.71822" lon="1.4013">
        <ele>1627.6491699219</ele>
        <time>2012-06-24T06:34:22Z</time>
      </trkpt>
      <trkpt lat="42.7182" lon="1.40127">
        <ele>1626.2072753906</ele>
        <time>2012-06-24T06:34:28Z</time>
      </trkpt>
      <trkpt lat="42.71818" lon="1.40123">
        <ele>1624.2846679688</ele>
        <time>2012-06-24T06:34:35Z</time>
      </trkpt>
      <trkpt lat="42.7182" lon="1.40117">
        <ele>1624.7653808594</ele>
        <time>2012-06-24T06:34:42Z</time>
      </trkpt>
      <trkpt lat="42.71825" lon="1.40112">
        <ele>1625.2458496094</ele>
        <time>2012-06-24T06:34:49Z</time>
      </trkpt>
      <trkpt lat="42.71831" lon="1.40107">
        <ele>1626.6879882812</ele>
        <time>2012-06-24T06:34:57Z</time>
      </trkpt>
      <trkpt lat="42.71835" lon="1.401">
        <ele>1628.1301269531</ele>
        <time>2012-06-24T06:35:05Z</time>
      </trkpt>
      <trkpt lat="42.71838" lon="1.40096">
        <ele>1629.0913085938</ele>
        <time>2012-06-24T06:35:11Z</time>
      </trkpt>
      <trkpt lat="42.71843" lon="1.40091">
        <ele>1629.0913085938</ele>
        <time>2012-06-24T06:35:17Z</time>
      </trkpt>
      <trkpt lat="42.71849" lon="1.40088">
        <ele>1629.5720214844</ele>
        <time>2012-06-24T06:35:24Z</time>
      </trkpt>
      <trkpt lat="42.71855" lon="1.40084">
        <ele>1629.5720214844</ele>
        <time>2012-06-24T06:35:31Z</time>
      </trkpt>
      <trkpt lat="42.71863" lon="1.40081">
        <ele>1630.052734375</ele>
        <time>2012-06-24T06:35:40Z</time>
      </trkpt>
      <trkpt lat="42.71868" lon="1.40076">
        <ele>1630.5334472656</ele>
        <time>2012-06-24T06:35:46Z</time>
      </trkpt>
      <trkpt lat="42.7187" lon="1.40077">
        <ele>1631.9753417969</ele>
        <time>2012-06-24T06:35:50Z</time>
      </trkpt>
      <trkpt lat="42.71868" lon="1.40082">
        <ele>1633.4172363281</ele>
        <time>2012-06-24T06:35:56Z</time>
      </trkpt>
      <trkpt lat="42.71865" lon="1.40088">
        <ele>1633.8979492188</ele>
        <time>2012-06-24T06:36:01Z</time>
      </trkpt>
      <trkpt lat="42.71859" lon="1.40095">
        <ele>1634.3786621094</ele>
        <time>2012-06-24T06:36:09Z</time>
      </trkpt>
      <trkpt lat="42.71857" lon="1.40098">
        <ele>1635.33984375</ele>
        <time>2012-06-24T06:36:13Z</time>
      </trkpt>
      <trkpt lat="42.71855" lon="1.40102">
        <ele>1635.8205566406</ele>
        <time>2012-06-24T06:36:18Z</time>
      </trkpt>
      <trkpt lat="42.71854" lon="1.40106">
        <ele>1636.7817382812</ele>
        <time>2012-06-24T06:36:22Z</time>
      </trkpt>
      <trkpt lat="42.71852" lon="1.40112">
        <ele>1637.7431640625</ele>
        <time>2012-06-24T06:36:28Z</time>
      </trkpt>
      <trkpt lat="42.71853" lon="1.40119">
        <ele>1639.1850585938</ele>
        <time>2012-06-24T06:36:34Z</time>
      </trkpt>
      <trkpt lat="42.7185" lon="1.40123">
        <ele>1640.626953125</ele>
        <time>2012-06-24T06:36:39Z</time>
      </trkpt>
      <trkpt lat="42.71846" lon="1.40126">
        <ele>1642.0690917969</ele>
        <time>2012-06-24T06:36:46Z</time>
      </trkpt>
      <trkpt lat="42.71843" lon="1.40131">
        <ele>1643.0302734375</ele>
        <time>2012-06-24T06:36:51Z</time>
      </trkpt>
      <trkpt lat="42.71843" lon="1.40136">
        <ele>1642.0690917969</ele>
        <time>2012-06-24T06:36:58Z</time>
      </trkpt>
      <trkpt lat="42.71843" lon="1.4014">
        <ele>1642.0690917969</ele>
        <time>2012-06-24T06:37:05Z</time>
      </trkpt>
      <trkpt lat="42.71843" lon="1.40144">
        <ele>1642.5498046875</ele>
        <time>2012-06-24T06:37:11Z</time>
      </trkpt>
      <trkpt lat="42.71841" lon="1.40148">
        <ele>1643.9916992188</ele>
        <time>2012-06-24T06:37:18Z</time>
      </trkpt>
      <trkpt lat="42.7184" lon="1.40151">
        <ele>1645.9145507812</ele>
        <time>2012-06-24T06:37:23Z</time>
      </trkpt>
      <trkpt lat="42.71838" lon="1.40151">
        <ele>1647.3564453125</ele>
        <time>2012-06-24T06:37:33Z</time>
      </trkpt>
      <trkpt lat="42.71839" lon="1.40151">
        <ele>1645.9145507812</ele>
        <time>2012-06-24T06:38:04Z</time>
      </trkpt>
      <trkpt lat="42.71839" lon="1.40151">
        <ele>1644.953125</ele>
        <time>2012-06-24T06:38:22Z</time>
      </trkpt>
      <trkpt lat="42.71839" lon="1.40153">
        <ele>1640.146484375</ele>
        <time>2012-06-24T06:39:24Z</time>
      </trkpt>
      <trkpt lat="42.71838" lon="1.40152">
        <ele>1643.0302734375</ele>
        <time>2012-06-24T06:39:38Z</time>
      </trkpt>
      <trkpt lat="42.71839" lon="1.40152">
        <ele>1643.5109863281</ele>
        <time>2012-06-24T06:39:43Z</time>
      </trkpt>
      <trkpt lat="42.71838" lon="1.40153">
        <ele>1642.0690917969</ele>
        <time>2012-06-24T06:40:25Z</time>
      </trkpt>
      <trkpt lat="42.71837" lon="1.40156">
        <ele>1641.1076660156</ele>
        <time>2012-06-24T06:42:05Z</time>
      </trkpt>
      <trkpt lat="42.71836" lon="1.4016">
        <ele>1641.1076660156</ele>
        <time>2012-06-24T06:42:10Z</time>
      </trkpt>
      <trkpt lat="42.71833" lon="1.40163">
        <ele>1642.5498046875</ele>
        <time>2012-06-24T06:42:17Z</time>
      </trkpt>
      <trkpt lat="42.71828" lon="1.40171">
        <ele>1643.5109863281</ele>
        <time>2012-06-24T06:42:25Z</time>
      </trkpt>
      <trkpt lat="42.71827" lon="1.40173">
        <ele>1643.9916992188</ele>
        <time>2012-06-24T06:42:27Z</time>
      </trkpt>
      <trkpt lat="42.71823" lon="1.40177">
        <ele>1644.953125</ele>
        <time>2012-06-24T06:42:31Z</time>
      </trkpt>
      <trkpt lat="42.71821" lon="1.40185">
        <ele>1646.3952636719</ele>
        <time>2012-06-24T06:42:36Z</time>
      </trkpt>
      <trkpt lat="42.71818" lon="1.40194">
        <ele>1645.9145507812</ele>
        <time>2012-06-24T06:42:42Z</time>
      </trkpt>
      <trkpt lat="42.71815" lon="1.40202">
        <ele>1647.3564453125</ele>
        <time>2012-06-24T06:42:48Z</time>
      </trkpt>
      <trkpt lat="42.7181" lon="1.40207">
        <ele>1649.759765625</ele>
        <time>2012-06-24T06:42:54Z</time>
      </trkpt>
      <trkpt lat="42.71806" lon="1.40212">
        <ele>1651.6823730469</ele>
        <time>2012-06-24T06:43:02Z</time>
      </trkpt>
      <trkpt lat="42.71809" lon="1.40212">
        <ele>1653.6049804688</ele>
        <time>2012-06-24T06:43:07Z</time>
      </trkpt>
      <trkpt lat="42.71814" lon="1.40208">
        <ele>1655.046875</ele>
        <time>2012-06-24T06:43:14Z</time>
      </trkpt>
      <trkpt lat="42.71818" lon="1.40206">
        <ele>1656.4887695312</ele>
        <time>2012-06-24T06:43:19Z</time>
      </trkpt>
      <trkpt lat="42.71825" lon="1.40199">
        <ele>1659.8532714844</ele>
        <time>2012-06-24T06:43:28Z</time>
      </trkpt>
      <trkpt lat="42.7183" lon="1.40194">
        <ele>1661.2956542969</ele>
        <time>2012-06-24T06:43:34Z</time>
      </trkpt>
      <trkpt lat="42.71832" lon="1.40191">
        <ele>1661.7763671875</ele>
        <time>2012-06-24T06:43:37Z</time>
      </trkpt>
      <trkpt lat="42.7184" lon="1.40185">
        <ele>1663.6987304688</ele>
        <time>2012-06-24T06:43:45Z</time>
      </trkpt>
      <trkpt lat="42.71845" lon="1.40179">
        <ele>1666.1020507812</ele>
        <time>2012-06-24T06:43:52Z</time>
      </trkpt>
      <trkpt lat="42.7185" lon="1.40173">
        <ele>1667.5439453125</ele>
        <time>2012-06-24T06:43:59Z</time>
      </trkpt>
      <trkpt lat="42.71852" lon="1.40172">
        <ele>1668.0246582031</ele>
        <time>2012-06-24T06:44:01Z</time>
      </trkpt>
      <trkpt lat="42.71856" lon="1.40169">
        <ele>1668.9860839844</ele>
        <time>2012-06-24T06:44:05Z</time>
      </trkpt>
      <trkpt lat="42.7186" lon="1.40165">
        <ele>1669.947265625</ele>
        <time>2012-06-24T06:44:10Z</time>
      </trkpt>
      <trkpt lat="42.71865" lon="1.40161">
        <ele>1670.4279785156</ele>
        <time>2012-06-24T06:44:16Z</time>
      </trkpt>
      <trkpt lat="42.71868" lon="1.4015">
        <ele>1671.3891601562</ele>
        <time>2012-06-24T06:44:24Z</time>
      </trkpt>
      <trkpt lat="42.71874" lon="1.40144">
        <ele>1672.3505859375</ele>
        <time>2012-06-24T06:44:31Z</time>
      </trkpt>
      <trkpt lat="42.71884" lon="1.40137">
        <ele>1673.7924804688</ele>
        <time>2012-06-24T06:44:41Z</time>
      </trkpt>
      <trkpt lat="42.71888" lon="1.40132">
        <ele>1675.234375</ele>
        <time>2012-06-24T06:44:47Z</time>
      </trkpt>
      <trkpt lat="42.71894" lon="1.40124">
        <ele>1676.6767578125</ele>
        <time>2012-06-24T06:44:54Z</time>
      </trkpt>
      <trkpt lat="42.71898" lon="1.40124">
        <ele>1678.1186523438</ele>
        <time>2012-06-24T06:44:58Z</time>
      </trkpt>
      <trkpt lat="42.71906" lon="1.40118">
        <ele>1678.5993652344</ele>
        <time>2012-06-24T06:45:06Z</time>
      </trkpt>
      <trkpt lat="42.71914" lon="1.40115">
        <ele>1680.0412597656</ele>
        <time>2012-06-24T06:45:13Z</time>
      </trkpt>
      <trkpt lat="42.71917" lon="1.40112">
        <ele>1681.0026855469</ele>
        <time>2012-06-24T06:45:17Z</time>
      </trkpt>
      <trkpt lat="42.71925" lon="1.40107">
        <ele>1681.9638671875</ele>
        <time>2012-06-24T06:45:25Z</time>
      </trkpt>
      <trkpt lat="42.71926" lon="1.40105">
        <ele>1682.4445800781</ele>
        <time>2012-06-24T06:45:27Z</time>
      </trkpt>
      <trkpt lat="42.71932" lon="1.40102">
        <ele>1682.9250488281</ele>
        <time>2012-06-24T06:45:34Z</time>
      </trkpt>
      <trkpt lat="42.71937" lon="1.40096">
        <ele>1683.4057617188</ele>
        <time>2012-06-24T06:45:42Z</time>
      </trkpt>
      <trkpt lat="42.71935" lon="1.40089">
        <ele>1682.9250488281</ele>
        <time>2012-06-24T06:45:48Z</time>
      </trkpt>
      <trkpt lat="42.71935" lon="1.40081">
        <ele>1683.4057617188</ele>
        <time>2012-06-24T06:45:54Z</time>
      </trkpt>
      <trkpt lat="42.71934" lon="1.4007">
        <ele>1684.8479003906</ele>
        <time>2012-06-24T06:46:02Z</time>
      </trkpt>
      <trkpt lat="42.71936" lon="1.40064">
        <ele>1686.7702636719</ele>
        <time>2012-06-24T06:46:09Z</time>
      </trkpt>
      <trkpt lat="42.71938" lon="1.40061">
        <ele>1688.6931152344</ele>
        <time>2012-06-24T06:46:15Z</time>
      </trkpt>
      <trkpt lat="42.71944" lon="1.40058">
        <ele>1690.6154785156</ele>
        <time>2012-06-24T06:46:23Z</time>
      </trkpt>
      <trkpt lat="42.7195" lon="1.40054">
        <ele>1692.0578613281</ele>
        <time>2012-06-24T06:46:29Z</time>
      </trkpt>
      <trkpt lat="42.71953" lon="1.40052">
        <ele>1692.5385742188</ele>
        <time>2012-06-24T06:46:33Z</time>
      </trkpt>
      <trkpt lat="42.71959" lon="1.40048">
        <ele>1692.5385742188</ele>
        <time>2012-06-24T06:46:39Z</time>
      </trkpt>
      <trkpt lat="42.71964" lon="1.40046">
        <ele>1693.98046875</ele>
        <time>2012-06-24T06:46:45Z</time>
      </trkpt>
      <trkpt lat="42.7197" lon="1.40045">
        <ele>1694.9416503906</ele>
        <time>2012-06-24T06:46:53Z</time>
      </trkpt>
      <trkpt lat="42.71975" lon="1.40044">
        <ele>1695.4223632812</ele>
        <time>2012-06-24T06:47:00Z</time>
      </trkpt>
      <trkpt lat="42.71976" lon="1.40041">
        <ele>1694.9416503906</ele>
        <time>2012-06-24T06:47:07Z</time>
      </trkpt>
      <trkpt lat="42.71977" lon="1.40039">
        <ele>1695.4223632812</ele>
        <time>2012-06-24T06:47:13Z</time>
      </trkpt>
      <trkpt lat="42.71978" lon="1.40035">
        <ele>1696.3837890625</ele>
        <time>2012-06-24T06:47:19Z</time>
      </trkpt>
      <trkpt lat="42.71979" lon="1.40028">
        <ele>1697.3449707031</ele>
        <time>2012-06-24T06:47:25Z</time>
      </trkpt>
      <trkpt lat="42.71978" lon="1.40022">
        <ele>1698.3061523438</ele>
        <time>2012-06-24T06:47:29Z</time>
      </trkpt>
      <trkpt lat="42.7198" lon="1.40016">
        <ele>1698.7868652344</ele>
        <time>2012-06-24T06:47:33Z</time>
      </trkpt>
      <trkpt lat="42.71982" lon="1.40011">
        <ele>1699.7482910156</ele>
        <time>2012-06-24T06:47:38Z</time>
      </trkpt>
      <trkpt lat="42.71986" lon="1.40005">
        <ele>1701.1901855469</ele>
        <time>2012-06-24T06:47:44Z</time>
      </trkpt>
      <trkpt lat="42.71989" lon="1.39998">
        <ele>1702.1513671875</ele>
        <time>2012-06-24T06:47:50Z</time>
      </trkpt>
      <trkpt lat="42.71993" lon="1.39993">
        <ele>1703.1127929688</ele>
        <time>2012-06-24T06:47:56Z</time>
      </trkpt>
      <trkpt lat="42.71997" lon="1.39993">
        <ele>1704.07421875</ele>
        <time>2012-06-24T06:48:01Z</time>
      </trkpt>
      <trkpt lat="42.72001" lon="1.39997">
        <ele>1704.5546875</ele>
        <time>2012-06-24T06:48:06Z</time>
      </trkpt>
      <trkpt lat="42.72005" lon="1.40003">
        <ele>1705.5161132812</ele>
        <time>2012-06-24T06:48:13Z</time>
      </trkpt>
      <trkpt lat="42.72009" lon="1.40007">
        <ele>1705.9965820312</ele>
        <time>2012-06-24T06:48:19Z</time>
      </trkpt>
      <trkpt lat="42.72012" lon="1.40011">
        <ele>1706.9580078125</ele>
        <time>2012-06-24T06:48:24Z</time>
      </trkpt>
      <trkpt lat="42.72012" lon="1.40015">
        <ele>1707.4387207031</ele>
        <time>2012-06-24T06:48:28Z</time>
      </trkpt>
      <trkpt lat="42.7201" lon="1.40021">
        <ele>1708.4001464844</ele>
        <time>2012-06-24T06:48:34Z</time>
      </trkpt>
      <trkpt lat="42.72006" lon="1.40029">
        <ele>1709.8420410156</ele>
        <time>2012-06-24T06:48:40Z</time>
      </trkpt>
      <trkpt lat="42.72004" lon="1.40038">
        <ele>1709.8420410156</ele>
        <time>2012-06-24T06:48:47Z</time>
      </trkpt>
      <trkpt lat="42.72004" lon="1.40046">
        <ele>1709.8420410156</ele>
        <time>2012-06-24T06:48:53Z</time>
      </trkpt>
      <trkpt lat="42.72006" lon="1.40051">
        <ele>1709.8420410156</ele>
        <time>2012-06-24T06:48:58Z</time>
      </trkpt>
      <trkpt lat="42.72008" lon="1.40059">
        <ele>1710.3227539062</ele>
        <time>2012-06-24T06:49:05Z</time>
      </trkpt>
      <trkpt lat="42.72009" lon="1.40061">
        <ele>1710.8034667969</ele>
        <time>2012-06-24T06:49:09Z</time>
      </trkpt>
      <trkpt lat="42.72007" lon="1.40067">
        <ele>1711.2841796875</ele>
        <time>2012-06-24T06:49:15Z</time>
      </trkpt>
      <trkpt lat="42.72005" lon="1.40068">
        <ele>1711.2841796875</ele>
        <time>2012-06-24T06:49:20Z</time>
      </trkpt>
      <trkpt lat="42.72001" lon="1.40072">
        <ele>1712.7260742188</ele>
        <time>2012-06-24T06:49:26Z</time>
      </trkpt>
      <trkpt lat="42.71998" lon="1.40074">
        <ele>1714.16796875</ele>
        <time>2012-06-24T06:49:32Z</time>
      </trkpt>
      <trkpt lat="42.71996" lon="1.40074">
        <ele>1714.6486816406</ele>
        <time>2012-06-24T06:49:37Z</time>
      </trkpt>
      <trkpt lat="42.71996" lon="1.40076">
        <ele>1712.2453613281</ele>
        <time>2012-06-24T06:49:44Z</time>
      </trkpt>
      <trkpt lat="42.71994" lon="1.4008">
        <ele>1712.2453613281</ele>
        <time>2012-06-24T06:49:49Z</time>
      </trkpt>
      <trkpt lat="42.71993" lon="1.40085">
        <ele>1713.2067871094</ele>
        <time>2012-06-24T06:49:52Z</time>
      </trkpt>
      <trkpt lat="42.7199" lon="1.40092">
        <ele>1714.6486816406</ele>
        <time>2012-06-24T06:49:58Z</time>
      </trkpt>
      <trkpt lat="42.71985" lon="1.40099">
        <ele>1715.1293945312</ele>
        <time>2012-06-24T06:50:05Z</time>
      </trkpt>
      <trkpt lat="42.71984" lon="1.40101">
        <ele>1715.1293945312</ele>
        <time>2012-06-24T06:50:06Z</time>
      </trkpt>
      <trkpt lat="42.71982" lon="1.40105">
        <ele>1715.1293945312</ele>
        <time>2012-06-24T06:50:11Z</time>
      </trkpt>
      <trkpt lat="42.71983" lon="1.40109">
        <ele>1717.0520019531</ele>
        <time>2012-06-24T06:50:17Z</time>
      </trkpt>
      <trkpt lat="42.71985" lon="1.40107">
        <ele>1719.4553222656</ele>
        <time>2012-06-24T06:50:22Z</time>
      </trkpt>
      <trkpt lat="42.7199" lon="1.40106">
        <ele>1722.3391113281</ele>
        <time>2012-06-24T06:50:28Z</time>
      </trkpt>
      <trkpt lat="42.71996" lon="1.40103">
        <ele>1725.7038574219</ele>
        <time>2012-06-24T06:50:36Z</time>
      </trkpt>
      <trkpt lat="42.72001" lon="1.40098">
        <ele>1729.068359375</ele>
        <time>2012-06-24T06:50:42Z</time>
      </trkpt>
      <trkpt lat="42.72005" lon="1.40094">
        <ele>1730.5104980469</ele>
        <time>2012-06-24T06:50:48Z</time>
      </trkpt>
      <trkpt lat="42.72008" lon="1.4009">
        <ele>1731.4716796875</ele>
        <time>2012-06-24T06:50:54Z</time>
      </trkpt>
      <trkpt lat="42.7201" lon="1.4009">
        <ele>1732.4331054688</ele>
        <time>2012-06-24T06:50:58Z</time>
      </trkpt>
      <trkpt lat="42.72009" lon="1.40098">
        <ele>1732.9135742188</ele>
        <time>2012-06-24T06:51:04Z</time>
      </trkpt>
      <trkpt lat="42.72007" lon="1.40105">
        <ele>1733.3942871094</ele>
        <time>2012-06-24T06:51:11Z</time>
      </trkpt>
      <trkpt lat="42.72005" lon="1.40112">
        <ele>1733.875</ele>
        <time>2012-06-24T06:51:18Z</time>
      </trkpt>
      <trkpt lat="42.72001" lon="1.40119">
        <ele>1734.8364257812</ele>
        <time>2012-06-24T06:51:25Z</time>
      </trkpt>
      <trkpt lat="42.71997" lon="1.40125">
        <ele>1736.2783203125</ele>
        <time>2012-06-24T06:51:31Z</time>
      </trkpt>
      <trkpt lat="42.71996" lon="1.40133">
        <ele>1734.8364257812</ele>
        <time>2012-06-24T06:51:37Z</time>
      </trkpt>
      <trkpt lat="42.71996" lon="1.40141">
        <ele>1735.3168945312</ele>
        <time>2012-06-24T06:51:43Z</time>
      </trkpt>
      <trkpt lat="42.71996" lon="1.40148">
        <ele>1736.2783203125</ele>
        <time>2012-06-24T06:51:50Z</time>
      </trkpt>
      <trkpt lat="42.71996" lon="1.40152">
        <ele>1737.2395019531</ele>
        <time>2012-06-24T06:51:54Z</time>
      </trkpt>
      <trkpt lat="42.71996" lon="1.40152">
        <ele>1738.2009277344</ele>
        <time>2012-06-24T06:52:02Z</time>
      </trkpt>
      <trkpt lat="42.71995" lon="1.40156">
        <ele>1736.7587890625</ele>
        <time>2012-06-24T06:52:07Z</time>
      </trkpt>
      <trkpt lat="42.71996" lon="1.40161">
        <ele>1735.7976074219</ele>
        <time>2012-06-24T06:52:12Z</time>
      </trkpt>
      <trkpt lat="42.71997" lon="1.40165">
        <ele>1736.7587890625</ele>
        <time>2012-06-24T06:52:18Z</time>
      </trkpt>
      <trkpt lat="42.71994" lon="1.40167">
        <ele>1738.2009277344</ele>
        <time>2012-06-24T06:52:23Z</time>
      </trkpt>
      <trkpt lat="42.71989" lon="1.40167">
        <ele>1739.6428222656</ele>
        <time>2012-06-24T06:52:30Z</time>
      </trkpt>
      <trkpt lat="42.71985" lon="1.40169">
        <ele>1741.5656738281</ele>
        <time>2012-06-24T06:52:37Z</time>
      </trkpt>
      <trkpt lat="42.71981" lon="1.40173">
        <ele>1742.5270996094</ele>
        <time>2012-06-24T06:52:44Z</time>
      </trkpt>
      <trkpt lat="42.71976" lon="1.40176">
        <ele>1743.48828125</ele>
        <time>2012-06-24T06:52:51Z</time>
      </trkpt>
      <trkpt lat="42.71972" lon="1.40179">
        <ele>1744.4494628906</ele>
        <time>2012-06-24T06:52:57Z</time>
      </trkpt>
      <trkpt lat="42.71968" lon="1.40185">
        <ele>1745.8916015625</ele>
        <time>2012-06-24T06:53:03Z</time>
      </trkpt>
      <trkpt lat="42.71969" lon="1.4019">
        <ele>1746.3723144531</ele>
        <time>2012-06-24T06:53:08Z</time>
      </trkpt>
      <trkpt lat="42.71968" lon="1.402">
        <ele>1748.2946777344</ele>
        <time>2012-06-24T06:53:16Z</time>
      </trkpt>
      <trkpt lat="42.71967" lon="1.40208">
        <ele>1750.2175292969</ele>
        <time>2012-06-24T06:53:22Z</time>
      </trkpt>
      <trkpt lat="42.71964" lon="1.40212">
        <ele>1752.6206054688</ele>
        <time>2012-06-24T06:53:28Z</time>
      </trkpt>
      <trkpt lat="42.71963" lon="1.40214">
        <ele>1754.0627441406</ele>
        <time>2012-06-24T06:53:33Z</time>
      </trkpt>
      <trkpt lat="42.71967" lon="1.40213">
        <ele>1755.9851074219</ele>
        <time>2012-06-24T06:53:39Z</time>
      </trkpt>
      <trkpt lat="42.71972" lon="1.40209">
        <ele>1757.908203125</ele>
        <time>2012-06-24T06:53:45Z</time>
      </trkpt>
      <trkpt lat="42.71975" lon="1.40201">
        <ele>1759.3500976562</ele>
        <time>2012-06-24T06:53:52Z</time>
      </trkpt>
      <trkpt lat="42.71978" lon="1.40192">
        <ele>1760.7919921875</ele>
        <time>2012-06-24T06:53:58Z</time>
      </trkpt>
      <trkpt lat="42.71986" lon="1.40189">
        <ele>1762.7145996094</ele>
        <time>2012-06-24T06:54:07Z</time>
      </trkpt>
      <trkpt lat="42.71989" lon="1.40189">
        <ele>1762.7145996094</ele>
        <time>2012-06-24T06:54:10Z</time>
      </trkpt>
      <trkpt lat="42.71995" lon="1.40189">
        <ele>1765.1179199219</ele>
        <time>2012-06-24T06:54:17Z</time>
      </trkpt>
      <trkpt lat="42.72001" lon="1.40191">
        <ele>1766.0791015625</ele>
        <time>2012-06-24T06:54:24Z</time>
      </trkpt>
      <trkpt lat="42.72006" lon="1.40195">
        <ele>1767.0405273438</ele>
        <time>2012-06-24T06:54:30Z</time>
      </trkpt>
      <trkpt lat="42.7201" lon="1.40197">
        <ele>1768.482421875</ele>
        <time>2012-06-24T06:54:36Z</time>
      </trkpt>
      <trkpt lat="42.72012" lon="1.40197">
        <ele>1768.482421875</ele>
        <time>2012-06-24T06:54:40Z</time>
      </trkpt>
      <trkpt lat="42.72014" lon="1.40195">
        <ele>1768.9631347656</ele>
        <time>2012-06-24T06:54:44Z</time>
      </trkpt>
      <trkpt lat="42.72015" lon="1.40189">
        <ele>1767.5209960938</ele>
        <time>2012-06-24T06:54:51Z</time>
      </trkpt>
      <trkpt lat="42.72018" lon="1.40185">
        <ele>1767.5209960938</ele>
        <time>2012-06-24T06:54:55Z</time>
      </trkpt>
      <trkpt lat="42.72021" lon="1.40178">
        <ele>1768.9631347656</ele>
        <time>2012-06-24T06:55:01Z</time>
      </trkpt>
      <trkpt lat="42.72024" lon="1.40172">
        <ele>1771.3662109375</ele>
        <time>2012-06-24T06:55:07Z</time>
      </trkpt>
      <trkpt lat="42.7203" lon="1.40168">
        <ele>1772.80859375</ele>
        <time>2012-06-24T06:55:13Z</time>
      </trkpt>
      <trkpt lat="42.72034" lon="1.40165">
        <ele>1773.2893066406</ele>
        <time>2012-06-24T06:55:18Z</time>
      </trkpt>
      <trkpt lat="42.72039" lon="1.4016">
        <ele>1774.2504882812</ele>
        <time>2012-06-24T06:55:24Z</time>
      </trkpt>
      <trkpt lat="42.72042" lon="1.4016">
        <ele>1774.2504882812</ele>
        <time>2012-06-24T06:55:29Z</time>
      </trkpt>
      <trkpt lat="42.72045" lon="1.40157">
        <ele>1774.7312011719</ele>
        <time>2012-06-24T06:55:34Z</time>
      </trkpt>
      <trkpt lat="42.72048" lon="1.40154">
        <ele>1776.6538085938</ele>
        <time>2012-06-24T06:55:39Z</time>
      </trkpt>
      <trkpt lat="42.7205" lon="1.40148">
        <ele>1777.6149902344</ele>
        <time>2012-06-24T06:55:44Z</time>
      </trkpt>
      <trkpt lat="42.72051" lon="1.40142">
        <ele>1779.0568847656</ele>
        <time>2012-06-24T06:55:49Z</time>
      </trkpt>
      <trkpt lat="42.72052" lon="1.40139">
        <ele>1780.0183105469</ele>
        <time>2012-06-24T06:55:51Z</time>
      </trkpt>
      <trkpt lat="42.72055" lon="1.40137">
        <ele>1780.9797363281</ele>
        <time>2012-06-24T06:55:56Z</time>
      </trkpt>
      <trkpt lat="42.72057" lon="1.40136">
        <ele>1781.9409179688</ele>
        <time>2012-06-24T06:56:00Z</time>
      </trkpt>
      <trkpt lat="42.7206" lon="1.40135">
        <ele>1783.3828125</ele>
        <time>2012-06-24T06:56:05Z</time>
      </trkpt>
      <trkpt lat="42.72063" lon="1.40134">
        <ele>1784.8249511719</ele>
        <time>2012-06-24T06:56:11Z</time>
      </trkpt>
      <trkpt lat="42.72068" lon="1.40134">
        <ele>1785.3054199219</ele>
        <time>2012-06-24T06:56:18Z</time>
      </trkpt>
      <trkpt lat="42.72071" lon="1.40133">
        <ele>1786.2668457031</ele>
        <time>2012-06-24T06:56:23Z</time>
      </trkpt>
      <trkpt lat="42.72074" lon="1.40132">
        <ele>1787.7087402344</ele>
        <time>2012-06-24T06:56:29Z</time>
      </trkpt>
      <trkpt lat="42.72076" lon="1.40133">
        <ele>1788.6704101562</ele>
        <time>2012-06-24T06:56:34Z</time>
      </trkpt>
      <trkpt lat="42.72079" lon="1.40133">
        <ele>1789.6315917969</ele>
        <time>2012-06-24T06:56:39Z</time>
      </trkpt>
      <trkpt lat="42.72081" lon="1.40133">
        <ele>1790.5927734375</ele>
        <time>2012-06-24T06:56:44Z</time>
      </trkpt>
      <trkpt lat="42.72084" lon="1.40132">
        <ele>1791.5541992188</ele>
        <time>2012-06-24T06:56:50Z</time>
      </trkpt>
      <trkpt lat="42.72089" lon="1.40133">
        <ele>1792.99609375</ele>
        <time>2012-06-24T06:56:56Z</time>
      </trkpt>
      <trkpt lat="42.72091" lon="1.40134">
        <ele>1793.9575195312</ele>
        <time>2012-06-24T06:57:00Z</time>
      </trkpt>
      <trkpt lat="42.72093" lon="1.40134">
        <ele>1794.9187011719</ele>
        <time>2012-06-24T06:57:05Z</time>
      </trkpt>
      <trkpt lat="42.72097" lon="1.40132">
        <ele>1796.3608398438</ele>
        <time>2012-06-24T06:57:10Z</time>
      </trkpt>
      <trkpt lat="42.721" lon="1.40131">
        <ele>1798.283203125</ele>
        <time>2012-06-24T06:57:16Z</time>
      </trkpt>
      <trkpt lat="42.72101" lon="1.40133">
        <ele>1799.7253417969</ele>
        <time>2012-06-24T06:57:22Z</time>
      </trkpt>
      <trkpt lat="42.72103" lon="1.40134">
        <ele>1801.1672363281</ele>
        <time>2012-06-24T06:57:26Z</time>
      </trkpt>
      <trkpt lat="42.72105" lon="1.40134">
        <ele>1802.1284179688</ele>
        <time>2012-06-24T06:57:31Z</time>
      </trkpt>
      <trkpt lat="42.72108" lon="1.40134">
        <ele>1803.5705566406</ele>
        <time>2012-06-24T06:57:36Z</time>
      </trkpt>
      <trkpt lat="42.7211" lon="1.40136">
        <ele>1804.0515136719</ele>
        <time>2012-06-24T06:57:42Z</time>
      </trkpt>
      <trkpt lat="42.72112" lon="1.40138">
        <ele>1805.0126953125</ele>
        <time>2012-06-24T06:57:48Z</time>
      </trkpt>
      <trkpt lat="42.72113" lon="1.40139">
        <ele>1805.9738769531</ele>
        <time>2012-06-24T06:57:52Z</time>
      </trkpt>
      <trkpt lat="42.72114" lon="1.40141">
        <ele>1806.4545898438</ele>
        <time>2012-06-24T06:57:58Z</time>
      </trkpt>
      <trkpt lat="42.72116" lon="1.40141">
        <ele>1807.416015625</ele>
        <time>2012-06-24T06:58:06Z</time>
      </trkpt>
      <trkpt lat="42.72118" lon="1.40139">
        <ele>1808.8579101562</ele>
        <time>2012-06-24T06:58:11Z</time>
      </trkpt>
      <trkpt lat="42.7212" lon="1.40137">
        <ele>1810.2998046875</ele>
        <time>2012-06-24T06:58:16Z</time>
      </trkpt>
      <trkpt lat="42.72123" lon="1.40134">
        <ele>1812.2224121094</ele>
        <time>2012-06-24T06:58:23Z</time>
      </trkpt>
      <trkpt lat="42.72123" lon="1.40129">
        <ele>1813.1838378906</ele>
        <time>2012-06-24T06:58:30Z</time>
      </trkpt>
      <trkpt lat="42.72124" lon="1.40127">
        <ele>1813.6643066406</ele>
        <time>2012-06-24T06:58:35Z</time>
      </trkpt>
      <trkpt lat="42.72125" lon="1.40126">
        <ele>1815.1064453125</ele>
        <time>2012-06-24T06:58:40Z</time>
      </trkpt>
      <trkpt lat="42.72127" lon="1.40123">
        <ele>1816.0676269531</ele>
        <time>2012-06-24T06:58:46Z</time>
      </trkpt>
      <trkpt lat="42.72129" lon="1.40121">
        <ele>1817.5095214844</ele>
        <time>2012-06-24T06:58:54Z</time>
      </trkpt>
      <trkpt lat="42.72129" lon="1.40119">
        <ele>1817.5095214844</ele>
        <time>2012-06-24T06:58:59Z</time>
      </trkpt>
      <trkpt lat="42.72129" lon="1.40114">
        <ele>1819.4323730469</ele>
        <time>2012-06-24T06:59:05Z</time>
      </trkpt>
      <trkpt lat="42.72132" lon="1.40114">
        <ele>1820.8745117188</ele>
        <time>2012-06-24T06:59:10Z</time>
      </trkpt>
      <trkpt lat="42.72131" lon="1.40111">
        <ele>1822.31640625</ele>
        <time>2012-06-24T06:59:15Z</time>
      </trkpt>
      <trkpt lat="42.72133" lon="1.40109">
        <ele>1823.2778320312</ele>
        <time>2012-06-24T06:59:20Z</time>
      </trkpt>
      <trkpt lat="42.72136" lon="1.40109">
        <ele>1824.7197265625</ele>
        <time>2012-06-24T06:59:26Z</time>
      </trkpt>
      <trkpt lat="42.72137" lon="1.40106">
        <ele>1825.2001953125</ele>
        <time>2012-06-24T06:59:31Z</time>
      </trkpt>
      <trkpt lat="42.72139" lon="1.40104">
        <ele>1826.1616210938</ele>
        <time>2012-06-24T06:59:36Z</time>
      </trkpt>
      <trkpt lat="42.72141" lon="1.40104">
        <ele>1827.603515625</ele>
        <time>2012-06-24T06:59:42Z</time>
      </trkpt>
      <trkpt lat="42.72142" lon="1.40103">
        <ele>1829.0454101562</ele>
        <time>2012-06-24T06:59:48Z</time>
      </trkpt>
      <trkpt lat="42.72144" lon="1.401">
        <ele>1830.9682617188</ele>
        <time>2012-06-24T06:59:54Z</time>
      </trkpt>
      <trkpt lat="42.72145" lon="1.40102">
        <ele>1832.41015625</ele>
        <time>2012-06-24T07:00:00Z</time>
      </trkpt>
      <trkpt lat="42.72147" lon="1.40104">
        <ele>1833.3713378906</ele>
        <time>2012-06-24T07:00:06Z</time>
      </trkpt>
      <trkpt lat="42.72148" lon="1.40103">
        <ele>1834.8134765625</ele>
        <time>2012-06-24T07:00:11Z</time>
      </trkpt>
      <trkpt lat="42.72151" lon="1.40105">
        <ele>1836.7360839844</ele>
        <time>2012-06-24T07:00:19Z</time>
      </trkpt>
      <trkpt lat="42.72153" lon="1.40103">
        <ele>1838.1782226562</ele>
        <time>2012-06-24T07:00:25Z</time>
      </trkpt>
      <trkpt lat="42.72153" lon="1.40102">
        <ele>1838.1782226562</ele>
        <time>2012-06-24T07:00:35Z</time>
      </trkpt>
      <trkpt lat="42.72155" lon="1.40102">
        <ele>1838.6589355469</ele>
        <time>2012-06-24T07:00:53Z</time>
      </trkpt>
      <trkpt lat="42.72155" lon="1.401">
        <ele>1839.1394042969</ele>
        <time>2012-06-24T07:01:04Z</time>
      </trkpt>
      <trkpt lat="42.72157" lon="1.40097">
        <ele>1840.5812988281</ele>
        <time>2012-06-24T07:01:10Z</time>
      </trkpt>
      <trkpt lat="42.72159" lon="1.40097">
        <ele>1842.0234375</ele>
        <time>2012-06-24T07:01:15Z</time>
      </trkpt>
      <trkpt lat="42.72161" lon="1.40098">
        <ele>1843.4653320312</ele>
        <time>2012-06-24T07:01:20Z</time>
      </trkpt>
      <trkpt lat="42.72163" lon="1.401">
        <ele>1844.4265136719</ele>
        <time>2012-06-24T07:01:27Z</time>
      </trkpt>
      <trkpt lat="42.72163" lon="1.40101">
        <ele>1844.4265136719</ele>
        <time>2012-06-24T07:01:36Z</time>
      </trkpt>
      <trkpt lat="42.72165" lon="1.40102">
        <ele>1845.3879394531</ele>
        <time>2012-06-24T07:01:49Z</time>
      </trkpt>
      <trkpt lat="42.72167" lon="1.40099">
        <ele>1847.310546875</ele>
        <time>2012-06-24T07:01:54Z</time>
      </trkpt>
      <trkpt lat="42.7217" lon="1.40099">
        <ele>1848.2717285156</ele>
        <time>2012-06-24T07:01:58Z</time>
      </trkpt>
      <trkpt lat="42.72172" lon="1.401">
        <ele>1849.7138671875</ele>
        <time>2012-06-24T07:02:04Z</time>
      </trkpt>
      <trkpt lat="42.72174" lon="1.40101">
        <ele>1851.1557617188</ele>
        <time>2012-06-24T07:02:09Z</time>
      </trkpt>
      <trkpt lat="42.72176" lon="1.40102">
        <ele>1852.5979003906</ele>
        <time>2012-06-24T07:02:14Z</time>
      </trkpt>
      <trkpt lat="42.72177" lon="1.401">
        <ele>1854.5205078125</ele>
        <time>2012-06-24T07:02:19Z</time>
      </trkpt>
      <trkpt lat="42.72179" lon="1.40101">
        <ele>1855.4819335938</ele>
        <time>2012-06-24T07:02:24Z</time>
      </trkpt>
      <trkpt lat="42.7218" lon="1.40101">
        <ele>1857.4045410156</ele>
        <time>2012-06-24T07:02:30Z</time>
      </trkpt>
      <trkpt lat="42.72182" lon="1.401">
        <ele>1858.8464355469</ele>
        <time>2012-06-24T07:02:35Z</time>
      </trkpt>
      <trkpt lat="42.72184" lon="1.401">
        <ele>1860.7690429688</ele>
        <time>2012-06-24T07:02:41Z</time>
      </trkpt>
      <trkpt lat="42.72185" lon="1.40095">
        <ele>1863.1723632812</ele>
        <time>2012-06-24T07:02:49Z</time>
      </trkpt>
      <trkpt lat="42.72187" lon="1.40092">
        <ele>1865.0949707031</ele>
        <time>2012-06-24T07:02:55Z</time>
      </trkpt>
      <trkpt lat="42.72188" lon="1.40088">
        <ele>1866.5368652344</ele>
        <time>2012-06-24T07:03:00Z</time>
      </trkpt>
      <trkpt lat="42.72189" lon="1.40085">
        <ele>1867.498046875</ele>
        <time>2012-06-24T07:03:05Z</time>
      </trkpt>
      <trkpt lat="42.72189" lon="1.40082">
        <ele>1868.9404296875</ele>
        <time>2012-06-24T07:03:11Z</time>
      </trkpt>
      <trkpt lat="42.72192" lon="1.40082">
        <ele>1869.9016113281</ele>
        <time>2012-06-24T07:03:17Z</time>
      </trkpt>
      <trkpt lat="42.72194" lon="1.40081">
        <ele>1870.8630371094</ele>
        <time>2012-06-24T07:03:26Z</time>
      </trkpt>
      <trkpt lat="42.72195" lon="1.4008">
        <ele>1872.3049316406</ele>
        <time>2012-06-24T07:03:31Z</time>
      </trkpt>
      <trkpt lat="42.72196" lon="1.4008">
        <ele>1873.2663574219</ele>
        <time>2012-06-24T07:03:36Z</time>
      </trkpt>
      <trkpt lat="42.72196" lon="1.40079">
        <ele>1873.7468261719</ele>
        <time>2012-06-24T07:03:42Z</time>
      </trkpt>
      <trkpt lat="42.72196" lon="1.40076">
        <ele>1875.6694335938</ele>
        <time>2012-06-24T07:03:48Z</time>
      </trkpt>
      <trkpt lat="42.72197" lon="1.40074">
        <ele>1876.630859375</ele>
        <time>2012-06-24T07:03:54Z</time>
      </trkpt>
      <trkpt lat="42.72198" lon="1.40073">
        <ele>1877.5920410156</ele>
        <time>2012-06-24T07:04:00Z</time>
      </trkpt>
      <trkpt lat="42.72201" lon="1.40071">
        <ele>1879.0339355469</ele>
        <time>2012-06-24T07:04:07Z</time>
      </trkpt>
      <trkpt lat="42.72202" lon="1.40071">
        <ele>1879.5146484375</ele>
        <time>2012-06-24T07:04:13Z</time>
      </trkpt>
      <trkpt lat="42.72204" lon="1.40071">
        <ele>1880.9567871094</ele>
        <time>2012-06-24T07:04:20Z</time>
      </trkpt>
      <trkpt lat="42.72206" lon="1.4007">
        <ele>1881.91796875</ele>
        <time>2012-06-24T07:04:25Z</time>
      </trkpt>
      <trkpt lat="42.72208" lon="1.4007">
        <ele>1883.3598632812</ele>
        <time>2012-06-24T07:04:31Z</time>
      </trkpt>
      <trkpt lat="42.7221" lon="1.4007">
        <ele>1884.3215332031</ele>
        <time>2012-06-24T07:04:37Z</time>
      </trkpt>
      <trkpt lat="42.72211" lon="1.40068">
        <ele>1885.7634277344</ele>
        <time>2012-06-24T07:04:44Z</time>
      </trkpt>
      <trkpt lat="42.72213" lon="1.40067">
        <ele>1887.2053222656</ele>
        <time>2012-06-24T07:04:48Z</time>
      </trkpt>
      <trkpt lat="42.72214" lon="1.40067">
        <ele>1888.1667480469</ele>
        <time>2012-06-24T07:04:54Z</time>
      </trkpt>
      <trkpt lat="42.72214" lon="1.40065">
        <ele>1889.1279296875</ele>
        <time>2012-06-24T07:05:01Z</time>
      </trkpt>
      <trkpt lat="42.72213" lon="1.40061">
        <ele>1890.0893554688</ele>
        <time>2012-06-24T07:05:08Z</time>
      </trkpt>
      <trkpt lat="42.72215" lon="1.4006">
        <ele>1891.53125</ele>
        <time>2012-06-24T07:05:13Z</time>
      </trkpt>
      <trkpt lat="42.72217" lon="1.4006">
        <ele>1892.0119628906</ele>
        <time>2012-06-24T07:05:20Z</time>
      </trkpt>
      <trkpt lat="42.72219" lon="1.40059">
        <ele>1892.9731445312</ele>
        <time>2012-06-24T07:05:25Z</time>
      </trkpt>
      <trkpt lat="42.72221" lon="1.40058">
        <ele>1893.9345703125</ele>
        <time>2012-06-24T07:05:30Z</time>
      </trkpt>
      <trkpt lat="42.72223" lon="1.40057">
        <ele>1894.8957519531</ele>
        <time>2012-06-24T07:05:34Z</time>
      </trkpt>
      <trkpt lat="42.72224" lon="1.40056">
        <ele>1896.337890625</ele>
        <time>2012-06-24T07:05:39Z</time>
      </trkpt>
      <trkpt lat="42.72226" lon="1.40058">
        <ele>1897.7797851562</ele>
        <time>2012-06-24T07:05:45Z</time>
      </trkpt>
      <trkpt lat="42.72227" lon="1.40058">
        <ele>1898.7409667969</ele>
        <time>2012-06-24T07:05:52Z</time>
      </trkpt>
      <trkpt lat="42.72229" lon="1.40059">
        <ele>1899.7023925781</ele>
        <time>2012-06-24T07:05:58Z</time>
      </trkpt>
      <trkpt lat="42.72231" lon="1.40058">
        <ele>1901.6252441406</ele>
        <time>2012-06-24T07:06:05Z</time>
      </trkpt>
      <trkpt lat="42.72232" lon="1.40059">
        <ele>1902.5864257812</ele>
        <time>2012-06-24T07:06:10Z</time>
      </trkpt>
      <trkpt lat="42.72233" lon="1.40058">
        <ele>1903.5478515625</ele>
        <time>2012-06-24T07:06:14Z</time>
      </trkpt>
      <trkpt lat="42.72235" lon="1.40059">
        <ele>1903.5478515625</ele>
        <time>2012-06-24T07:06:21Z</time>
      </trkpt>
      <trkpt lat="42.72235" lon="1.40056">
        <ele>1905.4704589844</ele>
        <time>2012-06-24T07:06:29Z</time>
      </trkpt>
      <trkpt lat="42.72236" lon="1.40056">
        <ele>1906.431640625</ele>
        <time>2012-06-24T07:06:40Z</time>
      </trkpt>
      <trkpt lat="42.72237" lon="1.40057">
        <ele>1906.431640625</ele>
        <time>2012-06-24T07:06:49Z</time>
      </trkpt>
      <trkpt lat="42.72237" lon="1.40057">
        <ele>1906.431640625</ele>
        <time>2012-06-24T07:07:05Z</time>
      </trkpt>
      <trkpt lat="42.72237" lon="1.40056">
        <ele>1908.8349609375</ele>
        <time>2012-06-24T07:07:49Z</time>
      </trkpt>
      <trkpt lat="42.72239" lon="1.40054">
        <ele>1909.7961425781</ele>
        <time>2012-06-24T07:07:53Z</time>
      </trkpt>
      <trkpt lat="42.7224" lon="1.40053">
        <ele>1911.23828125</ele>
        <time>2012-06-24T07:07:57Z</time>
      </trkpt>
      <trkpt lat="42.72242" lon="1.40053">
        <ele>1912.6801757812</ele>
        <time>2012-06-24T07:08:02Z</time>
      </trkpt>
      <trkpt lat="42.72243" lon="1.40053">
        <ele>1913.1608886719</ele>
        <time>2012-06-24T07:08:05Z</time>
      </trkpt>
      <trkpt lat="42.72246" lon="1.40054">
        <ele>1913.6413574219</ele>
        <time>2012-06-24T07:08:10Z</time>
      </trkpt>
      <trkpt lat="42.72248" lon="1.40056">
        <ele>1914.6027832031</ele>
        <time>2012-06-24T07:08:16Z</time>
      </trkpt>
      <trkpt lat="42.72249" lon="1.40057">
        <ele>1915.5642089844</ele>
        <time>2012-06-24T07:08:21Z</time>
      </trkpt>
      <trkpt lat="42.7225" lon="1.40056">
        <ele>1917.0063476562</ele>
        <time>2012-06-24T07:08:29Z</time>
      </trkpt>
      <trkpt lat="42.72252" lon="1.40056">
        <ele>1918.9289550781</ele>
        <time>2012-06-24T07:08:35Z</time>
      </trkpt>
      <trkpt lat="42.72253" lon="1.40055">
        <ele>1920.8515625</ele>
        <time>2012-06-24T07:08:40Z</time>
      </trkpt>
      <trkpt lat="42.72255" lon="1.40055">
        <ele>1922.2934570312</ele>
        <time>2012-06-24T07:08:46Z</time>
      </trkpt>
      <trkpt lat="42.72256" lon="1.40057">
        <ele>1923.2548828125</ele>
        <time>2012-06-24T07:08:51Z</time>
      </trkpt>
      <trkpt lat="42.72258" lon="1.40056">
        <ele>1923.7353515625</ele>
        <time>2012-06-24T07:08:57Z</time>
      </trkpt>
      <trkpt lat="42.72259" lon="1.40053">
        <ele>1925.6579589844</ele>
        <time>2012-06-24T07:09:03Z</time>
      </trkpt>
      <trkpt lat="42.72261" lon="1.40054">
        <ele>1926.6193847656</ele>
        <time>2012-06-24T07:09:08Z</time>
      </trkpt>
      <trkpt lat="42.72263" lon="1.40055">
        <ele>1926.6193847656</ele>
        <time>2012-06-24T07:09:14Z</time>
      </trkpt>
      <trkpt lat="42.72265" lon="1.40054">
        <ele>1927.5805664062</ele>
        <time>2012-06-24T07:09:19Z</time>
      </trkpt>
      <trkpt lat="42.72267" lon="1.40055">
        <ele>1928.5419921875</ele>
        <time>2012-06-24T07:09:26Z</time>
      </trkpt>
      <trkpt lat="42.72269" lon="1.40056">
        <ele>1929.5031738281</ele>
        <time>2012-06-24T07:09:33Z</time>
      </trkpt>
      <trkpt lat="42.7227" lon="1.40057">
        <ele>1930.4645996094</ele>
        <time>2012-06-24T07:09:41Z</time>
      </trkpt>
      <trkpt lat="42.72271" lon="1.40057">
        <ele>1930.9453125</ele>
        <time>2012-06-24T07:09:51Z</time>
      </trkpt>
      <trkpt lat="42.72271" lon="1.40057">
        <ele>1931.9064941406</ele>
        <time>2012-06-24T07:10:02Z</time>
      </trkpt>
      <trkpt lat="42.72271" lon="1.40058">
        <ele>1931.9064941406</ele>
        <time>2012-06-24T07:10:10Z</time>
      </trkpt>
      <trkpt lat="42.72272" lon="1.40058">
        <ele>1931.9064941406</ele>
        <time>2012-06-24T07:10:28Z</time>
      </trkpt>
      <trkpt lat="42.72272" lon="1.40057">
        <ele>1932.8679199219</ele>
        <time>2012-06-24T07:10:39Z</time>
      </trkpt>
      <trkpt lat="42.72272" lon="1.40056">
        <ele>1933.8293457031</ele>
        <time>2012-06-24T07:10:47Z</time>
      </trkpt>
      <trkpt lat="42.72271" lon="1.40056">
        <ele>1937.1938476562</ele>
        <time>2012-06-24T07:11:08Z</time>
      </trkpt>
      <trkpt lat="42.72271" lon="1.40055">
        <ele>1939.5971679688</ele>
        <time>2012-06-24T07:11:22Z</time>
      </trkpt>
      <trkpt lat="42.72274" lon="1.40054">
        <ele>1940.5583496094</ele>
        <time>2012-06-24T07:11:27Z</time>
      </trkpt>
      <trkpt lat="42.72276" lon="1.40052">
        <ele>1941.5197753906</ele>
        <time>2012-06-24T07:11:31Z</time>
      </trkpt>
      <trkpt lat="42.72279" lon="1.40053">
        <ele>1943.9230957031</ele>
        <time>2012-06-24T07:11:39Z</time>
      </trkpt>
      <trkpt lat="42.72282" lon="1.40054">
        <ele>1944.4035644531</ele>
        <time>2012-06-24T07:11:44Z</time>
      </trkpt>
      <trkpt lat="42.72283" lon="1.40056">
        <ele>1946.3264160156</ele>
        <time>2012-06-24T07:11:50Z</time>
      </trkpt>
      <trkpt lat="42.72285" lon="1.40057">
        <ele>1948.2490234375</ele>
        <time>2012-06-24T07:11:57Z</time>
      </trkpt>
      <trkpt lat="42.72286" lon="1.40057">
        <ele>1949.2104492188</ele>
        <time>2012-06-24T07:12:03Z</time>
      </trkpt>
      <trkpt lat="42.72287" lon="1.40056">
        <ele>1950.171875</ele>
        <time>2012-06-24T07:12:08Z</time>
      </trkpt>
      <trkpt lat="42.72289" lon="1.40055">
        <ele>1951.1330566406</ele>
        <time>2012-06-24T07:12:14Z</time>
      </trkpt>
      <trkpt lat="42.72291" lon="1.40053">
        <ele>1952.0942382812</ele>
        <time>2012-06-24T07:12:20Z</time>
      </trkpt>
      <trkpt lat="42.72292" lon="1.40051">
        <ele>1953.5363769531</ele>
        <time>2012-06-24T07:12:25Z</time>
      </trkpt>
      <trkpt lat="42.72294" lon="1.40049">
        <ele>1954.0170898438</ele>
        <time>2012-06-24T07:12:30Z</time>
      </trkpt>
      <trkpt lat="42.72296" lon="1.40049">
        <ele>1955.939453125</ele>
        <time>2012-06-24T07:12:36Z</time>
      </trkpt>
      <trkpt lat="42.72298" lon="1.40052">
        <ele>1958.3427734375</ele>
        <time>2012-06-24T07:12:47Z</time>
      </trkpt>
      <trkpt lat="42.723" lon="1.40053">
        <ele>1959.7846679688</ele>
        <time>2012-06-24T07:12:55Z</time>
      </trkpt>
      <trkpt lat="42.72301" lon="1.40052">
        <ele>1961.2268066406</ele>
        <time>2012-06-24T07:13:01Z</time>
      </trkpt>
      <trkpt lat="42.72302" lon="1.40053">
        <ele>1962.6687011719</ele>
        <time>2012-06-24T07:13:06Z</time>
      </trkpt>
      <trkpt lat="42.72303" lon="1.40052">
        <ele>1963.1494140625</ele>
        <time>2012-06-24T07:13:12Z</time>
      </trkpt>
      <trkpt lat="42.72304" lon="1.40054">
        <ele>1963.6298828125</ele>
        <time>2012-06-24T07:13:20Z</time>
      </trkpt>
      <trkpt lat="42.72305" lon="1.40054">
        <ele>1965.072265625</ele>
        <time>2012-06-24T07:13:26Z</time>
      </trkpt>
      <trkpt lat="42.72307" lon="1.40056">
        <ele>1966.5141601562</ele>
        <time>2012-06-24T07:13:31Z</time>
      </trkpt>
      <trkpt lat="42.72308" lon="1.40058">
        <ele>1967.4753417969</ele>
        <time>2012-06-24T07:13:35Z</time>
      </trkpt>
      <trkpt lat="42.72308" lon="1.40061">
        <ele>1968.9174804688</ele>
        <time>2012-06-24T07:13:41Z</time>
      </trkpt>
      <trkpt lat="42.72309" lon="1.4006">
        <ele>1970.8400878906</ele>
        <time>2012-06-24T07:13:47Z</time>
      </trkpt>
      <trkpt lat="42.72312" lon="1.40061">
        <ele>1971.8012695312</ele>
        <time>2012-06-24T07:13:54Z</time>
      </trkpt>
      <trkpt lat="42.72312" lon="1.40059">
        <ele>1973.7238769531</ele>
        <time>2012-06-24T07:13:59Z</time>
      </trkpt>
      <trkpt lat="42.72314" lon="1.40057">
        <ele>1974.2045898438</ele>
        <time>2012-06-24T07:14:03Z</time>
      </trkpt>
      <trkpt lat="42.72316" lon="1.40059">
        <ele>1975.1657714844</ele>
        <time>2012-06-24T07:14:08Z</time>
      </trkpt>
      <trkpt lat="42.72318" lon="1.40059">
        <ele>1975.646484375</ele>
        <time>2012-06-24T07:14:16Z</time>
      </trkpt>
      <trkpt lat="42.72319" lon="1.40057">
        <ele>1975.646484375</ele>
        <time>2012-06-24T07:14:21Z</time>
      </trkpt>
      <trkpt lat="42.72321" lon="1.40057">
        <ele>1976.6079101562</ele>
        <time>2012-06-24T07:14:25Z</time>
      </trkpt>
      <trkpt lat="42.72324" lon="1.40055">
        <ele>1977.5690917969</ele>
        <time>2012-06-24T07:14:31Z</time>
      </trkpt>
      <trkpt lat="42.72327" lon="1.40052">
        <ele>1979.0109863281</ele>
        <time>2012-06-24T07:14:38Z</time>
      </trkpt>
      <trkpt lat="42.72329" lon="1.4005">
        <ele>1981.4145507812</ele>
        <time>2012-06-24T07:14:44Z</time>
      </trkpt>
      <trkpt lat="42.7233" lon="1.40049">
        <ele>1981.8952636719</ele>
        <time>2012-06-24T07:14:49Z</time>
      </trkpt>
      <trkpt lat="42.72332" lon="1.40046">
        <ele>1983.8178710938</ele>
        <time>2012-06-24T07:14:55Z</time>
      </trkpt>
      <trkpt lat="42.72332" lon="1.40046">
        <ele>1984.2985839844</ele>
        <time>2012-06-24T07:15:09Z</time>
      </trkpt>
      <trkpt lat="42.72335" lon="1.40044">
        <ele>1984.2985839844</ele>
        <time>2012-06-24T07:15:16Z</time>
      </trkpt>
      <trkpt lat="42.72337" lon="1.40045">
        <ele>1985.7404785156</ele>
        <time>2012-06-24T07:15:21Z</time>
      </trkpt>
      <trkpt lat="42.72338" lon="1.40044">
        <ele>1986.7016601562</ele>
        <time>2012-06-24T07:15:26Z</time>
      </trkpt>
      <trkpt lat="42.7234" lon="1.40043">
        <ele>1988.6245117188</ele>
        <time>2012-06-24T07:15:31Z</time>
      </trkpt>
      <trkpt lat="42.72342" lon="1.40045">
        <ele>1990.06640625</ele>
        <time>2012-06-24T07:15:37Z</time>
      </trkpt>
      <trkpt lat="42.72344" lon="1.40046">
        <ele>1990.546875</ele>
        <time>2012-06-24T07:15:44Z</time>
      </trkpt>
      <trkpt lat="42.72345" lon="1.40049">
        <ele>1991.9890136719</ele>
        <time>2012-06-24T07:15:50Z</time>
      </trkpt>
      <trkpt lat="42.72346" lon="1.40051">
        <ele>1993.4309082031</ele>
        <time>2012-06-24T07:15:55Z</time>
      </trkpt>
      <trkpt lat="42.72346" lon="1.40048">
        <ele>1994.3920898438</ele>
        <time>2012-06-24T07:16:00Z</time>
      </trkpt>
      <trkpt lat="42.72348" lon="1.40047">
        <ele>1995.8342285156</ele>
        <time>2012-06-24T07:16:05Z</time>
      </trkpt>
      <trkpt lat="42.72349" lon="1.40046">
        <ele>1997.7570800781</ele>
        <time>2012-06-24T07:16:12Z</time>
      </trkpt>
      <trkpt lat="42.7235" lon="1.40048">
        <ele>1999.1989746094</ele>
        <time>2012-06-24T07:16:17Z</time>
      </trkpt>
      <trkpt lat="42.72353" lon="1.40047">
        <ele>2001.6022949219</ele>
        <time>2012-06-24T07:16:24Z</time>
      </trkpt>
      <trkpt lat="42.72354" lon="1.40048">
        <ele>2002.5634765625</ele>
        <time>2012-06-24T07:16:31Z</time>
      </trkpt>
      <trkpt lat="42.72356" lon="1.40048">
        <ele>2002.5634765625</ele>
        <time>2012-06-24T07:16:35Z</time>
      </trkpt>
      <trkpt lat="42.72358" lon="1.40049">
        <ele>2004.0056152344</ele>
        <time>2012-06-24T07:16:40Z</time>
      </trkpt>
      <trkpt lat="42.72359" lon="1.4005">
        <ele>2005.9279785156</ele>
        <time>2012-06-24T07:16:46Z</time>
      </trkpt>
      <trkpt lat="42.72361" lon="1.40049">
        <ele>2007.8508300781</ele>
        <time>2012-06-24T07:16:54Z</time>
      </trkpt>
      <trkpt lat="42.72363" lon="1.40048">
        <ele>2008.3312988281</ele>
        <time>2012-06-24T07:16:58Z</time>
      </trkpt>
      <trkpt lat="42.72364" lon="1.40047">
        <ele>2009.2927246094</ele>
        <time>2012-06-24T07:17:04Z</time>
      </trkpt>
      <trkpt lat="42.72365" lon="1.40049">
        <ele>2010.25390625</ele>
        <time>2012-06-24T07:17:09Z</time>
      </trkpt>
      <trkpt lat="42.72365" lon="1.40051">
        <ele>2010.7346191406</ele>
        <time>2012-06-24T07:17:15Z</time>
      </trkpt>
      <trkpt lat="42.72367" lon="1.4005">
        <ele>2012.1767578125</ele>
        <time>2012-06-24T07:17:22Z</time>
      </trkpt>
      <trkpt lat="42.72369" lon="1.40048">
        <ele>2013.1381835938</ele>
        <time>2012-06-24T07:17:28Z</time>
      </trkpt>
      <trkpt lat="42.72371" lon="1.40046">
        <ele>2014.580078125</ele>
        <time>2012-06-24T07:17:35Z</time>
      </trkpt>
      <trkpt lat="42.72372" lon="1.40048">
        <ele>2015.5415039062</ele>
        <time>2012-06-24T07:17:41Z</time>
      </trkpt>
      <trkpt lat="42.72374" lon="1.40048">
        <ele>2017.9445800781</ele>
        <time>2012-06-24T07:17:48Z</time>
      </trkpt>
      <trkpt lat="42.72376" lon="1.40051">
        <ele>2019.8671875</ele>
        <time>2012-06-24T07:17:57Z</time>
      </trkpt>
      <trkpt lat="42.72378" lon="1.40052">
        <ele>2021.3090820312</ele>
        <time>2012-06-24T07:18:04Z</time>
      </trkpt>
      <trkpt lat="42.7238" lon="1.40054">
        <ele>2022.7512207031</ele>
        <time>2012-06-24T07:18:10Z</time>
      </trkpt>
      <trkpt lat="42.72381" lon="1.40053">
        <ele>2023.2319335938</ele>
        <time>2012-06-24T07:18:17Z</time>
      </trkpt>
      <trkpt lat="42.72383" lon="1.40054">
        <ele>2023.7124023438</ele>
        <time>2012-06-24T07:18:24Z</time>
      </trkpt>
      <trkpt lat="42.72387" lon="1.40053">
        <ele>2025.154296875</ele>
        <time>2012-06-24T07:18:34Z</time>
      </trkpt>
      <trkpt lat="42.7239" lon="1.40051">
        <ele>2027.0771484375</ele>
        <time>2012-06-24T07:18:44Z</time>
      </trkpt>
      <trkpt lat="42.72392" lon="1.4005">
        <ele>2027.5576171875</ele>
        <time>2012-06-24T07:18:50Z</time>
      </trkpt>
      <trkpt lat="42.72394" lon="1.4005">
        <ele>2030.4418945312</ele>
        <time>2012-06-24T07:18:59Z</time>
      </trkpt>
      <trkpt lat="42.72396" lon="1.40049">
        <ele>2032.3645019531</ele>
        <time>2012-06-24T07:19:05Z</time>
      </trkpt>
      <trkpt lat="42.72397" lon="1.40046">
        <ele>2033.3256835938</ele>
        <time>2012-06-24T07:19:11Z</time>
      </trkpt>
      <trkpt lat="42.72399" lon="1.40045">
        <ele>2034.287109375</ele>
        <time>2012-06-24T07:19:17Z</time>
      </trkpt>
      <trkpt lat="42.72401" lon="1.40048">
        <ele>2035.2482910156</ele>
        <time>2012-06-24T07:19:28Z</time>
      </trkpt>
      <trkpt lat="42.72404" lon="1.40047">
        <ele>2036.2097167969</ele>
        <time>2012-06-24T07:19:37Z</time>
      </trkpt>
      <trkpt lat="42.72406" lon="1.40047">
        <ele>2038.1323242188</ele>
        <time>2012-06-24T07:19:44Z</time>
      </trkpt>
      <trkpt lat="42.72407" lon="1.40048">
        <ele>2039.57421875</ele>
        <time>2012-06-24T07:19:50Z</time>
      </trkpt>
      <trkpt lat="42.72409" lon="1.4005">
        <ele>2041.0161132812</ele>
        <time>2012-06-24T07:19:56Z</time>
      </trkpt>
      <trkpt lat="42.7241" lon="1.40051">
        <ele>2041.9775390625</ele>
        <time>2012-06-24T07:20:03Z</time>
      </trkpt>
      <trkpt lat="42.72412" lon="1.4005">
        <ele>2042.4582519531</ele>
        <time>2012-06-24T07:20:10Z</time>
      </trkpt>
      <trkpt lat="42.72414" lon="1.40049">
        <ele>2043.4194335938</ele>
        <time>2012-06-24T07:20:15Z</time>
      </trkpt>
      <trkpt lat="42.72417" lon="1.4005">
        <ele>2045.8229980469</ele>
        <time>2012-06-24T07:20:28Z</time>
      </trkpt>
      <trkpt lat="42.72421" lon="1.40052">
        <ele>2046.7841796875</ele>
        <time>2012-06-24T07:20:43Z</time>
      </trkpt>
      <trkpt lat="42.72421" lon="1.40054">
        <ele>2048.7067871094</ele>
        <time>2012-06-24T07:20:49Z</time>
      </trkpt>
      <trkpt lat="42.72424" lon="1.40053">
        <ele>2049.1875</ele>
        <time>2012-06-24T07:20:56Z</time>
      </trkpt>
      <trkpt lat="42.72426" lon="1.40052">
        <ele>2050.6293945312</ele>
        <time>2012-06-24T07:21:01Z</time>
      </trkpt>
      <trkpt lat="42.72428" lon="1.40051">
        <ele>2051.1101074219</ele>
        <time>2012-06-24T07:21:06Z</time>
      </trkpt>
      <trkpt lat="42.7243" lon="1.4005">
        <ele>2052.0712890625</ele>
        <time>2012-06-24T07:21:13Z</time>
      </trkpt>
      <trkpt lat="42.72433" lon="1.40049">
        <ele>2053.5134277344</ele>
        <time>2012-06-24T07:21:20Z</time>
      </trkpt>
      <trkpt lat="42.72434" lon="1.40046">
        <ele>2055.4360351562</ele>
        <time>2012-06-24T07:21:25Z</time>
      </trkpt>
      <trkpt lat="42.72435" lon="1.40043">
        <ele>2057.8393554688</ele>
        <time>2012-06-24T07:21:31Z</time>
      </trkpt>
      <trkpt lat="42.72437" lon="1.40042">
        <ele>2058.8005371094</ele>
        <time>2012-06-24T07:21:37Z</time>
      </trkpt>
      <trkpt lat="42.72438" lon="1.40038">
        <ele>2061.2041015625</ele>
        <time>2012-06-24T07:21:42Z</time>
      </trkpt>
      <trkpt lat="42.72441" lon="1.40038">
        <ele>2061.6848144531</ele>
        <time>2012-06-24T07:21:48Z</time>
      </trkpt>
      <trkpt lat="42.72441" lon="1.40038">
        <ele>2063.1267089844</ele>
        <time>2012-06-24T07:21:58Z</time>
      </trkpt>
      <trkpt lat="42.7244" lon="1.40032">
        <ele>2066.4912109375</ele>
        <time>2012-06-24T07:22:24Z</time>
      </trkpt>
      <trkpt lat="42.72442" lon="1.40032">
        <ele>2067.9331054688</ele>
        <time>2012-06-24T07:22:29Z</time>
      </trkpt>
      <trkpt lat="42.72443" lon="1.40028">
        <ele>2069.3752441406</ele>
        <time>2012-06-24T07:22:34Z</time>
      </trkpt>
      <trkpt lat="42.72447" lon="1.40028">
        <ele>2069.3752441406</ele>
        <time>2012-06-24T07:22:39Z</time>
      </trkpt>
      <trkpt lat="42.7245" lon="1.40025">
        <ele>2070.8171386719</ele>
        <time>2012-06-24T07:22:50Z</time>
      </trkpt>
      <trkpt lat="42.72452" lon="1.40023">
        <ele>2072.2590332031</ele>
        <time>2012-06-24T07:22:55Z</time>
      </trkpt>
      <trkpt lat="42.72452" lon="1.40023">
        <ele>2072.7397460938</ele>
        <time>2012-06-24T07:22:56Z</time>
      </trkpt>
      <trkpt lat="42.72455" lon="1.40026">
        <ele>2072.7397460938</ele>
        <time>2012-06-24T07:23:01Z</time>
      </trkpt>
      <trkpt lat="42.72456" lon="1.40025">
        <ele>2074.181640625</ele>
        <time>2012-06-24T07:23:06Z</time>
      </trkpt>
      <trkpt lat="42.7246" lon="1.40022">
        <ele>2074.6623535156</ele>
        <time>2012-06-24T07:23:12Z</time>
      </trkpt>
      <trkpt lat="42.72462" lon="1.40021">
        <ele>2074.181640625</ele>
        <time>2012-06-24T07:23:18Z</time>
      </trkpt>
      <trkpt lat="42.72465" lon="1.4002">
        <ele>2074.181640625</ele>
        <time>2012-06-24T07:23:22Z</time>
      </trkpt>
      <trkpt lat="42.72468" lon="1.40018">
        <ele>2074.6623535156</ele>
        <time>2012-06-24T07:23:28Z</time>
      </trkpt>
      <trkpt lat="42.7247" lon="1.40017">
        <ele>2076.1044921875</ele>
        <time>2012-06-24T07:23:33Z</time>
      </trkpt>
      <trkpt lat="42.72473" lon="1.40018">
        <ele>2077.5463867188</ele>
        <time>2012-06-24T07:23:39Z</time>
      </trkpt>
      <trkpt lat="42.72478" lon="1.40015">
        <ele>2078.98828125</ele>
        <time>2012-06-24T07:23:48Z</time>
      </trkpt>
      <trkpt lat="42.7248" lon="1.40015">
        <ele>2079.4689941406</ele>
        <time>2012-06-24T07:23:56Z</time>
      </trkpt>
      <trkpt lat="42.7248" lon="1.40013">
        <ele>2078.98828125</ele>
        <time>2012-06-24T07:24:02Z</time>
      </trkpt>
      <trkpt lat="42.7248" lon="1.4001">
        <ele>2078.5078125</ele>
        <time>2012-06-24T07:24:07Z</time>
      </trkpt>
      <trkpt lat="42.72482" lon="1.40008">
        <ele>2078.5078125</ele>
        <time>2012-06-24T07:24:12Z</time>
      </trkpt>
      <trkpt lat="42.72484" lon="1.40005">
        <ele>2078.0270996094</ele>
        <time>2012-06-24T07:24:17Z</time>
      </trkpt>
      <trkpt lat="42.72485" lon="1.4">
        <ele>2078.0270996094</ele>
        <time>2012-06-24T07:24:24Z</time>
      </trkpt>
      <trkpt lat="42.72489" lon="1.39996">
        <ele>2078.5078125</ele>
        <time>2012-06-24T07:24:30Z</time>
      </trkpt>
      <trkpt lat="42.72492" lon="1.39992">
        <ele>2078.98828125</ele>
        <time>2012-06-24T07:24:37Z</time>
      </trkpt>
      <trkpt lat="42.72493" lon="1.3999">
        <ele>2078.98828125</ele>
        <time>2012-06-24T07:24:44Z</time>
      </trkpt>
      <trkpt lat="42.72494" lon="1.39988">
        <ele>2080.9111328125</ele>
        <time>2012-06-24T07:24:50Z</time>
      </trkpt>
      <trkpt lat="42.72495" lon="1.39985">
        <ele>2081.8723144531</ele>
        <time>2012-06-24T07:24:56Z</time>
      </trkpt>
      <trkpt lat="42.72496" lon="1.39984">
        <ele>2081.8723144531</ele>
        <time>2012-06-24T07:25:00Z</time>
      </trkpt>
      <trkpt lat="42.725" lon="1.39985">
        <ele>2082.3530273438</ele>
        <time>2012-06-24T07:25:06Z</time>
      </trkpt>
      <trkpt lat="42.725" lon="1.39982">
        <ele>2082.3530273438</ele>
        <time>2012-06-24T07:25:12Z</time>
      </trkpt>
      <trkpt lat="42.72502" lon="1.39977">
        <ele>2083.3142089844</ele>
        <time>2012-06-24T07:25:19Z</time>
      </trkpt>
      <trkpt lat="42.72504" lon="1.3997">
        <ele>2082.8334960938</ele>
        <time>2012-06-24T07:25:25Z</time>
      </trkpt>
      <trkpt lat="42.72505" lon="1.39968">
        <ele>2082.8334960938</ele>
        <time>2012-06-24T07:25:29Z</time>
      </trkpt>
      <trkpt lat="42.72506" lon="1.39965">
        <ele>2083.3142089844</ele>
        <time>2012-06-24T07:25:34Z</time>
      </trkpt>
      <trkpt lat="42.72506" lon="1.39962">
        <ele>2083.794921875</ele>
        <time>2012-06-24T07:25:38Z</time>
      </trkpt>
      <trkpt lat="42.72507" lon="1.39959">
        <ele>2084.2756347656</ele>
        <time>2012-06-24T07:25:43Z</time>
      </trkpt>
      <trkpt lat="42.72508" lon="1.39956">
        <ele>2085.2368164062</ele>
        <time>2012-06-24T07:25:48Z</time>
      </trkpt>
      <trkpt lat="42.72511" lon="1.39952">
        <ele>2085.7175292969</ele>
        <time>2012-06-24T07:25:54Z</time>
      </trkpt>
      <trkpt lat="42.72512" lon="1.39951">
        <ele>2086.6787109375</ele>
        <time>2012-06-24T07:26:00Z</time>
      </trkpt>
      <trkpt lat="42.72514" lon="1.39948">
        <ele>2087.6401367188</ele>
        <time>2012-06-24T07:26:07Z</time>
      </trkpt>
      <trkpt lat="42.72516" lon="1.39947">
        <ele>2087.6401367188</ele>
        <time>2012-06-24T07:26:14Z</time>
      </trkpt>
      <trkpt lat="42.72515" lon="1.39942">
        <ele>2089.08203125</ele>
        <time>2012-06-24T07:26:20Z</time>
      </trkpt>
      <trkpt lat="42.72515" lon="1.39937">
        <ele>2091.0046386719</ele>
        <time>2012-06-24T07:26:26Z</time>
      </trkpt>
      <trkpt lat="42.72514" lon="1.39931">
        <ele>2092.9274902344</ele>
        <time>2012-06-24T07:26:33Z</time>
      </trkpt>
      <trkpt lat="42.72514" lon="1.39929">
        <ele>2093.8889160156</ele>
        <time>2012-06-24T07:26:37Z</time>
      </trkpt>
      <trkpt lat="42.72514" lon="1.39927">
        <ele>2094.8500976562</ele>
        <time>2012-06-24T07:26:42Z</time>
      </trkpt>
      <trkpt lat="42.72516" lon="1.39926">
        <ele>2095.3308105469</ele>
        <time>2012-06-24T07:26:47Z</time>
      </trkpt>
      <trkpt lat="42.72519" lon="1.39927">
        <ele>2095.8115234375</ele>
        <time>2012-06-24T07:26:52Z</time>
      </trkpt>
      <trkpt lat="42.72523" lon="1.39926">
        <ele>2098.2145996094</ele>
        <time>2012-06-24T07:26:59Z</time>
      </trkpt>
      <trkpt lat="42.72525" lon="1.39926">
        <ele>2098.6953125</ele>
        <time>2012-06-24T07:27:04Z</time>
      </trkpt>
      <trkpt lat="42.72528" lon="1.39925">
        <ele>2099.1760253906</ele>
        <time>2012-06-24T07:27:11Z</time>
      </trkpt>
      <trkpt lat="42.72529" lon="1.39926">
        <ele>2100.1374511719</ele>
        <time>2012-06-24T07:27:16Z</time>
      </trkpt>
      <trkpt lat="42.72533" lon="1.39926">
        <ele>2102.5405273438</ele>
        <time>2012-06-24T07:27:28Z</time>
      </trkpt>
      <trkpt lat="42.72535" lon="1.39924">
        <ele>2103.501953125</ele>
        <time>2012-06-24T07:27:32Z</time>
      </trkpt>
      <trkpt lat="42.72538" lon="1.39925">
        <ele>2105.4245605469</ele>
        <time>2012-06-24T07:27:38Z</time>
      </trkpt>
      <trkpt lat="42.72539" lon="1.39927">
        <ele>2104.9438476562</ele>
        <time>2012-06-24T07:27:43Z</time>
      </trkpt>
      <trkpt lat="42.72541" lon="1.39929">
        <ele>2105.4245605469</ele>
        <time>2012-06-24T07:27:48Z</time>
      </trkpt>
      <trkpt lat="42.72545" lon="1.39931">
        <ele>2105.4245605469</ele>
        <time>2012-06-24T07:27:54Z</time>
      </trkpt>
      <trkpt lat="42.72547" lon="1.39933">
        <ele>2106.3857421875</ele>
        <time>2012-06-24T07:27:59Z</time>
      </trkpt>
      <trkpt lat="42.72546" lon="1.39934">
        <ele>2108.30859375</ele>
        <time>2012-06-24T07:28:03Z</time>
      </trkpt>
      <trkpt lat="42.72543" lon="1.39934">
        <ele>2114.0764160156</ele>
        <time>2012-06-24T07:28:15Z</time>
      </trkpt>
      <trkpt lat="42.72542" lon="1.39933">
        <ele>2114.5571289062</ele>
        <time>2012-06-24T07:28:34Z</time>
      </trkpt>
      <trkpt lat="42.72544" lon="1.39936">
        <ele>2114.0764160156</ele>
        <time>2012-06-24T07:28:38Z</time>
      </trkpt>
      <trkpt lat="42.72548" lon="1.39936">
        <ele>2114.0764160156</ele>
        <time>2012-06-24T07:28:44Z</time>
      </trkpt>
      <trkpt lat="42.7255" lon="1.39931">
        <ele>2114.5571289062</ele>
        <time>2012-06-24T07:28:51Z</time>
      </trkpt>
      <trkpt lat="42.72553" lon="1.39927">
        <ele>2115.0378417969</ele>
        <time>2012-06-24T07:28:59Z</time>
      </trkpt>
      <trkpt lat="42.72555" lon="1.39925">
        <ele>2114.5571289062</ele>
        <time>2012-06-24T07:29:06Z</time>
      </trkpt>
      <trkpt lat="42.72558" lon="1.39925">
        <ele>2114.5571289062</ele>
        <time>2012-06-24T07:29:11Z</time>
      </trkpt>
      <trkpt lat="42.72558" lon="1.39922">
        <ele>2115.9990234375</ele>
        <time>2012-06-24T07:29:17Z</time>
      </trkpt>
      <trkpt lat="42.72558" lon="1.39919">
        <ele>2116.4797363281</ele>
        <time>2012-06-24T07:29:22Z</time>
      </trkpt>
      <trkpt lat="42.72559" lon="1.39918">
        <ele>2116.9604492188</ele>
        <time>2012-06-24T07:29:28Z</time>
      </trkpt>
      <trkpt lat="42.7256" lon="1.39916">
        <ele>2117.4409179688</ele>
        <time>2012-06-24T07:29:33Z</time>
      </trkpt>
      <trkpt lat="42.72561" lon="1.3991">
        <ele>2117.4409179688</ele>
        <time>2012-06-24T07:29:39Z</time>
      </trkpt>
      <trkpt lat="42.72563" lon="1.39908">
        <ele>2117.9216308594</ele>
        <time>2012-06-24T07:29:44Z</time>
      </trkpt>
      <trkpt lat="42.72565" lon="1.39905">
        <ele>2118.8830566406</ele>
        <time>2012-06-24T07:29:50Z</time>
      </trkpt>
      <trkpt lat="42.72568" lon="1.39906">
        <ele>2118.8830566406</ele>
        <time>2012-06-24T07:29:56Z</time>
      </trkpt>
      <trkpt lat="42.72571" lon="1.39904">
        <ele>2118.8830566406</ele>
        <time>2012-06-24T07:30:01Z</time>
      </trkpt>
      <trkpt lat="42.72573" lon="1.39903">
        <ele>2119.3637695312</ele>
        <time>2012-06-24T07:30:06Z</time>
      </trkpt>
      <trkpt lat="42.72575" lon="1.39903">
        <ele>2119.8442382812</ele>
        <time>2012-06-24T07:30:10Z</time>
      </trkpt>
      <trkpt lat="42.72577" lon="1.39905">
        <ele>2121.2861328125</ele>
        <time>2012-06-24T07:30:15Z</time>
      </trkpt>
      <trkpt lat="42.7258" lon="1.39906">
        <ele>2122.2475585938</ele>
        <time>2012-06-24T07:30:21Z</time>
      </trkpt>
      <trkpt lat="42.7258" lon="1.39904">
        <ele>2123.208984375</ele>
        <time>2012-06-24T07:30:26Z</time>
      </trkpt>
      <trkpt lat="42.72581" lon="1.39901">
        <ele>2123.689453125</ele>
        <time>2012-06-24T07:30:31Z</time>
      </trkpt>
      <trkpt lat="42.72583" lon="1.39898">
        <ele>2125.1315917969</ele>
        <time>2012-06-24T07:30:37Z</time>
      </trkpt>
      <trkpt lat="42.72585" lon="1.39896">
        <ele>2126.5737304688</ele>
        <time>2012-06-24T07:30:43Z</time>
      </trkpt>
      <trkpt lat="42.72588" lon="1.39894">
        <ele>2127.0544433594</ele>
        <time>2012-06-24T07:30:49Z</time>
      </trkpt>
      <trkpt lat="42.72589" lon="1.39895">
        <ele>2128.015625</ele>
        <time>2012-06-24T07:30:54Z</time>
      </trkpt>
      <trkpt lat="42.72591" lon="1.39893">
        <ele>2129.4575195312</ele>
        <time>2012-06-24T07:31:01Z</time>
      </trkpt>
      <trkpt lat="42.72593" lon="1.39894">
        <ele>2130.4189453125</ele>
        <time>2012-06-24T07:31:06Z</time>
      </trkpt>
      <trkpt lat="42.72594" lon="1.39893">
        <ele>2131.3801269531</ele>
        <time>2012-06-24T07:31:11Z</time>
      </trkpt>
      <trkpt lat="42.72596" lon="1.39894">
        <ele>2132.8220214844</ele>
        <time>2012-06-24T07:31:16Z</time>
      </trkpt>
      <trkpt lat="42.72597" lon="1.39896">
        <ele>2133.302734375</ele>
        <time>2012-06-24T07:31:21Z</time>
      </trkpt>
      <trkpt lat="42.72599" lon="1.39896">
        <ele>2134.2641601562</ele>
        <time>2012-06-24T07:31:28Z</time>
      </trkpt>
      <trkpt lat="42.72602" lon="1.39895">
        <ele>2134.7448730469</ele>
        <time>2012-06-24T07:31:33Z</time>
      </trkpt>
      <trkpt lat="42.72606" lon="1.39894">
        <ele>2135.7060546875</ele>
        <time>2012-06-24T07:31:41Z</time>
      </trkpt>
      <trkpt lat="42.72609" lon="1.39895">
        <ele>2136.1867675781</ele>
        <time>2012-06-24T07:31:46Z</time>
      </trkpt>
      <trkpt lat="42.7261" lon="1.39895">
        <ele>2137.6286621094</ele>
        <time>2012-06-24T07:31:51Z</time>
      </trkpt>
      <trkpt lat="42.72612" lon="1.39895">
        <ele>2140.5126953125</ele>
        <time>2012-06-24T07:32:00Z</time>
      </trkpt>
      <trkpt lat="42.72615" lon="1.39896">
        <ele>2141.4741210938</ele>
        <time>2012-06-24T07:32:05Z</time>
      </trkpt>
      <trkpt lat="42.72617" lon="1.39898">
        <ele>2142.916015625</ele>
        <time>2012-06-24T07:32:10Z</time>
      </trkpt>
      <trkpt lat="42.72619" lon="1.39897">
        <ele>2145.3193359375</ele>
        <time>2012-06-24T07:32:17Z</time>
      </trkpt>
      <trkpt lat="42.72622" lon="1.39898">
        <ele>2147.2419433594</ele>
        <time>2012-06-24T07:32:25Z</time>
      </trkpt>
      <trkpt lat="42.72624" lon="1.39898">
        <ele>2149.1645507812</ele>
        <time>2012-06-24T07:32:33Z</time>
      </trkpt>
      <trkpt lat="42.72625" lon="1.39897">
        <ele>2150.1259765625</ele>
        <time>2012-06-24T07:32:38Z</time>
      </trkpt>
      <trkpt lat="42.72626" lon="1.39893">
        <ele>2151.5678710938</ele>
        <time>2012-06-24T07:32:43Z</time>
      </trkpt>
      <trkpt lat="42.72629" lon="1.39894">
        <ele>2153.4904785156</ele>
        <time>2012-06-24T07:32:51Z</time>
      </trkpt>
      <trkpt lat="42.72631" lon="1.39894">
        <ele>2153.9711914062</ele>
        <time>2012-06-24T07:32:57Z</time>
      </trkpt>
      <trkpt lat="42.72633" lon="1.39895">
        <ele>2154.9323730469</ele>
        <time>2012-06-24T07:33:01Z</time>
      </trkpt>
      <trkpt lat="42.72633" lon="1.39893">
        <ele>2157.3359375</ele>
        <time>2012-06-24T07:33:06Z</time>
      </trkpt>
      <trkpt lat="42.72634" lon="1.39891">
        <ele>2157.8166503906</ele>
        <time>2012-06-24T07:33:23Z</time>
      </trkpt>
      <trkpt lat="42.72637" lon="1.3989">
        <ele>2158.7778320312</ele>
        <time>2012-06-24T07:33:28Z</time>
      </trkpt>
      <trkpt lat="42.72639" lon="1.39888">
        <ele>2159.2585449219</ele>
        <time>2012-06-24T07:33:33Z</time>
      </trkpt>
      <trkpt lat="42.72642" lon="1.39887">
        <ele>2160.2197265625</ele>
        <time>2012-06-24T07:33:38Z</time>
      </trkpt>
      <trkpt lat="42.72644" lon="1.39887">
        <ele>2160.2197265625</ele>
        <time>2012-06-24T07:33:43Z</time>
      </trkpt>
      <trkpt lat="42.72647" lon="1.39887">
        <ele>2161.6618652344</ele>
        <time>2012-06-24T07:33:49Z</time>
      </trkpt>
      <trkpt lat="42.72649" lon="1.39888">
        <ele>2162.1423339844</ele>
        <time>2012-06-24T07:33:55Z</time>
      </trkpt>
      <trkpt lat="42.72651" lon="1.39886">
        <ele>2163.5842285156</ele>
        <time>2012-06-24T07:34:00Z</time>
      </trkpt>
      <trkpt lat="42.72652" lon="1.39883">
        <ele>2165.0263671875</ele>
        <time>2012-06-24T07:34:05Z</time>
      </trkpt>
      <trkpt lat="42.72655" lon="1.39881">
        <ele>2166.9489746094</ele>
        <time>2012-06-24T07:34:11Z</time>
      </trkpt>
      <trkpt lat="42.72658" lon="1.39879">
        <ele>2168.3908691406</ele>
        <time>2012-06-24T07:34:17Z</time>
      </trkpt>
      <trkpt lat="42.7266" lon="1.39878">
        <ele>2169.8327636719</ele>
        <time>2012-06-24T07:34:22Z</time>
      </trkpt>
      <trkpt lat="42.72662" lon="1.39878">
        <ele>2170.7941894531</ele>
        <time>2012-06-24T07:34:27Z</time>
      </trkpt>
      <trkpt lat="42.72665" lon="1.39875">
        <ele>2171.7553710938</ele>
        <time>2012-06-24T07:34:33Z</time>
      </trkpt>
      <trkpt lat="42.72669" lon="1.39873">
        <ele>2172.236328125</ele>
        <time>2012-06-24T07:34:38Z</time>
      </trkpt>
      <trkpt lat="42.72672" lon="1.39872">
        <ele>2172.7170410156</ele>
        <time>2012-06-24T07:34:43Z</time>
      </trkpt>
      <trkpt lat="42.72675" lon="1.3987">
        <ele>2172.236328125</ele>
        <time>2012-06-24T07:34:48Z</time>
      </trkpt>
      <trkpt lat="42.72678" lon="1.39866">
        <ele>2173.1977539062</ele>
        <time>2012-06-24T07:34:53Z</time>
      </trkpt>
      <trkpt lat="42.72681" lon="1.39862">
        <ele>2173.6782226562</ele>
        <time>2012-06-24T07:34:58Z</time>
      </trkpt>
      <trkpt lat="42.72683" lon="1.39858">
        <ele>2174.1589355469</ele>
        <time>2012-06-24T07:35:03Z</time>
      </trkpt>
      <trkpt lat="42.72686" lon="1.39856">
        <ele>2174.1589355469</ele>
        <time>2012-06-24T07:35:07Z</time>
      </trkpt>
      <trkpt lat="42.72689" lon="1.39853">
        <ele>2174.1589355469</ele>
        <time>2012-06-24T07:35:13Z</time>
      </trkpt>
      <trkpt lat="42.72692" lon="1.39849">
        <ele>2175.6008300781</ele>
        <time>2012-06-24T07:35:19Z</time>
      </trkpt>
      <trkpt lat="42.72694" lon="1.39846">
        <ele>2177.04296875</ele>
        <time>2012-06-24T07:35:25Z</time>
      </trkpt>
      <trkpt lat="42.72696" lon="1.39844">
        <ele>2178.4848632812</ele>
        <time>2012-06-24T07:35:30Z</time>
      </trkpt>
      <trkpt lat="42.72697" lon="1.39842">
        <ele>2179.4460449219</ele>
        <time>2012-06-24T07:35:35Z</time>
      </trkpt>
      <trkpt lat="42.72699" lon="1.39842">
        <ele>2180.4074707031</ele>
        <time>2012-06-24T07:35:40Z</time>
      </trkpt>
      <trkpt lat="42.72701" lon="1.3984">
        <ele>2180.8881835938</ele>
        <time>2012-06-24T07:35:45Z</time>
      </trkpt>
      <trkpt lat="42.72704" lon="1.39835">
        <ele>2181.8493652344</ele>
        <time>2012-06-24T07:35:51Z</time>
      </trkpt>
      <trkpt lat="42.72704" lon="1.3983">
        <ele>2182.810546875</ele>
        <time>2012-06-24T07:35:56Z</time>
      </trkpt>
      <trkpt lat="42.72705" lon="1.39825">
        <ele>2183.7719726562</ele>
        <time>2012-06-24T07:36:03Z</time>
      </trkpt>
      <trkpt lat="42.72709" lon="1.39822">
        <ele>2185.6945800781</ele>
        <time>2012-06-24T07:36:10Z</time>
      </trkpt>
      <trkpt lat="42.7271" lon="1.39821">
        <ele>2186.1752929688</ele>
        <time>2012-06-24T07:36:14Z</time>
      </trkpt>
      <trkpt lat="42.72712" lon="1.3982">
        <ele>2186.6557617188</ele>
        <time>2012-06-24T07:36:18Z</time>
      </trkpt>
      <trkpt lat="42.72713" lon="1.39818">
        <ele>2187.6171875</ele>
        <time>2012-06-24T07:36:24Z</time>
      </trkpt>
      <trkpt lat="42.72715" lon="1.39819">
        <ele>2187.6171875</ele>
        <time>2012-06-24T07:36:30Z</time>
      </trkpt>
      <trkpt lat="42.72716" lon="1.3982">
        <ele>2188.5788574219</ele>
        <time>2012-06-24T07:36:34Z</time>
      </trkpt>
      <trkpt lat="42.72718" lon="1.39821">
        <ele>2189.5400390625</ele>
        <time>2012-06-24T07:36:39Z</time>
      </trkpt>
      <trkpt lat="42.72721" lon="1.39822">
        <ele>2190.9819335938</ele>
        <time>2012-06-24T07:36:45Z</time>
      </trkpt>
      <trkpt lat="42.72724" lon="1.39825">
        <ele>2191.4626464844</ele>
        <time>2012-06-24T07:36:53Z</time>
      </trkpt>
      <trkpt lat="42.72726" lon="1.39826">
        <ele>2191.943359375</ele>
        <time>2012-06-24T07:36:58Z</time>
      </trkpt>
      <trkpt lat="42.72727" lon="1.39823">
        <ele>2193.3852539062</ele>
        <time>2012-06-24T07:37:04Z</time>
      </trkpt>
      <trkpt lat="42.72728" lon="1.39818">
        <ele>2194.8271484375</ele>
        <time>2012-06-24T07:37:10Z</time>
      </trkpt>
      <trkpt lat="42.7273" lon="1.39816">
        <ele>2197.23046875</ele>
        <time>2012-06-24T07:37:16Z</time>
      </trkpt>
      <trkpt lat="42.72732" lon="1.39817">
        <ele>2198.1916503906</ele>
        <time>2012-06-24T07:37:22Z</time>
      </trkpt>
      <trkpt lat="42.72734" lon="1.39814">
        <ele>2200.1145019531</ele>
        <time>2012-06-24T07:37:27Z</time>
      </trkpt>
      <trkpt lat="42.72735" lon="1.39812">
        <ele>2201.5563964844</ele>
        <time>2012-06-24T07:37:32Z</time>
      </trkpt>
      <trkpt lat="42.72737" lon="1.3981">
        <ele>2203.4790039062</ele>
        <time>2012-06-24T07:37:37Z</time>
      </trkpt>
      <trkpt lat="42.72739" lon="1.3981">
        <ele>2204.9211425781</ele>
        <time>2012-06-24T07:37:42Z</time>
      </trkpt>
      <trkpt lat="42.7274" lon="1.39808">
        <ele>2205.4018554688</ele>
        <time>2012-06-24T07:37:48Z</time>
      </trkpt>
      <trkpt lat="42.7274" lon="1.39805">
        <ele>2206.3630371094</ele>
        <time>2012-06-24T07:37:53Z</time>
      </trkpt>
      <trkpt lat="42.72742" lon="1.39804">
        <ele>2208.2856445312</ele>
        <time>2012-06-24T07:37:59Z</time>
      </trkpt>
      <trkpt lat="42.72746" lon="1.39805">
        <ele>2209.7275390625</ele>
        <time>2012-06-24T07:38:06Z</time>
      </trkpt>
      <trkpt lat="42.72747" lon="1.39805">
        <ele>2210.6889648438</ele>
        <time>2012-06-24T07:38:10Z</time>
      </trkpt>
      <trkpt lat="42.72749" lon="1.39807">
        <ele>2211.1696777344</ele>
        <time>2012-06-24T07:38:15Z</time>
      </trkpt>
      <trkpt lat="42.72752" lon="1.39808">
        <ele>2213.0922851562</ele>
        <time>2012-06-24T07:38:23Z</time>
      </trkpt>
      <trkpt lat="42.72754" lon="1.39806">
        <ele>2213.5727539062</ele>
        <time>2012-06-24T07:38:29Z</time>
      </trkpt>
      <trkpt lat="42.72754" lon="1.398">
        <ele>2215.4956054688</ele>
        <time>2012-06-24T07:38:36Z</time>
      </trkpt>
      <trkpt lat="42.72754" lon="1.39798">
        <ele>2217.41796875</ele>
        <time>2012-06-24T07:38:42Z</time>
      </trkpt>
      <trkpt lat="42.72755" lon="1.39793">
        <ele>2217.41796875</ele>
        <time>2012-06-24T07:38:47Z</time>
      </trkpt>
      <trkpt lat="42.72758" lon="1.39788">
        <ele>2218.8601074219</ele>
        <time>2012-06-24T07:38:54Z</time>
      </trkpt>
      <trkpt lat="42.72761" lon="1.39785">
        <ele>2218.8601074219</ele>
        <time>2012-06-24T07:38:59Z</time>
      </trkpt>
      <trkpt lat="42.72762" lon="1.39781">
        <ele>2220.3022460938</ele>
        <time>2012-06-24T07:39:04Z</time>
      </trkpt>
      <trkpt lat="42.72764" lon="1.39778">
        <ele>2219.8212890625</ele>
        <time>2012-06-24T07:39:08Z</time>
      </trkpt>
      <trkpt lat="42.72766" lon="1.39777">
        <ele>2221.2634277344</ele>
        <time>2012-06-24T07:39:13Z</time>
      </trkpt>
      <trkpt lat="42.72768" lon="1.39775">
        <ele>2222.7055664062</ele>
        <time>2012-06-24T07:39:18Z</time>
      </trkpt>
      <trkpt lat="42.72769" lon="1.39773">
        <ele>2223.6667480469</ele>
        <time>2012-06-24T07:39:23Z</time>
      </trkpt>
      <trkpt lat="42.72772" lon="1.39768">
        <ele>2225.5893554688</ele>
        <time>2012-06-24T07:39:31Z</time>
      </trkpt>
      <trkpt lat="42.72774" lon="1.39766">
        <ele>2226.55078125</ele>
        <time>2012-06-24T07:39:36Z</time>
      </trkpt>
      <trkpt lat="42.72778" lon="1.39763">
        <ele>2227.5119628906</ele>
        <time>2012-06-24T07:39:42Z</time>
      </trkpt>
      <trkpt lat="42.72779" lon="1.39761">
        <ele>2228.9538574219</ele>
        <time>2012-06-24T07:39:47Z</time>
      </trkpt>
      <trkpt lat="42.72782" lon="1.3976">
        <ele>2229.9152832031</ele>
        <time>2012-06-24T07:39:52Z</time>
      </trkpt>
      <trkpt lat="42.72784" lon="1.39759">
        <ele>2230.8767089844</ele>
        <time>2012-06-24T07:39:56Z</time>
      </trkpt>
      <trkpt lat="42.72787" lon="1.39757">
        <ele>2231.837890625</ele>
        <time>2012-06-24T07:40:03Z</time>
      </trkpt>
      <trkpt lat="42.72789" lon="1.39755">
        <ele>2232.7990722656</ele>
        <time>2012-06-24T07:40:07Z</time>
      </trkpt>
      <trkpt lat="42.72791" lon="1.39753">
        <ele>2233.2797851562</ele>
        <time>2012-06-24T07:40:11Z</time>
      </trkpt>
      <trkpt lat="42.72792" lon="1.39753">
        <ele>2233.7604980469</ele>
        <time>2012-06-24T07:40:15Z</time>
      </trkpt>
      <trkpt lat="42.72795" lon="1.39753">
        <ele>2234.2412109375</ele>
        <time>2012-06-24T07:40:19Z</time>
      </trkpt>
      <trkpt lat="42.72797" lon="1.39753">
        <ele>2235.2023925781</ele>
        <time>2012-06-24T07:40:24Z</time>
      </trkpt>
      <trkpt lat="42.72799" lon="1.3975">
        <ele>2236.64453125</ele>
        <time>2012-06-24T07:40:29Z</time>
      </trkpt>
      <trkpt lat="42.728" lon="1.39749">
        <ele>2237.1252441406</ele>
        <time>2012-06-24T07:40:33Z</time>
      </trkpt>
      <trkpt lat="42.72802" lon="1.39748">
        <ele>2238.5673828125</ele>
        <time>2012-06-24T07:40:38Z</time>
      </trkpt>
      <trkpt lat="42.72805" lon="1.3975">
        <ele>2242.8930664062</ele>
        <time>2012-06-24T07:40:55Z</time>
      </trkpt>
      <trkpt lat="42.72809" lon="1.3975">
        <ele>2243.3737792969</ele>
        <time>2012-06-24T07:41:02Z</time>
      </trkpt>
      <trkpt lat="42.72811" lon="1.3975">
        <ele>2243.8544921875</ele>
        <time>2012-06-24T07:41:06Z</time>
      </trkpt>
      <trkpt lat="42.72812" lon="1.39746">
        <ele>2245.7770996094</ele>
        <time>2012-06-24T07:41:12Z</time>
      </trkpt>
      <trkpt lat="42.72812" lon="1.39742">
        <ele>2247.2189941406</ele>
        <time>2012-06-24T07:41:17Z</time>
      </trkpt>
      <trkpt lat="42.72815" lon="1.3974">
        <ele>2247.6997070312</ele>
        <time>2012-06-24T07:41:25Z</time>
      </trkpt>
      <trkpt lat="42.72817" lon="1.39741">
        <ele>2248.6608886719</ele>
        <time>2012-06-24T07:41:30Z</time>
      </trkpt>
      <trkpt lat="42.72819" lon="1.39742">
        <ele>2249.6223144531</ele>
        <time>2012-06-24T07:41:37Z</time>
      </trkpt>
      <trkpt lat="42.72819" lon="1.3974">
        <ele>2250.5834960938</ele>
        <time>2012-06-24T07:41:42Z</time>
      </trkpt>
      <trkpt lat="42.72821" lon="1.39738">
        <ele>2252.0256347656</ele>
        <time>2012-06-24T07:41:48Z</time>
      </trkpt>
      <trkpt lat="42.72824" lon="1.39737">
        <ele>2254.4289550781</ele>
        <time>2012-06-24T07:41:57Z</time>
      </trkpt>
      <trkpt lat="42.72826" lon="1.39737">
        <ele>2255.3903808594</ele>
        <time>2012-06-24T07:42:02Z</time>
      </trkpt>
      <trkpt lat="42.72829" lon="1.39737">
        <ele>2256.8322753906</ele>
        <time>2012-06-24T07:42:07Z</time>
      </trkpt>
      <trkpt lat="42.7283" lon="1.39735">
        <ele>2258.7548828125</ele>
        <time>2012-06-24T07:42:15Z</time>
      </trkpt>
      <trkpt lat="42.72832" lon="1.39732">
        <ele>2259.7160644531</ele>
        <time>2012-06-24T07:42:23Z</time>
      </trkpt>
      <trkpt lat="42.72834" lon="1.3973">
        <ele>2259.7160644531</ele>
        <time>2012-06-24T07:42:28Z</time>
      </trkpt>
      <trkpt lat="42.72837" lon="1.39729">
        <ele>2260.1967773438</ele>
        <time>2012-06-24T07:42:33Z</time>
      </trkpt>
      <trkpt lat="42.72839" lon="1.39728">
        <ele>2261.6389160156</ele>
        <time>2012-06-24T07:42:38Z</time>
      </trkpt>
      <trkpt lat="42.7284" lon="1.39726">
        <ele>2262.6000976562</ele>
        <time>2012-06-24T07:42:43Z</time>
      </trkpt>
      <trkpt lat="42.72843" lon="1.39724">
        <ele>2263.5612792969</ele>
        <time>2012-06-24T07:42:49Z</time>
      </trkpt>
      <trkpt lat="42.72845" lon="1.3972">
        <ele>2265.0034179688</ele>
        <time>2012-06-24T07:42:56Z</time>
      </trkpt>
      <trkpt lat="42.72848" lon="1.39719">
        <ele>2265.9645996094</ele>
        <time>2012-06-24T07:43:01Z</time>
      </trkpt>
      <trkpt lat="42.7285" lon="1.39716">
        <ele>2267.8872070312</ele>
        <time>2012-06-24T07:43:09Z</time>
      </trkpt>
      <trkpt lat="42.72853" lon="1.39716">
        <ele>2268.8488769531</ele>
        <time>2012-06-24T07:43:15Z</time>
      </trkpt>
      <trkpt lat="42.72855" lon="1.39716">
        <ele>2269.8100585938</ele>
        <time>2012-06-24T07:43:21Z</time>
      </trkpt>
      <trkpt lat="42.72856" lon="1.39713">
        <ele>2269.3295898438</ele>
        <time>2012-06-24T07:43:26Z</time>
      </trkpt>
      <trkpt lat="42.72858" lon="1.39709">
        <ele>2270.771484375</ele>
        <time>2012-06-24T07:43:33Z</time>
      </trkpt>
      <trkpt lat="42.72861" lon="1.39707">
        <ele>2271.7326660156</ele>
        <time>2012-06-24T07:43:38Z</time>
      </trkpt>
      <trkpt lat="42.72865" lon="1.39706">
        <ele>2272.6940917969</ele>
        <time>2012-06-24T07:43:43Z</time>
      </trkpt>
      <trkpt lat="42.72867" lon="1.39707">
        <ele>2272.6940917969</ele>
        <time>2012-06-24T07:43:47Z</time>
      </trkpt>
      <trkpt lat="42.72869" lon="1.39707">
        <ele>2273.1748046875</ele>
        <time>2012-06-24T07:43:51Z</time>
      </trkpt>
      <trkpt lat="42.72871" lon="1.39704">
        <ele>2274.1359863281</ele>
        <time>2012-06-24T07:43:57Z</time>
      </trkpt>
      <trkpt lat="42.72873" lon="1.39702">
        <ele>2275.0971679688</ele>
        <time>2012-06-24T07:44:02Z</time>
      </trkpt>
      <trkpt lat="42.72875" lon="1.397">
        <ele>2276.5393066406</ele>
        <time>2012-06-24T07:44:10Z</time>
      </trkpt>
      <trkpt lat="42.72877" lon="1.39698">
        <ele>2277.5004882812</ele>
        <time>2012-06-24T07:44:14Z</time>
      </trkpt>
      <trkpt lat="42.72878" lon="1.39696">
        <ele>2278.9423828125</ele>
        <time>2012-06-24T07:44:19Z</time>
      </trkpt>
      <trkpt lat="42.7288" lon="1.39694">
        <ele>2279.9038085938</ele>
        <time>2012-06-24T07:44:24Z</time>
      </trkpt>
      <trkpt lat="42.72882" lon="1.39692">
        <ele>2281.345703125</ele>
        <time>2012-06-24T07:44:29Z</time>
      </trkpt>
      <trkpt lat="42.72883" lon="1.39691">
        <ele>2282.3071289062</ele>
        <time>2012-06-24T07:44:33Z</time>
      </trkpt>
      <trkpt lat="42.72886" lon="1.39691">
        <ele>2283.7490234375</ele>
        <time>2012-06-24T07:44:41Z</time>
      </trkpt>
      <trkpt lat="42.72888" lon="1.39689">
        <ele>2283.2683105469</ele>
        <time>2012-06-24T07:44:50Z</time>
      </trkpt>
      <trkpt lat="42.72891" lon="1.39689">
        <ele>2287.5944824219</ele>
        <time>2012-06-24T07:44:58Z</time>
      </trkpt>
      <trkpt lat="42.72893" lon="1.39689">
        <ele>2290.4782714844</ele>
        <time>2012-06-24T07:45:05Z</time>
      </trkpt>
      <trkpt lat="42.72895" lon="1.39688">
        <ele>2292.4011230469</ele>
        <time>2012-06-24T07:45:09Z</time>
      </trkpt>
      <trkpt lat="42.72896" lon="1.39688">
        <ele>2293.8430175781</ele>
        <time>2012-06-24T07:45:15Z</time>
      </trkpt>
      <trkpt lat="42.72898" lon="1.39686">
        <ele>2294.8041992188</ele>
        <time>2012-06-24T07:45:20Z</time>
      </trkpt>
      <trkpt lat="42.729" lon="1.39686">
        <ele>2295.2849121094</ele>
        <time>2012-06-24T07:45:26Z</time>
      </trkpt>
      <trkpt lat="42.729" lon="1.39686">
        <ele>2295.2849121094</ele>
        <time>2012-06-24T07:45:27Z</time>
      </trkpt>
      <trkpt lat="42.72895" lon="1.39681">
        <ele>2297.2075195312</ele>
        <time>2012-06-24T07:52:57Z</time>
      </trkpt>
      <trkpt lat="42.72895" lon="1.39681">
        <ele>2297.2075195312</ele>
        <time>2012-06-24T07:52:58Z</time>
      </trkpt>
      <trkpt lat="42.72898" lon="1.39679">
        <ele>2297.2075195312</ele>
        <time>2012-06-24T07:53:02Z</time>
      </trkpt>
      <trkpt lat="42.72902" lon="1.39679">
        <ele>2297.2075195312</ele>
        <time>2012-06-24T07:53:07Z</time>
      </trkpt>
      <trkpt lat="42.72903" lon="1.39675">
        <ele>2298.6494140625</ele>
        <time>2012-06-24T07:53:12Z</time>
      </trkpt>
      <trkpt lat="42.72905" lon="1.39675">
        <ele>2298.6494140625</ele>
        <time>2012-06-24T07:53:16Z</time>
      </trkpt>
      <trkpt lat="42.72907" lon="1.39674">
        <ele>2299.1301269531</ele>
        <time>2012-06-24T07:53:20Z</time>
      </trkpt>
      <trkpt lat="42.72908" lon="1.39674">
        <ele>2300.091796875</ele>
        <time>2012-06-24T07:53:28Z</time>
      </trkpt>
      <trkpt lat="42.7291" lon="1.39674">
        <ele>2299.1301269531</ele>
        <time>2012-06-24T07:53:45Z</time>
      </trkpt>
      <trkpt lat="42.72913" lon="1.3967">
        <ele>2299.6108398438</ele>
        <time>2012-06-24T07:53:52Z</time>
      </trkpt>
      <trkpt lat="42.72915" lon="1.39668">
        <ele>2299.6108398438</ele>
        <time>2012-06-24T07:53:57Z</time>
      </trkpt>
      <trkpt lat="42.72916" lon="1.39665">
        <ele>2300.572265625</ele>
        <time>2012-06-24T07:54:02Z</time>
      </trkpt>
      <trkpt lat="42.72917" lon="1.39662">
        <ele>2300.572265625</ele>
        <time>2012-06-24T07:54:08Z</time>
      </trkpt>
      <trkpt lat="42.72917" lon="1.39659">
        <ele>2301.0529785156</ele>
        <time>2012-06-24T07:54:14Z</time>
      </trkpt>
      <trkpt lat="42.72917" lon="1.39656">
        <ele>2301.5336914062</ele>
        <time>2012-06-24T07:54:21Z</time>
      </trkpt>
      <trkpt lat="42.72918" lon="1.39653">
        <ele>2302.9755859375</ele>
        <time>2012-06-24T07:54:26Z</time>
      </trkpt>
      <trkpt lat="42.72919" lon="1.39652">
        <ele>2302.9755859375</ele>
        <time>2012-06-24T07:54:31Z</time>
      </trkpt>
      <trkpt lat="42.72923" lon="1.39648">
        <ele>2301.5336914062</ele>
        <time>2012-06-24T07:54:40Z</time>
      </trkpt>
      <trkpt lat="42.72923" lon="1.39645">
        <ele>2301.0529785156</ele>
        <time>2012-06-24T07:54:45Z</time>
      </trkpt>
      <trkpt lat="42.72923" lon="1.39638">
        <ele>2302.4948730469</ele>
        <time>2012-06-24T07:54:52Z</time>
      </trkpt>
      <trkpt lat="42.72924" lon="1.39636">
        <ele>2303.4562988281</ele>
        <time>2012-06-24T07:54:57Z</time>
      </trkpt>
      <trkpt lat="42.72924" lon="1.39633">
        <ele>2304.8981933594</ele>
        <time>2012-06-24T07:55:02Z</time>
      </trkpt>
      <trkpt lat="42.72924" lon="1.39628">
        <ele>2306.3400878906</ele>
        <time>2012-06-24T07:55:08Z</time>
      </trkpt>
      <trkpt lat="42.72927" lon="1.39624">
        <ele>2308.2626953125</ele>
        <time>2012-06-24T07:55:15Z</time>
      </trkpt>
      <trkpt lat="42.72928" lon="1.3962">
        <ele>2309.2241210938</ele>
        <time>2012-06-24T07:55:22Z</time>
      </trkpt>
      <trkpt lat="42.72929" lon="1.39617">
        <ele>2310.1853027344</ele>
        <time>2012-06-24T07:55:26Z</time>
      </trkpt>
      <trkpt lat="42.72931" lon="1.39615">
        <ele>2311.1467285156</ele>
        <time>2012-06-24T07:55:31Z</time>
      </trkpt>
      <trkpt lat="42.72932" lon="1.39612">
        <ele>2312.5886230469</ele>
        <time>2012-06-24T07:55:37Z</time>
      </trkpt>
      <trkpt lat="42.72934" lon="1.3961">
        <ele>2314.5112304688</ele>
        <time>2012-06-24T07:55:43Z</time>
      </trkpt>
      <trkpt lat="42.72936" lon="1.3961">
        <ele>2315.953125</ele>
        <time>2012-06-24T07:55:49Z</time>
      </trkpt>
      <trkpt lat="42.72939" lon="1.3961">
        <ele>2316.4340820312</ele>
        <time>2012-06-24T07:55:54Z</time>
      </trkpt>
      <trkpt lat="42.72941" lon="1.3961">
        <ele>2317.3952636719</ele>
        <time>2012-06-24T07:56:00Z</time>
      </trkpt>
      <trkpt lat="42.72942" lon="1.39609">
        <ele>2318.8374023438</ele>
        <time>2012-06-24T07:56:06Z</time>
      </trkpt>
      <trkpt lat="42.72942" lon="1.39606">
        <ele>2320.7600097656</ele>
        <time>2012-06-24T07:56:11Z</time>
      </trkpt>
      <trkpt lat="42.72944" lon="1.39605">
        <ele>2321.7211914062</ele>
        <time>2012-06-24T07:56:16Z</time>
      </trkpt>
      <trkpt lat="42.72945" lon="1.39601">
        <ele>2323.6437988281</ele>
        <time>2012-06-24T07:56:22Z</time>
      </trkpt>
      <trkpt lat="42.72947" lon="1.39599">
        <ele>2324.6052246094</ele>
        <time>2012-06-24T07:56:28Z</time>
      </trkpt>
      <trkpt lat="42.72948" lon="1.39598">
        <ele>2325.56640625</ele>
        <time>2012-06-24T07:56:33Z</time>
      </trkpt>
      <trkpt lat="42.72948" lon="1.39595">
        <ele>2326.5278320312</ele>
        <time>2012-06-24T07:56:39Z</time>
      </trkpt>
      <trkpt lat="42.72949" lon="1.39592">
        <ele>2327.9697265625</ele>
        <time>2012-06-24T07:56:45Z</time>
      </trkpt>
      <trkpt lat="42.72953" lon="1.39592">
        <ele>2328.9309082031</ele>
        <time>2012-06-24T07:56:54Z</time>
      </trkpt>
      <trkpt lat="42.72955" lon="1.39592">
        <ele>2329.4116210938</ele>
        <time>2012-06-24T07:57:00Z</time>
      </trkpt>
      <trkpt lat="42.72958" lon="1.39592">
        <ele>2330.8537597656</ele>
        <time>2012-06-24T07:57:08Z</time>
      </trkpt>
      <trkpt lat="42.72959" lon="1.3959">
        <ele>2332.2958984375</ele>
        <time>2012-06-24T07:57:14Z</time>
      </trkpt>
      <trkpt lat="42.72961" lon="1.3959">
        <ele>2332.7763671875</ele>
        <time>2012-06-24T07:57:18Z</time>
      </trkpt>
      <trkpt lat="42.72962" lon="1.39589">
        <ele>2333.7377929688</ele>
        <time>2012-06-24T07:57:24Z</time>
      </trkpt>
      <trkpt lat="42.72962" lon="1.39584">
        <ele>2335.6604003906</ele>
        <time>2012-06-24T07:57:30Z</time>
      </trkpt>
      <trkpt lat="42.72963" lon="1.39582">
        <ele>2336.6215820312</ele>
        <time>2012-06-24T07:57:34Z</time>
      </trkpt>
      <trkpt lat="42.72964" lon="1.3958">
        <ele>2338.0637207031</ele>
        <time>2012-06-24T07:57:39Z</time>
      </trkpt>
      <trkpt lat="42.72966" lon="1.39579">
        <ele>2339.0249023438</ele>
        <time>2012-06-24T07:57:44Z</time>
      </trkpt>
      <trkpt lat="42.72968" lon="1.39578">
        <ele>2339.986328125</ele>
        <time>2012-06-24T07:57:50Z</time>
      </trkpt>
      <trkpt lat="42.72969" lon="1.39574">
        <ele>2341.4282226562</ele>
        <time>2012-06-24T07:57:56Z</time>
      </trkpt>
      <trkpt lat="42.72971" lon="1.39569">
        <ele>2342.3896484375</ele>
        <time>2012-06-24T07:58:02Z</time>
      </trkpt>
      <trkpt lat="42.72972" lon="1.39565">
        <ele>2343.3508300781</ele>
        <time>2012-06-24T07:58:08Z</time>
      </trkpt>
      <trkpt lat="42.72974" lon="1.39562">
        <ele>2344.3120117188</ele>
        <time>2012-06-24T07:58:14Z</time>
      </trkpt>
      <trkpt lat="42.72975" lon="1.39561">
        <ele>2344.7927246094</ele>
        <time>2012-06-24T07:58:18Z</time>
      </trkpt>
      <trkpt lat="42.72976" lon="1.39557">
        <ele>2345.2734375</ele>
        <time>2012-06-24T07:58:25Z</time>
      </trkpt>
      <trkpt lat="42.72976" lon="1.3955">
        <ele>2345.7541503906</ele>
        <time>2012-06-24T07:58:32Z</time>
      </trkpt>
      <trkpt lat="42.72977" lon="1.39547">
        <ele>2346.7153320312</ele>
        <time>2012-06-24T07:58:37Z</time>
      </trkpt>
      <trkpt lat="42.72978" lon="1.39547">
        <ele>2347.6767578125</ele>
        <time>2012-06-24T07:58:41Z</time>
      </trkpt>
      <trkpt lat="42.7298" lon="1.39546">
        <ele>2348.6381835938</ele>
        <time>2012-06-24T07:58:46Z</time>
      </trkpt>
      <trkpt lat="42.72982" lon="1.39544">
        <ele>2350.0803222656</ele>
        <time>2012-06-24T07:58:52Z</time>
      </trkpt>
      <trkpt lat="42.72985" lon="1.39544">
        <ele>2351.0415039062</ele>
        <time>2012-06-24T07:58:58Z</time>
      </trkpt>
      <trkpt lat="42.72987" lon="1.39543">
        <ele>2352.4833984375</ele>
        <time>2012-06-24T07:59:03Z</time>
      </trkpt>
      <trkpt lat="42.7299" lon="1.39542">
        <ele>2353.4448242188</ele>
        <time>2012-06-24T07:59:09Z</time>
      </trkpt>
      <trkpt lat="42.72992" lon="1.39543">
        <ele>2354.88671875</ele>
        <time>2012-06-24T07:59:13Z</time>
      </trkpt>
      <trkpt lat="42.72994" lon="1.39542">
        <ele>2356.3286132812</ele>
        <time>2012-06-24T07:59:20Z</time>
      </trkpt>
      <trkpt lat="42.72996" lon="1.39541">
        <ele>2357.2900390625</ele>
        <time>2012-06-24T07:59:26Z</time>
      </trkpt>
      <trkpt lat="42.72997" lon="1.39541">
        <ele>2358.2512207031</ele>
        <time>2012-06-24T07:59:31Z</time>
      </trkpt>
      <trkpt lat="42.73" lon="1.39541">
        <ele>2359.2126464844</ele>
        <time>2012-06-24T07:59:38Z</time>
      </trkpt>
      <trkpt lat="42.73002" lon="1.3954">
        <ele>2360.173828125</ele>
        <time>2012-06-24T07:59:43Z</time>
      </trkpt>
      <trkpt lat="42.73005" lon="1.39538">
        <ele>2361.1352539062</ele>
        <time>2012-06-24T07:59:48Z</time>
      </trkpt>
      <trkpt lat="42.73006" lon="1.39538">
        <ele>2362.0964355469</ele>
        <time>2012-06-24T07:59:54Z</time>
      </trkpt>
      <trkpt lat="42.73008" lon="1.39538">
        <ele>2362.5771484375</ele>
        <time>2012-06-24T08:00:02Z</time>
      </trkpt>
      <trkpt lat="42.73009" lon="1.39536">
        <ele>2363.5383300781</ele>
        <time>2012-06-24T08:00:10Z</time>
      </trkpt>
      <trkpt lat="42.73011" lon="1.39534">
        <ele>2364.5</ele>
        <time>2012-06-24T08:00:15Z</time>
      </trkpt>
      <trkpt lat="42.73013" lon="1.39535">
        <ele>2365.9418945312</ele>
        <time>2012-06-24T08:00:21Z</time>
      </trkpt>
      <trkpt lat="42.73014" lon="1.39535">
        <ele>2366.4226074219</ele>
        <time>2012-06-24T08:00:26Z</time>
      </trkpt>
      <trkpt lat="42.73016" lon="1.39534">
        <ele>2367.8645019531</ele>
        <time>2012-06-24T08:00:31Z</time>
      </trkpt>
      <trkpt lat="42.73018" lon="1.39534">
        <ele>2368.8259277344</ele>
        <time>2012-06-24T08:00:36Z</time>
      </trkpt>
      <trkpt lat="42.73019" lon="1.39532">
        <ele>2370.2678222656</ele>
        <time>2012-06-24T08:00:41Z</time>
      </trkpt>
      <trkpt lat="42.73021" lon="1.3953">
        <ele>2372.1904296875</ele>
        <time>2012-06-24T08:00:48Z</time>
      </trkpt>
      <trkpt lat="42.73023" lon="1.3953">
        <ele>2373.1518554688</ele>
        <time>2012-06-24T08:00:53Z</time>
      </trkpt>
      <trkpt lat="42.73024" lon="1.39532">
        <ele>2374.1130371094</ele>
        <time>2012-06-24T08:00:58Z</time>
      </trkpt>
      <trkpt lat="42.73026" lon="1.39532">
        <ele>2374.59375</ele>
        <time>2012-06-24T08:01:03Z</time>
      </trkpt>
      <trkpt lat="42.73027" lon="1.39532">
        <ele>2375.5549316406</ele>
        <time>2012-06-24T08:01:10Z</time>
      </trkpt>
      <trkpt lat="42.73029" lon="1.39529">
        <ele>2376.5163574219</ele>
        <time>2012-06-24T08:01:17Z</time>
      </trkpt>
      <trkpt lat="42.73029" lon="1.39527">
        <ele>2376.9970703125</ele>
        <time>2012-06-24T08:01:27Z</time>
      </trkpt>
      <trkpt lat="42.73031" lon="1.39526">
        <ele>2377.4775390625</ele>
        <time>2012-06-24T08:01:32Z</time>
      </trkpt>
      <trkpt lat="42.73034" lon="1.39524">
        <ele>2379.4001464844</ele>
        <time>2012-06-24T08:01:39Z</time>
      </trkpt>
      <trkpt lat="42.73036" lon="1.39522">
        <ele>2380.8425292969</ele>
        <time>2012-06-24T08:01:45Z</time>
      </trkpt>
      <trkpt lat="42.73035" lon="1.3952">
        <ele>2381.8037109375</ele>
        <time>2012-06-24T08:01:51Z</time>
      </trkpt>
      <trkpt lat="42.73034" lon="1.39517">
        <ele>2383.2456054688</ele>
        <time>2012-06-24T08:01:57Z</time>
      </trkpt>
      <trkpt lat="42.73035" lon="1.39515">
        <ele>2384.20703125</ele>
        <time>2012-06-24T08:02:02Z</time>
      </trkpt>
      <trkpt lat="42.73035" lon="1.39513">
        <ele>2385.1682128906</ele>
        <time>2012-06-24T08:02:10Z</time>
      </trkpt>
      <trkpt lat="42.73035" lon="1.39508">
        <ele>2386.1296386719</ele>
        <time>2012-06-24T08:02:15Z</time>
      </trkpt>
      <trkpt lat="42.73035" lon="1.39502">
        <ele>2387.0908203125</ele>
        <time>2012-06-24T08:02:22Z</time>
      </trkpt>
      <trkpt lat="42.73036" lon="1.39501">
        <ele>2387.5715332031</ele>
        <time>2012-06-24T08:02:28Z</time>
      </trkpt>
      <trkpt lat="42.73035" lon="1.39497">
        <ele>2389.494140625</ele>
        <time>2012-06-24T08:02:47Z</time>
      </trkpt>
      <trkpt lat="42.73037" lon="1.39492">
        <ele>2390.9360351562</ele>
        <time>2012-06-24T08:02:53Z</time>
      </trkpt>
      <trkpt lat="42.73038" lon="1.39489">
        <ele>2391.4167480469</ele>
        <time>2012-06-24T08:02:59Z</time>
      </trkpt>
      <trkpt lat="42.7304" lon="1.39486">
        <ele>2391.8974609375</ele>
        <time>2012-06-24T08:03:08Z</time>
      </trkpt>
      <trkpt lat="42.73041" lon="1.39484">
        <ele>2392.3781738281</ele>
        <time>2012-06-24T08:03:13Z</time>
      </trkpt>
      <trkpt lat="42.73044" lon="1.39484">
        <ele>2393.3393554688</ele>
        <time>2012-06-24T08:03:19Z</time>
      </trkpt>
      <trkpt lat="42.73046" lon="1.39485">
        <ele>2393.8200683594</ele>
        <time>2012-06-24T08:03:24Z</time>
      </trkpt>
      <trkpt lat="42.73047" lon="1.39482">
        <ele>2395.2619628906</ele>
        <time>2012-06-24T08:03:30Z</time>
      </trkpt>
      <trkpt lat="42.73049" lon="1.39482">
        <ele>2396.7041015625</ele>
        <time>2012-06-24T08:03:35Z</time>
      </trkpt>
      <trkpt lat="42.7305" lon="1.3948">
        <ele>2398.1459960938</ele>
        <time>2012-06-24T08:03:40Z</time>
      </trkpt>
      <trkpt lat="42.73051" lon="1.39478">
        <ele>2399.107421875</ele>
        <time>2012-06-24T08:03:46Z</time>
      </trkpt>
      <trkpt lat="42.73052" lon="1.39474">
        <ele>2401.0300292969</ele>
        <time>2012-06-24T08:03:52Z</time>
      </trkpt>
      <trkpt lat="42.73053" lon="1.39472">
        <ele>2401.9912109375</ele>
        <time>2012-06-24T08:03:57Z</time>
      </trkpt>
      <trkpt lat="42.73053" lon="1.39469">
        <ele>2402.9526367188</ele>
        <time>2012-06-24T08:04:04Z</time>
      </trkpt>
      <trkpt lat="42.73055" lon="1.39468">
        <ele>2403.9140625</ele>
        <time>2012-06-24T08:04:09Z</time>
      </trkpt>
      <trkpt lat="42.73056" lon="1.39466">
        <ele>2406.3171386719</ele>
        <time>2012-06-24T08:04:29Z</time>
      </trkpt>
      <trkpt lat="42.73058" lon="1.39463">
        <ele>2406.7978515625</ele>
        <time>2012-06-24T08:04:36Z</time>
      </trkpt>
      <trkpt lat="42.73061" lon="1.39462">
        <ele>2407.2785644531</ele>
        <time>2012-06-24T08:04:41Z</time>
      </trkpt>
      <trkpt lat="42.73063" lon="1.39461">
        <ele>2408.2397460938</ele>
        <time>2012-06-24T08:04:46Z</time>
      </trkpt>
      <trkpt lat="42.73066" lon="1.39459">
        <ele>2408.7204589844</ele>
        <time>2012-06-24T08:04:52Z</time>
      </trkpt>
      <trkpt lat="42.73069" lon="1.39456">
        <ele>2409.201171875</ele>
        <time>2012-06-24T08:05:00Z</time>
      </trkpt>
      <trkpt lat="42.7307" lon="1.39452">
        <ele>2409.681640625</ele>
        <time>2012-06-24T08:05:07Z</time>
      </trkpt>
      <trkpt lat="42.7307" lon="1.3945">
        <ele>2410.6430664062</ele>
        <time>2012-06-24T08:05:14Z</time>
      </trkpt>
      <trkpt lat="42.73069" lon="1.39445">
        <ele>2411.1237792969</ele>
        <time>2012-06-24T08:05:20Z</time>
      </trkpt>
      <trkpt lat="42.73072" lon="1.39442">
        <ele>2411.6044921875</ele>
        <time>2012-06-24T08:05:26Z</time>
      </trkpt>
      <trkpt lat="42.73075" lon="1.39442">
        <ele>2413.0466308594</ele>
        <time>2012-06-24T08:05:31Z</time>
      </trkpt>
      <trkpt lat="42.73079" lon="1.39441">
        <ele>2414.0078125</ele>
        <time>2012-06-24T08:05:36Z</time>
      </trkpt>
      <trkpt lat="42.73081" lon="1.39442">
        <ele>2414.9692382812</ele>
        <time>2012-06-24T08:05:41Z</time>
      </trkpt>
      <trkpt lat="42.73084" lon="1.39442">
        <ele>2416.4111328125</ele>
        <time>2012-06-24T08:05:47Z</time>
      </trkpt>
      <trkpt lat="42.73086" lon="1.39441">
        <ele>2417.8530273438</ele>
        <time>2012-06-24T08:05:52Z</time>
      </trkpt>
      <trkpt lat="42.73087" lon="1.39441">
        <ele>2418.3337402344</ele>
        <time>2012-06-24T08:05:57Z</time>
      </trkpt>
      <trkpt lat="42.73088" lon="1.3944">
        <ele>2419.2951660156</ele>
        <time>2012-06-24T08:06:02Z</time>
      </trkpt>
      <trkpt lat="42.73091" lon="1.39439">
        <ele>2420.2563476562</ele>
        <time>2012-06-24T08:06:08Z</time>
      </trkpt>
      <trkpt lat="42.73092" lon="1.39438">
        <ele>2421.2175292969</ele>
        <time>2012-06-24T08:06:14Z</time>
      </trkpt>
      <trkpt lat="42.73093" lon="1.39439">
        <ele>2421.6982421875</ele>
        <time>2012-06-24T08:06:23Z</time>
      </trkpt>
      <trkpt lat="42.73096" lon="1.3944">
        <ele>2422.6596679688</ele>
        <time>2012-06-24T08:06:39Z</time>
      </trkpt>
      <trkpt lat="42.73097" lon="1.39439">
        <ele>2424.1015625</ele>
        <time>2012-06-24T08:06:45Z</time>
      </trkpt>
      <trkpt lat="42.73099" lon="1.39439">
        <ele>2425.0627441406</ele>
        <time>2012-06-24T08:06:51Z</time>
      </trkpt>
      <trkpt lat="42.73101" lon="1.39438">
        <ele>2425.5434570312</ele>
        <time>2012-06-24T08:06:56Z</time>
      </trkpt>
      <trkpt lat="42.73103" lon="1.39436">
        <ele>2427.4660644531</ele>
        <time>2012-06-24T08:07:03Z</time>
      </trkpt>
      <trkpt lat="42.73104" lon="1.39436">
        <ele>2429.3889160156</ele>
        <time>2012-06-24T08:07:07Z</time>
      </trkpt>
      <trkpt lat="42.73105" lon="1.39438">
        <ele>2430.3503417969</ele>
        <time>2012-06-24T08:07:14Z</time>
      </trkpt>
      <trkpt lat="42.73106" lon="1.39435">
        <ele>2431.7922363281</ele>
        <time>2012-06-24T08:07:20Z</time>
      </trkpt>
      <trkpt lat="42.73106" lon="1.39432">
        <ele>2432.7534179688</ele>
        <time>2012-06-24T08:07:25Z</time>
      </trkpt>
      <trkpt lat="42.73108" lon="1.39431">
        <ele>2433.2341308594</ele>
        <time>2012-06-24T08:07:32Z</time>
      </trkpt>
      <trkpt lat="42.73109" lon="1.3943">
        <ele>2434.6762695312</ele>
        <time>2012-06-24T08:07:38Z</time>
      </trkpt>
      <trkpt lat="42.73111" lon="1.39429">
        <ele>2435.6374511719</ele>
        <time>2012-06-24T08:07:46Z</time>
      </trkpt>
      <trkpt lat="42.73112" lon="1.39424">
        <ele>2437.5600585938</ele>
        <time>2012-06-24T08:07:54Z</time>
      </trkpt>
      <trkpt lat="42.73114" lon="1.39426">
        <ele>2438.521484375</ele>
        <time>2012-06-24T08:08:00Z</time>
      </trkpt>
      <trkpt lat="42.73116" lon="1.39426">
        <ele>2439.001953125</ele>
        <time>2012-06-24T08:08:05Z</time>
      </trkpt>
      <trkpt lat="42.7312" lon="1.39427">
        <ele>2439.9633789062</ele>
        <time>2012-06-24T08:08:16Z</time>
      </trkpt>
      <trkpt lat="42.73124" lon="1.39427">
        <ele>2440.9245605469</ele>
        <time>2012-06-24T08:08:23Z</time>
      </trkpt>
      <trkpt lat="42.73128" lon="1.39428">
        <ele>2441.8859863281</ele>
        <time>2012-06-24T08:08:29Z</time>
      </trkpt>
      <trkpt lat="42.7313" lon="1.39428">
        <ele>2442.8471679688</ele>
        <time>2012-06-24T08:08:34Z</time>
      </trkpt>
      <trkpt lat="42.73133" lon="1.39428">
        <ele>2444.2893066406</ele>
        <time>2012-06-24T08:08:40Z</time>
      </trkpt>
      <trkpt lat="42.73135" lon="1.39427">
        <ele>2445.7314453125</ele>
        <time>2012-06-24T08:08:46Z</time>
      </trkpt>
      <trkpt lat="42.73137" lon="1.39426">
        <ele>2446.6926269531</ele>
        <time>2012-06-24T08:08:52Z</time>
      </trkpt>
      <trkpt lat="42.73138" lon="1.39425">
        <ele>2447.1733398438</ele>
        <time>2012-06-24T08:08:58Z</time>
      </trkpt>
      <trkpt lat="42.7314" lon="1.39422">
        <ele>2448.1345214844</ele>
        <time>2012-06-24T08:09:05Z</time>
      </trkpt>
      <trkpt lat="42.7314" lon="1.3942">
        <ele>2449.0959472656</ele>
        <time>2012-06-24T08:09:12Z</time>
      </trkpt>
      <trkpt lat="42.73143" lon="1.39419">
        <ele>2450.0573730469</ele>
        <time>2012-06-24T08:09:19Z</time>
      </trkpt>
      <trkpt lat="42.73144" lon="1.39418">
        <ele>2451.4992675781</ele>
        <time>2012-06-24T08:09:25Z</time>
      </trkpt>
      <trkpt lat="42.73146" lon="1.39418">
        <ele>2452.4604492188</ele>
        <time>2012-06-24T08:09:30Z</time>
      </trkpt>
      <trkpt lat="42.73147" lon="1.39419">
        <ele>2453.421875</ele>
        <time>2012-06-24T08:09:36Z</time>
      </trkpt>
      <trkpt lat="42.73149" lon="1.3942">
        <ele>2454.3830566406</ele>
        <time>2012-06-24T08:09:44Z</time>
      </trkpt>
      <trkpt lat="42.73151" lon="1.39417">
        <ele>2455.8249511719</ele>
        <time>2012-06-24T08:09:52Z</time>
      </trkpt>
      <trkpt lat="42.73151" lon="1.39413">
        <ele>2456.3056640625</ele>
        <time>2012-06-24T08:09:59Z</time>
      </trkpt>
      <trkpt lat="42.73151" lon="1.39411">
        <ele>2456.7863769531</ele>
        <time>2012-06-24T08:10:05Z</time>
      </trkpt>
      <trkpt lat="42.73153" lon="1.39407">
        <ele>2458.2282714844</ele>
        <time>2012-06-24T08:10:13Z</time>
      </trkpt>
      <trkpt lat="42.73154" lon="1.39407">
        <ele>2458.708984375</ele>
        <time>2012-06-24T08:10:18Z</time>
      </trkpt>
      <trkpt lat="42.73155" lon="1.39407">
        <ele>2459.6701660156</ele>
        <time>2012-06-24T08:10:23Z</time>
      </trkpt>
      <trkpt lat="42.73156" lon="1.39406">
        <ele>2460.6318359375</ele>
        <time>2012-06-24T08:10:28Z</time>
      </trkpt>
      <trkpt lat="42.73158" lon="1.39405">
        <ele>2462.0737304688</ele>
        <time>2012-06-24T08:10:35Z</time>
      </trkpt>
      <trkpt lat="42.7316" lon="1.39405">
        <ele>2463.515625</ele>
        <time>2012-06-24T08:10:41Z</time>
      </trkpt>
      <trkpt lat="42.73161" lon="1.39407">
        <ele>2464.4770507812</ele>
        <time>2012-06-24T08:10:48Z</time>
      </trkpt>
      <trkpt lat="42.73162" lon="1.39409">
        <ele>2464.9577636719</ele>
        <time>2012-06-24T08:10:55Z</time>
      </trkpt>
      <trkpt lat="42.73164" lon="1.39409">
        <ele>2465.4384765625</ele>
        <time>2012-06-24T08:11:01Z</time>
      </trkpt>
      <trkpt lat="42.73166" lon="1.39407">
        <ele>2466.3996582031</ele>
        <time>2012-06-24T08:11:07Z</time>
      </trkpt>
      <trkpt lat="42.73168" lon="1.39405">
        <ele>2467.3608398438</ele>
        <time>2012-06-24T08:11:14Z</time>
      </trkpt>
      <trkpt lat="42.73169" lon="1.39403">
        <ele>2468.322265625</ele>
        <time>2012-06-24T08:11:20Z</time>
      </trkpt>
      <trkpt lat="42.73169" lon="1.39399">
        <ele>2468.8029785156</ele>
        <time>2012-06-24T08:11:26Z</time>
      </trkpt>
      <trkpt lat="42.73169" lon="1.39394">
        <ele>2469.2836914062</ele>
        <time>2012-06-24T08:11:33Z</time>
      </trkpt>
      <trkpt lat="42.7317" lon="1.39392">
        <ele>2471.6867675781</ele>
        <time>2012-06-24T08:11:40Z</time>
      </trkpt>
      <trkpt lat="42.73172" lon="1.3939">
        <ele>2473.12890625</ele>
        <time>2012-06-24T08:11:46Z</time>
      </trkpt>
      <trkpt lat="42.73174" lon="1.3939">
        <ele>2474.5708007812</ele>
        <time>2012-06-24T08:11:51Z</time>
      </trkpt>
      <trkpt lat="42.73175" lon="1.39389">
        <ele>2475.0512695312</ele>
        <time>2012-06-24T08:11:55Z</time>
      </trkpt>
      <trkpt lat="42.73177" lon="1.3939">
        <ele>2476.0129394531</ele>
        <time>2012-06-24T08:12:03Z</time>
      </trkpt>
      <trkpt lat="42.7318" lon="1.39389">
        <ele>2476.0129394531</ele>
        <time>2012-06-24T08:12:15Z</time>
      </trkpt>
      <trkpt lat="42.73182" lon="1.39389">
        <ele>2476.4936523438</ele>
        <time>2012-06-24T08:12:20Z</time>
      </trkpt>
      <trkpt lat="42.73186" lon="1.39388">
        <ele>2477.4548339844</ele>
        <time>2012-06-24T08:12:27Z</time>
      </trkpt>
      <trkpt lat="42.7319" lon="1.39389">
        <ele>2478.4162597656</ele>
        <time>2012-06-24T08:12:33Z</time>
      </trkpt>
      <trkpt lat="42.73194" lon="1.39391">
        <ele>2479.3774414062</ele>
        <time>2012-06-24T08:12:38Z</time>
      </trkpt>
      <trkpt lat="42.73198" lon="1.39392">
        <ele>2480.3388671875</ele>
        <time>2012-06-24T08:12:44Z</time>
      </trkpt>
      <trkpt lat="42.732" lon="1.39391">
        <ele>2481.3000488281</ele>
        <time>2012-06-24T08:12:49Z</time>
      </trkpt>
      <trkpt lat="42.73202" lon="1.3939">
        <ele>2482.2614746094</ele>
        <time>2012-06-24T08:12:53Z</time>
      </trkpt>
      <trkpt lat="42.73204" lon="1.3939">
        <ele>2482.7419433594</ele>
        <time>2012-06-24T08:12:58Z</time>
      </trkpt>
      <trkpt lat="42.73206" lon="1.3939">
        <ele>2483.7033691406</ele>
        <time>2012-06-24T08:13:03Z</time>
      </trkpt>
      <trkpt lat="42.73207" lon="1.39389">
        <ele>2483.7033691406</ele>
        <time>2012-06-24T08:13:10Z</time>
      </trkpt>
      <trkpt lat="42.73209" lon="1.39388">
        <ele>2484.1840820312</ele>
        <time>2012-06-24T08:13:17Z</time>
      </trkpt>
      <trkpt lat="42.7321" lon="1.39387">
        <ele>2485.6259765625</ele>
        <time>2012-06-24T08:13:24Z</time>
      </trkpt>
      <trkpt lat="42.73212" lon="1.39386">
        <ele>2487.0678710938</ele>
        <time>2012-06-24T08:13:31Z</time>
      </trkpt>
      <trkpt lat="42.73213" lon="1.39384">
        <ele>2487.5485839844</ele>
        <time>2012-06-24T08:13:35Z</time>
      </trkpt>
      <trkpt lat="42.73215" lon="1.39384">
        <ele>2488.029296875</ele>
        <time>2012-06-24T08:13:40Z</time>
      </trkpt>
      <trkpt lat="42.73218" lon="1.39385">
        <ele>2488.5100097656</ele>
        <time>2012-06-24T08:13:47Z</time>
      </trkpt>
      <trkpt lat="42.73221" lon="1.39383">
        <ele>2490.9130859375</ele>
        <time>2012-06-24T08:13:53Z</time>
      </trkpt>
      <trkpt lat="42.73223" lon="1.3938">
        <ele>2491.8745117188</ele>
        <time>2012-06-24T08:14:00Z</time>
      </trkpt>
      <trkpt lat="42.73226" lon="1.3938">
        <ele>2492.35546875</ele>
        <time>2012-06-24T08:14:08Z</time>
      </trkpt>
      <trkpt lat="42.73227" lon="1.39377">
        <ele>2493.7973632812</ele>
        <time>2012-06-24T08:14:14Z</time>
      </trkpt>
      <trkpt lat="42.73227" lon="1.39371">
        <ele>2495.2392578125</ele>
        <time>2012-06-24T08:14:21Z</time>
      </trkpt>
      <trkpt lat="42.73225" lon="1.39366">
        <ele>2496.6811523438</ele>
        <time>2012-06-24T08:14:28Z</time>
      </trkpt>
      <trkpt lat="42.73227" lon="1.39364">
        <ele>2497.642578125</ele>
        <time>2012-06-24T08:14:33Z</time>
      </trkpt>
      <trkpt lat="42.73228" lon="1.39361">
        <ele>2498.6037597656</ele>
        <time>2012-06-24T08:14:39Z</time>
      </trkpt>
      <trkpt lat="42.73229" lon="1.39359">
        <ele>2500.0458984375</ele>
        <time>2012-06-24T08:14:45Z</time>
      </trkpt>
      <trkpt lat="42.73229" lon="1.39355">
        <ele>2500.5263671875</ele>
        <time>2012-06-24T08:14:53Z</time>
      </trkpt>
      <trkpt lat="42.73228" lon="1.39352">
        <ele>2501.4877929688</ele>
        <time>2012-06-24T08:14:58Z</time>
      </trkpt>
      <trkpt lat="42.73228" lon="1.3935">
        <ele>2501.4877929688</ele>
        <time>2012-06-24T08:15:16Z</time>
      </trkpt>
      <trkpt lat="42.73227" lon="1.39346">
        <ele>2501.4877929688</ele>
        <time>2012-06-24T08:15:21Z</time>
      </trkpt>
      <trkpt lat="42.73227" lon="1.39341">
        <ele>2502.4489746094</ele>
        <time>2012-06-24T08:15:27Z</time>
      </trkpt>
      <trkpt lat="42.73227" lon="1.39341">
        <ele>2501.9682617188</ele>
        <time>2012-06-24T08:15:39Z</time>
      </trkpt>
      <trkpt lat="42.73225" lon="1.39335">
        <ele>2501.4877929688</ele>
        <time>2012-06-24T08:15:44Z</time>
      </trkpt>
      <trkpt lat="42.73224" lon="1.39329">
        <ele>2501.4877929688</ele>
        <time>2012-06-24T08:15:50Z</time>
      </trkpt>
      <trkpt lat="42.73223" lon="1.39327">
        <ele>2501.4877929688</ele>
        <time>2012-06-24T08:16:05Z</time>
      </trkpt>
      <trkpt lat="42.73222" lon="1.39326">
        <ele>2501.4877929688</ele>
        <time>2012-06-24T08:16:13Z</time>
      </trkpt>
      <trkpt lat="42.7322" lon="1.3932">
        <ele>2501.9682617188</ele>
        <time>2012-06-24T08:16:19Z</time>
      </trkpt>
      <trkpt lat="42.7322" lon="1.39314">
        <ele>2503.4104003906</ele>
        <time>2012-06-24T08:16:26Z</time>
      </trkpt>
      <trkpt lat="42.73222" lon="1.39311">
        <ele>2504.8522949219</ele>
        <time>2012-06-24T08:16:32Z</time>
      </trkpt>
      <trkpt lat="42.73222" lon="1.39308">
        <ele>2506.2941894531</ele>
        <time>2012-06-24T08:16:38Z</time>
      </trkpt>
      <trkpt lat="42.73224" lon="1.39305">
        <ele>2507.2556152344</ele>
        <time>2012-06-24T08:16:44Z</time>
      </trkpt>
      <trkpt lat="42.73225" lon="1.39305">
        <ele>2507.736328125</ele>
        <time>2012-06-24T08:16:49Z</time>
      </trkpt>
      <trkpt lat="42.73225" lon="1.39305">
        <ele>2508.2170410156</ele>
        <time>2012-06-24T08:17:02Z</time>
      </trkpt>
      <trkpt lat="42.73225" lon="1.39306">
        <ele>2508.2170410156</ele>
        <time>2012-06-24T08:17:20Z</time>
      </trkpt>
      <trkpt lat="42.73227" lon="1.39305">
        <ele>2509.1784667969</ele>
        <time>2012-06-24T08:17:27Z</time>
      </trkpt>
      <trkpt lat="42.73229" lon="1.39305">
        <ele>2510.1396484375</ele>
        <time>2012-06-24T08:17:32Z</time>
      </trkpt>
      <trkpt lat="42.73232" lon="1.39303">
        <ele>2511.1010742188</ele>
        <time>2012-06-24T08:17:37Z</time>
      </trkpt>
      <trkpt lat="42.73235" lon="1.39303">
        <ele>2512.54296875</ele>
        <time>2012-06-24T08:17:45Z</time>
      </trkpt>
      <trkpt lat="42.73238" lon="1.39304">
        <ele>2513.0236816406</ele>
        <time>2012-06-24T08:17:51Z</time>
      </trkpt>
      <trkpt lat="42.7324" lon="1.39306">
        <ele>2514.4655761719</ele>
        <time>2012-06-24T08:17:58Z</time>
      </trkpt>
      <trkpt lat="42.73242" lon="1.39307">
        <ele>2515.4270019531</ele>
        <time>2012-06-24T08:18:05Z</time>
      </trkpt>
      <trkpt lat="42.73244" lon="1.39307">
        <ele>2516.3881835938</ele>
        <time>2012-06-24T08:18:12Z</time>
      </trkpt>
      <trkpt lat="42.73247" lon="1.39308">
        <ele>2517.830078125</ele>
        <time>2012-06-24T08:18:18Z</time>
      </trkpt>
      <trkpt lat="42.73249" lon="1.39308">
        <ele>2518.3107910156</ele>
        <time>2012-06-24T08:18:23Z</time>
      </trkpt>
      <trkpt lat="42.73251" lon="1.3931">
        <ele>2519.7526855469</ele>
        <time>2012-06-24T08:18:30Z</time>
      </trkpt>
      <trkpt lat="42.73252" lon="1.39312">
        <ele>2520.7141113281</ele>
        <time>2012-06-24T08:18:36Z</time>
      </trkpt>
      <trkpt lat="42.73254" lon="1.39314">
        <ele>2520.2333984375</ele>
        <time>2012-06-24T08:18:41Z</time>
      </trkpt>
      <trkpt lat="42.73255" lon="1.39316">
        <ele>2521.1945800781</ele>
        <time>2012-06-24T08:18:48Z</time>
      </trkpt>
      <trkpt lat="42.73257" lon="1.39317">
        <ele>2522.1560058594</ele>
        <time>2012-06-24T08:18:56Z</time>
      </trkpt>
      <trkpt lat="42.7326" lon="1.39317">
        <ele>2523.1174316406</ele>
        <time>2012-06-24T08:19:02Z</time>
      </trkpt>
      <trkpt lat="42.73264" lon="1.39317">
        <ele>2524.5595703125</ele>
        <time>2012-06-24T08:19:09Z</time>
      </trkpt>
      <trkpt lat="42.73269" lon="1.39317">
        <ele>2525.0400390625</ele>
        <time>2012-06-24T08:19:16Z</time>
      </trkpt>
      <trkpt lat="42.73271" lon="1.39319">
        <ele>2526.0014648438</ele>
        <time>2012-06-24T08:19:22Z</time>
      </trkpt>
      <trkpt lat="42.73274" lon="1.39319">
        <ele>2527.9240722656</ele>
        <time>2012-06-24T08:19:29Z</time>
      </trkpt>
      <trkpt lat="42.73275" lon="1.39319">
        <ele>2528.8852539062</ele>
        <time>2012-06-24T08:19:34Z</time>
      </trkpt>
      <trkpt lat="42.73277" lon="1.3932">
        <ele>2529.3659667969</ele>
        <time>2012-06-24T08:19:40Z</time>
      </trkpt>
      <trkpt lat="42.73278" lon="1.3932">
        <ele>2530.8081054688</ele>
        <time>2012-06-24T08:19:46Z</time>
      </trkpt>
      <trkpt lat="42.7328" lon="1.39322">
        <ele>2531.7692871094</ele>
        <time>2012-06-24T08:19:52Z</time>
      </trkpt>
      <trkpt lat="42.73281" lon="1.39324">
        <ele>2533.6918945312</ele>
        <time>2012-06-24T08:19:58Z</time>
      </trkpt>
      <trkpt lat="42.73283" lon="1.39325">
        <ele>2534.1726074219</ele>
        <time>2012-06-24T08:20:05Z</time>
      </trkpt>
      <trkpt lat="42.73285" lon="1.39325">
        <ele>2536.0952148438</ele>
        <time>2012-06-24T08:20:13Z</time>
      </trkpt>
      <trkpt lat="42.73288" lon="1.39327">
        <ele>2537.537109375</ele>
        <time>2012-06-24T08:20:20Z</time>
      </trkpt>
      <trkpt lat="42.73289" lon="1.39327">
        <ele>2538.9790039062</ele>
        <time>2012-06-24T08:20:26Z</time>
      </trkpt>
      <trkpt lat="42.73291" lon="1.39327">
        <ele>2540.4211425781</ele>
        <time>2012-06-24T08:20:32Z</time>
      </trkpt>
      <trkpt lat="42.73291" lon="1.39327">
        <ele>2540.4211425781</ele>
        <time>2012-06-24T08:20:38Z</time>
      </trkpt>
      <trkpt lat="42.73292" lon="1.39328">
        <ele>2541.3825683594</ele>
        <time>2012-06-24T08:20:45Z</time>
      </trkpt>
      <trkpt lat="42.73295" lon="1.39328">
        <ele>2542.3439941406</ele>
        <time>2012-06-24T08:20:52Z</time>
      </trkpt>
      <trkpt lat="42.73296" lon="1.39328">
        <ele>2542.8244628906</ele>
        <time>2012-06-24T08:20:57Z</time>
      </trkpt>
      <trkpt lat="42.73298" lon="1.39328">
        <ele>2543.7858886719</ele>
        <time>2012-06-24T08:21:02Z</time>
      </trkpt>
      <trkpt lat="42.733" lon="1.39329">
        <ele>2545.2277832031</ele>
        <time>2012-06-24T08:21:09Z</time>
      </trkpt>
      <trkpt lat="42.73302" lon="1.39329">
        <ele>2546.1892089844</ele>
        <time>2012-06-24T08:21:16Z</time>
      </trkpt>
      <trkpt lat="42.73304" lon="1.39326">
        <ele>2546.6696777344</ele>
        <time>2012-06-24T08:21:20Z</time>
      </trkpt>
      <trkpt lat="42.7331" lon="1.39322">
        <ele>2547.150390625</ele>
        <time>2012-06-24T08:21:28Z</time>
      </trkpt>
      <trkpt lat="42.73312" lon="1.3932">
        <ele>2548.1115722656</ele>
        <time>2012-06-24T08:21:33Z</time>
      </trkpt>
      <trkpt lat="42.73315" lon="1.39318">
        <ele>2549.5537109375</ele>
        <time>2012-06-24T08:21:39Z</time>
      </trkpt>
      <trkpt lat="42.73317" lon="1.39316">
        <ele>2550.5148925781</ele>
        <time>2012-06-24T08:21:44Z</time>
      </trkpt>
      <trkpt lat="42.73318" lon="1.39313">
        <ele>2551.4763183594</ele>
        <time>2012-06-24T08:21:48Z</time>
      </trkpt>
      <trkpt lat="42.7332" lon="1.39311">
        <ele>2551.4763183594</ele>
        <time>2012-06-24T08:21:53Z</time>
      </trkpt>
      <trkpt lat="42.73321" lon="1.39307">
        <ele>2552.4375</ele>
        <time>2012-06-24T08:21:59Z</time>
      </trkpt>
      <trkpt lat="42.73323" lon="1.39306">
        <ele>2553.3989257812</ele>
        <time>2012-06-24T08:22:05Z</time>
      </trkpt>
      <trkpt lat="42.73325" lon="1.39301">
        <ele>2555.3215332031</ele>
        <time>2012-06-24T08:22:12Z</time>
      </trkpt>
      <trkpt lat="42.73326" lon="1.39295">
        <ele>2556.2829589844</ele>
        <time>2012-06-24T08:22:19Z</time>
      </trkpt>
      <trkpt lat="42.73327" lon="1.39291">
        <ele>2556.2829589844</ele>
        <time>2012-06-24T08:22:26Z</time>
      </trkpt>
      <trkpt lat="42.73328" lon="1.39288">
        <ele>2557.2443847656</ele>
        <time>2012-06-24T08:22:32Z</time>
      </trkpt>
      <trkpt lat="42.73328" lon="1.39286">
        <ele>2558.2055664062</ele>
        <time>2012-06-24T08:22:37Z</time>
      </trkpt>
      <trkpt lat="42.73328" lon="1.39284">
        <ele>2558.6862792969</ele>
        <time>2012-06-24T08:22:43Z</time>
      </trkpt>
      <trkpt lat="42.7333" lon="1.39282">
        <ele>2559.6474609375</ele>
        <time>2012-06-24T08:22:50Z</time>
      </trkpt>
      <trkpt lat="42.7333" lon="1.39283">
        <ele>2560.1281738281</ele>
        <time>2012-06-24T08:22:55Z</time>
      </trkpt>
      <trkpt lat="42.73333" lon="1.39285">
        <ele>2559.6474609375</ele>
        <time>2012-06-24T08:23:27Z</time>
      </trkpt>
      <trkpt lat="42.73335" lon="1.39286">
        <ele>2560.6088867188</ele>
        <time>2012-06-24T08:23:34Z</time>
      </trkpt>
      <trkpt lat="42.73336" lon="1.39284">
        <ele>2561.5703125</ele>
        <time>2012-06-24T08:23:39Z</time>
      </trkpt>
      <trkpt lat="42.73338" lon="1.39284">
        <ele>2562.5314941406</ele>
        <time>2012-06-24T08:23:45Z</time>
      </trkpt>
      <trkpt lat="42.73339" lon="1.39282">
        <ele>2563.4926757812</ele>
        <time>2012-06-24T08:23:51Z</time>
      </trkpt>
      <trkpt lat="42.73339" lon="1.39283">
        <ele>2563.9733886719</ele>
        <time>2012-06-24T08:23:57Z</time>
      </trkpt>
      <trkpt lat="42.73342" lon="1.39282">
        <ele>2564.4541015625</ele>
        <time>2012-06-24T08:24:06Z</time>
      </trkpt>
      <trkpt lat="42.73344" lon="1.39283">
        <ele>2564.9348144531</ele>
        <time>2012-06-24T08:24:13Z</time>
      </trkpt>
      <trkpt lat="42.73347" lon="1.39283">
        <ele>2566.3767089844</ele>
        <time>2012-06-24T08:24:18Z</time>
      </trkpt>
      <trkpt lat="42.73349" lon="1.39284">
        <ele>2567.337890625</ele>
        <time>2012-06-24T08:24:24Z</time>
      </trkpt>
      <trkpt lat="42.73352" lon="1.39284">
        <ele>2568.7800292969</ele>
        <time>2012-06-24T08:24:29Z</time>
      </trkpt>
      <trkpt lat="42.73354" lon="1.39284">
        <ele>2570.2219238281</ele>
        <time>2012-06-24T08:24:36Z</time>
      </trkpt>
      <trkpt lat="42.73357" lon="1.39283">
        <ele>2572.1447753906</ele>
        <time>2012-06-24T08:24:43Z</time>
      </trkpt>
      <trkpt lat="42.73359" lon="1.39283">
        <ele>2573.5866699219</ele>
        <time>2012-06-24T08:24:49Z</time>
      </trkpt>
      <trkpt lat="42.73362" lon="1.39283">
        <ele>2574.5480957031</ele>
        <time>2012-06-24T08:24:55Z</time>
      </trkpt>
      <trkpt lat="42.73364" lon="1.39285">
        <ele>2575.0285644531</ele>
        <time>2012-06-24T08:25:00Z</time>
      </trkpt>
      <trkpt lat="42.73367" lon="1.39285">
        <ele>2576.470703125</ele>
        <time>2012-06-24T08:25:06Z</time>
      </trkpt>
      <trkpt lat="42.73368" lon="1.39285">
        <ele>2577.4318847656</ele>
        <time>2012-06-24T08:25:14Z</time>
      </trkpt>
      <trkpt lat="42.73369" lon="1.39285">
        <ele>2578.8737792969</ele>
        <time>2012-06-24T08:25:22Z</time>
      </trkpt>
      <trkpt lat="42.73371" lon="1.39285">
        <ele>2580.3159179688</ele>
        <time>2012-06-24T08:25:29Z</time>
      </trkpt>
      <trkpt lat="42.73373" lon="1.39285">
        <ele>2582.2385253906</ele>
        <time>2012-06-24T08:25:35Z</time>
      </trkpt>
      <trkpt lat="42.73376" lon="1.39283">
        <ele>2583.1997070312</ele>
        <time>2012-06-24T08:25:40Z</time>
      </trkpt>
      <trkpt lat="42.73378" lon="1.39284">
        <ele>2584.1611328125</ele>
        <time>2012-06-24T08:25:46Z</time>
      </trkpt>
      <trkpt lat="42.73381" lon="1.39281">
        <ele>2585.1223144531</ele>
        <time>2012-06-24T08:25:52Z</time>
      </trkpt>
      <trkpt lat="42.73383" lon="1.39283">
        <ele>2586.0837402344</ele>
        <time>2012-06-24T08:25:57Z</time>
      </trkpt>
      <trkpt lat="42.73384" lon="1.39283">
        <ele>2588.0065917969</ele>
        <time>2012-06-24T08:26:02Z</time>
      </trkpt>
      <trkpt lat="42.73386" lon="1.39282">
        <ele>2589.4484863281</ele>
        <time>2012-06-24T08:26:08Z</time>
      </trkpt>
      <trkpt lat="42.73389" lon="1.39283">
        <ele>2590.4096679688</ele>
        <time>2012-06-24T08:26:14Z</time>
      </trkpt>
      <trkpt lat="42.73391" lon="1.39284">
        <ele>2591.8518066406</ele>
        <time>2012-06-24T08:26:21Z</time>
      </trkpt>
      <trkpt lat="42.73393" lon="1.39284">
        <ele>2592.8129882812</ele>
        <time>2012-06-24T08:26:25Z</time>
      </trkpt>
      <trkpt lat="42.73394" lon="1.39283">
        <ele>2594.2548828125</ele>
        <time>2012-06-24T08:26:32Z</time>
      </trkpt>
      <trkpt lat="42.73396" lon="1.39281">
        <ele>2595.2163085938</ele>
        <time>2012-06-24T08:26:38Z</time>
      </trkpt>
      <trkpt lat="42.73397" lon="1.39281">
        <ele>2596.177734375</ele>
        <time>2012-06-24T08:26:44Z</time>
      </trkpt>
      <trkpt lat="42.73399" lon="1.3928">
        <ele>2596.658203125</ele>
        <time>2012-06-24T08:26:49Z</time>
      </trkpt>
      <trkpt lat="42.73401" lon="1.3928">
        <ele>2597.6196289062</ele>
        <time>2012-06-24T08:26:56Z</time>
      </trkpt>
      <trkpt lat="42.73403" lon="1.39279">
        <ele>2599.5419921875</ele>
        <time>2012-06-24T08:27:02Z</time>
      </trkpt>
      <trkpt lat="42.73404" lon="1.3928">
        <ele>2600.0229492188</ele>
        <time>2012-06-24T08:27:10Z</time>
      </trkpt>
      <trkpt lat="42.73406" lon="1.39278">
        <ele>2600.984375</ele>
        <time>2012-06-24T08:27:16Z</time>
      </trkpt>
      <trkpt lat="42.73408" lon="1.39277">
        <ele>2601.9453125</ele>
        <time>2012-06-24T08:27:21Z</time>
      </trkpt>
      <trkpt lat="42.73409" lon="1.39278">
        <ele>2602.4262695312</ele>
        <time>2012-06-24T08:27:27Z</time>
      </trkpt>
      <trkpt lat="42.7341" lon="1.39279">
        <ele>2602.4262695312</ele>
        <time>2012-06-24T08:27:33Z</time>
      </trkpt>
      <trkpt lat="42.73413" lon="1.39279">
        <ele>2601.9453125</ele>
        <time>2012-06-24T08:27:37Z</time>
      </trkpt>
      <trkpt lat="42.73413" lon="1.39278">
        <ele>2602.4262695312</ele>
        <time>2012-06-24T08:27:42Z</time>
      </trkpt>
      <trkpt lat="42.73415" lon="1.39277">
        <ele>2603.3872070312</ele>
        <time>2012-06-24T08:27:46Z</time>
      </trkpt>
      <trkpt lat="42.73417" lon="1.39279">
        <ele>2604.8291015625</ele>
        <time>2012-06-24T08:27:52Z</time>
      </trkpt>
      <trkpt lat="42.73418" lon="1.39279">
        <ele>2606.271484375</ele>
        <time>2012-06-24T08:28:03Z</time>
      </trkpt>
      <trkpt lat="42.7342" lon="1.39279">
        <ele>2607.7133789062</ele>
        <time>2012-06-24T08:28:12Z</time>
      </trkpt>
      <trkpt lat="42.73421" lon="1.3928">
        <ele>2608.6748046875</ele>
        <time>2012-06-24T08:28:17Z</time>
      </trkpt>
      <trkpt lat="42.73421" lon="1.39277">
        <ele>2610.1166992188</ele>
        <time>2012-06-24T08:28:23Z</time>
      </trkpt>
      <trkpt lat="42.73422" lon="1.39273">
        <ele>2612.0395507812</ele>
        <time>2012-06-24T08:28:29Z</time>
      </trkpt>
      <trkpt lat="42.73421" lon="1.3927">
        <ele>2613.4814453125</ele>
        <time>2012-06-24T08:28:35Z</time>
      </trkpt>
      <trkpt lat="42.73423" lon="1.39268">
        <ele>2614.9233398438</ele>
        <time>2012-06-24T08:28:40Z</time>
      </trkpt>
      <trkpt lat="42.73426" lon="1.39269">
        <ele>2615.404296875</ele>
        <time>2012-06-24T08:28:47Z</time>
      </trkpt>
      <trkpt lat="42.73427" lon="1.39268">
        <ele>2616.3657226562</ele>
        <time>2012-06-24T08:28:52Z</time>
      </trkpt>
      <trkpt lat="42.73427" lon="1.39265">
        <ele>2617.3266601562</ele>
        <time>2012-06-24T08:28:57Z</time>
      </trkpt>
      <trkpt lat="42.73427" lon="1.3926">
        <ele>2618.7685546875</ele>
        <time>2012-06-24T08:29:03Z</time>
      </trkpt>
      <trkpt lat="42.73426" lon="1.39256">
        <ele>2619.7299804688</ele>
        <time>2012-06-24T08:29:09Z</time>
      </trkpt>
      <trkpt lat="42.73427" lon="1.3925">
        <ele>2621.171875</ele>
        <time>2012-06-24T08:29:16Z</time>
      </trkpt>
      <trkpt lat="42.73428" lon="1.39247">
        <ele>2622.1333007812</ele>
        <time>2012-06-24T08:29:22Z</time>
      </trkpt>
      <trkpt lat="42.73429" lon="1.39245">
        <ele>2623.5751953125</ele>
        <time>2012-06-24T08:29:28Z</time>
      </trkpt>
      <trkpt lat="42.73431" lon="1.39245">
        <ele>2623.5751953125</ele>
        <time>2012-06-24T08:29:36Z</time>
      </trkpt>
      <trkpt lat="42.73433" lon="1.39244">
        <ele>2625.0170898438</ele>
        <time>2012-06-24T08:29:41Z</time>
      </trkpt>
      <trkpt lat="42.73433" lon="1.3924">
        <ele>2625.498046875</ele>
        <time>2012-06-24T08:29:47Z</time>
      </trkpt>
      <trkpt lat="42.73434" lon="1.39237">
        <ele>2626.9399414062</ele>
        <time>2012-06-24T08:29:54Z</time>
      </trkpt>
      <trkpt lat="42.73436" lon="1.39236">
        <ele>2627.9008789062</ele>
        <time>2012-06-24T08:29:59Z</time>
      </trkpt>
      <trkpt lat="42.73436" lon="1.39235">
        <ele>2628.8623046875</ele>
        <time>2012-06-24T08:30:04Z</time>
      </trkpt>
      <trkpt lat="42.73437" lon="1.39232">
        <ele>2630.3041992188</ele>
        <time>2012-06-24T08:30:10Z</time>
      </trkpt>
      <trkpt lat="42.73436" lon="1.39228">
        <ele>2631.7465820312</ele>
        <time>2012-06-24T08:30:17Z</time>
      </trkpt>
      <trkpt lat="42.73438" lon="1.39227">
        <ele>2632.7075195312</ele>
        <time>2012-06-24T08:30:21Z</time>
      </trkpt>
      <trkpt lat="42.73441" lon="1.39228">
        <ele>2633.1884765625</ele>
        <time>2012-06-24T08:30:27Z</time>
      </trkpt>
      <trkpt lat="42.73441" lon="1.39226">
        <ele>2635.1108398438</ele>
        <time>2012-06-24T08:30:33Z</time>
      </trkpt>
      <trkpt lat="42.73442" lon="1.39226">
        <ele>2636.552734375</ele>
        <time>2012-06-24T08:30:38Z</time>
      </trkpt>
      <trkpt lat="42.73442" lon="1.39224">
        <ele>2637.0336914062</ele>
        <time>2012-06-24T08:30:44Z</time>
      </trkpt>
      <trkpt lat="42.73444" lon="1.39224">
        <ele>2637.9946289062</ele>
        <time>2012-06-24T08:30:49Z</time>
      </trkpt>
      <trkpt lat="42.73446" lon="1.39224">
        <ele>2638.9560546875</ele>
        <time>2012-06-24T08:30:57Z</time>
      </trkpt>
      <trkpt lat="42.73447" lon="1.39224">
        <ele>2639.9174804688</ele>
        <time>2012-06-24T08:31:03Z</time>
      </trkpt>
      <trkpt lat="42.73448" lon="1.39224">
        <ele>2640.3979492188</ele>
        <time>2012-06-24T08:31:10Z</time>
      </trkpt>
      <trkpt lat="42.73447" lon="1.39222">
        <ele>2640.3979492188</ele>
        <time>2012-06-24T08:31:22Z</time>
      </trkpt>
      <trkpt lat="42.73448" lon="1.3922">
        <ele>2641.83984375</ele>
        <time>2012-06-24T08:31:28Z</time>
      </trkpt>
      <trkpt lat="42.73449" lon="1.39218">
        <ele>2643.2817382812</ele>
        <time>2012-06-24T08:31:34Z</time>
      </trkpt>
      <trkpt lat="42.73451" lon="1.39217">
        <ele>2644.724609375</ele>
        <time>2012-06-24T08:31:40Z</time>
      </trkpt>
      <trkpt lat="42.73452" lon="1.39216">
        <ele>2646.1665039062</ele>
        <time>2012-06-24T08:31:45Z</time>
      </trkpt>
      <trkpt lat="42.73453" lon="1.39214">
        <ele>2647.1279296875</ele>
        <time>2012-06-24T08:31:51Z</time>
      </trkpt>
      <trkpt lat="42.73454" lon="1.39214">
        <ele>2648.0888671875</ele>
        <time>2012-06-24T08:31:57Z</time>
      </trkpt>
      <trkpt lat="42.73456" lon="1.39214">
        <ele>2649.0502929688</ele>
        <time>2012-06-24T08:32:04Z</time>
      </trkpt>
      <trkpt lat="42.73458" lon="1.39214">
        <ele>2650.01171875</ele>
        <time>2012-06-24T08:32:14Z</time>
      </trkpt>
      <trkpt lat="42.73459" lon="1.39212">
        <ele>2650.4921875</ele>
        <time>2012-06-24T08:32:21Z</time>
      </trkpt>
      <trkpt lat="42.7346" lon="1.39211">
        <ele>2652.4150390625</ele>
        <time>2012-06-24T08:32:29Z</time>
      </trkpt>
      <trkpt lat="42.73462" lon="1.3921">
        <ele>2653.3759765625</ele>
        <time>2012-06-24T08:32:35Z</time>
      </trkpt>
      <trkpt lat="42.73463" lon="1.3921">
        <ele>2654.3374023438</ele>
        <time>2012-06-24T08:32:40Z</time>
      </trkpt>
      <trkpt lat="42.73463" lon="1.39207">
        <ele>2654.818359375</ele>
        <time>2012-06-24T08:32:51Z</time>
      </trkpt>
      <trkpt lat="42.73463" lon="1.39203">
        <ele>2656.2602539062</ele>
        <time>2012-06-24T08:32:57Z</time>
      </trkpt>
      <trkpt lat="42.73465" lon="1.39204">
        <ele>2657.7021484375</ele>
        <time>2012-06-24T08:33:03Z</time>
      </trkpt>
      <trkpt lat="42.73466" lon="1.39204">
        <ele>2658.6630859375</ele>
        <time>2012-06-24T08:33:10Z</time>
      </trkpt>
      <trkpt lat="42.73466" lon="1.392">
        <ele>2660.10546875</ele>
        <time>2012-06-24T08:33:16Z</time>
      </trkpt>
      <trkpt lat="42.73467" lon="1.39197">
        <ele>2661.5473632812</ele>
        <time>2012-06-24T08:33:22Z</time>
      </trkpt>
      <trkpt lat="42.7347" lon="1.39199">
        <ele>2662.5087890625</ele>
        <time>2012-06-24T08:33:29Z</time>
      </trkpt>
      <trkpt lat="42.73471" lon="1.39197">
        <ele>2662.9892578125</ele>
        <time>2012-06-24T08:33:34Z</time>
      </trkpt>
      <trkpt lat="42.73473" lon="1.39199">
        <ele>2664.4311523438</ele>
        <time>2012-06-24T08:33:39Z</time>
      </trkpt>
      <trkpt lat="42.73474" lon="1.39199">
        <ele>2664.9116210938</ele>
        <time>2012-06-24T08:33:48Z</time>
      </trkpt>
      <trkpt lat="42.73473" lon="1.39196">
        <ele>2665.392578125</ele>
        <time>2012-06-24T08:33:55Z</time>
      </trkpt>
      <trkpt lat="42.73473" lon="1.39194">
        <ele>2665.873046875</ele>
        <time>2012-06-24T08:34:00Z</time>
      </trkpt>
      <trkpt lat="42.73475" lon="1.39194">
        <ele>2667.3149414062</ele>
        <time>2012-06-24T08:34:07Z</time>
      </trkpt>
      <trkpt lat="42.73476" lon="1.39194">
        <ele>2668.2763671875</ele>
        <time>2012-06-24T08:34:13Z</time>
      </trkpt>
      <trkpt lat="42.73477" lon="1.39193">
        <ele>2670.19921875</ele>
        <time>2012-06-24T08:34:20Z</time>
      </trkpt>
      <trkpt lat="42.73476" lon="1.39191">
        <ele>2670.6796875</ele>
        <time>2012-06-24T08:34:26Z</time>
      </trkpt>
      <trkpt lat="42.73476" lon="1.39188">
        <ele>2671.6411132812</ele>
        <time>2012-06-24T08:34:32Z</time>
      </trkpt>
      <trkpt lat="42.73475" lon="1.39185">
        <ele>2672.1215820312</ele>
        <time>2012-06-24T08:34:38Z</time>
      </trkpt>
      <trkpt lat="42.73476" lon="1.39184">
        <ele>2673.5634765625</ele>
        <time>2012-06-24T08:34:44Z</time>
      </trkpt>
      <trkpt lat="42.73478" lon="1.39186">
        <ele>2674.0439453125</ele>
        <time>2012-06-24T08:34:50Z</time>
      </trkpt>
      <trkpt lat="42.73479" lon="1.39185">
        <ele>2674.5249023438</ele>
        <time>2012-06-24T08:34:55Z</time>
      </trkpt>
      <trkpt lat="42.73481" lon="1.39185">
        <ele>2675.966796875</ele>
        <time>2012-06-24T08:35:02Z</time>
      </trkpt>
      <trkpt lat="42.73484" lon="1.39186">
        <ele>2676.9287109375</ele>
        <time>2012-06-24T08:35:11Z</time>
      </trkpt>
      <trkpt lat="42.73486" lon="1.39187">
        <ele>2677.4091796875</ele>
        <time>2012-06-24T08:35:19Z</time>
      </trkpt>
      <trkpt lat="42.73488" lon="1.39187">
        <ele>2678.3706054688</ele>
        <time>2012-06-24T08:35:26Z</time>
      </trkpt>
      <trkpt lat="42.73489" lon="1.39184">
        <ele>2678.8510742188</ele>
        <time>2012-06-24T08:35:33Z</time>
      </trkpt>
      <trkpt lat="42.73487" lon="1.39181">
        <ele>2680.29296875</ele>
        <time>2012-06-24T08:35:39Z</time>
      </trkpt>
      <trkpt lat="42.73485" lon="1.39178">
        <ele>2681.2543945312</ele>
        <time>2012-06-24T08:35:45Z</time>
      </trkpt>
      <trkpt lat="42.73485" lon="1.39175">
        <ele>2679.33203125</ele>
        <time>2012-06-24T08:41:48Z</time>
      </trkpt>
      <trkpt lat="42.73485" lon="1.39174">
        <ele>2679.33203125</ele>
        <time>2012-06-24T08:41:49Z</time>
      </trkpt>
      <trkpt lat="42.73485" lon="1.39168">
        <ele>2678.8510742188</ele>
        <time>2012-06-24T08:41:54Z</time>
      </trkpt>
      <trkpt lat="42.73489" lon="1.3916">
        <ele>2676.4477539062</ele>
        <time>2012-06-24T08:42:01Z</time>
      </trkpt>
      <trkpt lat="42.7349" lon="1.39159">
        <ele>2676.4477539062</ele>
        <time>2012-06-24T08:42:06Z</time>
      </trkpt>
      <trkpt lat="42.73492" lon="1.3916">
        <ele>2675.966796875</ele>
        <time>2012-06-24T08:42:14Z</time>
      </trkpt>
      <trkpt lat="42.73495" lon="1.39161">
        <ele>2674.5249023438</ele>
        <time>2012-06-24T08:42:25Z</time>
      </trkpt>
      <trkpt lat="42.73501" lon="1.39159">
        <ele>2672.6020507812</ele>
        <time>2012-06-24T08:42:31Z</time>
      </trkpt>
      <trkpt lat="42.73506" lon="1.39161">
        <ele>2671.6411132812</ele>
        <time>2012-06-24T08:42:37Z</time>
      </trkpt>
      <trkpt lat="42.73508" lon="1.39161">
        <ele>2671.16015625</ele>
        <time>2012-06-24T08:42:45Z</time>
      </trkpt>
      <trkpt lat="42.73512" lon="1.39163">
        <ele>2670.19921875</ele>
        <time>2012-06-24T08:42:52Z</time>
      </trkpt>
      <trkpt lat="42.73517" lon="1.39165">
        <ele>2667.7958984375</ele>
        <time>2012-06-24T08:42:57Z</time>
      </trkpt>
      <trkpt lat="42.73521" lon="1.39166">
        <ele>2666.353515625</ele>
        <time>2012-06-24T08:43:02Z</time>
      </trkpt>
      <trkpt lat="42.73524" lon="1.39172">
        <ele>2664.9116210938</ele>
        <time>2012-06-24T08:43:08Z</time>
      </trkpt>
      <trkpt lat="42.73527" lon="1.39173">
        <ele>2663.4697265625</ele>
        <time>2012-06-24T08:43:13Z</time>
      </trkpt>
      <trkpt lat="42.73527" lon="1.39173">
        <ele>2663.9506835938</ele>
        <time>2012-06-24T08:43:26Z</time>
      </trkpt>
      <trkpt lat="42.73528" lon="1.39172">
        <ele>2664.4311523438</ele>
        <time>2012-06-24T08:43:37Z</time>
      </trkpt>
      <trkpt lat="42.73532" lon="1.3917">
        <ele>2662.0278320312</ele>
        <time>2012-06-24T08:43:43Z</time>
      </trkpt>
      <trkpt lat="42.73537" lon="1.3917">
        <ele>2660.10546875</ele>
        <time>2012-06-24T08:43:50Z</time>
      </trkpt>
      <trkpt lat="42.73543" lon="1.39174">
        <ele>2658.1826171875</ele>
        <time>2012-06-24T08:43:56Z</time>
      </trkpt>
      <trkpt lat="42.73545" lon="1.39173">
        <ele>2656.7407226562</ele>
        <time>2012-06-24T08:43:59Z</time>
      </trkpt>
      <trkpt lat="42.73549" lon="1.3917">
        <ele>2655.298828125</ele>
        <time>2012-06-24T08:44:04Z</time>
      </trkpt>
      <trkpt lat="42.73553" lon="1.39172">
        <ele>2653.8569335938</ele>
        <time>2012-06-24T08:44:09Z</time>
      </trkpt>
      <trkpt lat="42.73556" lon="1.39171">
        <ele>2651.9340820312</ele>
        <time>2012-06-24T08:44:14Z</time>
      </trkpt>
      <trkpt lat="42.7356" lon="1.39174">
        <ele>2650.01171875</ele>
        <time>2012-06-24T08:44:19Z</time>
      </trkpt>
      <trkpt lat="42.73563" lon="1.39175">
        <ele>2648.0888671875</ele>
        <time>2012-06-24T08:44:25Z</time>
      </trkpt>
      <trkpt lat="42.73564" lon="1.39173">
        <ele>2647.6083984375</ele>
        <time>2012-06-24T08:44:26Z</time>
      </trkpt>
      <trkpt lat="42.73569" lon="1.39167">
        <ele>2646.1665039062</ele>
        <time>2012-06-24T08:44:32Z</time>
      </trkpt>
      <trkpt lat="42.73573" lon="1.39163">
        <ele>2643.7626953125</ele>
        <time>2012-06-24T08:44:36Z</time>
      </trkpt>
      <trkpt lat="42.73577" lon="1.39166">
        <ele>2641.83984375</ele>
        <time>2012-06-24T08:44:42Z</time>
      </trkpt>
      <trkpt lat="42.73581" lon="1.39162">
        <ele>2640.87890625</ele>
        <time>2012-06-24T08:44:47Z</time>
      </trkpt>
      <trkpt lat="42.73582" lon="1.39156">
        <ele>2640.3979492188</ele>
        <time>2012-06-24T08:44:52Z</time>
      </trkpt>
      <trkpt lat="42.73585" lon="1.39154">
        <ele>2638.9560546875</ele>
        <time>2012-06-24T08:44:55Z</time>
      </trkpt>
      <trkpt lat="42.73588" lon="1.39149">
        <ele>2637.0336914062</ele>
        <time>2012-06-24T08:45:01Z</time>
      </trkpt>
      <trkpt lat="42.7359" lon="1.39148">
        <ele>2635.5913085938</ele>
        <time>2012-06-24T08:45:07Z</time>
      </trkpt>
      <trkpt lat="42.73592" lon="1.39145">
        <ele>2634.1494140625</ele>
        <time>2012-06-24T08:45:12Z</time>
      </trkpt>
      <trkpt lat="42.73595" lon="1.39144">
        <ele>2632.7075195312</ele>
        <time>2012-06-24T08:45:16Z</time>
      </trkpt>
      <trkpt lat="42.73598" lon="1.39142">
        <ele>2631.7465820312</ele>
        <time>2012-06-24T08:45:20Z</time>
      </trkpt>
      <trkpt lat="42.73602" lon="1.39147">
        <ele>2629.3432617188</ele>
        <time>2012-06-24T08:45:25Z</time>
      </trkpt>
      <trkpt lat="42.73606" lon="1.39146">
        <ele>2627.9008789062</ele>
        <time>2012-06-24T08:45:31Z</time>
      </trkpt>
      <trkpt lat="42.7361" lon="1.39146">
        <ele>2625.978515625</ele>
        <time>2012-06-24T08:45:36Z</time>
      </trkpt>
      <trkpt lat="42.73613" lon="1.39144">
        <ele>2624.0561523438</ele>
        <time>2012-06-24T08:45:41Z</time>
      </trkpt>
      <trkpt lat="42.73617" lon="1.39141">
        <ele>2622.6137695312</ele>
        <time>2012-06-24T08:45:46Z</time>
      </trkpt>
      <trkpt lat="42.73621" lon="1.39143">
        <ele>2620.2104492188</ele>
        <time>2012-06-24T08:45:52Z</time>
      </trkpt>
      <trkpt lat="42.73626" lon="1.39145">
        <ele>2617.8076171875</ele>
        <time>2012-06-24T08:45:58Z</time>
      </trkpt>
      <trkpt lat="42.7363" lon="1.39144">
        <ele>2615.404296875</ele>
        <time>2012-06-24T08:46:03Z</time>
      </trkpt>
      <trkpt lat="42.73634" lon="1.39139">
        <ele>2613.0009765625</ele>
        <time>2012-06-24T08:46:09Z</time>
      </trkpt>
      <trkpt lat="42.73637" lon="1.39137">
        <ele>2612.0395507812</ele>
        <time>2012-06-24T08:46:13Z</time>
      </trkpt>
      <trkpt lat="42.7364" lon="1.39135">
        <ele>2610.1166992188</ele>
        <time>2012-06-24T08:46:18Z</time>
      </trkpt>
      <trkpt lat="42.73642" lon="1.39134">
        <ele>2608.1938476562</ele>
        <time>2012-06-24T08:46:23Z</time>
      </trkpt>
      <trkpt lat="42.73643" lon="1.39132">
        <ele>2608.1938476562</ele>
        <time>2012-06-24T08:46:24Z</time>
      </trkpt>
      <trkpt lat="42.73647" lon="1.39125">
        <ele>2605.7905273438</ele>
        <time>2012-06-24T08:46:30Z</time>
      </trkpt>
      <trkpt lat="42.73649" lon="1.39122">
        <ele>2604.3486328125</ele>
        <time>2012-06-24T08:46:34Z</time>
      </trkpt>
      <trkpt lat="42.73652" lon="1.39122">
        <ele>2602.9067382812</ele>
        <time>2012-06-24T08:46:38Z</time>
      </trkpt>
      <trkpt lat="42.73655" lon="1.3912">
        <ele>2601.46484375</ele>
        <time>2012-06-24T08:46:43Z</time>
      </trkpt>
      <trkpt lat="42.73658" lon="1.39121">
        <ele>2600.0229492188</ele>
        <time>2012-06-24T08:46:47Z</time>
      </trkpt>
      <trkpt lat="42.73661" lon="1.39124">
        <ele>2597.6196289062</ele>
        <time>2012-06-24T08:46:52Z</time>
      </trkpt>
      <trkpt lat="42.73663" lon="1.39122">
        <ele>2596.177734375</ele>
        <time>2012-06-24T08:46:56Z</time>
      </trkpt>
      <trkpt lat="42.73668" lon="1.39124">
        <ele>2593.7744140625</ele>
        <time>2012-06-24T08:47:03Z</time>
      </trkpt>
      <trkpt lat="42.73669" lon="1.39118">
        <ele>2592.3325195312</ele>
        <time>2012-06-24T08:47:09Z</time>
      </trkpt>
      <trkpt lat="42.73671" lon="1.39114">
        <ele>2590.8903808594</ele>
        <time>2012-06-24T08:47:16Z</time>
      </trkpt>
      <trkpt lat="42.73673" lon="1.39111">
        <ele>2589.4484863281</ele>
        <time>2012-06-24T08:47:21Z</time>
      </trkpt>
      <trkpt lat="42.73676" lon="1.39112">
        <ele>2587.5256347656</ele>
        <time>2012-06-24T08:47:27Z</time>
      </trkpt>
      <trkpt lat="42.73677" lon="1.39111">
        <ele>2586.0837402344</ele>
        <time>2012-06-24T08:47:33Z</time>
      </trkpt>
      <trkpt lat="42.73677" lon="1.3911">
        <ele>2586.0837402344</ele>
        <time>2012-06-24T08:47:40Z</time>
      </trkpt>
      <trkpt lat="42.73679" lon="1.39109">
        <ele>2586.0837402344</ele>
        <time>2012-06-24T08:47:48Z</time>
      </trkpt>
      <trkpt lat="42.73681" lon="1.39107">
        <ele>2584.6418457031</ele>
        <time>2012-06-24T08:47:54Z</time>
      </trkpt>
      <trkpt lat="42.73683" lon="1.39104">
        <ele>2583.1997070312</ele>
        <time>2012-06-24T08:47:59Z</time>
      </trkpt>
      <trkpt lat="42.73686" lon="1.39101">
        <ele>2581.7578125</ele>
        <time>2012-06-24T08:48:05Z</time>
      </trkpt>
      <trkpt lat="42.73689" lon="1.39098">
        <ele>2580.3159179688</ele>
        <time>2012-06-24T08:48:11Z</time>
      </trkpt>
      <trkpt lat="42.7369" lon="1.39096">
        <ele>2579.3544921875</ele>
        <time>2012-06-24T08:48:18Z</time>
      </trkpt>
      <trkpt lat="42.73691" lon="1.39097">
        <ele>2578.3933105469</ele>
        <time>2012-06-24T08:48:24Z</time>
      </trkpt>
      <trkpt lat="42.73692" lon="1.39095">
        <ele>2577.4318847656</ele>
        <time>2012-06-24T08:48:30Z</time>
      </trkpt>
      <trkpt lat="42.73693" lon="1.3909">
        <ele>2576.9514160156</ele>
        <time>2012-06-24T08:48:35Z</time>
      </trkpt>
      <trkpt lat="42.73697" lon="1.39085">
        <ele>2575.5092773438</ele>
        <time>2012-06-24T08:48:40Z</time>
      </trkpt>
      <trkpt lat="42.737" lon="1.39084">
        <ele>2573.5866699219</ele>
        <time>2012-06-24T08:48:45Z</time>
      </trkpt>
      <trkpt lat="42.73703" lon="1.39082">
        <ele>2571.6638183594</ele>
        <time>2012-06-24T08:48:52Z</time>
      </trkpt>
      <trkpt lat="42.73705" lon="1.39085">
        <ele>2569.2607421875</ele>
        <time>2012-06-24T08:48:57Z</time>
      </trkpt>
      <trkpt lat="42.73706" lon="1.39088">
        <ele>2567.8186035156</ele>
        <time>2012-06-24T08:49:02Z</time>
      </trkpt>
      <trkpt lat="42.73709" lon="1.39086">
        <ele>2565.4155273438</ele>
        <time>2012-06-24T08:49:09Z</time>
      </trkpt>
      <trkpt lat="42.73711" lon="1.39088">
        <ele>2563.4926757812</ele>
        <time>2012-06-24T08:49:14Z</time>
      </trkpt>
      <trkpt lat="42.73712" lon="1.3909">
        <ele>2562.05078125</ele>
        <time>2012-06-24T08:49:18Z</time>
      </trkpt>
      <trkpt lat="42.73714" lon="1.39089">
        <ele>2561.5703125</ele>
        <time>2012-06-24T08:49:25Z</time>
      </trkpt>
      <trkpt lat="42.73714" lon="1.39087">
        <ele>2561.0895996094</ele>
        <time>2012-06-24T08:49:31Z</time>
      </trkpt>
      <trkpt lat="42.73715" lon="1.39087">
        <ele>2560.6088867188</ele>
        <time>2012-06-24T08:49:43Z</time>
      </trkpt>
      <trkpt lat="42.73716" lon="1.39085">
        <ele>2560.1281738281</ele>
        <time>2012-06-24T08:49:52Z</time>
      </trkpt>
      <trkpt lat="42.73716" lon="1.39084">
        <ele>2559.1669921875</ele>
        <time>2012-06-24T08:49:58Z</time>
      </trkpt>
      <trkpt lat="42.73717" lon="1.39083">
        <ele>2559.1669921875</ele>
        <time>2012-06-24T08:50:03Z</time>
      </trkpt>
      <trkpt lat="42.73718" lon="1.39082">
        <ele>2558.2055664062</ele>
        <time>2012-06-24T08:50:09Z</time>
      </trkpt>
      <trkpt lat="42.73719" lon="1.39081">
        <ele>2557.7250976562</ele>
        <time>2012-06-24T08:50:17Z</time>
      </trkpt>
      <trkpt lat="42.73721" lon="1.39079">
        <ele>2557.7250976562</ele>
        <time>2012-06-24T08:50:32Z</time>
      </trkpt>
      <trkpt lat="42.73721" lon="1.39076">
        <ele>2556.763671875</ele>
        <time>2012-06-24T08:50:37Z</time>
      </trkpt>
      <trkpt lat="42.73724" lon="1.39075">
        <ele>2555.8020019531</ele>
        <time>2012-06-24T08:50:43Z</time>
      </trkpt>
      <trkpt lat="42.73726" lon="1.39076">
        <ele>2554.3601074219</ele>
        <time>2012-06-24T08:50:48Z</time>
      </trkpt>
      <trkpt lat="42.73727" lon="1.39078">
        <ele>2553.3989257812</ele>
        <time>2012-06-24T08:50:57Z</time>
      </trkpt>
      <trkpt lat="42.73727" lon="1.39079">
        <ele>2553.3989257812</ele>
        <time>2012-06-24T08:51:06Z</time>
      </trkpt>
      <trkpt lat="42.73727" lon="1.3908">
        <ele>2553.3989257812</ele>
        <time>2012-06-24T08:51:16Z</time>
      </trkpt>
      <trkpt lat="42.73729" lon="1.39084">
        <ele>2552.4375</ele>
        <time>2012-06-24T08:51:22Z</time>
      </trkpt>
      <trkpt lat="42.73729" lon="1.39087">
        <ele>2551.4763183594</ele>
        <time>2012-06-24T08:51:28Z</time>
      </trkpt>
      <trkpt lat="42.7373" lon="1.39086">
        <ele>2550.9956054688</ele>
        <time>2012-06-24T08:51:35Z</time>
      </trkpt>
      <trkpt lat="42.73733" lon="1.39085">
        <ele>2550.0344238281</ele>
        <time>2012-06-24T08:51:42Z</time>
      </trkpt>
      <trkpt lat="42.73734" lon="1.39085">
        <ele>2548.5922851562</ele>
        <time>2012-06-24T08:51:47Z</time>
      </trkpt>
      <trkpt lat="42.73736" lon="1.39083">
        <ele>2547.150390625</ele>
        <time>2012-06-24T08:51:53Z</time>
      </trkpt>
      <trkpt lat="42.73739" lon="1.39082">
        <ele>2546.1892089844</ele>
        <time>2012-06-24T08:52:00Z</time>
      </trkpt>
      <trkpt lat="42.73741" lon="1.39083">
        <ele>2545.2277832031</ele>
        <time>2012-06-24T08:52:07Z</time>
      </trkpt>
      <trkpt lat="42.73742" lon="1.39084">
        <ele>2544.2663574219</ele>
        <time>2012-06-24T08:52:13Z</time>
      </trkpt>
      <trkpt lat="42.73743" lon="1.39083">
        <ele>2543.7858886719</ele>
        <time>2012-06-24T08:52:19Z</time>
      </trkpt>
      <trkpt lat="42.73745" lon="1.39083">
        <ele>2541.86328125</ele>
        <time>2012-06-24T08:52:26Z</time>
      </trkpt>
      <trkpt lat="42.73745" lon="1.39082">
        <ele>2541.86328125</ele>
        <time>2012-06-24T08:52:31Z</time>
      </trkpt>
      <trkpt lat="42.73746" lon="1.39081">
        <ele>2539.9404296875</ele>
        <time>2012-06-24T08:52:47Z</time>
      </trkpt>
      <trkpt lat="42.73747" lon="1.39081">
        <ele>2539.9404296875</ele>
        <time>2012-06-24T08:52:59Z</time>
      </trkpt>
      <trkpt lat="42.73747" lon="1.39084">
        <ele>2539.9404296875</ele>
        <time>2012-06-24T08:53:04Z</time>
      </trkpt>
      <trkpt lat="42.73747" lon="1.39086">
        <ele>2539.4597167969</ele>
        <time>2012-06-24T08:53:09Z</time>
      </trkpt>
      <trkpt lat="42.73748" lon="1.39087">
        <ele>2538.9790039062</ele>
        <time>2012-06-24T08:53:16Z</time>
      </trkpt>
      <trkpt lat="42.73748" lon="1.39088">
        <ele>2538.4985351562</ele>
        <time>2012-06-24T08:53:26Z</time>
      </trkpt>
      <trkpt lat="42.73752" lon="1.39089">
        <ele>2536.5756835938</ele>
        <time>2012-06-24T08:53:32Z</time>
      </trkpt>
      <trkpt lat="42.73758" lon="1.39091">
        <ele>2533.6918945312</ele>
        <time>2012-06-24T08:53:37Z</time>
      </trkpt>
      <trkpt lat="42.7377" lon="1.39093">
        <ele>2529.3659667969</ele>
        <time>2012-06-24T08:53:45Z</time>
      </trkpt>
      <trkpt lat="42.73778" lon="1.39094">
        <ele>2527.443359375</ele>
        <time>2012-06-24T08:53:51Z</time>
      </trkpt>
      <trkpt lat="42.73787" lon="1.39097">
        <ele>2524.0788574219</ele>
        <time>2012-06-24T08:53:57Z</time>
      </trkpt>
      <trkpt lat="42.73795" lon="1.391">
        <ele>2523.1174316406</ele>
        <time>2012-06-24T08:54:02Z</time>
      </trkpt>
      <trkpt lat="42.73806" lon="1.39102">
        <ele>2522.1560058594</ele>
        <time>2012-06-24T08:54:09Z</time>
      </trkpt>
      <trkpt lat="42.73817" lon="1.39106">
        <ele>2519.2722167969</ele>
        <time>2012-06-24T08:54:16Z</time>
      </trkpt>
      <trkpt lat="42.73827" lon="1.39106">
        <ele>2517.3493652344</ele>
        <time>2012-06-24T08:54:22Z</time>
      </trkpt>
      <trkpt lat="42.7383" lon="1.39105">
        <ele>2516.8688964844</ele>
        <time>2012-06-24T08:54:27Z</time>
      </trkpt>
      <trkpt lat="42.7384" lon="1.391">
        <ele>2518.7915039062</ele>
        <time>2012-06-24T08:54:37Z</time>
      </trkpt>
      <trkpt lat="42.73847" lon="1.39094">
        <ele>2519.2722167969</ele>
        <time>2012-06-24T08:54:46Z</time>
      </trkpt>
      <trkpt lat="42.7385" lon="1.39087">
        <ele>2519.2722167969</ele>
        <time>2012-06-24T08:54:54Z</time>
      </trkpt>
      <trkpt lat="42.73853" lon="1.3908">
        <ele>2518.7915039062</ele>
        <time>2012-06-24T08:55:01Z</time>
      </trkpt>
      <trkpt lat="42.73857" lon="1.39072">
        <ele>2518.3107910156</ele>
        <time>2012-06-24T08:55:09Z</time>
      </trkpt>
      <trkpt lat="42.73863" lon="1.39068">
        <ele>2516.8688964844</ele>
        <time>2012-06-24T08:55:16Z</time>
      </trkpt>
      <trkpt lat="42.73867" lon="1.39068">
        <ele>2514.9462890625</ele>
        <time>2012-06-24T08:55:23Z</time>
      </trkpt>
      <trkpt lat="42.73867" lon="1.39069">
        <ele>2513.5041503906</ele>
        <time>2012-06-24T08:55:32Z</time>
      </trkpt>
      <trkpt lat="42.73931" lon="1.39058">
        <ele>2497.1618652344</ele>
        <time>2012-06-24T08:58:43Z</time>
      </trkpt>
      <trkpt lat="42.73931" lon="1.39058">
        <ele>2497.1618652344</ele>
        <time>2012-06-24T08:58:44Z</time>
      </trkpt>
      <trkpt lat="42.73935" lon="1.39058">
        <ele>2497.1618652344</ele>
        <time>2012-06-24T08:58:52Z</time>
      </trkpt>
      <trkpt lat="42.73941" lon="1.39059">
        <ele>2495.7199707031</ele>
        <time>2012-06-24T08:58:58Z</time>
      </trkpt>
      <trkpt lat="42.73949" lon="1.39061">
        <ele>2495.7199707031</ele>
        <time>2012-06-24T08:59:05Z</time>
      </trkpt>
      <trkpt lat="42.73955" lon="1.39062">
        <ele>2495.2392578125</ele>
        <time>2012-06-24T08:59:10Z</time>
      </trkpt>
      <trkpt lat="42.73963" lon="1.39062">
        <ele>2495.7199707031</ele>
        <time>2012-06-24T08:59:17Z</time>
      </trkpt>
      <trkpt lat="42.73967" lon="1.39063">
        <ele>2495.2392578125</ele>
        <time>2012-06-24T08:59:22Z</time>
      </trkpt>
      <trkpt lat="42.73972" lon="1.39064">
        <ele>2496.2006835938</ele>
        <time>2012-06-24T08:59:27Z</time>
      </trkpt>
      <trkpt lat="42.73977" lon="1.39065">
        <ele>2496.2006835938</ele>
        <time>2012-06-24T08:59:32Z</time>
      </trkpt>
      <trkpt lat="42.73983" lon="1.39066">
        <ele>2495.7199707031</ele>
        <time>2012-06-24T08:59:40Z</time>
      </trkpt>
      <trkpt lat="42.73984" lon="1.39066">
        <ele>2495.2392578125</ele>
        <time>2012-06-24T08:59:46Z</time>
      </trkpt>
      <trkpt lat="42.73984" lon="1.39067">
        <ele>2494.2778320312</ele>
        <time>2012-06-24T09:00:00Z</time>
      </trkpt>
      <trkpt lat="42.73991" lon="1.39067">
        <ele>2493.3166503906</ele>
        <time>2012-06-24T09:00:08Z</time>
      </trkpt>
      <trkpt lat="42.73996" lon="1.39066">
        <ele>2492.35546875</ele>
        <time>2012-06-24T09:00:14Z</time>
      </trkpt>
      <trkpt lat="42.74002" lon="1.39065">
        <ele>2490.9130859375</ele>
        <time>2012-06-24T09:00:20Z</time>
      </trkpt>
      <trkpt lat="42.74004" lon="1.39065">
        <ele>2490.4323730469</ele>
        <time>2012-06-24T09:00:22Z</time>
      </trkpt>
      <trkpt lat="42.74012" lon="1.39062">
        <ele>2489.4711914062</ele>
        <time>2012-06-24T09:00:31Z</time>
      </trkpt>
      <trkpt lat="42.74017" lon="1.39059">
        <ele>2489.4711914062</ele>
        <time>2012-06-24T09:00:36Z</time>
      </trkpt>
      <trkpt lat="42.74023" lon="1.39056">
        <ele>2488.5100097656</ele>
        <time>2012-06-24T09:00:43Z</time>
      </trkpt>
      <trkpt lat="42.7403" lon="1.39053">
        <ele>2486.5871582031</ele>
        <time>2012-06-24T09:00:50Z</time>
      </trkpt>
      <trkpt lat="42.74036" lon="1.39051">
        <ele>2485.6259765625</ele>
        <time>2012-06-24T09:00:57Z</time>
      </trkpt>
      <trkpt lat="42.7404" lon="1.39049">
        <ele>2484.6647949219</ele>
        <time>2012-06-24T09:01:04Z</time>
      </trkpt>
      <trkpt lat="42.74045" lon="1.39045">
        <ele>2483.22265625</ele>
        <time>2012-06-24T09:01:11Z</time>
      </trkpt>
      <trkpt lat="42.74052" lon="1.39043">
        <ele>2481.3000488281</ele>
        <time>2012-06-24T09:01:17Z</time>
      </trkpt>
      <trkpt lat="42.74053" lon="1.39043">
        <ele>2480.3388671875</ele>
        <time>2012-06-24T09:01:22Z</time>
      </trkpt>
      <trkpt lat="42.74056" lon="1.39042">
        <ele>2481.3000488281</ele>
        <time>2012-06-24T09:01:27Z</time>
      </trkpt>
      <trkpt lat="42.7406" lon="1.39041">
        <ele>2480.8195800781</ele>
        <time>2012-06-24T09:01:33Z</time>
      </trkpt>
      <trkpt lat="42.74062" lon="1.39041">
        <ele>2480.3388671875</ele>
        <time>2012-06-24T09:01:39Z</time>
      </trkpt>
      <trkpt lat="42.74064" lon="1.39039">
        <ele>2478.8967285156</ele>
        <time>2012-06-24T09:01:50Z</time>
      </trkpt>
      <trkpt lat="42.74067" lon="1.39038">
        <ele>2477.4548339844</ele>
        <time>2012-06-24T09:01:58Z</time>
      </trkpt>
      <trkpt lat="42.74072" lon="1.39036">
        <ele>2476.4936523438</ele>
        <time>2012-06-24T09:02:04Z</time>
      </trkpt>
      <trkpt lat="42.74073" lon="1.39034">
        <ele>2475.5319824219</ele>
        <time>2012-06-24T09:02:09Z</time>
      </trkpt>
      <trkpt lat="42.74075" lon="1.39033">
        <ele>2472.6481933594</ele>
        <time>2012-06-24T09:02:16Z</time>
      </trkpt>
      <trkpt lat="42.74079" lon="1.39031">
        <ele>2472.6481933594</ele>
        <time>2012-06-24T09:02:23Z</time>
      </trkpt>
      <trkpt lat="42.74083" lon="1.39028">
        <ele>2472.1674804688</ele>
        <time>2012-06-24T09:02:29Z</time>
      </trkpt>
      <trkpt lat="42.74087" lon="1.39026">
        <ele>2469.2836914062</ele>
        <time>2012-06-24T09:02:36Z</time>
      </trkpt>
      <trkpt lat="42.74089" lon="1.39026">
        <ele>2469.2836914062</ele>
        <time>2012-06-24T09:02:43Z</time>
      </trkpt>
      <trkpt lat="42.74093" lon="1.39024">
        <ele>2468.322265625</ele>
        <time>2012-06-24T09:02:50Z</time>
      </trkpt>
      <trkpt lat="42.74095" lon="1.39022">
        <ele>2466.8803710938</ele>
        <time>2012-06-24T09:02:57Z</time>
      </trkpt>
      <trkpt lat="42.74097" lon="1.39019">
        <ele>2466.8803710938</ele>
        <time>2012-06-24T09:03:03Z</time>
      </trkpt>
      <trkpt lat="42.741" lon="1.39015">
        <ele>2467.8415527344</ele>
        <time>2012-06-24T09:03:10Z</time>
      </trkpt>
      <trkpt lat="42.74102" lon="1.39013">
        <ele>2467.8415527344</ele>
        <time>2012-06-24T09:03:17Z</time>
      </trkpt>
      <trkpt lat="42.74104" lon="1.39013">
        <ele>2467.3608398438</ele>
        <time>2012-06-24T09:03:28Z</time>
      </trkpt>
      <trkpt lat="42.74108" lon="1.39012">
        <ele>2466.8803710938</ele>
        <time>2012-06-24T09:03:36Z</time>
      </trkpt>
      <trkpt lat="42.74113" lon="1.39011">
        <ele>2464.9577636719</ele>
        <time>2012-06-24T09:03:43Z</time>
      </trkpt>
      <trkpt lat="42.7412" lon="1.39009">
        <ele>2462.5544433594</ele>
        <time>2012-06-24T09:03:50Z</time>
      </trkpt>
      <trkpt lat="42.74125" lon="1.39008">
        <ele>2459.1896972656</ele>
        <time>2012-06-24T09:03:57Z</time>
      </trkpt>
      <trkpt lat="42.7413" lon="1.39007">
        <ele>2456.7863769531</ele>
        <time>2012-06-24T09:04:04Z</time>
      </trkpt>
      <trkpt lat="42.74135" lon="1.39006">
        <ele>2454.8637695312</ele>
        <time>2012-06-24T09:04:10Z</time>
      </trkpt>
      <trkpt lat="42.74141" lon="1.39005">
        <ele>2453.9025878906</ele>
        <time>2012-06-24T09:04:17Z</time>
      </trkpt>
      <trkpt lat="42.74147" lon="1.39004">
        <ele>2452.9411621094</ele>
        <time>2012-06-24T09:04:24Z</time>
      </trkpt>
      <trkpt lat="42.74155" lon="1.39005">
        <ele>2451.9797363281</ele>
        <time>2012-06-24T09:04:30Z</time>
      </trkpt>
      <trkpt lat="42.7416" lon="1.39005">
        <ele>2451.0185546875</ele>
        <time>2012-06-24T09:04:36Z</time>
      </trkpt>
      <trkpt lat="42.74164" lon="1.39004">
        <ele>2450.0573730469</ele>
        <time>2012-06-24T09:04:43Z</time>
      </trkpt>
      <trkpt lat="42.7417" lon="1.39004">
        <ele>2450.0573730469</ele>
        <time>2012-06-24T09:04:50Z</time>
      </trkpt>
      <trkpt lat="42.74174" lon="1.39006">
        <ele>2447.1733398438</ele>
        <time>2012-06-24T09:04:58Z</time>
      </trkpt>
      <trkpt lat="42.74178" lon="1.39008">
        <ele>2446.6926269531</ele>
        <time>2012-06-24T09:05:05Z</time>
      </trkpt>
      <trkpt lat="42.74181" lon="1.39011">
        <ele>2445.7314453125</ele>
        <time>2012-06-24T09:05:14Z</time>
      </trkpt>
      <trkpt lat="42.74185" lon="1.39013">
        <ele>2445.2507324219</ele>
        <time>2012-06-24T09:05:22Z</time>
      </trkpt>
      <trkpt lat="42.74189" lon="1.39013">
        <ele>2445.7314453125</ele>
        <time>2012-06-24T09:05:28Z</time>
      </trkpt>
      <trkpt lat="42.74191" lon="1.39012">
        <ele>2445.2507324219</ele>
        <time>2012-06-24T09:05:35Z</time>
      </trkpt>
      <trkpt lat="42.74193" lon="1.39012">
        <ele>2445.7314453125</ele>
        <time>2012-06-24T09:05:47Z</time>
      </trkpt>
      <trkpt lat="42.74194" lon="1.39012">
        <ele>2446.6926269531</ele>
        <time>2012-06-24T09:05:53Z</time>
      </trkpt>
      <trkpt lat="42.74195" lon="1.39015">
        <ele>2447.6540527344</ele>
        <time>2012-06-24T09:06:02Z</time>
      </trkpt>
      <trkpt lat="42.74194" lon="1.39017">
        <ele>2447.1733398438</ele>
        <time>2012-06-24T09:06:06Z</time>
      </trkpt>
      <trkpt lat="42.74194" lon="1.39017">
        <ele>2446.6926269531</ele>
        <time>2012-06-24T09:06:20Z</time>
      </trkpt>
      <trkpt lat="42.74195" lon="1.39015">
        <ele>2446.2121582031</ele>
        <time>2012-06-24T09:06:34Z</time>
      </trkpt>
      <trkpt lat="42.74195" lon="1.39015">
        <ele>2447.1733398438</ele>
        <time>2012-06-24T09:06:47Z</time>
      </trkpt>
      <trkpt lat="42.74195" lon="1.39015">
        <ele>2448.1345214844</ele>
        <time>2012-06-24T09:07:05Z</time>
      </trkpt>
      <trkpt lat="42.74195" lon="1.39015">
        <ele>2445.2507324219</ele>
        <time>2012-06-24T09:07:19Z</time>
      </trkpt>
      <trkpt lat="42.74195" lon="1.39015">
        <ele>2444.7700195312</ele>
        <time>2012-06-24T09:07:30Z</time>
      </trkpt>
      <trkpt lat="42.74197" lon="1.39014">
        <ele>2445.2507324219</ele>
        <time>2012-06-24T09:07:38Z</time>
      </trkpt>
      <trkpt lat="42.74197" lon="1.39013">
        <ele>2444.7700195312</ele>
        <time>2012-06-24T09:07:46Z</time>
      </trkpt>
      <trkpt lat="42.742" lon="1.39015">
        <ele>2445.7314453125</ele>
        <time>2012-06-24T09:07:57Z</time>
      </trkpt>
      <trkpt lat="42.74202" lon="1.39017">
        <ele>2446.2121582031</ele>
        <time>2012-06-24T09:08:03Z</time>
      </trkpt>
      <trkpt lat="42.74205" lon="1.39019">
        <ele>2446.6926269531</ele>
        <time>2012-06-24T09:08:09Z</time>
      </trkpt>
      <trkpt lat="42.74208" lon="1.39023">
        <ele>2445.7314453125</ele>
        <time>2012-06-24T09:08:16Z</time>
      </trkpt>
      <trkpt lat="42.74211" lon="1.39026">
        <ele>2444.2893066406</ele>
        <time>2012-06-24T09:08:21Z</time>
      </trkpt>
      <trkpt lat="42.74215" lon="1.39029">
        <ele>2443.3278808594</ele>
        <time>2012-06-24T09:08:27Z</time>
      </trkpt>
      <trkpt lat="42.74221" lon="1.39034">
        <ele>2441.8859863281</ele>
        <time>2012-06-24T09:08:34Z</time>
      </trkpt>
      <trkpt lat="42.74224" lon="1.39039">
        <ele>2441.4052734375</ele>
        <time>2012-06-24T09:08:40Z</time>
      </trkpt>
      <trkpt lat="42.74226" lon="1.39041">
        <ele>2440.4438476562</ele>
        <time>2012-06-24T09:08:46Z</time>
      </trkpt>
      <trkpt lat="42.74225" lon="1.39041">
        <ele>2440.9245605469</ele>
        <time>2012-06-24T09:09:00Z</time>
      </trkpt>
      <trkpt lat="42.74225" lon="1.39041">
        <ele>2440.9245605469</ele>
        <time>2012-06-24T09:09:13Z</time>
      </trkpt>
      <trkpt lat="42.74225" lon="1.39041">
        <ele>2440.9245605469</ele>
        <time>2012-06-24T09:09:20Z</time>
      </trkpt>
      <trkpt lat="42.74228" lon="1.39044">
        <ele>2439.9633789062</ele>
        <time>2012-06-24T09:09:26Z</time>
      </trkpt>
      <trkpt lat="42.74229" lon="1.39047">
        <ele>2439.001953125</ele>
        <time>2012-06-24T09:09:28Z</time>
      </trkpt>
      <trkpt lat="42.74238" lon="1.3906">
        <ele>2433.71484375</ele>
        <time>2012-06-24T09:09:37Z</time>
      </trkpt>
      <trkpt lat="42.74243" lon="1.39069">
        <ele>2431.7922363281</ele>
        <time>2012-06-24T09:09:43Z</time>
      </trkpt>
      <trkpt lat="42.74246" lon="1.39072">
        <ele>2430.3503417969</ele>
        <time>2012-06-24T09:09:47Z</time>
      </trkpt>
      <trkpt lat="42.7425" lon="1.39076">
        <ele>2427.9467773438</ele>
        <time>2012-06-24T09:09:52Z</time>
      </trkpt>
      <trkpt lat="42.74258" lon="1.39082">
        <ele>2425.0627441406</ele>
        <time>2012-06-24T09:10:00Z</time>
      </trkpt>
      <trkpt lat="42.74262" lon="1.39086">
        <ele>2423.6208496094</ele>
        <time>2012-06-24T09:10:05Z</time>
      </trkpt>
      <trkpt lat="42.74268" lon="1.39089">
        <ele>2422.1789550781</ele>
        <time>2012-06-24T09:10:11Z</time>
      </trkpt>
      <trkpt lat="42.74271" lon="1.39092">
        <ele>2422.6596679688</ele>
        <time>2012-06-24T09:10:16Z</time>
      </trkpt>
      <trkpt lat="42.74274" lon="1.39094">
        <ele>2422.6596679688</ele>
        <time>2012-06-24T09:10:22Z</time>
      </trkpt>
      <trkpt lat="42.74278" lon="1.39097">
        <ele>2421.6982421875</ele>
        <time>2012-06-24T09:10:27Z</time>
      </trkpt>
      <trkpt lat="42.74284" lon="1.39102">
        <ele>2419.2951660156</ele>
        <time>2012-06-24T09:10:35Z</time>
      </trkpt>
      <trkpt lat="42.74289" lon="1.39105">
        <ele>2417.3723144531</ele>
        <time>2012-06-24T09:10:43Z</time>
      </trkpt>
      <trkpt lat="42.74291" lon="1.39107">
        <ele>2417.3723144531</ele>
        <time>2012-06-24T09:10:50Z</time>
      </trkpt>
      <trkpt lat="42.74292" lon="1.39108">
        <ele>2418.814453125</ele>
        <time>2012-06-24T09:10:57Z</time>
      </trkpt>
      <trkpt lat="42.74295" lon="1.39111">
        <ele>2419.2951660156</ele>
        <time>2012-06-24T09:11:04Z</time>
      </trkpt>
      <trkpt lat="42.74298" lon="1.39113">
        <ele>2420.2563476562</ele>
        <time>2012-06-24T09:11:11Z</time>
      </trkpt>
      <trkpt lat="42.74303" lon="1.39118">
        <ele>2419.7756347656</ele>
        <time>2012-06-24T09:11:19Z</time>
      </trkpt>
      <trkpt lat="42.74306" lon="1.39123">
        <ele>2418.814453125</ele>
        <time>2012-06-24T09:11:28Z</time>
      </trkpt>
      <trkpt lat="42.7431" lon="1.39127">
        <ele>2418.814453125</ele>
        <time>2012-06-24T09:11:34Z</time>
      </trkpt>
      <trkpt lat="42.7431" lon="1.39133">
        <ele>2417.3723144531</ele>
        <time>2012-06-24T09:11:40Z</time>
      </trkpt>
      <trkpt lat="42.7431" lon="1.39136">
        <ele>2415.9304199219</ele>
        <time>2012-06-24T09:11:46Z</time>
      </trkpt>
      <trkpt lat="42.74313" lon="1.3914">
        <ele>2414.9692382812</ele>
        <time>2012-06-24T09:11:52Z</time>
      </trkpt>
      <trkpt lat="42.74316" lon="1.39139">
        <ele>2414.4885253906</ele>
        <time>2012-06-24T09:11:58Z</time>
      </trkpt>
      <trkpt lat="42.74316" lon="1.3914">
        <ele>2413.5270996094</ele>
        <time>2012-06-24T09:12:08Z</time>
      </trkpt>
      <trkpt lat="42.74318" lon="1.39142">
        <ele>2412.5659179688</ele>
        <time>2012-06-24T09:12:13Z</time>
      </trkpt>
      <trkpt lat="42.74321" lon="1.39144">
        <ele>2412.0852050781</ele>
        <time>2012-06-24T09:12:21Z</time>
      </trkpt>
      <trkpt lat="42.74326" lon="1.39147">
        <ele>2411.1237792969</ele>
        <time>2012-06-24T09:12:28Z</time>
      </trkpt>
      <trkpt lat="42.74327" lon="1.39148">
        <ele>2411.1237792969</ele>
        <time>2012-06-24T09:12:36Z</time>
      </trkpt>
      <trkpt lat="42.74332" lon="1.39153">
        <ele>2409.201171875</ele>
        <time>2012-06-24T09:12:43Z</time>
      </trkpt>
      <trkpt lat="42.74334" lon="1.39155">
        <ele>2407.7592773438</ele>
        <time>2012-06-24T09:12:48Z</time>
      </trkpt>
      <trkpt lat="42.74338" lon="1.39158">
        <ele>2405.8364257812</ele>
        <time>2012-06-24T09:12:54Z</time>
      </trkpt>
      <trkpt lat="42.74341" lon="1.39162">
        <ele>2403.9140625</ele>
        <time>2012-06-24T09:13:00Z</time>
      </trkpt>
      <trkpt lat="42.74342" lon="1.39165">
        <ele>2403.4333496094</ele>
        <time>2012-06-24T09:13:07Z</time>
      </trkpt>
      <trkpt lat="42.74344" lon="1.39168">
        <ele>2402.9526367188</ele>
        <time>2012-06-24T09:13:12Z</time>
      </trkpt>
      <trkpt lat="42.74346" lon="1.3917">
        <ele>2402.4719238281</ele>
        <time>2012-06-24T09:13:17Z</time>
      </trkpt>
      <trkpt lat="42.7435" lon="1.39171">
        <ele>2402.4719238281</ele>
        <time>2012-06-24T09:13:23Z</time>
      </trkpt>
      <trkpt lat="42.74353" lon="1.39174">
        <ele>2401.0300292969</ele>
        <time>2012-06-24T09:13:29Z</time>
      </trkpt>
      <trkpt lat="42.74356" lon="1.39178">
        <ele>2400.0688476562</ele>
        <time>2012-06-24T09:13:34Z</time>
      </trkpt>
      <trkpt lat="42.7436" lon="1.39179">
        <ele>2400.0688476562</ele>
        <time>2012-06-24T09:13:40Z</time>
      </trkpt>
      <trkpt lat="42.74363" lon="1.39178">
        <ele>2399.5881347656</ele>
        <time>2012-06-24T09:13:46Z</time>
      </trkpt>
      <trkpt lat="42.74368" lon="1.39179">
        <ele>2399.107421875</ele>
        <time>2012-06-24T09:13:53Z</time>
      </trkpt>
      <trkpt lat="42.74372" lon="1.39184">
        <ele>2398.1459960938</ele>
        <time>2012-06-24T09:13:59Z</time>
      </trkpt>
      <trkpt lat="42.74378" lon="1.3919">
        <ele>2396.7041015625</ele>
        <time>2012-06-24T09:14:07Z</time>
      </trkpt>
      <trkpt lat="42.74382" lon="1.39194">
        <ele>2395.7426757812</ele>
        <time>2012-06-24T09:14:12Z</time>
      </trkpt>
      <trkpt lat="42.74384" lon="1.39196">
        <ele>2395.2619628906</ele>
        <time>2012-06-24T09:14:14Z</time>
      </trkpt>
      <trkpt lat="42.74385" lon="1.39199">
        <ele>2395.2619628906</ele>
        <time>2012-06-24T09:14:20Z</time>
      </trkpt>
      <trkpt lat="42.74387" lon="1.39198">
        <ele>2395.7426757812</ele>
        <time>2012-06-24T09:14:27Z</time>
      </trkpt>
      <trkpt lat="42.74389" lon="1.39196">
        <ele>2396.2236328125</ele>
        <time>2012-06-24T09:14:31Z</time>
      </trkpt>
      <trkpt lat="42.74391" lon="1.39196">
        <ele>2397.1848144531</ele>
        <time>2012-06-24T09:14:35Z</time>
      </trkpt>
      <trkpt lat="42.74393" lon="1.39197">
        <ele>2396.7041015625</ele>
        <time>2012-06-24T09:14:40Z</time>
      </trkpt>
      <trkpt lat="42.74397" lon="1.392">
        <ele>2395.7426757812</ele>
        <time>2012-06-24T09:14:46Z</time>
      </trkpt>
      <trkpt lat="42.74398" lon="1.39202">
        <ele>2395.7426757812</ele>
        <time>2012-06-24T09:14:53Z</time>
      </trkpt>
      <trkpt lat="42.74398" lon="1.39204">
        <ele>2396.2236328125</ele>
        <time>2012-06-24T09:14:57Z</time>
      </trkpt>
      <trkpt lat="42.74397" lon="1.39207">
        <ele>2395.2619628906</ele>
        <time>2012-06-24T09:15:04Z</time>
      </trkpt>
      <trkpt lat="42.74399" lon="1.39209">
        <ele>2394.78125</ele>
        <time>2012-06-24T09:15:08Z</time>
      </trkpt>
      <trkpt lat="42.74402" lon="1.39213">
        <ele>2394.78125</ele>
        <time>2012-06-24T09:15:14Z</time>
      </trkpt>
      <trkpt lat="42.74406" lon="1.39215">
        <ele>2395.2619628906</ele>
        <time>2012-06-24T09:15:20Z</time>
      </trkpt>
      <trkpt lat="42.7441" lon="1.39218">
        <ele>2394.78125</ele>
        <time>2012-06-24T09:15:27Z</time>
      </trkpt>
      <trkpt lat="42.74414" lon="1.39224">
        <ele>2393.3393554688</ele>
        <time>2012-06-24T09:15:33Z</time>
      </trkpt>
      <trkpt lat="42.74419" lon="1.39225">
        <ele>2391.8974609375</ele>
        <time>2012-06-24T09:15:39Z</time>
      </trkpt>
      <trkpt lat="42.74424" lon="1.39227">
        <ele>2391.4167480469</ele>
        <time>2012-06-24T09:15:45Z</time>
      </trkpt>
      <trkpt lat="42.74426" lon="1.39226">
        <ele>2390.9360351562</ele>
        <time>2012-06-24T09:15:51Z</time>
      </trkpt>
      <trkpt lat="42.74429" lon="1.39223">
        <ele>2390.4553222656</ele>
        <time>2012-06-24T09:15:58Z</time>
      </trkpt>
      <trkpt lat="42.74429" lon="1.39218">
        <ele>2391.4167480469</ele>
        <time>2012-06-24T09:16:04Z</time>
      </trkpt>
      <trkpt lat="42.74433" lon="1.39212">
        <ele>2391.4167480469</ele>
        <time>2012-06-24T09:16:11Z</time>
      </trkpt>
      <trkpt lat="42.74435" lon="1.3921">
        <ele>2392.3781738281</ele>
        <time>2012-06-24T09:16:16Z</time>
      </trkpt>
      <trkpt lat="42.74437" lon="1.3921">
        <ele>2393.3393554688</ele>
        <time>2012-06-24T09:16:21Z</time>
      </trkpt>
      <trkpt lat="42.74439" lon="1.39208">
        <ele>2394.78125</ele>
        <time>2012-06-24T09:16:28Z</time>
      </trkpt>
      <trkpt lat="42.74442" lon="1.39208">
        <ele>2395.2619628906</ele>
        <time>2012-06-24T09:16:33Z</time>
      </trkpt>
      <trkpt lat="42.74443" lon="1.39205">
        <ele>2395.7426757812</ele>
        <time>2012-06-24T09:16:39Z</time>
      </trkpt>
      <trkpt lat="42.74445" lon="1.39202">
        <ele>2397.1848144531</ele>
        <time>2012-06-24T09:16:44Z</time>
      </trkpt>
      <trkpt lat="42.74447" lon="1.39199">
        <ele>2399.107421875</ele>
        <time>2012-06-24T09:16:49Z</time>
      </trkpt>
      <trkpt lat="42.74447" lon="1.39198">
        <ele>2399.5881347656</ele>
        <time>2012-06-24T09:16:59Z</time>
      </trkpt>
      <trkpt lat="42.74448" lon="1.39199">
        <ele>2399.5881347656</ele>
        <time>2012-06-24T09:17:08Z</time>
      </trkpt>
      <trkpt lat="42.74451" lon="1.39199">
        <ele>2397.6655273438</ele>
        <time>2012-06-24T09:17:17Z</time>
      </trkpt>
      <trkpt lat="42.74457" lon="1.39197">
        <ele>2396.7041015625</ele>
        <time>2012-06-24T09:17:21Z</time>
      </trkpt>
      <trkpt lat="42.74464" lon="1.39195">
        <ele>2396.2236328125</ele>
        <time>2012-06-24T09:17:27Z</time>
      </trkpt>
      <trkpt lat="42.74472" lon="1.39194">
        <ele>2393.3393554688</ele>
        <time>2012-06-24T09:17:34Z</time>
      </trkpt>
      <trkpt lat="42.74477" lon="1.39195">
        <ele>2391.4167480469</ele>
        <time>2012-06-24T09:17:39Z</time>
      </trkpt>
      <trkpt lat="42.7448" lon="1.39193">
        <ele>2390.9360351562</ele>
        <time>2012-06-24T09:17:43Z</time>
      </trkpt>
      <trkpt lat="42.74488" lon="1.39192">
        <ele>2388.0522460938</ele>
        <time>2012-06-24T09:17:50Z</time>
      </trkpt>
      <trkpt lat="42.74494" lon="1.39192">
        <ele>2386.1296386719</ele>
        <time>2012-06-24T09:17:56Z</time>
      </trkpt>
      <trkpt lat="42.74497" lon="1.39192">
        <ele>2385.1682128906</ele>
        <time>2012-06-24T09:18:02Z</time>
      </trkpt>
      <trkpt lat="42.745" lon="1.39192">
        <ele>2383.2456054688</ele>
        <time>2012-06-24T09:18:09Z</time>
      </trkpt>
      <trkpt lat="42.74501" lon="1.39192">
        <ele>2382.2844238281</ele>
        <time>2012-06-24T09:18:15Z</time>
      </trkpt>
      <trkpt lat="42.74504" lon="1.39193">
        <ele>2382.2844238281</ele>
        <time>2012-06-24T09:18:19Z</time>
      </trkpt>
      <trkpt lat="42.7451" lon="1.39194">
        <ele>2379.880859375</ele>
        <time>2012-06-24T09:18:24Z</time>
      </trkpt>
      <trkpt lat="42.74516" lon="1.39191">
        <ele>2377.4775390625</ele>
        <time>2012-06-24T09:18:29Z</time>
      </trkpt>
      <trkpt lat="42.74518" lon="1.39192">
        <ele>2376.5163574219</ele>
        <time>2012-06-24T09:18:31Z</time>
      </trkpt>
      <trkpt lat="42.74525" lon="1.39193">
        <ele>2373.6323242188</ele>
        <time>2012-06-24T09:18:37Z</time>
      </trkpt>
      <trkpt lat="42.74525" lon="1.39193">
        <ele>2373.1518554688</ele>
        <time>2012-06-24T09:18:38Z</time>
      </trkpt>
      <trkpt lat="42.74528" lon="1.39195">
        <ele>2371.7097167969</ele>
        <time>2012-06-24T09:18:41Z</time>
      </trkpt>
      <trkpt lat="42.74533" lon="1.39195">
        <ele>2369.306640625</ele>
        <time>2012-06-24T09:18:48Z</time>
      </trkpt>
      <trkpt lat="42.7454" lon="1.39196">
        <ele>2367.3837890625</ele>
        <time>2012-06-24T09:18:54Z</time>
      </trkpt>
      <trkpt lat="42.74541" lon="1.39196">
        <ele>2367.3837890625</ele>
        <time>2012-06-24T09:18:55Z</time>
      </trkpt>
      <trkpt lat="42.74546" lon="1.39196">
        <ele>2366.4226074219</ele>
        <time>2012-06-24T09:19:01Z</time>
      </trkpt>
      <trkpt lat="42.74555" lon="1.39194">
        <ele>2364.9807128906</ele>
        <time>2012-06-24T09:19:07Z</time>
      </trkpt>
      <trkpt lat="42.74564" lon="1.39194">
        <ele>2363.5383300781</ele>
        <time>2012-06-24T09:19:14Z</time>
      </trkpt>
      <trkpt lat="42.74571" lon="1.39194">
        <ele>2363.0578613281</ele>
        <time>2012-06-24T09:19:20Z</time>
      </trkpt>
      <trkpt lat="42.74578" lon="1.39192">
        <ele>2363.5383300781</ele>
        <time>2012-06-24T09:19:28Z</time>
      </trkpt>
      <trkpt lat="42.74584" lon="1.39189">
        <ele>2364.9807128906</ele>
        <time>2012-06-24T09:19:35Z</time>
      </trkpt>
      <trkpt lat="42.74588" lon="1.39186">
        <ele>2365.4614257812</ele>
        <time>2012-06-24T09:19:41Z</time>
      </trkpt>
      <trkpt lat="42.74593" lon="1.39186">
        <ele>2364.0192871094</ele>
        <time>2012-06-24T09:19:48Z</time>
      </trkpt>
      <trkpt lat="42.74596" lon="1.39184">
        <ele>2364.0192871094</ele>
        <time>2012-06-24T09:19:53Z</time>
      </trkpt>
      <trkpt lat="42.746" lon="1.39182">
        <ele>2362.5771484375</ele>
        <time>2012-06-24T09:20:01Z</time>
      </trkpt>
      <trkpt lat="42.74603" lon="1.39178">
        <ele>2362.5771484375</ele>
        <time>2012-06-24T09:20:09Z</time>
      </trkpt>
      <trkpt lat="42.74606" lon="1.39175">
        <ele>2361.6159667969</ele>
        <time>2012-06-24T09:20:15Z</time>
      </trkpt>
      <trkpt lat="42.74609" lon="1.39173">
        <ele>2361.1352539062</ele>
        <time>2012-06-24T09:20:21Z</time>
      </trkpt>
      <trkpt lat="42.74614" lon="1.39174">
        <ele>2359.6931152344</ele>
        <time>2012-06-24T09:20:28Z</time>
      </trkpt>
      <trkpt lat="42.74618" lon="1.39175">
        <ele>2357.7707519531</ele>
        <time>2012-06-24T09:20:35Z</time>
      </trkpt>
      <trkpt lat="42.74619" lon="1.39176">
        <ele>2356.3286132812</ele>
        <time>2012-06-24T09:20:45Z</time>
      </trkpt>
      <trkpt lat="42.74621" lon="1.39178">
        <ele>2354.4060058594</ele>
        <time>2012-06-24T09:20:52Z</time>
      </trkpt>
      <trkpt lat="42.74621" lon="1.39182">
        <ele>2353.4448242188</ele>
        <time>2012-06-24T09:20:58Z</time>
      </trkpt>
      <trkpt lat="42.7462" lon="1.39186">
        <ele>2351.5222167969</ele>
        <time>2012-06-24T09:21:05Z</time>
      </trkpt>
      <trkpt lat="42.74623" lon="1.39186">
        <ele>2350.0803222656</ele>
        <time>2012-06-24T09:21:11Z</time>
      </trkpt>
      <trkpt lat="42.74625" lon="1.39186">
        <ele>2348.6381835938</ele>
        <time>2012-06-24T09:21:18Z</time>
      </trkpt>
      <trkpt lat="42.74627" lon="1.39187">
        <ele>2347.6767578125</ele>
        <time>2012-06-24T09:21:24Z</time>
      </trkpt>
      <trkpt lat="42.74629" lon="1.39186">
        <ele>2347.1960449219</ele>
        <time>2012-06-24T09:21:30Z</time>
      </trkpt>
      <trkpt lat="42.74632" lon="1.39187">
        <ele>2345.7541503906</ele>
        <time>2012-06-24T09:21:36Z</time>
      </trkpt>
      <trkpt lat="42.74633" lon="1.39187">
        <ele>2346.7153320312</ele>
        <time>2012-06-24T09:21:45Z</time>
      </trkpt>
      <trkpt lat="42.74635" lon="1.39187">
        <ele>2346.2348632812</ele>
        <time>2012-06-24T09:21:50Z</time>
      </trkpt>
      <trkpt lat="42.74636" lon="1.39187">
        <ele>2345.7541503906</ele>
        <time>2012-06-24T09:21:56Z</time>
      </trkpt>
      <trkpt lat="42.7464" lon="1.39187">
        <ele>2344.3120117188</ele>
        <time>2012-06-24T09:22:03Z</time>
      </trkpt>
      <trkpt lat="42.74643" lon="1.39186">
        <ele>2343.8315429688</ele>
        <time>2012-06-24T09:22:11Z</time>
      </trkpt>
      <trkpt lat="42.74644" lon="1.39187">
        <ele>2342.8701171875</ele>
        <time>2012-06-24T09:22:16Z</time>
      </trkpt>
      <trkpt lat="42.74646" lon="1.39189">
        <ele>2339.5056152344</ele>
        <time>2012-06-24T09:22:20Z</time>
      </trkpt>
      <trkpt lat="42.74647" lon="1.39191">
        <ele>2338.0637207031</ele>
        <time>2012-06-24T09:22:26Z</time>
      </trkpt>
      <trkpt lat="42.74648" lon="1.39193">
        <ele>2336.1411132812</ele>
        <time>2012-06-24T09:22:33Z</time>
      </trkpt>
      <trkpt lat="42.74648" lon="1.39195">
        <ele>2335.1796875</ele>
        <time>2012-06-24T09:22:38Z</time>
      </trkpt>
      <trkpt lat="42.7465" lon="1.39195">
        <ele>2333.7377929688</ele>
        <time>2012-06-24T09:22:44Z</time>
      </trkpt>
      <trkpt lat="42.74652" lon="1.39197">
        <ele>2331.3342285156</ele>
        <time>2012-06-24T09:22:50Z</time>
      </trkpt>
      <trkpt lat="42.74654" lon="1.39199">
        <ele>2329.4116210938</ele>
        <time>2012-06-24T09:22:55Z</time>
      </trkpt>
      <trkpt lat="42.74656" lon="1.39202">
        <ele>2326.5278320312</ele>
        <time>2012-06-24T09:23:01Z</time>
      </trkpt>
      <trkpt lat="42.74656" lon="1.39204">
        <ele>2325.56640625</ele>
        <time>2012-06-24T09:23:06Z</time>
      </trkpt>
      <trkpt lat="42.74657" lon="1.39207">
        <ele>2324.1245117188</ele>
        <time>2012-06-24T09:23:13Z</time>
      </trkpt>
      <trkpt lat="42.74659" lon="1.39208">
        <ele>2323.1633300781</ele>
        <time>2012-06-24T09:23:18Z</time>
      </trkpt>
      <trkpt lat="42.74664" lon="1.39207">
        <ele>2322.6826171875</ele>
        <time>2012-06-24T09:23:24Z</time>
      </trkpt>
      <trkpt lat="42.74667" lon="1.39206">
        <ele>2321.7211914062</ele>
        <time>2012-06-24T09:23:30Z</time>
      </trkpt>
      <trkpt lat="42.74669" lon="1.39206">
        <ele>2321.7211914062</ele>
        <time>2012-06-24T09:23:37Z</time>
      </trkpt>
      <trkpt lat="42.74672" lon="1.39206">
        <ele>2320.279296875</ele>
        <time>2012-06-24T09:23:44Z</time>
      </trkpt>
      <trkpt lat="42.74674" lon="1.39204">
        <ele>2320.279296875</ele>
        <time>2012-06-24T09:23:51Z</time>
      </trkpt>
      <trkpt lat="42.74676" lon="1.39202">
        <ele>2319.7985839844</ele>
        <time>2012-06-24T09:23:57Z</time>
      </trkpt>
      <trkpt lat="42.74678" lon="1.39202">
        <ele>2319.3181152344</ele>
        <time>2012-06-24T09:24:04Z</time>
      </trkpt>
      <trkpt lat="42.74681" lon="1.39203">
        <ele>2318.3566894531</ele>
        <time>2012-06-24T09:24:11Z</time>
      </trkpt>
      <trkpt lat="42.74685" lon="1.39202">
        <ele>2317.8759765625</ele>
        <time>2012-06-24T09:24:17Z</time>
      </trkpt>
      <trkpt lat="42.74689" lon="1.392">
        <ele>2317.8759765625</ele>
        <time>2012-06-24T09:24:23Z</time>
      </trkpt>
      <trkpt lat="42.74695" lon="1.39198">
        <ele>2317.8759765625</ele>
        <time>2012-06-24T09:24:30Z</time>
      </trkpt>
      <trkpt lat="42.747" lon="1.39196">
        <ele>2316.9147949219</ele>
        <time>2012-06-24T09:24:36Z</time>
      </trkpt>
      <trkpt lat="42.74707" lon="1.39196">
        <ele>2314.5112304688</ele>
        <time>2012-06-24T09:24:44Z</time>
      </trkpt>
      <trkpt lat="42.74708" lon="1.39197">
        <ele>2314.0305175781</ele>
        <time>2012-06-24T09:24:48Z</time>
      </trkpt>
      <trkpt lat="42.74712" lon="1.39196">
        <ele>2314.5112304688</ele>
        <time>2012-06-24T09:24:53Z</time>
      </trkpt>
      <trkpt lat="42.74716" lon="1.39194">
        <ele>2314.5112304688</ele>
        <time>2012-06-24T09:24:58Z</time>
      </trkpt>
      <trkpt lat="42.74719" lon="1.39195">
        <ele>2314.9919433594</ele>
        <time>2012-06-24T09:25:00Z</time>
      </trkpt>
      <trkpt lat="42.74726" lon="1.39197">
        <ele>2315.47265625</ele>
        <time>2012-06-24T09:25:07Z</time>
      </trkpt>
      <trkpt lat="42.74731" lon="1.392">
        <ele>2314.9919433594</ele>
        <time>2012-06-24T09:25:13Z</time>
      </trkpt>
      <trkpt lat="42.74734" lon="1.39198">
        <ele>2316.4340820312</ele>
        <time>2012-06-24T09:25:18Z</time>
      </trkpt>
      <trkpt lat="42.74739" lon="1.39201">
        <ele>2316.4340820312</ele>
        <time>2012-06-24T09:25:23Z</time>
      </trkpt>
      <trkpt lat="42.74744" lon="1.39202">
        <ele>2315.47265625</ele>
        <time>2012-06-24T09:25:31Z</time>
      </trkpt>
      <trkpt lat="42.74748" lon="1.39205">
        <ele>2314.0305175781</ele>
        <time>2012-06-24T09:25:37Z</time>
      </trkpt>
      <trkpt lat="42.7475" lon="1.39205">
        <ele>2313.5498046875</ele>
        <time>2012-06-24T09:25:42Z</time>
      </trkpt>
      <trkpt lat="42.74754" lon="1.39209">
        <ele>2311.6274414062</ele>
        <time>2012-06-24T09:25:48Z</time>
      </trkpt>
      <trkpt lat="42.74756" lon="1.3921">
        <ele>2311.1467285156</ele>
        <time>2012-06-24T09:25:54Z</time>
      </trkpt>
      <trkpt lat="42.74761" lon="1.39213">
        <ele>2309.2241210938</ele>
        <time>2012-06-24T09:26:02Z</time>
      </trkpt>
      <trkpt lat="42.74765" lon="1.39212">
        <ele>2308.2626953125</ele>
        <time>2012-06-24T09:26:09Z</time>
      </trkpt>
      <trkpt lat="42.74769" lon="1.39215">
        <ele>2306.8208007812</ele>
        <time>2012-06-24T09:26:15Z</time>
      </trkpt>
      <trkpt lat="42.74775" lon="1.39217">
        <ele>2306.8208007812</ele>
        <time>2012-06-24T09:26:22Z</time>
      </trkpt>
      <trkpt lat="42.74778" lon="1.39218">
        <ele>2306.3400878906</ele>
        <time>2012-06-24T09:26:28Z</time>
      </trkpt>
      <trkpt lat="42.74779" lon="1.39221">
        <ele>2304.8981933594</ele>
        <time>2012-06-24T09:26:33Z</time>
      </trkpt>
      <trkpt lat="42.74782" lon="1.39224">
        <ele>2304.4174804688</ele>
        <time>2012-06-24T09:26:38Z</time>
      </trkpt>
      <trkpt lat="42.74784" lon="1.39227">
        <ele>2303.9370117188</ele>
        <time>2012-06-24T09:26:43Z</time>
      </trkpt>
      <trkpt lat="42.74788" lon="1.39229">
        <ele>2303.4562988281</ele>
        <time>2012-06-24T09:26:48Z</time>
      </trkpt>
      <trkpt lat="42.74791" lon="1.39228">
        <ele>2302.9755859375</ele>
        <time>2012-06-24T09:26:54Z</time>
      </trkpt>
      <trkpt lat="42.74791" lon="1.39229">
        <ele>2302.0141601562</ele>
        <time>2012-06-24T09:27:00Z</time>
      </trkpt>
      <trkpt lat="42.74794" lon="1.3923">
        <ele>2300.572265625</ele>
        <time>2012-06-24T09:27:07Z</time>
      </trkpt>
      <trkpt lat="42.74796" lon="1.39231">
        <ele>2299.1301269531</ele>
        <time>2012-06-24T09:27:13Z</time>
      </trkpt>
      <trkpt lat="42.74799" lon="1.39233">
        <ele>2299.1301269531</ele>
        <time>2012-06-24T09:27:20Z</time>
      </trkpt>
      <trkpt lat="42.74801" lon="1.39236">
        <ele>2299.1301269531</ele>
        <time>2012-06-24T09:27:25Z</time>
      </trkpt>
      <trkpt lat="42.74804" lon="1.39237">
        <ele>2299.6108398438</ele>
        <time>2012-06-24T09:27:29Z</time>
      </trkpt>
      <trkpt lat="42.74808" lon="1.39237">
        <ele>2299.1301269531</ele>
        <time>2012-06-24T09:27:35Z</time>
      </trkpt>
      <trkpt lat="42.74809" lon="1.39237">
        <ele>2299.1301269531</ele>
        <time>2012-06-24T09:27:39Z</time>
      </trkpt>
      <trkpt lat="42.74815" lon="1.39235">
        <ele>2297.6882324219</ele>
        <time>2012-06-24T09:27:43Z</time>
      </trkpt>
      <trkpt lat="42.74817" lon="1.39236">
        <ele>2297.6882324219</ele>
        <time>2012-06-24T09:27:45Z</time>
      </trkpt>
      <trkpt lat="42.74825" lon="1.39239">
        <ele>2295.765625</ele>
        <time>2012-06-24T09:27:51Z</time>
      </trkpt>
      <trkpt lat="42.74831" lon="1.39239">
        <ele>2296.2463378906</ele>
        <time>2012-06-24T09:27:58Z</time>
      </trkpt>
      <trkpt lat="42.74836" lon="1.39242">
        <ele>2295.765625</ele>
        <time>2012-06-24T09:28:04Z</time>
      </trkpt>
      <trkpt lat="42.7484" lon="1.39243">
        <ele>2295.765625</ele>
        <time>2012-06-24T09:28:09Z</time>
      </trkpt>
      <trkpt lat="42.74844" lon="1.39246">
        <ele>2294.8041992188</ele>
        <time>2012-06-24T09:28:15Z</time>
      </trkpt>
      <trkpt lat="42.7485" lon="1.39251">
        <ele>2293.3623046875</ele>
        <time>2012-06-24T09:28:22Z</time>
      </trkpt>
      <trkpt lat="42.74859" lon="1.39255">
        <ele>2290.958984375</ele>
        <time>2012-06-24T09:28:29Z</time>
      </trkpt>
      <trkpt lat="42.74868" lon="1.3926">
        <ele>2288.5559082031</ele>
        <time>2012-06-24T09:28:36Z</time>
      </trkpt>
      <trkpt lat="42.74874" lon="1.39266">
        <ele>2285.671875</ele>
        <time>2012-06-24T09:28:42Z</time>
      </trkpt>
      <trkpt lat="42.7488" lon="1.3927">
        <ele>2284.2299804688</ele>
        <time>2012-06-24T09:28:48Z</time>
      </trkpt>
      <trkpt lat="42.74884" lon="1.39275">
        <ele>2282.7875976562</ele>
        <time>2012-06-24T09:28:55Z</time>
      </trkpt>
      <trkpt lat="42.74886" lon="1.39278">
        <ele>2282.7875976562</ele>
        <time>2012-06-24T09:28:59Z</time>
      </trkpt>
      <trkpt lat="42.74887" lon="1.39278">
        <ele>2283.7490234375</ele>
        <time>2012-06-24T09:29:04Z</time>
      </trkpt>
      <trkpt lat="42.74889" lon="1.3928">
        <ele>2284.2299804688</ele>
        <time>2012-06-24T09:29:08Z</time>
      </trkpt>
      <trkpt lat="42.74892" lon="1.39282">
        <ele>2283.7490234375</ele>
        <time>2012-06-24T09:29:10Z</time>
      </trkpt>
      <trkpt lat="42.74895" lon="1.39285">
        <ele>2284.2299804688</ele>
        <time>2012-06-24T09:29:13Z</time>
      </trkpt>
      <trkpt lat="42.74898" lon="1.39288">
        <ele>2285.1911621094</ele>
        <time>2012-06-24T09:29:19Z</time>
      </trkpt>
      <trkpt lat="42.74902" lon="1.3929">
        <ele>2284.2299804688</ele>
        <time>2012-06-24T09:29:24Z</time>
      </trkpt>
      <trkpt lat="42.74908" lon="1.39291">
        <ele>2284.2299804688</ele>
        <time>2012-06-24T09:29:29Z</time>
      </trkpt>
      <trkpt lat="42.74911" lon="1.39295">
        <ele>2283.2683105469</ele>
        <time>2012-06-24T09:29:35Z</time>
      </trkpt>
      <trkpt lat="42.74916" lon="1.393">
        <ele>2284.2299804688</ele>
        <time>2012-06-24T09:29:41Z</time>
      </trkpt>
      <trkpt lat="42.74921" lon="1.39302">
        <ele>2283.7490234375</ele>
        <time>2012-06-24T09:29:46Z</time>
      </trkpt>
      <trkpt lat="42.74926" lon="1.39306">
        <ele>2284.2299804688</ele>
        <time>2012-06-24T09:29:52Z</time>
      </trkpt>
      <trkpt lat="42.74928" lon="1.39308">
        <ele>2283.7490234375</ele>
        <time>2012-06-24T09:29:54Z</time>
      </trkpt>
      <trkpt lat="42.74931" lon="1.3931">
        <ele>2283.2683105469</ele>
        <time>2012-06-24T09:29:59Z</time>
      </trkpt>
      <trkpt lat="42.74933" lon="1.39313">
        <ele>2282.3071289062</ele>
        <time>2012-06-24T09:30:04Z</time>
      </trkpt>
      <trkpt lat="42.74936" lon="1.39317">
        <ele>2281.8264160156</ele>
        <time>2012-06-24T09:30:09Z</time>
      </trkpt>
      <trkpt lat="42.74944" lon="1.3932">
        <ele>2282.3071289062</ele>
        <time>2012-06-24T09:30:17Z</time>
      </trkpt>
      <trkpt lat="42.74947" lon="1.3932">
        <ele>2282.7875976562</ele>
        <time>2012-06-24T09:30:19Z</time>
      </trkpt>
      <trkpt lat="42.74952" lon="1.39325">
        <ele>2282.7875976562</ele>
        <time>2012-06-24T09:30:26Z</time>
      </trkpt>
      <trkpt lat="42.74957" lon="1.39327">
        <ele>2281.8264160156</ele>
        <time>2012-06-24T09:30:32Z</time>
      </trkpt>
      <trkpt lat="42.74961" lon="1.39331">
        <ele>2280.3845214844</ele>
        <time>2012-06-24T09:30:38Z</time>
      </trkpt>
      <trkpt lat="42.74964" lon="1.39334">
        <ele>2278.4619140625</ele>
        <time>2012-06-24T09:30:44Z</time>
      </trkpt>
      <trkpt lat="42.74968" lon="1.39339">
        <ele>2277.0200195312</ele>
        <time>2012-06-24T09:30:50Z</time>
      </trkpt>
      <trkpt lat="42.74971" lon="1.39341">
        <ele>2277.0200195312</ele>
        <time>2012-06-24T09:30:54Z</time>
      </trkpt>
      <trkpt lat="42.74976" lon="1.39344">
        <ele>2277.5004882812</ele>
        <time>2012-06-24T09:31:01Z</time>
      </trkpt>
      <trkpt lat="42.7498" lon="1.39348">
        <ele>2277.5004882812</ele>
        <time>2012-06-24T09:31:06Z</time>
      </trkpt>
      <trkpt lat="42.74983" lon="1.39353">
        <ele>2276.5393066406</ele>
        <time>2012-06-24T09:31:10Z</time>
      </trkpt>
      <trkpt lat="42.74989" lon="1.39359">
        <ele>2276.5393066406</ele>
        <time>2012-06-24T09:31:14Z</time>
      </trkpt>
      <trkpt lat="42.74992" lon="1.39363">
        <ele>2276.05859375</ele>
        <time>2012-06-24T09:31:16Z</time>
      </trkpt>
      <trkpt lat="42.74998" lon="1.39373">
        <ele>2272.6940917969</ele>
        <time>2012-06-24T09:31:22Z</time>
      </trkpt>
      <trkpt lat="42.75" lon="1.39378">
        <ele>2272.2133789062</ele>
        <time>2012-06-24T09:31:25Z</time>
      </trkpt>
      <trkpt lat="42.75" lon="1.3938">
        <ele>2271.7326660156</ele>
        <time>2012-06-24T09:31:27Z</time>
      </trkpt>
      <trkpt lat="42.75004" lon="1.39383">
        <ele>2271.251953125</ele>
        <time>2012-06-24T09:31:33Z</time>
      </trkpt>
      <trkpt lat="42.75006" lon="1.3939">
        <ele>2268.3681640625</ele>
        <time>2012-06-24T09:31:38Z</time>
      </trkpt>
      <trkpt lat="42.75014" lon="1.39397">
        <ele>2267.4064941406</ele>
        <time>2012-06-24T09:31:42Z</time>
      </trkpt>
      <trkpt lat="42.75017" lon="1.394">
        <ele>2267.4064941406</ele>
        <time>2012-06-24T09:31:44Z</time>
      </trkpt>
      <trkpt lat="42.75019" lon="1.394">
        <ele>2266.9260253906</ele>
        <time>2012-06-24T09:31:46Z</time>
      </trkpt>
      <trkpt lat="42.75023" lon="1.39403">
        <ele>2266.9260253906</ele>
        <time>2012-06-24T09:31:51Z</time>
      </trkpt>
      <trkpt lat="42.75026" lon="1.39408">
        <ele>2267.4064941406</ele>
        <time>2012-06-24T09:31:57Z</time>
      </trkpt>
      <trkpt lat="42.75028" lon="1.39412">
        <ele>2267.8872070312</ele>
        <time>2012-06-24T09:32:03Z</time>
      </trkpt>
      <trkpt lat="42.75029" lon="1.39416">
        <ele>2267.4064941406</ele>
        <time>2012-06-24T09:32:08Z</time>
      </trkpt>
      <trkpt lat="42.75027" lon="1.39417">
        <ele>2266.4453125</ele>
        <time>2012-06-24T09:32:14Z</time>
      </trkpt>
      <trkpt lat="42.75029" lon="1.39422">
        <ele>2265.0034179688</ele>
        <time>2012-06-24T09:32:18Z</time>
      </trkpt>
      <trkpt lat="42.75035" lon="1.39429">
        <ele>2264.0419921875</ele>
        <time>2012-06-24T09:32:25Z</time>
      </trkpt>
      <trkpt lat="42.75036" lon="1.3943">
        <ele>2263.5612792969</ele>
        <time>2012-06-24T09:32:26Z</time>
      </trkpt>
      <trkpt lat="42.7504" lon="1.39433">
        <ele>2263.0808105469</ele>
        <time>2012-06-24T09:32:30Z</time>
      </trkpt>
      <trkpt lat="42.75042" lon="1.39437">
        <ele>2261.6389160156</ele>
        <time>2012-06-24T09:32:34Z</time>
      </trkpt>
      <trkpt lat="42.75048" lon="1.39441">
        <ele>2260.6774902344</ele>
        <time>2012-06-24T09:32:41Z</time>
      </trkpt>
      <trkpt lat="42.75053" lon="1.39445">
        <ele>2259.2355957031</ele>
        <time>2012-06-24T09:32:46Z</time>
      </trkpt>
      <trkpt lat="42.75055" lon="1.39446">
        <ele>2258.7548828125</ele>
        <time>2012-06-24T09:32:48Z</time>
      </trkpt>
      <trkpt lat="42.75058" lon="1.39449">
        <ele>2258.2741699219</ele>
        <time>2012-06-24T09:32:55Z</time>
      </trkpt>
      <trkpt lat="42.7506" lon="1.3945">
        <ele>2257.7937011719</ele>
        <time>2012-06-24T09:33:01Z</time>
      </trkpt>
      <trkpt lat="42.75061" lon="1.39453">
        <ele>2256.8322753906</ele>
        <time>2012-06-24T09:33:08Z</time>
      </trkpt>
      <trkpt lat="42.75065" lon="1.39457">
        <ele>2255.8708496094</ele>
        <time>2012-06-24T09:33:14Z</time>
      </trkpt>
      <trkpt lat="42.75068" lon="1.39457">
        <ele>2255.8708496094</ele>
        <time>2012-06-24T09:33:18Z</time>
      </trkpt>
      <trkpt lat="42.75072" lon="1.39458">
        <ele>2255.3903808594</ele>
        <time>2012-06-24T09:33:23Z</time>
      </trkpt>
      <trkpt lat="42.75074" lon="1.39459">
        <ele>2254.9096679688</ele>
        <time>2012-06-24T09:33:30Z</time>
      </trkpt>
      <trkpt lat="42.75077" lon="1.39462">
        <ele>2253.9484863281</ele>
        <time>2012-06-24T09:33:37Z</time>
      </trkpt>
      <trkpt lat="42.75084" lon="1.39464">
        <ele>2253.4677734375</ele>
        <time>2012-06-24T09:33:41Z</time>
      </trkpt>
      <trkpt lat="42.75087" lon="1.39464">
        <ele>2253.4677734375</ele>
        <time>2012-06-24T09:33:44Z</time>
      </trkpt>
      <trkpt lat="42.75089" lon="1.39465">
        <ele>2253.4677734375</ele>
        <time>2012-06-24T09:33:50Z</time>
      </trkpt>
      <trkpt lat="42.75092" lon="1.39466">
        <ele>2252.5063476562</ele>
        <time>2012-06-24T09:33:55Z</time>
      </trkpt>
      <trkpt lat="42.75093" lon="1.39467">
        <ele>2251.544921875</ele>
        <time>2012-06-24T09:34:00Z</time>
      </trkpt>
      <trkpt lat="42.75097" lon="1.39466">
        <ele>2249.6223144531</ele>
        <time>2012-06-24T09:34:06Z</time>
      </trkpt>
      <trkpt lat="42.751" lon="1.39465">
        <ele>2249.1416015625</ele>
        <time>2012-06-24T09:34:12Z</time>
      </trkpt>
      <trkpt lat="42.75103" lon="1.39463">
        <ele>2249.6223144531</ele>
        <time>2012-06-24T09:34:18Z</time>
      </trkpt>
      <trkpt lat="42.75106" lon="1.39463">
        <ele>2250.5834960938</ele>
        <time>2012-06-24T09:34:24Z</time>
      </trkpt>
      <trkpt lat="42.75108" lon="1.39464">
        <ele>2250.5834960938</ele>
        <time>2012-06-24T09:34:29Z</time>
      </trkpt>
      <trkpt lat="42.75111" lon="1.39468">
        <ele>2249.6223144531</ele>
        <time>2012-06-24T09:34:35Z</time>
      </trkpt>
      <trkpt lat="42.75117" lon="1.39471">
        <ele>2249.6223144531</ele>
        <time>2012-06-24T09:34:42Z</time>
      </trkpt>
      <trkpt lat="42.75118" lon="1.39472">
        <ele>2249.6223144531</ele>
        <time>2012-06-24T09:34:48Z</time>
      </trkpt>
      <trkpt lat="42.75121" lon="1.39473">
        <ele>2249.6223144531</ele>
        <time>2012-06-24T09:34:57Z</time>
      </trkpt>
      <trkpt lat="42.75126" lon="1.39477">
        <ele>2250.1030273438</ele>
        <time>2012-06-24T09:35:02Z</time>
      </trkpt>
      <trkpt lat="42.75133" lon="1.39484">
        <ele>2251.0642089844</ele>
        <time>2012-06-24T09:35:09Z</time>
      </trkpt>
      <trkpt lat="42.75137" lon="1.3949">
        <ele>2250.1030273438</ele>
        <time>2012-06-24T09:35:16Z</time>
      </trkpt>
      <trkpt lat="42.75142" lon="1.39496">
        <ele>2248.1801757812</ele>
        <time>2012-06-24T09:35:22Z</time>
      </trkpt>
      <trkpt lat="42.75145" lon="1.39499">
        <ele>2247.2189941406</ele>
        <time>2012-06-24T09:35:28Z</time>
      </trkpt>
      <trkpt lat="42.75146" lon="1.39502">
        <ele>2245.2963867188</ele>
        <time>2012-06-24T09:35:33Z</time>
      </trkpt>
      <trkpt lat="42.7515" lon="1.39502">
        <ele>2243.8544921875</ele>
        <time>2012-06-24T09:35:38Z</time>
      </trkpt>
      <trkpt lat="42.75153" lon="1.39507">
        <ele>2241.9318847656</ele>
        <time>2012-06-24T09:35:44Z</time>
      </trkpt>
      <trkpt lat="42.75159" lon="1.39508">
        <ele>2239.5285644531</ele>
        <time>2012-06-24T09:35:49Z</time>
      </trkpt>
      <trkpt lat="42.75165" lon="1.3951">
        <ele>2239.5285644531</ele>
        <time>2012-06-24T09:35:53Z</time>
      </trkpt>
      <trkpt lat="42.75167" lon="1.39511">
        <ele>2238.5673828125</ele>
        <time>2012-06-24T09:35:59Z</time>
      </trkpt>
      <trkpt lat="42.75167" lon="1.39513">
        <ele>2237.1252441406</ele>
        <time>2012-06-24T09:36:03Z</time>
      </trkpt>
      <trkpt lat="42.75169" lon="1.39517">
        <ele>2235.2023925781</ele>
        <time>2012-06-24T09:36:09Z</time>
      </trkpt>
      <trkpt lat="42.75172" lon="1.39523">
        <ele>2233.2797851562</ele>
        <time>2012-06-24T09:36:15Z</time>
      </trkpt>
      <trkpt lat="42.75176" lon="1.39528">
        <ele>2231.837890625</ele>
        <time>2012-06-24T09:36:20Z</time>
      </trkpt>
      <trkpt lat="42.75178" lon="1.3953">
        <ele>2229.4345703125</ele>
        <time>2012-06-24T09:36:24Z</time>
      </trkpt>
      <trkpt lat="42.75186" lon="1.39537">
        <ele>2227.5119628906</ele>
        <time>2012-06-24T09:36:29Z</time>
      </trkpt>
      <trkpt lat="42.7519" lon="1.39541">
        <ele>2227.0314941406</ele>
        <time>2012-06-24T09:36:31Z</time>
      </trkpt>
      <trkpt lat="42.75194" lon="1.3955">
        <ele>2225.1086425781</ele>
        <time>2012-06-24T09:36:37Z</time>
      </trkpt>
      <trkpt lat="42.752" lon="1.39556">
        <ele>2223.1862792969</ele>
        <time>2012-06-24T09:36:42Z</time>
      </trkpt>
      <trkpt lat="42.75201" lon="1.39557">
        <ele>2223.1862792969</ele>
        <time>2012-06-24T09:36:43Z</time>
      </trkpt>
      <trkpt lat="42.75209" lon="1.39564">
        <ele>2220.7829589844</ele>
        <time>2012-06-24T09:36:50Z</time>
      </trkpt>
      <trkpt lat="42.75214" lon="1.39564">
        <ele>2220.3022460938</ele>
        <time>2012-06-24T09:36:55Z</time>
      </trkpt>
      <trkpt lat="42.7522" lon="1.39566">
        <ele>2220.3022460938</ele>
        <time>2012-06-24T09:37:01Z</time>
      </trkpt>
      <trkpt lat="42.75226" lon="1.39572">
        <ele>2218.8601074219</ele>
        <time>2012-06-24T09:37:06Z</time>
      </trkpt>
      <trkpt lat="42.75236" lon="1.39575">
        <ele>2218.8601074219</ele>
        <time>2012-06-24T09:37:15Z</time>
      </trkpt>
      <trkpt lat="42.7524" lon="1.39577">
        <ele>2219.3408203125</ele>
        <time>2012-06-24T09:37:20Z</time>
      </trkpt>
      <trkpt lat="42.75246" lon="1.39577">
        <ele>2219.8212890625</ele>
        <time>2012-06-24T09:37:27Z</time>
      </trkpt>
      <trkpt lat="42.75251" lon="1.39581">
        <ele>2217.8986816406</ele>
        <time>2012-06-24T09:37:33Z</time>
      </trkpt>
      <trkpt lat="42.75257" lon="1.39585">
        <ele>2216.4567871094</ele>
        <time>2012-06-24T09:37:39Z</time>
      </trkpt>
      <trkpt lat="42.75264" lon="1.39587">
        <ele>2214.5341796875</ele>
        <time>2012-06-24T09:37:44Z</time>
      </trkpt>
      <trkpt lat="42.75269" lon="1.39586">
        <ele>2214.0534667969</ele>
        <time>2012-06-24T09:37:49Z</time>
      </trkpt>
      <trkpt lat="42.75275" lon="1.39588">
        <ele>2212.130859375</ele>
        <time>2012-06-24T09:37:53Z</time>
      </trkpt>
      <trkpt lat="42.75282" lon="1.39592">
        <ele>2210.6889648438</ele>
        <time>2012-06-24T09:37:56Z</time>
      </trkpt>
      <trkpt lat="42.75291" lon="1.39596">
        <ele>2208.7663574219</ele>
        <time>2012-06-24T09:38:02Z</time>
      </trkpt>
      <trkpt lat="42.75294" lon="1.39597">
        <ele>2208.7663574219</ele>
        <time>2012-06-24T09:38:06Z</time>
      </trkpt>
      <trkpt lat="42.75302" lon="1.39602">
        <ele>2208.7663574219</ele>
        <time>2012-06-24T09:38:13Z</time>
      </trkpt>
      <trkpt lat="42.75306" lon="1.39604">
        <ele>2208.2856445312</ele>
        <time>2012-06-24T09:38:18Z</time>
      </trkpt>
      <trkpt lat="42.75309" lon="1.39607">
        <ele>2206.3630371094</ele>
        <time>2012-06-24T09:38:23Z</time>
      </trkpt>
      <trkpt lat="42.75313" lon="1.39612">
        <ele>2203.4790039062</ele>
        <time>2012-06-24T09:38:29Z</time>
      </trkpt>
      <trkpt lat="42.75318" lon="1.39614">
        <ele>2203.4790039062</ele>
        <time>2012-06-24T09:38:36Z</time>
      </trkpt>
      <trkpt lat="42.7532" lon="1.39616">
        <ele>2203.4790039062</ele>
        <time>2012-06-24T09:38:39Z</time>
      </trkpt>
      <trkpt lat="42.75323" lon="1.39619">
        <ele>2203.4790039062</ele>
        <time>2012-06-24T09:38:42Z</time>
      </trkpt>
      <trkpt lat="42.75331" lon="1.39624">
        <ele>2202.9982910156</ele>
        <time>2012-06-24T09:38:49Z</time>
      </trkpt>
      <trkpt lat="42.75335" lon="1.39624">
        <ele>2202.9982910156</ele>
        <time>2012-06-24T09:38:53Z</time>
      </trkpt>
      <trkpt lat="42.75339" lon="1.39627">
        <ele>2202.9982910156</ele>
        <time>2012-06-24T09:38:57Z</time>
      </trkpt>
      <trkpt lat="42.75346" lon="1.3963">
        <ele>2202.0368652344</ele>
        <time>2012-06-24T09:39:02Z</time>
      </trkpt>
      <trkpt lat="42.75351" lon="1.39637">
        <ele>2199.1530761719</ele>
        <time>2012-06-24T09:39:07Z</time>
      </trkpt>
      <trkpt lat="42.75353" lon="1.39637">
        <ele>2198.6723632812</ele>
        <time>2012-06-24T09:39:09Z</time>
      </trkpt>
      <trkpt lat="42.75355" lon="1.39639">
        <ele>2197.23046875</ele>
        <time>2012-06-24T09:39:13Z</time>
      </trkpt>
      <trkpt lat="42.75359" lon="1.39642">
        <ele>2196.2692871094</ele>
        <time>2012-06-24T09:39:17Z</time>
      </trkpt>
      <trkpt lat="42.75365" lon="1.39644">
        <ele>2194.8271484375</ele>
        <time>2012-06-24T09:39:23Z</time>
      </trkpt>
      <trkpt lat="42.75368" lon="1.39643">
        <ele>2194.3464355469</ele>
        <time>2012-06-24T09:39:29Z</time>
      </trkpt>
      <trkpt lat="42.7537" lon="1.39644">
        <ele>2193.3852539062</ele>
        <time>2012-06-24T09:39:35Z</time>
      </trkpt>
      <trkpt lat="42.75372" lon="1.39648">
        <ele>2192.4240722656</ele>
        <time>2012-06-24T09:39:40Z</time>
      </trkpt>
      <trkpt lat="42.75376" lon="1.39653">
        <ele>2190.5012207031</ele>
        <time>2012-06-24T09:39:44Z</time>
      </trkpt>
      <trkpt lat="42.75381" lon="1.39659">
        <ele>2188.5788574219</ele>
        <time>2012-06-24T09:39:49Z</time>
      </trkpt>
      <trkpt lat="42.75382" lon="1.39659">
        <ele>2188.5788574219</ele>
        <time>2012-06-24T09:39:50Z</time>
      </trkpt>
      <trkpt lat="42.75384" lon="1.3966">
        <ele>2187.6171875</ele>
        <time>2012-06-24T09:39:53Z</time>
      </trkpt>
      <trkpt lat="42.75389" lon="1.39664">
        <ele>2185.2138671875</ele>
        <time>2012-06-24T09:39:58Z</time>
      </trkpt>
      <trkpt lat="42.75395" lon="1.39667">
        <ele>2183.7719726562</ele>
        <time>2012-06-24T09:40:03Z</time>
      </trkpt>
      <trkpt lat="42.75398" lon="1.39669">
        <ele>2182.810546875</ele>
        <time>2012-06-24T09:40:06Z</time>
      </trkpt>
      <trkpt lat="42.75404" lon="1.3967">
        <ele>2180.8881835938</ele>
        <time>2012-06-24T09:40:13Z</time>
      </trkpt>
      <trkpt lat="42.75407" lon="1.39673">
        <ele>2178.9653320312</ele>
        <time>2012-06-24T09:40:18Z</time>
      </trkpt>
      <trkpt lat="42.75413" lon="1.39677">
        <ele>2177.04296875</ele>
        <time>2012-06-24T09:40:23Z</time>
      </trkpt>
      <trkpt lat="42.75421" lon="1.39681">
        <ele>2175.1201171875</ele>
        <time>2012-06-24T09:40:29Z</time>
      </trkpt>
      <trkpt lat="42.75427" lon="1.39683">
        <ele>2174.6396484375</ele>
        <time>2012-06-24T09:40:35Z</time>
      </trkpt>
      <trkpt lat="42.75428" lon="1.39683">
        <ele>2174.1589355469</ele>
        <time>2012-06-24T09:40:36Z</time>
      </trkpt>
      <trkpt lat="42.75434" lon="1.39679">
        <ele>2173.1977539062</ele>
        <time>2012-06-24T09:40:43Z</time>
      </trkpt>
      <trkpt lat="42.75439" lon="1.39677">
        <ele>2171.7553710938</ele>
        <time>2012-06-24T09:40:48Z</time>
      </trkpt>
      <trkpt lat="42.75448" lon="1.39674">
        <ele>2170.3134765625</ele>
        <time>2012-06-24T09:40:55Z</time>
      </trkpt>
      <trkpt lat="42.75449" lon="1.39674">
        <ele>2170.3134765625</ele>
        <time>2012-06-24T09:40:56Z</time>
      </trkpt>
      <trkpt lat="42.75452" lon="1.39675">
        <ele>2168.8715820312</ele>
        <time>2012-06-24T09:41:02Z</time>
      </trkpt>
      <trkpt lat="42.75455" lon="1.39675">
        <ele>2167.91015625</ele>
        <time>2012-06-24T09:41:08Z</time>
      </trkpt>
      <trkpt lat="42.7546" lon="1.39673">
        <ele>2166.9489746094</ele>
        <time>2012-06-24T09:41:13Z</time>
      </trkpt>
      <trkpt lat="42.75465" lon="1.39671">
        <ele>2167.4294433594</ele>
        <time>2012-06-24T09:41:19Z</time>
      </trkpt>
      <trkpt lat="42.7547" lon="1.3967">
        <ele>2166.9489746094</ele>
        <time>2012-06-24T09:41:25Z</time>
      </trkpt>
      <trkpt lat="42.75474" lon="1.39669">
        <ele>2165.9875488281</ele>
        <time>2012-06-24T09:41:31Z</time>
      </trkpt>
      <trkpt lat="42.75479" lon="1.39669">
        <ele>2165.0263671875</ele>
        <time>2012-06-24T09:41:36Z</time>
      </trkpt>
      <trkpt lat="42.75484" lon="1.39665">
        <ele>2165.0263671875</ele>
        <time>2012-06-24T09:41:42Z</time>
      </trkpt>
      <trkpt lat="42.75485" lon="1.39664">
        <ele>2165.5070800781</ele>
        <time>2012-06-24T09:41:48Z</time>
      </trkpt>
      <trkpt lat="42.75489" lon="1.39665">
        <ele>2165.0263671875</ele>
        <time>2012-06-24T09:41:54Z</time>
      </trkpt>
      <trkpt lat="42.75494" lon="1.39664">
        <ele>2165.0263671875</ele>
        <time>2012-06-24T09:42:01Z</time>
      </trkpt>
      <trkpt lat="42.75499" lon="1.39665">
        <ele>2164.5456542969</ele>
        <time>2012-06-24T09:42:08Z</time>
      </trkpt>
      <trkpt lat="42.75502" lon="1.39664">
        <ele>2164.0649414062</ele>
        <time>2012-06-24T09:42:13Z</time>
      </trkpt>
      <trkpt lat="42.75504" lon="1.39665">
        <ele>2163.1037597656</ele>
        <time>2012-06-24T09:42:19Z</time>
      </trkpt>
      <trkpt lat="42.75506" lon="1.39667">
        <ele>2161.6618652344</ele>
        <time>2012-06-24T09:42:26Z</time>
      </trkpt>
      <trkpt lat="42.75511" lon="1.39668">
        <ele>2160.7004394531</ele>
        <time>2012-06-24T09:42:32Z</time>
      </trkpt>
      <trkpt lat="42.75516" lon="1.39668">
        <ele>2159.2585449219</ele>
        <time>2012-06-24T09:42:39Z</time>
      </trkpt>
      <trkpt lat="42.75521" lon="1.39672">
        <ele>2158.7778320312</ele>
        <time>2012-06-24T09:42:44Z</time>
      </trkpt>
      <trkpt lat="42.75523" lon="1.39673">
        <ele>2158.2971191406</ele>
        <time>2012-06-24T09:42:45Z</time>
      </trkpt>
      <trkpt lat="42.7553" lon="1.39677">
        <ele>2157.8166503906</ele>
        <time>2012-06-24T09:42:52Z</time>
      </trkpt>
      <trkpt lat="42.75534" lon="1.39679">
        <ele>2157.3359375</ele>
        <time>2012-06-24T09:42:57Z</time>
      </trkpt>
      <trkpt lat="42.75539" lon="1.39677">
        <ele>2156.8552246094</ele>
        <time>2012-06-24T09:43:04Z</time>
      </trkpt>
      <trkpt lat="42.75544" lon="1.39675">
        <ele>2156.3745117188</ele>
        <time>2012-06-24T09:43:09Z</time>
      </trkpt>
      <trkpt lat="42.75548" lon="1.39673">
        <ele>2155.4130859375</ele>
        <time>2012-06-24T09:43:13Z</time>
      </trkpt>
      <trkpt lat="42.75552" lon="1.39675">
        <ele>2152.5290527344</ele>
        <time>2012-06-24T09:43:19Z</time>
      </trkpt>
      <trkpt lat="42.75555" lon="1.39675">
        <ele>2151.0871582031</ele>
        <time>2012-06-24T09:43:23Z</time>
      </trkpt>
      <trkpt lat="42.75561" lon="1.39675">
        <ele>2149.1645507812</ele>
        <time>2012-06-24T09:43:28Z</time>
      </trkpt>
      <trkpt lat="42.75562" lon="1.39675">
        <ele>2148.6838378906</ele>
        <time>2012-06-24T09:43:29Z</time>
      </trkpt>
      <trkpt lat="42.7557" lon="1.39674">
        <ele>2146.2807617188</ele>
        <time>2012-06-24T09:43:35Z</time>
      </trkpt>
      <trkpt lat="42.75576" lon="1.39676">
        <ele>2144.8386230469</ele>
        <time>2012-06-24T09:43:39Z</time>
      </trkpt>
      <trkpt lat="42.75589" lon="1.3967">
        <ele>2145.3193359375</ele>
        <time>2012-06-24T09:43:44Z</time>
      </trkpt>
      <trkpt lat="42.75596" lon="1.39669">
        <ele>2145.3193359375</ele>
        <time>2012-06-24T09:43:49Z</time>
      </trkpt>
      <trkpt lat="42.75599" lon="1.39666">
        <ele>2146.7612304688</ele>
        <time>2012-06-24T09:43:53Z</time>
      </trkpt>
      <trkpt lat="42.75604" lon="1.39665">
        <ele>2146.7612304688</ele>
        <time>2012-06-24T09:44:00Z</time>
      </trkpt>
      <trkpt lat="42.75611" lon="1.39666">
        <ele>2145.8000488281</ele>
        <time>2012-06-24T09:44:06Z</time>
      </trkpt>
      <trkpt lat="42.75618" lon="1.39664">
        <ele>2145.8000488281</ele>
        <time>2012-06-24T09:44:12Z</time>
      </trkpt>
      <trkpt lat="42.7562" lon="1.39659">
        <ele>2147.2419433594</ele>
        <time>2012-06-24T09:44:19Z</time>
      </trkpt>
      <trkpt lat="42.75624" lon="1.3966">
        <ele>2147.72265625</ele>
        <time>2012-06-24T09:44:25Z</time>
      </trkpt>
      <trkpt lat="42.75625" lon="1.39659">
        <ele>2147.72265625</ele>
        <time>2012-06-24T09:44:32Z</time>
      </trkpt>
      <trkpt lat="42.75628" lon="1.39658">
        <ele>2149.1645507812</ele>
        <time>2012-06-24T09:44:37Z</time>
      </trkpt>
      <trkpt lat="42.75632" lon="1.39657">
        <ele>2150.1259765625</ele>
        <time>2012-06-24T09:44:43Z</time>
      </trkpt>
      <trkpt lat="42.75637" lon="1.39654">
        <ele>2150.6064453125</ele>
        <time>2012-06-24T09:44:49Z</time>
      </trkpt>
      <trkpt lat="42.75643" lon="1.39654">
        <ele>2150.6064453125</ele>
        <time>2012-06-24T09:44:55Z</time>
      </trkpt>
      <trkpt lat="42.7565" lon="1.39657">
        <ele>2150.1259765625</ele>
        <time>2012-06-24T09:45:02Z</time>
      </trkpt>
      <trkpt lat="42.75652" lon="1.39659">
        <ele>2150.1259765625</ele>
        <time>2012-06-24T09:45:05Z</time>
      </trkpt>
      <trkpt lat="42.75659" lon="1.39659">
        <ele>2149.6452636719</ele>
        <time>2012-06-24T09:45:12Z</time>
      </trkpt>
      <trkpt lat="42.75666" lon="1.39658">
        <ele>2149.1645507812</ele>
        <time>2012-06-24T09:45:19Z</time>
      </trkpt>
      <trkpt lat="42.75668" lon="1.39658">
        <ele>2148.203125</ele>
        <time>2012-06-24T09:45:21Z</time>
      </trkpt>
      <trkpt lat="42.75673" lon="1.3966">
        <ele>2146.7612304688</ele>
        <time>2012-06-24T09:45:27Z</time>
      </trkpt>
      <trkpt lat="42.75677" lon="1.39658">
        <ele>2145.8000488281</ele>
        <time>2012-06-24T09:45:31Z</time>
      </trkpt>
      <trkpt lat="42.75682" lon="1.39659">
        <ele>2143.3967285156</ele>
        <time>2012-06-24T09:45:38Z</time>
      </trkpt>
      <trkpt lat="42.75685" lon="1.39663">
        <ele>2141.9548339844</ele>
        <time>2012-06-24T09:45:42Z</time>
      </trkpt>
      <trkpt lat="42.75689" lon="1.39665">
        <ele>2140.9934082031</ele>
        <time>2012-06-24T09:45:45Z</time>
      </trkpt>
      <trkpt lat="42.75692" lon="1.39672">
        <ele>2139.0705566406</ele>
        <time>2012-06-24T09:45:50Z</time>
      </trkpt>
      <trkpt lat="42.75691" lon="1.39679">
        <ele>2137.6286621094</ele>
        <time>2012-06-24T09:45:56Z</time>
      </trkpt>
      <trkpt lat="42.75692" lon="1.39683">
        <ele>2135.7060546875</ele>
        <time>2012-06-24T09:45:59Z</time>
      </trkpt>
      <trkpt lat="42.75692" lon="1.39685">
        <ele>2134.7448730469</ele>
        <time>2012-06-24T09:46:01Z</time>
      </trkpt>
      <trkpt lat="42.75696" lon="1.3969">
        <ele>2132.3415527344</ele>
        <time>2012-06-24T09:46:06Z</time>
      </trkpt>
      <trkpt lat="42.75699" lon="1.39695">
        <ele>2128.9768066406</ele>
        <time>2012-06-24T09:46:11Z</time>
      </trkpt>
      <trkpt lat="42.75704" lon="1.39702">
        <ele>2126.0930175781</ele>
        <time>2012-06-24T09:46:18Z</time>
      </trkpt>
      <trkpt lat="42.75708" lon="1.39706">
        <ele>2123.689453125</ele>
        <time>2012-06-24T09:46:24Z</time>
      </trkpt>
      <trkpt lat="42.7571" lon="1.39711">
        <ele>2121.7668457031</ele>
        <time>2012-06-24T09:46:28Z</time>
      </trkpt>
      <trkpt lat="42.75713" lon="1.39716">
        <ele>2119.3637695312</ele>
        <time>2012-06-24T09:46:34Z</time>
      </trkpt>
      <trkpt lat="42.75717" lon="1.39723">
        <ele>2118.40234375</ele>
        <time>2012-06-24T09:46:39Z</time>
      </trkpt>
      <trkpt lat="42.75717" lon="1.39724">
        <ele>2117.9216308594</ele>
        <time>2012-06-24T09:46:40Z</time>
      </trkpt>
      <trkpt lat="42.7572" lon="1.3973">
        <ele>2115.5185546875</ele>
        <time>2012-06-24T09:46:45Z</time>
      </trkpt>
      <trkpt lat="42.75726" lon="1.3974">
        <ele>2112.6345214844</ele>
        <time>2012-06-24T09:46:51Z</time>
      </trkpt>
      <trkpt lat="42.75735" lon="1.39751">
        <ele>2109.7504882812</ele>
        <time>2012-06-24T09:46:57Z</time>
      </trkpt>
      <trkpt lat="42.75744" lon="1.39761">
        <ele>2106.3857421875</ele>
        <time>2012-06-24T09:47:02Z</time>
      </trkpt>
      <trkpt lat="42.75751" lon="1.39766">
        <ele>2103.9826660156</ele>
        <time>2012-06-24T09:47:08Z</time>
      </trkpt>
      <trkpt lat="42.75757" lon="1.3977">
        <ele>2101.5793457031</ele>
        <time>2012-06-24T09:47:14Z</time>
      </trkpt>
      <trkpt lat="42.75758" lon="1.39771">
        <ele>2101.0986328125</ele>
        <time>2012-06-24T09:47:15Z</time>
      </trkpt>
      <trkpt lat="42.7576" lon="1.39774">
        <ele>2100.1374511719</ele>
        <time>2012-06-24T09:47:18Z</time>
      </trkpt>
      <trkpt lat="42.75764" lon="1.39783">
        <ele>2097.7341308594</ele>
        <time>2012-06-24T09:47:24Z</time>
      </trkpt>
      <trkpt lat="42.7577" lon="1.3979">
        <ele>2096.2922363281</ele>
        <time>2012-06-24T09:47:28Z</time>
      </trkpt>
      <trkpt lat="42.75772" lon="1.39791">
        <ele>2096.2922363281</ele>
        <time>2012-06-24T09:47:29Z</time>
      </trkpt>
      <trkpt lat="42.7578" lon="1.39801">
        <ele>2093.8889160156</ele>
        <time>2012-06-24T09:47:35Z</time>
      </trkpt>
      <trkpt lat="42.7579" lon="1.39799">
        <ele>2091.4853515625</ele>
        <time>2012-06-24T09:47:40Z</time>
      </trkpt>
      <trkpt lat="42.75794" lon="1.39797">
        <ele>2090.5239257812</ele>
        <time>2012-06-24T09:47:43Z</time>
      </trkpt>
      <trkpt lat="42.75797" lon="1.398">
        <ele>2089.08203125</ele>
        <time>2012-06-24T09:47:47Z</time>
      </trkpt>
      <trkpt lat="42.75797" lon="1.39806">
        <ele>2088.1208496094</ele>
        <time>2012-06-24T09:47:51Z</time>
      </trkpt>
      <trkpt lat="42.75797" lon="1.39815">
        <ele>2086.1982421875</ele>
        <time>2012-06-24T09:47:57Z</time>
      </trkpt>
      <trkpt lat="42.75801" lon="1.39824">
        <ele>2084.7563476562</ele>
        <time>2012-06-24T09:48:02Z</time>
      </trkpt>
      <trkpt lat="42.75804" lon="1.39831">
        <ele>2083.794921875</ele>
        <time>2012-06-24T09:48:06Z</time>
      </trkpt>
      <trkpt lat="42.7581" lon="1.39843">
        <ele>2082.3530273438</ele>
        <time>2012-06-24T09:48:11Z</time>
      </trkpt>
      <trkpt lat="42.75821" lon="1.39855">
        <ele>2079.9497070312</ele>
        <time>2012-06-24T09:48:17Z</time>
      </trkpt>
      <trkpt lat="42.7583" lon="1.39865">
        <ele>2078.5078125</ele>
        <time>2012-06-24T09:48:22Z</time>
      </trkpt>
      <trkpt lat="42.75839" lon="1.39874">
        <ele>2076.1044921875</ele>
        <time>2012-06-24T09:48:27Z</time>
      </trkpt>
      <trkpt lat="42.75851" lon="1.39882">
        <ele>2074.181640625</ele>
        <time>2012-06-24T09:48:33Z</time>
      </trkpt>
      <trkpt lat="42.75864" lon="1.39893">
        <ele>2072.2590332031</ele>
        <time>2012-06-24T09:48:40Z</time>
      </trkpt>
      <trkpt lat="42.75874" lon="1.39898">
        <ele>2070.8171386719</ele>
        <time>2012-06-24T09:48:45Z</time>
      </trkpt>
      <trkpt lat="42.75884" lon="1.39904">
        <ele>2068.4138183594</ele>
        <time>2012-06-24T09:48:50Z</time>
      </trkpt>
      <trkpt lat="42.75894" lon="1.39913">
        <ele>2066.4912109375</ele>
        <time>2012-06-24T09:48:56Z</time>
      </trkpt>
      <trkpt lat="42.75906" lon="1.3992">
        <ele>2064.5686035156</ele>
        <time>2012-06-24T09:49:02Z</time>
      </trkpt>
      <trkpt lat="42.75917" lon="1.39925">
        <ele>2064.087890625</ele>
        <time>2012-06-24T09:49:07Z</time>
      </trkpt>
      <trkpt lat="42.75933" lon="1.39929">
        <ele>2062.1652832031</ele>
        <time>2012-06-24T09:49:14Z</time>
      </trkpt>
      <trkpt lat="42.75937" lon="1.39932">
        <ele>2061.2041015625</ele>
        <time>2012-06-24T09:49:17Z</time>
      </trkpt>
      <trkpt lat="42.75948" lon="1.39933">
        <ele>2060.7233886719</ele>
        <time>2012-06-24T09:49:22Z</time>
      </trkpt>
      <trkpt lat="42.75959" lon="1.39934">
        <ele>2060.2426757812</ele>
        <time>2012-06-24T09:49:28Z</time>
      </trkpt>
      <trkpt lat="42.7597" lon="1.39933">
        <ele>2058.8005371094</ele>
        <time>2012-06-24T09:49:33Z</time>
      </trkpt>
      <trkpt lat="42.75983" lon="1.39933">
        <ele>2056.3972167969</ele>
        <time>2012-06-24T09:49:39Z</time>
      </trkpt>
      <trkpt lat="42.75993" lon="1.39934">
        <ele>2053.994140625</ele>
        <time>2012-06-24T09:49:45Z</time>
      </trkpt>
      <trkpt lat="42.76006" lon="1.39934">
        <ele>2051.5908203125</ele>
        <time>2012-06-24T09:49:52Z</time>
      </trkpt>
      <trkpt lat="42.76014" lon="1.39936">
        <ele>2050.1489257812</ele>
        <time>2012-06-24T09:49:56Z</time>
      </trkpt>
      <trkpt lat="42.76025" lon="1.39938">
        <ele>2047.7456054688</ele>
        <time>2012-06-24T09:50:02Z</time>
      </trkpt>
      <trkpt lat="42.76035" lon="1.39939">
        <ele>2046.3037109375</ele>
        <time>2012-06-24T09:50:07Z</time>
      </trkpt>
      <trkpt lat="42.76049" lon="1.3994">
        <ele>2043.4194335938</ele>
        <time>2012-06-24T09:50:13Z</time>
      </trkpt>
      <trkpt lat="42.76064" lon="1.39942">
        <ele>2041.0161132812</ele>
        <time>2012-06-24T09:50:19Z</time>
      </trkpt>
      <trkpt lat="42.76076" lon="1.39943">
        <ele>2039.57421875</ele>
        <time>2012-06-24T09:50:24Z</time>
      </trkpt>
      <trkpt lat="42.76089" lon="1.39946">
        <ele>2038.1323242188</ele>
        <time>2012-06-24T09:50:30Z</time>
      </trkpt>
      <trkpt lat="42.76097" lon="1.39946">
        <ele>2037.6516113281</ele>
        <time>2012-06-24T09:50:35Z</time>
      </trkpt>
      <trkpt lat="42.76106" lon="1.3995">
        <ele>2036.6901855469</ele>
        <time>2012-06-24T09:50:42Z</time>
      </trkpt>
      <trkpt lat="42.76108" lon="1.39951">
        <ele>2036.2097167969</ele>
        <time>2012-06-24T09:50:44Z</time>
      </trkpt>
      <trkpt lat="42.76115" lon="1.39953">
        <ele>2034.7678222656</ele>
        <time>2012-06-24T09:50:50Z</time>
      </trkpt>
      <trkpt lat="42.76118" lon="1.39954">
        <ele>2034.7678222656</ele>
        <time>2012-06-24T09:50:52Z</time>
      </trkpt>
      <trkpt lat="42.76126" lon="1.39959">
        <ele>2032.8449707031</ele>
        <time>2012-06-24T09:50:58Z</time>
      </trkpt>
      <trkpt lat="42.76136" lon="1.39965">
        <ele>2029.9611816406</ele>
        <time>2012-06-24T09:51:02Z</time>
      </trkpt>
      <trkpt lat="42.7615" lon="1.39969">
        <ele>2029.9611816406</ele>
        <time>2012-06-24T09:51:07Z</time>
      </trkpt>
      <trkpt lat="42.76161" lon="1.39969">
        <ele>2029.9611816406</ele>
        <time>2012-06-24T09:51:11Z</time>
      </trkpt>
      <trkpt lat="42.76168" lon="1.39968">
        <ele>2029.9611816406</ele>
        <time>2012-06-24T09:51:15Z</time>
      </trkpt>
      <trkpt lat="42.76175" lon="1.39968">
        <ele>2030.4418945312</ele>
        <time>2012-06-24T09:51:22Z</time>
      </trkpt>
      <trkpt lat="42.76179" lon="1.39969">
        <ele>2031.4030761719</ele>
        <time>2012-06-24T09:51:28Z</time>
      </trkpt>
      <trkpt lat="42.76183" lon="1.3997">
        <ele>2031.8837890625</ele>
        <time>2012-06-24T09:51:35Z</time>
      </trkpt>
      <trkpt lat="42.76187" lon="1.39973">
        <ele>2032.8449707031</ele>
        <time>2012-06-24T09:51:41Z</time>
      </trkpt>
      <trkpt lat="42.76191" lon="1.39975">
        <ele>2033.3256835938</ele>
        <time>2012-06-24T09:51:46Z</time>
      </trkpt>
      <trkpt lat="42.76195" lon="1.39975">
        <ele>2034.287109375</ele>
        <time>2012-06-24T09:51:53Z</time>
      </trkpt>
      <trkpt lat="42.762" lon="1.39978">
        <ele>2034.287109375</ele>
        <time>2012-06-24T09:52:00Z</time>
      </trkpt>
      <trkpt lat="42.76204" lon="1.39976">
        <ele>2035.2482910156</ele>
        <time>2012-06-24T09:52:05Z</time>
      </trkpt>
      <trkpt lat="42.76208" lon="1.39975">
        <ele>2035.7290039062</ele>
        <time>2012-06-24T09:52:10Z</time>
      </trkpt>
      <trkpt lat="42.76212" lon="1.39973">
        <ele>2036.6901855469</ele>
        <time>2012-06-24T09:52:16Z</time>
      </trkpt>
      <trkpt lat="42.76219" lon="1.39974">
        <ele>2038.1323242188</ele>
        <time>2012-06-24T09:52:23Z</time>
      </trkpt>
      <trkpt lat="42.76223" lon="1.39973">
        <ele>2039.0935058594</ele>
        <time>2012-06-24T09:52:29Z</time>
      </trkpt>
      <trkpt lat="42.76226" lon="1.39973">
        <ele>2040.0549316406</ele>
        <time>2012-06-24T09:52:35Z</time>
      </trkpt>
      <trkpt lat="42.76232" lon="1.39973">
        <ele>2041.0161132812</ele>
        <time>2012-06-24T09:52:41Z</time>
      </trkpt>
      <trkpt lat="42.76236" lon="1.39971">
        <ele>2041.9775390625</ele>
        <time>2012-06-24T09:52:47Z</time>
      </trkpt>
      <trkpt lat="42.7624" lon="1.39973">
        <ele>2042.4582519531</ele>
        <time>2012-06-24T09:52:53Z</time>
      </trkpt>
      <trkpt lat="42.76243" lon="1.39972">
        <ele>2043.4194335938</ele>
        <time>2012-06-24T09:52:58Z</time>
      </trkpt>
      <trkpt lat="42.76247" lon="1.39972">
        <ele>2044.380859375</ele>
        <time>2012-06-24T09:53:04Z</time>
      </trkpt>
      <trkpt lat="42.76253" lon="1.39973">
        <ele>2045.3422851562</ele>
        <time>2012-06-24T09:53:11Z</time>
      </trkpt>
      <trkpt lat="42.76259" lon="1.39972">
        <ele>2046.3037109375</ele>
        <time>2012-06-24T09:53:18Z</time>
      </trkpt>
      <trkpt lat="42.76263" lon="1.39973">
        <ele>2046.3037109375</ele>
        <time>2012-06-24T09:53:23Z</time>
      </trkpt>
      <trkpt lat="42.7627" lon="1.39976">
        <ele>2046.3037109375</ele>
        <time>2012-06-24T09:53:30Z</time>
      </trkpt>
      <trkpt lat="42.76274" lon="1.39978">
        <ele>2045.8229980469</ele>
        <time>2012-06-24T09:53:35Z</time>
      </trkpt>
      <trkpt lat="42.76281" lon="1.3998">
        <ele>2046.3037109375</ele>
        <time>2012-06-24T09:53:41Z</time>
      </trkpt>
      <trkpt lat="42.76286" lon="1.39983">
        <ele>2046.3037109375</ele>
        <time>2012-06-24T09:53:47Z</time>
      </trkpt>
      <trkpt lat="42.76289" lon="1.39985">
        <ele>2045.8229980469</ele>
        <time>2012-06-24T09:53:50Z</time>
      </trkpt>
      <trkpt lat="42.76293" lon="1.39986">
        <ele>2046.7841796875</ele>
        <time>2012-06-24T09:53:55Z</time>
      </trkpt>
      <trkpt lat="42.76299" lon="1.39986">
        <ele>2048.2260742188</ele>
        <time>2012-06-24T09:54:01Z</time>
      </trkpt>
      <trkpt lat="42.76303" lon="1.39986">
        <ele>2049.6682128906</ele>
        <time>2012-06-24T09:54:07Z</time>
      </trkpt>
      <trkpt lat="42.76306" lon="1.39985">
        <ele>2051.1101074219</ele>
        <time>2012-06-24T09:54:13Z</time>
      </trkpt>
      <trkpt lat="42.76308" lon="1.39986">
        <ele>2051.1101074219</ele>
        <time>2012-06-24T09:54:20Z</time>
      </trkpt>
      <trkpt lat="42.7631" lon="1.39984">
        <ele>2051.1101074219</ele>
        <time>2012-06-24T09:54:25Z</time>
      </trkpt>
      <trkpt lat="42.76315" lon="1.39983">
        <ele>2050.6293945312</ele>
        <time>2012-06-24T09:54:30Z</time>
      </trkpt>
      <trkpt lat="42.7632" lon="1.39981">
        <ele>2051.5908203125</ele>
        <time>2012-06-24T09:54:37Z</time>
      </trkpt>
      <trkpt lat="42.76324" lon="1.3998">
        <ele>2052.5520019531</ele>
        <time>2012-06-24T09:54:43Z</time>
      </trkpt>
      <trkpt lat="42.76331" lon="1.39981">
        <ele>2052.5520019531</ele>
        <time>2012-06-24T09:54:51Z</time>
      </trkpt>
      <trkpt lat="42.76337" lon="1.39984">
        <ele>2053.0327148438</ele>
        <time>2012-06-24T09:54:58Z</time>
      </trkpt>
      <trkpt lat="42.76341" lon="1.39982">
        <ele>2054.474609375</ele>
        <time>2012-06-24T09:55:04Z</time>
      </trkpt>
      <trkpt lat="42.76347" lon="1.39982">
        <ele>2054.9553222656</ele>
        <time>2012-06-24T09:55:10Z</time>
      </trkpt>
      <trkpt lat="42.76352" lon="1.39981">
        <ele>2054.9553222656</ele>
        <time>2012-06-24T09:55:15Z</time>
      </trkpt>
      <trkpt lat="42.76359" lon="1.39982">
        <ele>2053.994140625</ele>
        <time>2012-06-24T09:55:21Z</time>
      </trkpt>
      <trkpt lat="42.76366" lon="1.39984">
        <ele>2053.0327148438</ele>
        <time>2012-06-24T09:55:27Z</time>
      </trkpt>
      <trkpt lat="42.76374" lon="1.3999">
        <ele>2052.0712890625</ele>
        <time>2012-06-24T09:55:33Z</time>
      </trkpt>
      <trkpt lat="42.76379" lon="1.39992">
        <ele>2052.5520019531</ele>
        <time>2012-06-24T09:55:37Z</time>
      </trkpt>
      <trkpt lat="42.76385" lon="1.39991">
        <ele>2053.0327148438</ele>
        <time>2012-06-24T09:55:41Z</time>
      </trkpt>
      <trkpt lat="42.76398" lon="1.39992">
        <ele>2053.5134277344</ele>
        <time>2012-06-24T09:55:50Z</time>
      </trkpt>
      <trkpt lat="42.76405" lon="1.39992">
        <ele>2054.474609375</ele>
        <time>2012-06-24T09:55:56Z</time>
      </trkpt>
      <trkpt lat="42.7641" lon="1.39992">
        <ele>2055.4360351562</ele>
        <time>2012-06-24T09:56:00Z</time>
      </trkpt>
      <trkpt lat="42.7642" lon="1.39993">
        <ele>2057.8393554688</ele>
        <time>2012-06-24T09:56:08Z</time>
      </trkpt>
      <trkpt lat="42.76424" lon="1.39992">
        <ele>2059.28125</ele>
        <time>2012-06-24T09:56:13Z</time>
      </trkpt>
      <trkpt lat="42.76425" lon="1.39992">
        <ele>2059.76171875</ele>
        <time>2012-06-24T09:56:14Z</time>
      </trkpt>
      <trkpt lat="42.76428" lon="1.39988">
        <ele>2060.7233886719</ele>
        <time>2012-06-24T09:56:20Z</time>
      </trkpt>
      <trkpt lat="42.76431" lon="1.39985">
        <ele>2062.6459960938</ele>
        <time>2012-06-24T09:56:27Z</time>
      </trkpt>
      <trkpt lat="42.76433" lon="1.39983">
        <ele>2064.087890625</ele>
        <time>2012-06-24T09:56:32Z</time>
      </trkpt>
      <trkpt lat="42.76433" lon="1.39983">
        <ele>2064.5686035156</ele>
        <time>2012-06-24T09:56:39Z</time>
      </trkpt>
      <trkpt lat="42.76434" lon="1.39981">
        <ele>2065.5300292969</ele>
        <time>2012-06-24T09:56:51Z</time>
      </trkpt>
      <trkpt lat="42.76437" lon="1.39978">
        <ele>2066.4912109375</ele>
        <time>2012-06-24T09:56:56Z</time>
      </trkpt>
      <trkpt lat="42.76439" lon="1.39976">
        <ele>2067.9331054688</ele>
        <time>2012-06-24T09:57:01Z</time>
      </trkpt>
      <trkpt lat="42.76443" lon="1.39977">
        <ele>2069.3752441406</ele>
        <time>2012-06-24T09:57:08Z</time>
      </trkpt>
      <trkpt lat="42.76443" lon="1.39979">
        <ele>2069.8557128906</ele>
        <time>2012-06-24T09:57:14Z</time>
      </trkpt>
      <trkpt lat="42.76446" lon="1.39983">
        <ele>2069.3752441406</ele>
        <time>2012-06-24T09:57:20Z</time>
      </trkpt>
      <trkpt lat="42.76447" lon="1.39988">
        <ele>2068.89453125</ele>
        <time>2012-06-24T09:57:24Z</time>
      </trkpt>
      <trkpt lat="42.76448" lon="1.39994">
        <ele>2068.4138183594</ele>
        <time>2012-06-24T09:57:28Z</time>
      </trkpt>
      <trkpt lat="42.76454" lon="1.40002">
        <ele>2065.5300292969</ele>
        <time>2012-06-24T09:57:36Z</time>
      </trkpt>
      <trkpt lat="42.76458" lon="1.40007">
        <ele>2063.6071777344</ele>
        <time>2012-06-24T09:57:42Z</time>
      </trkpt>
      <trkpt lat="42.76461" lon="1.40013">
        <ele>2060.7233886719</ele>
        <time>2012-06-24T09:57:48Z</time>
      </trkpt>
      <trkpt lat="42.76461" lon="1.40015">
        <ele>2060.7233886719</ele>
        <time>2012-06-24T09:57:49Z</time>
      </trkpt>
      <trkpt lat="42.7646" lon="1.40026">
        <ele>2059.76171875</ele>
        <time>2012-06-24T09:57:55Z</time>
      </trkpt>
      <trkpt lat="42.76461" lon="1.40027">
        <ele>2059.76171875</ele>
        <time>2012-06-24T09:57:56Z</time>
      </trkpt>
      <trkpt lat="42.76466" lon="1.40034">
        <ele>2057.8393554688</ele>
        <time>2012-06-24T09:58:03Z</time>
      </trkpt>
      <trkpt lat="42.7647" lon="1.40043">
        <ele>2055.9165039062</ele>
        <time>2012-06-24T09:58:09Z</time>
      </trkpt>
      <trkpt lat="42.76472" lon="1.4005">
        <ele>2054.474609375</ele>
        <time>2012-06-24T09:58:14Z</time>
      </trkpt>
      <trkpt lat="42.76472" lon="1.40052">
        <ele>2053.994140625</ele>
        <time>2012-06-24T09:58:15Z</time>
      </trkpt>
      <trkpt lat="42.76471" lon="1.40059">
        <ele>2052.5520019531</ele>
        <time>2012-06-24T09:58:20Z</time>
      </trkpt>
      <trkpt lat="42.76473" lon="1.4007">
        <ele>2050.6293945312</ele>
        <time>2012-06-24T09:58:25Z</time>
      </trkpt>
      <trkpt lat="42.76478" lon="1.40079">
        <ele>2048.2260742188</ele>
        <time>2012-06-24T09:58:30Z</time>
      </trkpt>
      <trkpt lat="42.76479" lon="1.4008">
        <ele>2047.7456054688</ele>
        <time>2012-06-24T09:58:31Z</time>
      </trkpt>
      <trkpt lat="42.76484" lon="1.40086">
        <ele>2046.3037109375</ele>
        <time>2012-06-24T09:58:36Z</time>
      </trkpt>
      <trkpt lat="42.7649" lon="1.40096">
        <ele>2042.9387207031</ele>
        <time>2012-06-24T09:58:44Z</time>
      </trkpt>
      <trkpt lat="42.76491" lon="1.40099">
        <ele>2042.4582519531</ele>
        <time>2012-06-24T09:58:46Z</time>
      </trkpt>
      <trkpt lat="42.76496" lon="1.40106">
        <ele>2040.0549316406</ele>
        <time>2012-06-24T09:58:53Z</time>
      </trkpt>
      <trkpt lat="42.76498" lon="1.40112">
        <ele>2037.6516113281</ele>
        <time>2012-06-24T09:59:00Z</time>
      </trkpt>
      <trkpt lat="42.76498" lon="1.40117">
        <ele>2036.6901855469</ele>
        <time>2012-06-24T09:59:06Z</time>
      </trkpt>
      <trkpt lat="42.76501" lon="1.40128">
        <ele>2032.8449707031</ele>
        <time>2012-06-24T09:59:12Z</time>
      </trkpt>
      <trkpt lat="42.76506" lon="1.40141">
        <ele>2028.9997558594</ele>
        <time>2012-06-24T09:59:18Z</time>
      </trkpt>
      <trkpt lat="42.76514" lon="1.40158">
        <ele>2024.1931152344</ele>
        <time>2012-06-24T09:59:25Z</time>
      </trkpt>
      <trkpt lat="42.76522" lon="1.40174">
        <ele>2021.3090820312</ele>
        <time>2012-06-24T09:59:31Z</time>
      </trkpt>
      <trkpt lat="42.76529" lon="1.40185">
        <ele>2019.8671875</ele>
        <time>2012-06-24T09:59:36Z</time>
      </trkpt>
      <trkpt lat="42.76532" lon="1.40196">
        <ele>2017.9445800781</ele>
        <time>2012-06-24T09:59:42Z</time>
      </trkpt>
      <trkpt lat="42.76537" lon="1.40206">
        <ele>2016.9833984375</ele>
        <time>2012-06-24T09:59:48Z</time>
      </trkpt>
      <trkpt lat="42.76537" lon="1.40208">
        <ele>2016.5026855469</ele>
        <time>2012-06-24T09:59:49Z</time>
      </trkpt>
      <trkpt lat="42.76538" lon="1.40213">
        <ele>2015.5415039062</ele>
        <time>2012-06-24T09:59:57Z</time>
      </trkpt>
      <trkpt lat="42.76538" lon="1.40215">
        <ele>2015.0607910156</ele>
        <time>2012-06-24T10:00:07Z</time>
      </trkpt>
      <trkpt lat="42.76541" lon="1.4022">
        <ele>2014.0993652344</ele>
        <time>2012-06-24T10:00:13Z</time>
      </trkpt>
      <trkpt lat="42.76543" lon="1.40225">
        <ele>2012.6574707031</ele>
        <time>2012-06-24T10:00:17Z</time>
      </trkpt>
      <trkpt lat="42.76544" lon="1.40228">
        <ele>2011.6960449219</ele>
        <time>2012-06-24T10:00:19Z</time>
      </trkpt>
      <trkpt lat="42.7655" lon="1.40234">
        <ele>2009.7731933594</ele>
        <time>2012-06-24T10:00:25Z</time>
      </trkpt>
      <trkpt lat="42.76552" lon="1.40235">
        <ele>2009.2927246094</ele>
        <time>2012-06-24T10:00:27Z</time>
      </trkpt>
      <trkpt lat="42.76554" lon="1.40241">
        <ele>2008.8120117188</ele>
        <time>2012-06-24T10:00:31Z</time>
      </trkpt>
      <trkpt lat="42.76558" lon="1.40246">
        <ele>2007.3701171875</ele>
        <time>2012-06-24T10:00:35Z</time>
      </trkpt>
      <trkpt lat="42.76559" lon="1.40251">
        <ele>2006.8894042969</ele>
        <time>2012-06-24T10:00:38Z</time>
      </trkpt>
      <trkpt lat="42.76564" lon="1.40257">
        <ele>2005.9279785156</ele>
        <time>2012-06-24T10:00:43Z</time>
      </trkpt>
      <trkpt lat="42.76566" lon="1.40265">
        <ele>2004.4860839844</ele>
        <time>2012-06-24T10:00:48Z</time>
      </trkpt>
      <trkpt lat="42.76569" lon="1.40273">
        <ele>2003.5249023438</ele>
        <time>2012-06-24T10:00:53Z</time>
      </trkpt>
      <trkpt lat="42.76579" lon="1.4028">
        <ele>2002.0827636719</ele>
        <time>2012-06-24T10:01:01Z</time>
      </trkpt>
      <trkpt lat="42.76586" lon="1.40287">
        <ele>2001.1215820312</ele>
        <time>2012-06-24T10:01:08Z</time>
      </trkpt>
      <trkpt lat="42.76591" lon="1.40295">
        <ele>2000.1604003906</ele>
        <time>2012-06-24T10:01:15Z</time>
      </trkpt>
      <trkpt lat="42.76595" lon="1.40298">
        <ele>1999.1989746094</ele>
        <time>2012-06-24T10:01:19Z</time>
      </trkpt>
      <trkpt lat="42.76597" lon="1.40303">
        <ele>1995.8342285156</ele>
        <time>2012-06-24T10:01:25Z</time>
      </trkpt>
      <trkpt lat="42.76601" lon="1.40304">
        <ele>1994.8728027344</ele>
        <time>2012-06-24T10:01:30Z</time>
      </trkpt>
      <trkpt lat="42.76603" lon="1.40307">
        <ele>1993.9116210938</ele>
        <time>2012-06-24T10:01:35Z</time>
      </trkpt>
      <trkpt lat="42.76606" lon="1.40313">
        <ele>1992.4697265625</ele>
        <time>2012-06-24T10:01:42Z</time>
      </trkpt>
      <trkpt lat="42.7661" lon="1.40319">
        <ele>1991.5083007812</ele>
        <time>2012-06-24T10:01:48Z</time>
      </trkpt>
      <trkpt lat="42.76615" lon="1.40324">
        <ele>1990.06640625</ele>
        <time>2012-06-24T10:01:54Z</time>
      </trkpt>
      <trkpt lat="42.76622" lon="1.40334">
        <ele>1988.6245117188</ele>
        <time>2012-06-24T10:02:00Z</time>
      </trkpt>
      <trkpt lat="42.76633" lon="1.40346">
        <ele>1986.7016601562</ele>
        <time>2012-06-24T10:02:06Z</time>
      </trkpt>
      <trkpt lat="42.76638" lon="1.40353">
        <ele>1985.259765625</ele>
        <time>2012-06-24T10:02:11Z</time>
      </trkpt>
      <trkpt lat="42.76641" lon="1.40354">
        <ele>1984.2985839844</ele>
        <time>2012-06-24T10:02:13Z</time>
      </trkpt>
      <trkpt lat="42.76648" lon="1.40363">
        <ele>1981.8952636719</ele>
        <time>2012-06-24T10:02:19Z</time>
      </trkpt>
      <trkpt lat="42.76651" lon="1.40366">
        <ele>1980.9340820312</ele>
        <time>2012-06-24T10:02:22Z</time>
      </trkpt>
      <trkpt lat="42.7666" lon="1.40374">
        <ele>1979.0109863281</ele>
        <time>2012-06-24T10:02:29Z</time>
      </trkpt>
      <trkpt lat="42.76664" lon="1.4038">
        <ele>1977.0886230469</ele>
        <time>2012-06-24T10:02:33Z</time>
      </trkpt>
      <trkpt lat="42.76666" lon="1.4038">
        <ele>1976.6079101562</ele>
        <time>2012-06-24T10:02:35Z</time>
      </trkpt>
      <trkpt lat="42.76669" lon="1.40379">
        <ele>1976.1271972656</ele>
        <time>2012-06-24T10:02:37Z</time>
      </trkpt>
      <trkpt lat="42.76674" lon="1.40387">
        <ele>1975.1657714844</ele>
        <time>2012-06-24T10:02:41Z</time>
      </trkpt>
      <trkpt lat="42.76673" lon="1.40395">
        <ele>1974.2045898438</ele>
        <time>2012-06-24T10:02:47Z</time>
      </trkpt>
      <trkpt lat="42.76676" lon="1.40398">
        <ele>1973.7238769531</ele>
        <time>2012-06-24T10:02:52Z</time>
      </trkpt>
      <trkpt lat="42.76676" lon="1.404">
        <ele>1972.2819824219</ele>
        <time>2012-06-24T10:02:57Z</time>
      </trkpt>
      <trkpt lat="42.76676" lon="1.40401">
        <ele>1971.3205566406</ele>
        <time>2012-06-24T10:03:06Z</time>
      </trkpt>
      <trkpt lat="42.7668" lon="1.40401">
        <ele>1969.8786621094</ele>
        <time>2012-06-24T10:03:11Z</time>
      </trkpt>
      <trkpt lat="42.76681" lon="1.40404">
        <ele>1968.9174804688</ele>
        <time>2012-06-24T10:03:16Z</time>
      </trkpt>
      <trkpt lat="42.76683" lon="1.40409">
        <ele>1966.9948730469</ele>
        <time>2012-06-24T10:03:21Z</time>
      </trkpt>
      <trkpt lat="42.76688" lon="1.40407">
        <ele>1965.5529785156</ele>
        <time>2012-06-24T10:03:25Z</time>
      </trkpt>
      <trkpt lat="42.76688" lon="1.40406">
        <ele>1965.072265625</ele>
        <time>2012-06-24T10:03:26Z</time>
      </trkpt>
      <trkpt lat="42.76693" lon="1.40401">
        <ele>1962.6687011719</ele>
        <time>2012-06-24T10:03:32Z</time>
      </trkpt>
      <trkpt lat="42.76698" lon="1.40406">
        <ele>1961.2268066406</ele>
        <time>2012-06-24T10:03:36Z</time>
      </trkpt>
      <trkpt lat="42.76701" lon="1.40413">
        <ele>1959.7846679688</ele>
        <time>2012-06-24T10:03:41Z</time>
      </trkpt>
      <trkpt lat="42.76706" lon="1.4042">
        <ele>1958.8234863281</ele>
        <time>2012-06-24T10:03:46Z</time>
      </trkpt>
      <trkpt lat="42.76715" lon="1.40419">
        <ele>1957.8623046875</ele>
        <time>2012-06-24T10:03:51Z</time>
      </trkpt>
      <trkpt lat="42.76717" lon="1.4042">
        <ele>1957.3815917969</ele>
        <time>2012-06-24T10:03:53Z</time>
      </trkpt>
      <trkpt lat="42.76723" lon="1.40423">
        <ele>1955.458984375</ele>
        <time>2012-06-24T10:03:59Z</time>
      </trkpt>
      <trkpt lat="42.76727" lon="1.40428">
        <ele>1954.9782714844</ele>
        <time>2012-06-24T10:04:03Z</time>
      </trkpt>
      <trkpt lat="42.76736" lon="1.40434">
        <ele>1954.4975585938</ele>
        <time>2012-06-24T10:04:12Z</time>
      </trkpt>
      <trkpt lat="42.76747" lon="1.40439">
        <ele>1954.0170898438</ele>
        <time>2012-06-24T10:04:18Z</time>
      </trkpt>
      <trkpt lat="42.76757" lon="1.40448">
        <ele>1953.5363769531</ele>
        <time>2012-06-24T10:04:23Z</time>
      </trkpt>
      <trkpt lat="42.76768" lon="1.40456">
        <ele>1954.0170898438</ele>
        <time>2012-06-24T10:04:30Z</time>
      </trkpt>
      <trkpt lat="42.7677" lon="1.4046">
        <ele>1954.4975585938</ele>
        <time>2012-06-24T10:04:34Z</time>
      </trkpt>
      <trkpt lat="42.76775" lon="1.40466">
        <ele>1954.9782714844</ele>
        <time>2012-06-24T10:04:40Z</time>
      </trkpt>
      <trkpt lat="42.76774" lon="1.40467">
        <ele>1955.458984375</ele>
        <time>2012-06-24T10:04:46Z</time>
      </trkpt>
      <trkpt lat="42.76774" lon="1.40469">
        <ele>1954.9782714844</ele>
        <time>2012-06-24T10:04:50Z</time>
      </trkpt>
      <trkpt lat="42.76775" lon="1.40465">
        <ele>1954.9782714844</ele>
        <time>2012-06-24T10:04:58Z</time>
      </trkpt>
      <trkpt lat="42.76777" lon="1.40464">
        <ele>1955.458984375</ele>
        <time>2012-06-24T10:05:01Z</time>
      </trkpt>
      <trkpt lat="42.76777" lon="1.40466">
        <ele>1954.9782714844</ele>
        <time>2012-06-24T10:06:22Z</time>
      </trkpt>
      <trkpt lat="42.76777" lon="1.40466">
        <ele>1954.9782714844</ele>
        <time>2012-06-24T10:06:23Z</time>
      </trkpt>
      <trkpt lat="42.7678" lon="1.40467">
        <ele>1954.9782714844</ele>
        <time>2012-06-24T10:06:26Z</time>
      </trkpt>
      <trkpt lat="42.7679" lon="1.4047">
        <ele>1955.458984375</ele>
        <time>2012-06-24T10:06:31Z</time>
      </trkpt>
      <trkpt lat="42.76793" lon="1.4047">
        <ele>1955.939453125</ele>
        <time>2012-06-24T10:06:32Z</time>
      </trkpt>
      <trkpt lat="42.76805" lon="1.40475">
        <ele>1957.8623046875</ele>
        <time>2012-06-24T10:06:39Z</time>
      </trkpt>
      <trkpt lat="42.76816" lon="1.4048">
        <ele>1959.3041992188</ele>
        <time>2012-06-24T10:06:45Z</time>
      </trkpt>
      <trkpt lat="42.76825" lon="1.40483">
        <ele>1960.74609375</ele>
        <time>2012-06-24T10:06:50Z</time>
      </trkpt>
      <trkpt lat="42.76832" lon="1.40484">
        <ele>1961.2268066406</ele>
        <time>2012-06-24T10:06:57Z</time>
      </trkpt>
      <trkpt lat="42.76834" lon="1.40485">
        <ele>1961.7075195312</ele>
        <time>2012-06-24T10:06:59Z</time>
      </trkpt>
      <trkpt lat="42.76841" lon="1.40487">
        <ele>1963.6298828125</ele>
        <time>2012-06-24T10:07:06Z</time>
      </trkpt>
      <trkpt lat="42.76846" lon="1.40487">
        <ele>1964.5915527344</ele>
        <time>2012-06-24T10:07:12Z</time>
      </trkpt>
      <trkpt lat="42.76852" lon="1.40488">
        <ele>1965.072265625</ele>
        <time>2012-06-24T10:07:17Z</time>
      </trkpt>
      <trkpt lat="42.76854" lon="1.40488">
        <ele>1965.5529785156</ele>
        <time>2012-06-24T10:07:19Z</time>
      </trkpt>
      <trkpt lat="42.76859" lon="1.40489">
        <ele>1966.0334472656</ele>
        <time>2012-06-24T10:07:24Z</time>
      </trkpt>
      <trkpt lat="42.76867" lon="1.40492">
        <ele>1966.9948730469</ele>
        <time>2012-06-24T10:07:31Z</time>
      </trkpt>
      <trkpt lat="42.76868" lon="1.40493">
        <ele>1967.4753417969</ele>
        <time>2012-06-24T10:07:32Z</time>
      </trkpt>
      <trkpt lat="42.76874" lon="1.40496">
        <ele>1968.4367675781</ele>
        <time>2012-06-24T10:07:40Z</time>
      </trkpt>
      <trkpt lat="42.76878" lon="1.405">
        <ele>1968.9174804688</ele>
        <time>2012-06-24T10:07:46Z</time>
      </trkpt>
      <trkpt lat="42.7688" lon="1.40502">
        <ele>1969.3981933594</ele>
        <time>2012-06-24T10:07:52Z</time>
      </trkpt>
      <trkpt lat="42.7688" lon="1.40504">
        <ele>1968.9174804688</ele>
        <time>2012-06-24T10:07:58Z</time>
      </trkpt>
      <trkpt lat="42.76882" lon="1.40507">
        <ele>1968.9174804688</ele>
        <time>2012-06-24T10:08:03Z</time>
      </trkpt>
      <trkpt lat="42.76886" lon="1.40507">
        <ele>1969.3981933594</ele>
        <time>2012-06-24T10:08:08Z</time>
      </trkpt>
      <trkpt lat="42.76891" lon="1.4051">
        <ele>1971.3205566406</ele>
        <time>2012-06-24T10:08:16Z</time>
      </trkpt>
      <trkpt lat="42.76895" lon="1.40514">
        <ele>1971.3205566406</ele>
        <time>2012-06-24T10:08:21Z</time>
      </trkpt>
      <trkpt lat="42.76902" lon="1.40522">
        <ele>1970.359375</ele>
        <time>2012-06-24T10:08:26Z</time>
      </trkpt>
      <trkpt lat="42.76912" lon="1.4053">
        <ele>1971.3205566406</ele>
        <time>2012-06-24T10:08:31Z</time>
      </trkpt>
      <trkpt lat="42.76917" lon="1.40536">
        <ele>1972.7626953125</ele>
        <time>2012-06-24T10:08:36Z</time>
      </trkpt>
      <trkpt lat="42.76918" lon="1.40537">
        <ele>1972.7626953125</ele>
        <time>2012-06-24T10:08:37Z</time>
      </trkpt>
      <trkpt lat="42.76928" lon="1.40542">
        <ele>1971.8012695312</ele>
        <time>2012-06-24T10:08:43Z</time>
      </trkpt>
      <trkpt lat="42.76933" lon="1.40548">
        <ele>1971.8012695312</ele>
        <time>2012-06-24T10:08:47Z</time>
      </trkpt>
      <trkpt lat="42.76935" lon="1.40549">
        <ele>1972.2819824219</ele>
        <time>2012-06-24T10:08:49Z</time>
      </trkpt>
      <trkpt lat="42.76937" lon="1.40551">
        <ele>1972.2819824219</ele>
        <time>2012-06-24T10:08:52Z</time>
      </trkpt>
      <trkpt lat="42.7694" lon="1.40554">
        <ele>1970.359375</ele>
        <time>2012-06-24T10:08:58Z</time>
      </trkpt>
      <trkpt lat="42.76942" lon="1.40559">
        <ele>1969.3981933594</ele>
        <time>2012-06-24T10:09:03Z</time>
      </trkpt>
      <trkpt lat="42.76945" lon="1.4056">
        <ele>1968.4367675781</ele>
        <time>2012-06-24T10:09:08Z</time>
      </trkpt>
      <trkpt lat="42.76948" lon="1.40565">
        <ele>1967.4753417969</ele>
        <time>2012-06-24T10:09:12Z</time>
      </trkpt>
      <trkpt lat="42.76952" lon="1.40568">
        <ele>1966.9948730469</ele>
        <time>2012-06-24T10:09:18Z</time>
      </trkpt>
      <trkpt lat="42.76956" lon="1.40568">
        <ele>1966.0334472656</ele>
        <time>2012-06-24T10:09:23Z</time>
      </trkpt>
      <trkpt lat="42.76958" lon="1.4057">
        <ele>1964.1108398438</ele>
        <time>2012-06-24T10:09:27Z</time>
      </trkpt>
      <trkpt lat="42.76965" lon="1.40569">
        <ele>1963.1494140625</ele>
        <time>2012-06-24T10:09:34Z</time>
      </trkpt>
      <trkpt lat="42.76967" lon="1.4057">
        <ele>1962.6687011719</ele>
        <time>2012-06-24T10:09:36Z</time>
      </trkpt>
      <trkpt lat="42.76974" lon="1.4057">
        <ele>1962.6687011719</ele>
        <time>2012-06-24T10:09:42Z</time>
      </trkpt>
      <trkpt lat="42.76975" lon="1.40571">
        <ele>1962.6687011719</ele>
        <time>2012-06-24T10:09:43Z</time>
      </trkpt>
      <trkpt lat="42.76982" lon="1.40577">
        <ele>1962.6687011719</ele>
        <time>2012-06-24T10:09:51Z</time>
      </trkpt>
      <trkpt lat="42.76984" lon="1.40579">
        <ele>1962.6687011719</ele>
        <time>2012-06-24T10:09:54Z</time>
      </trkpt>
      <trkpt lat="42.76992" lon="1.40584">
        <ele>1963.6298828125</ele>
        <time>2012-06-24T10:10:01Z</time>
      </trkpt>
      <trkpt lat="42.77002" lon="1.40587">
        <ele>1963.1494140625</ele>
        <time>2012-06-24T10:10:07Z</time>
      </trkpt>
      <trkpt lat="42.7701" lon="1.40589">
        <ele>1962.6687011719</ele>
        <time>2012-06-24T10:10:13Z</time>
      </trkpt>
      <trkpt lat="42.77016" lon="1.4059">
        <ele>1964.1108398438</ele>
        <time>2012-06-24T10:10:19Z</time>
      </trkpt>
      <trkpt lat="42.7702" lon="1.40591">
        <ele>1964.5915527344</ele>
        <time>2012-06-24T10:10:24Z</time>
      </trkpt>
      <trkpt lat="42.77025" lon="1.40593">
        <ele>1965.5529785156</ele>
        <time>2012-06-24T10:10:28Z</time>
      </trkpt>
      <trkpt lat="42.77028" lon="1.40596">
        <ele>1966.0334472656</ele>
        <time>2012-06-24T10:10:31Z</time>
      </trkpt>
      <trkpt lat="42.77035" lon="1.40603">
        <ele>1966.5141601562</ele>
        <time>2012-06-24T10:10:38Z</time>
      </trkpt>
      <trkpt lat="42.7704" lon="1.40606">
        <ele>1966.5141601562</ele>
        <time>2012-06-24T10:10:43Z</time>
      </trkpt>
      <trkpt lat="42.77042" lon="1.40608">
        <ele>1966.9948730469</ele>
        <time>2012-06-24T10:10:45Z</time>
      </trkpt>
      <trkpt lat="42.77048" lon="1.40613">
        <ele>1967.9560546875</ele>
        <time>2012-06-24T10:10:53Z</time>
      </trkpt>
      <trkpt lat="42.77049" lon="1.40614">
        <ele>1968.4367675781</ele>
        <time>2012-06-24T10:10:59Z</time>
      </trkpt>
      <trkpt lat="42.77052" lon="1.40617">
        <ele>1969.3981933594</ele>
        <time>2012-06-24T10:11:07Z</time>
      </trkpt>
      <trkpt lat="42.77058" lon="1.40624">
        <ele>1970.359375</ele>
        <time>2012-06-24T10:11:15Z</time>
      </trkpt>
      <trkpt lat="42.77063" lon="1.40629">
        <ele>1972.2819824219</ele>
        <time>2012-06-24T10:11:21Z</time>
      </trkpt>
      <trkpt lat="42.77066" lon="1.40632">
        <ele>1973.2434082031</ele>
        <time>2012-06-24T10:11:26Z</time>
      </trkpt>
      <trkpt lat="42.77069" lon="1.40634">
        <ele>1974.6853027344</ele>
        <time>2012-06-24T10:11:31Z</time>
      </trkpt>
      <trkpt lat="42.77073" lon="1.40638">
        <ele>1975.646484375</ele>
        <time>2012-06-24T10:11:36Z</time>
      </trkpt>
      <trkpt lat="42.77076" lon="1.40639">
        <ele>1976.6079101562</ele>
        <time>2012-06-24T10:11:40Z</time>
      </trkpt>
      <trkpt lat="42.77078" lon="1.40641">
        <ele>1977.5690917969</ele>
        <time>2012-06-24T10:11:45Z</time>
      </trkpt>
      <trkpt lat="42.77081" lon="1.40644">
        <ele>1978.5305175781</ele>
        <time>2012-06-24T10:11:50Z</time>
      </trkpt>
      <trkpt lat="42.77084" lon="1.40649">
        <ele>1980.4533691406</ele>
        <time>2012-06-24T10:11:56Z</time>
      </trkpt>
      <trkpt lat="42.77086" lon="1.40653">
        <ele>1981.8952636719</ele>
        <time>2012-06-24T10:12:02Z</time>
      </trkpt>
      <trkpt lat="42.77089" lon="1.40656">
        <ele>1982.8564453125</ele>
        <time>2012-06-24T10:12:07Z</time>
      </trkpt>
      <trkpt lat="42.7709" lon="1.40658">
        <ele>1983.8178710938</ele>
        <time>2012-06-24T10:12:13Z</time>
      </trkpt>
      <trkpt lat="42.77092" lon="1.40658">
        <ele>1984.2985839844</ele>
        <time>2012-06-24T10:12:20Z</time>
      </trkpt>
      <trkpt lat="42.77094" lon="1.40661">
        <ele>1984.779296875</ele>
        <time>2012-06-24T10:12:25Z</time>
      </trkpt>
      <trkpt lat="42.77094" lon="1.40663">
        <ele>1985.259765625</ele>
        <time>2012-06-24T10:12:32Z</time>
      </trkpt>
      <trkpt lat="42.77096" lon="1.40667">
        <ele>1985.7404785156</ele>
        <time>2012-06-24T10:12:39Z</time>
      </trkpt>
      <trkpt lat="42.77099" lon="1.40671">
        <ele>1985.7404785156</ele>
        <time>2012-06-24T10:12:45Z</time>
      </trkpt>
      <trkpt lat="42.77104" lon="1.40675">
        <ele>1985.7404785156</ele>
        <time>2012-06-24T10:12:52Z</time>
      </trkpt>
      <trkpt lat="42.77108" lon="1.40679">
        <ele>1986.7016601562</ele>
        <time>2012-06-24T10:12:57Z</time>
      </trkpt>
      <trkpt lat="42.77111" lon="1.4068">
        <ele>1987.1823730469</ele>
        <time>2012-06-24T10:13:02Z</time>
      </trkpt>
      <trkpt lat="42.77114" lon="1.40682">
        <ele>1988.1437988281</ele>
        <time>2012-06-24T10:13:08Z</time>
      </trkpt>
      <trkpt lat="42.77117" lon="1.40684">
        <ele>1989.1049804688</ele>
        <time>2012-06-24T10:13:15Z</time>
      </trkpt>
      <trkpt lat="42.77119" lon="1.4069">
        <ele>1988.6245117188</ele>
        <time>2012-06-24T10:13:21Z</time>
      </trkpt>
      <trkpt lat="42.77121" lon="1.40696">
        <ele>1988.6245117188</ele>
        <time>2012-06-24T10:13:26Z</time>
      </trkpt>
      <trkpt lat="42.77124" lon="1.407">
        <ele>1990.06640625</ele>
        <time>2012-06-24T10:13:31Z</time>
      </trkpt>
      <trkpt lat="42.77126" lon="1.40704">
        <ele>1991.5083007812</ele>
        <time>2012-06-24T10:13:37Z</time>
      </trkpt>
      <trkpt lat="42.77127" lon="1.40709">
        <ele>1992.4697265625</ele>
        <time>2012-06-24T10:13:42Z</time>
      </trkpt>
      <trkpt lat="42.77128" lon="1.40713">
        <ele>1992.4697265625</ele>
        <time>2012-06-24T10:13:49Z</time>
      </trkpt>
      <trkpt lat="42.77129" lon="1.40716">
        <ele>1991.5083007812</ele>
        <time>2012-06-24T10:13:55Z</time>
      </trkpt>
      <trkpt lat="42.77131" lon="1.40723">
        <ele>1990.546875</ele>
        <time>2012-06-24T10:14:00Z</time>
      </trkpt>
      <trkpt lat="42.77132" lon="1.4073">
        <ele>1990.546875</ele>
        <time>2012-06-24T10:14:06Z</time>
      </trkpt>
      <trkpt lat="42.77132" lon="1.40733">
        <ele>1990.546875</ele>
        <time>2012-06-24T10:14:08Z</time>
      </trkpt>
      <trkpt lat="42.77132" lon="1.40741">
        <ele>1990.06640625</ele>
        <time>2012-06-24T10:14:14Z</time>
      </trkpt>
      <trkpt lat="42.77134" lon="1.40743">
        <ele>1989.5856933594</ele>
        <time>2012-06-24T10:14:16Z</time>
      </trkpt>
      <trkpt lat="42.77139" lon="1.40748">
        <ele>1988.1437988281</ele>
        <time>2012-06-24T10:14:23Z</time>
      </trkpt>
      <trkpt lat="42.77143" lon="1.40747">
        <ele>1986.7016601562</ele>
        <time>2012-06-24T10:14:28Z</time>
      </trkpt>
      <trkpt lat="42.77143" lon="1.40753">
        <ele>1984.779296875</ele>
        <time>2012-06-24T10:14:33Z</time>
      </trkpt>
      <trkpt lat="42.77142" lon="1.40759">
        <ele>1983.3371582031</ele>
        <time>2012-06-24T10:14:39Z</time>
      </trkpt>
      <trkpt lat="42.77139" lon="1.40765">
        <ele>1980.9340820312</ele>
        <time>2012-06-24T10:14:46Z</time>
      </trkpt>
      <trkpt lat="42.77142" lon="1.4077">
        <ele>1979.4916992188</ele>
        <time>2012-06-24T10:14:52Z</time>
      </trkpt>
      <trkpt lat="42.77144" lon="1.40776">
        <ele>1978.0498046875</ele>
        <time>2012-06-24T10:14:56Z</time>
      </trkpt>
      <trkpt lat="42.77147" lon="1.40782">
        <ele>1977.5690917969</ele>
        <time>2012-06-24T10:15:00Z</time>
      </trkpt>
      <trkpt lat="42.77153" lon="1.40787">
        <ele>1977.0886230469</ele>
        <time>2012-06-24T10:15:05Z</time>
      </trkpt>
      <trkpt lat="42.77157" lon="1.40797">
        <ele>1975.1657714844</ele>
        <time>2012-06-24T10:15:11Z</time>
      </trkpt>
      <trkpt lat="42.77155" lon="1.40802">
        <ele>1975.1657714844</ele>
        <time>2012-06-24T10:15:16Z</time>
      </trkpt>
      <trkpt lat="42.77157" lon="1.40802">
        <ele>1976.1271972656</ele>
        <time>2012-06-24T10:15:20Z</time>
      </trkpt>
      <trkpt lat="42.77161" lon="1.40806">
        <ele>1977.5690917969</ele>
        <time>2012-06-24T10:15:25Z</time>
      </trkpt>
      <trkpt lat="42.77161" lon="1.4081">
        <ele>1978.0498046875</ele>
        <time>2012-06-24T10:15:30Z</time>
      </trkpt>
      <trkpt lat="42.77161" lon="1.40815">
        <ele>1978.0498046875</ele>
        <time>2012-06-24T10:15:37Z</time>
      </trkpt>
      <trkpt lat="42.77162" lon="1.40819">
        <ele>1978.5305175781</ele>
        <time>2012-06-24T10:15:41Z</time>
      </trkpt>
      <trkpt lat="42.77164" lon="1.40823">
        <ele>1978.5305175781</ele>
        <time>2012-06-24T10:15:46Z</time>
      </trkpt>
      <trkpt lat="42.77165" lon="1.40826">
        <ele>1977.5690917969</ele>
        <time>2012-06-24T10:15:51Z</time>
      </trkpt>
      <trkpt lat="42.7717" lon="1.40829">
        <ele>1976.6079101562</ele>
        <time>2012-06-24T10:15:56Z</time>
      </trkpt>
      <trkpt lat="42.77174" lon="1.40829">
        <ele>1977.0886230469</ele>
        <time>2012-06-24T10:16:01Z</time>
      </trkpt>
      <trkpt lat="42.77177" lon="1.40832">
        <ele>1977.0886230469</ele>
        <time>2012-06-24T10:16:06Z</time>
      </trkpt>
      <trkpt lat="42.77182" lon="1.40837">
        <ele>1977.5690917969</ele>
        <time>2012-06-24T10:16:11Z</time>
      </trkpt>
      <trkpt lat="42.77184" lon="1.4084">
        <ele>1978.0498046875</ele>
        <time>2012-06-24T10:16:14Z</time>
      </trkpt>
      <trkpt lat="42.77187" lon="1.40842">
        <ele>1979.4916992188</ele>
        <time>2012-06-24T10:16:18Z</time>
      </trkpt>
      <trkpt lat="42.77186" lon="1.4085">
        <ele>1978.0498046875</ele>
        <time>2012-06-24T10:16:24Z</time>
      </trkpt>
      <trkpt lat="42.77184" lon="1.40858">
        <ele>1975.646484375</ele>
        <time>2012-06-24T10:16:31Z</time>
      </trkpt>
      <trkpt lat="42.77182" lon="1.40869">
        <ele>1974.6853027344</ele>
        <time>2012-06-24T10:16:38Z</time>
      </trkpt>
      <trkpt lat="42.77182" lon="1.4087">
        <ele>1974.6853027344</ele>
        <time>2012-06-24T10:16:39Z</time>
      </trkpt>
      <trkpt lat="42.77176" lon="1.4088">
        <ele>1973.2434082031</ele>
        <time>2012-06-24T10:16:48Z</time>
      </trkpt>
      <trkpt lat="42.77175" lon="1.40884">
        <ele>1973.2434082031</ele>
        <time>2012-06-24T10:16:54Z</time>
      </trkpt>
      <trkpt lat="42.77174" lon="1.40888">
        <ele>1972.7626953125</ele>
        <time>2012-06-24T10:17:01Z</time>
      </trkpt>
      <trkpt lat="42.77172" lon="1.40897">
        <ele>1971.8012695312</ele>
        <time>2012-06-24T10:17:07Z</time>
      </trkpt>
      <trkpt lat="42.7717" lon="1.40906">
        <ele>1970.8400878906</ele>
        <time>2012-06-24T10:17:14Z</time>
      </trkpt>
      <trkpt lat="42.7717" lon="1.40912">
        <ele>1969.8786621094</ele>
        <time>2012-06-24T10:17:20Z</time>
      </trkpt>
      <trkpt lat="42.77176" lon="1.40918">
        <ele>1967.9560546875</ele>
        <time>2012-06-24T10:17:26Z</time>
      </trkpt>
      <trkpt lat="42.77178" lon="1.40918">
        <ele>1967.4753417969</ele>
        <time>2012-06-24T10:17:28Z</time>
      </trkpt>
      <trkpt lat="42.77184" lon="1.40922">
        <ele>1967.4753417969</ele>
        <time>2012-06-24T10:17:34Z</time>
      </trkpt>
      <trkpt lat="42.77188" lon="1.40931">
        <ele>1967.9560546875</ele>
        <time>2012-06-24T10:17:41Z</time>
      </trkpt>
      <trkpt lat="42.77189" lon="1.40943">
        <ele>1968.4367675781</ele>
        <time>2012-06-24T10:17:49Z</time>
      </trkpt>
      <trkpt lat="42.77189" lon="1.40945">
        <ele>1967.9560546875</ele>
        <time>2012-06-24T10:17:50Z</time>
      </trkpt>
      <trkpt lat="42.7719" lon="1.40953">
        <ele>1967.4753417969</ele>
        <time>2012-06-24T10:17:56Z</time>
      </trkpt>
      <trkpt lat="42.77189" lon="1.40957">
        <ele>1966.5141601562</ele>
        <time>2012-06-24T10:17:59Z</time>
      </trkpt>
      <trkpt lat="42.7719" lon="1.40962">
        <ele>1965.072265625</ele>
        <time>2012-06-24T10:18:05Z</time>
      </trkpt>
      <trkpt lat="42.7719" lon="1.40968">
        <ele>1963.6298828125</ele>
        <time>2012-06-24T10:18:09Z</time>
      </trkpt>
      <trkpt lat="42.77189" lon="1.4097">
        <ele>1963.1494140625</ele>
        <time>2012-06-24T10:18:11Z</time>
      </trkpt>
      <trkpt lat="42.77191" lon="1.40979">
        <ele>1961.7075195312</ele>
        <time>2012-06-24T10:18:17Z</time>
      </trkpt>
      <trkpt lat="42.7719" lon="1.40986">
        <ele>1961.2268066406</ele>
        <time>2012-06-24T10:18:22Z</time>
      </trkpt>
      <trkpt lat="42.77191" lon="1.40995">
        <ele>1961.7075195312</ele>
        <time>2012-06-24T10:18:29Z</time>
      </trkpt>
      <trkpt lat="42.7719" lon="1.41">
        <ele>1963.1494140625</ele>
        <time>2012-06-24T10:18:34Z</time>
      </trkpt>
      <trkpt lat="42.7719" lon="1.41005">
        <ele>1962.6687011719</ele>
        <time>2012-06-24T10:18:38Z</time>
      </trkpt>
      <trkpt lat="42.77189" lon="1.41011">
        <ele>1962.1879882812</ele>
        <time>2012-06-24T10:18:43Z</time>
      </trkpt>
      <trkpt lat="42.77183" lon="1.41012">
        <ele>1961.7075195312</ele>
        <time>2012-06-24T10:18:50Z</time>
      </trkpt>
      <trkpt lat="42.77181" lon="1.41011">
        <ele>1961.7075195312</ele>
        <time>2012-06-24T10:18:57Z</time>
      </trkpt>
      <trkpt lat="42.77181" lon="1.41016">
        <ele>1960.2653808594</ele>
        <time>2012-06-24T10:19:07Z</time>
      </trkpt>
      <trkpt lat="42.77177" lon="1.41019">
        <ele>1958.8234863281</ele>
        <time>2012-06-24T10:19:13Z</time>
      </trkpt>
      <trkpt lat="42.77174" lon="1.41022">
        <ele>1958.3427734375</ele>
        <time>2012-06-24T10:19:18Z</time>
      </trkpt>
      <trkpt lat="42.77172" lon="1.41021">
        <ele>1958.3427734375</ele>
        <time>2012-06-24T10:19:22Z</time>
      </trkpt>
      <trkpt lat="42.77172" lon="1.41021">
        <ele>1957.3815917969</ele>
        <time>2012-06-24T10:42:46Z</time>
      </trkpt>
      <trkpt lat="42.77172" lon="1.41022">
        <ele>1957.3815917969</ele>
        <time>2012-06-24T10:42:47Z</time>
      </trkpt>
      <trkpt lat="42.77177" lon="1.41024">
        <ele>1957.3815917969</ele>
        <time>2012-06-24T10:42:52Z</time>
      </trkpt>
      <trkpt lat="42.77181" lon="1.4103">
        <ele>1958.3427734375</ele>
        <time>2012-06-24T10:42:58Z</time>
      </trkpt>
      <trkpt lat="42.77184" lon="1.41038">
        <ele>1958.3427734375</ele>
        <time>2012-06-24T10:43:06Z</time>
      </trkpt>
      <trkpt lat="42.7719" lon="1.41039">
        <ele>1957.8623046875</ele>
        <time>2012-06-24T10:43:12Z</time>
      </trkpt>
      <trkpt lat="42.77195" lon="1.4104">
        <ele>1956.4201660156</ele>
        <time>2012-06-24T10:43:17Z</time>
      </trkpt>
      <trkpt lat="42.77201" lon="1.41041">
        <ele>1955.458984375</ele>
        <time>2012-06-24T10:43:24Z</time>
      </trkpt>
      <trkpt lat="42.77208" lon="1.41044">
        <ele>1954.9782714844</ele>
        <time>2012-06-24T10:43:30Z</time>
      </trkpt>
      <trkpt lat="42.77209" lon="1.4105">
        <ele>1954.4975585938</ele>
        <time>2012-06-24T10:43:34Z</time>
      </trkpt>
      <trkpt lat="42.77214" lon="1.41055">
        <ele>1953.5363769531</ele>
        <time>2012-06-24T10:43:39Z</time>
      </trkpt>
      <trkpt lat="42.77217" lon="1.41061">
        <ele>1953.5363769531</ele>
        <time>2012-06-24T10:43:44Z</time>
      </trkpt>
      <trkpt lat="42.77222" lon="1.41067">
        <ele>1953.0556640625</ele>
        <time>2012-06-24T10:43:49Z</time>
      </trkpt>
      <trkpt lat="42.77225" lon="1.41072">
        <ele>1952.0942382812</ele>
        <time>2012-06-24T10:43:53Z</time>
      </trkpt>
      <trkpt lat="42.7723" lon="1.41077">
        <ele>1951.6137695312</ele>
        <time>2012-06-24T10:43:58Z</time>
      </trkpt>
      <trkpt lat="42.77234" lon="1.4108">
        <ele>1951.1330566406</ele>
        <time>2012-06-24T10:44:04Z</time>
      </trkpt>
      <trkpt lat="42.77238" lon="1.41087">
        <ele>1949.2104492188</ele>
        <time>2012-06-24T10:44:10Z</time>
      </trkpt>
      <trkpt lat="42.77237" lon="1.41091">
        <ele>1948.7297363281</ele>
        <time>2012-06-24T10:44:13Z</time>
      </trkpt>
      <trkpt lat="42.77237" lon="1.41096">
        <ele>1949.6911621094</ele>
        <time>2012-06-24T10:44:17Z</time>
      </trkpt>
      <trkpt lat="42.77239" lon="1.41106">
        <ele>1950.171875</ele>
        <time>2012-06-24T10:44:26Z</time>
      </trkpt>
      <trkpt lat="42.77239" lon="1.41113">
        <ele>1949.2104492188</ele>
        <time>2012-06-24T10:44:31Z</time>
      </trkpt>
      <trkpt lat="42.77239" lon="1.41115">
        <ele>1948.7297363281</ele>
        <time>2012-06-24T10:44:32Z</time>
      </trkpt>
      <trkpt lat="42.77238" lon="1.41122">
        <ele>1948.2490234375</ele>
        <time>2012-06-24T10:44:36Z</time>
      </trkpt>
      <trkpt lat="42.77241" lon="1.41133">
        <ele>1947.7683105469</ele>
        <time>2012-06-24T10:44:42Z</time>
      </trkpt>
      <trkpt lat="42.77243" lon="1.41141">
        <ele>1946.3264160156</ele>
        <time>2012-06-24T10:44:46Z</time>
      </trkpt>
      <trkpt lat="42.77243" lon="1.41143">
        <ele>1946.3264160156</ele>
        <time>2012-06-24T10:44:47Z</time>
      </trkpt>
      <trkpt lat="42.77243" lon="1.41148">
        <ele>1945.845703125</ele>
        <time>2012-06-24T10:44:50Z</time>
      </trkpt>
      <trkpt lat="42.77244" lon="1.41161">
        <ele>1945.3649902344</ele>
        <time>2012-06-24T10:44:56Z</time>
      </trkpt>
      <trkpt lat="42.77246" lon="1.41168">
        <ele>1943.9230957031</ele>
        <time>2012-06-24T10:45:01Z</time>
      </trkpt>
      <trkpt lat="42.77244" lon="1.41175">
        <ele>1942.4812011719</ele>
        <time>2012-06-24T10:45:07Z</time>
      </trkpt>
      <trkpt lat="42.77237" lon="1.41175">
        <ele>1942.0004882812</ele>
        <time>2012-06-24T10:45:13Z</time>
      </trkpt>
      <trkpt lat="42.77233" lon="1.41176">
        <ele>1941.0390625</ele>
        <time>2012-06-24T10:45:19Z</time>
      </trkpt>
      <trkpt lat="42.77227" lon="1.41178">
        <ele>1939.1164550781</ele>
        <time>2012-06-24T10:45:23Z</time>
      </trkpt>
      <trkpt lat="42.77217" lon="1.41181">
        <ele>1936.2326660156</ele>
        <time>2012-06-24T10:45:28Z</time>
      </trkpt>
      <trkpt lat="42.77209" lon="1.41186">
        <ele>1934.7907714844</ele>
        <time>2012-06-24T10:45:33Z</time>
      </trkpt>
      <trkpt lat="42.77202" lon="1.41185">
        <ele>1933.8293457031</ele>
        <time>2012-06-24T10:45:39Z</time>
      </trkpt>
      <trkpt lat="42.77198" lon="1.41188">
        <ele>1932.8679199219</ele>
        <time>2012-06-24T10:45:43Z</time>
      </trkpt>
      <trkpt lat="42.77194" lon="1.41189">
        <ele>1930.9453125</ele>
        <time>2012-06-24T10:45:48Z</time>
      </trkpt>
      <trkpt lat="42.77192" lon="1.41189">
        <ele>1929.5031738281</ele>
        <time>2012-06-24T10:45:52Z</time>
      </trkpt>
      <trkpt lat="42.77187" lon="1.4119">
        <ele>1928.0612792969</ele>
        <time>2012-06-24T10:45:56Z</time>
      </trkpt>
      <trkpt lat="42.77185" lon="1.4119">
        <ele>1926.138671875</ele>
        <time>2012-06-24T10:46:02Z</time>
      </trkpt>
      <trkpt lat="42.77182" lon="1.41193">
        <ele>1923.2548828125</ele>
        <time>2012-06-24T10:46:07Z</time>
      </trkpt>
      <trkpt lat="42.77181" lon="1.41194">
        <ele>1921.8127441406</ele>
        <time>2012-06-24T10:46:14Z</time>
      </trkpt>
      <trkpt lat="42.77179" lon="1.41208">
        <ele>1919.4096679688</ele>
        <time>2012-06-24T10:46:18Z</time>
      </trkpt>
      <trkpt lat="42.77168" lon="1.4121">
        <ele>1916.044921875</ele>
        <time>2012-06-24T10:46:23Z</time>
      </trkpt>
      <trkpt lat="42.77153" lon="1.41215">
        <ele>1910.2768554688</ele>
        <time>2012-06-24T10:46:30Z</time>
      </trkpt>
      <trkpt lat="42.77145" lon="1.41212">
        <ele>1907.3930664062</ele>
        <time>2012-06-24T10:46:34Z</time>
      </trkpt>
      <trkpt lat="42.77137" lon="1.4121">
        <ele>1904.5090332031</ele>
        <time>2012-06-24T10:46:38Z</time>
      </trkpt>
      <trkpt lat="42.77134" lon="1.4121">
        <ele>1904.0285644531</ele>
        <time>2012-06-24T10:46:41Z</time>
      </trkpt>
      <trkpt lat="42.77131" lon="1.41208">
        <ele>1902.1057128906</ele>
        <time>2012-06-24T10:46:45Z</time>
      </trkpt>
      <trkpt lat="42.77124" lon="1.41208">
        <ele>1900.1833496094</ele>
        <time>2012-06-24T10:46:50Z</time>
      </trkpt>
      <trkpt lat="42.77119" lon="1.41207">
        <ele>1898.7409667969</ele>
        <time>2012-06-24T10:46:54Z</time>
      </trkpt>
      <trkpt lat="42.77111" lon="1.41209">
        <ele>1896.818359375</ele>
        <time>2012-06-24T10:46:59Z</time>
      </trkpt>
      <trkpt lat="42.77105" lon="1.41213">
        <ele>1895.3764648438</ele>
        <time>2012-06-24T10:47:04Z</time>
      </trkpt>
      <trkpt lat="42.77101" lon="1.41218">
        <ele>1894.8957519531</ele>
        <time>2012-06-24T10:47:10Z</time>
      </trkpt>
      <trkpt lat="42.77098" lon="1.41221">
        <ele>1894.4150390625</ele>
        <time>2012-06-24T10:47:16Z</time>
      </trkpt>
      <trkpt lat="42.77095" lon="1.41225">
        <ele>1892.4926757812</ele>
        <time>2012-06-24T10:47:21Z</time>
      </trkpt>
      <trkpt lat="42.77091" lon="1.41227">
        <ele>1892.0119628906</ele>
        <time>2012-06-24T10:47:24Z</time>
      </trkpt>
      <trkpt lat="42.77085" lon="1.41229">
        <ele>1890.0893554688</ele>
        <time>2012-06-24T10:47:31Z</time>
      </trkpt>
      <trkpt lat="42.77081" lon="1.41229">
        <ele>1887.6860351562</ele>
        <time>2012-06-24T10:47:37Z</time>
      </trkpt>
      <trkpt lat="42.77078" lon="1.41232">
        <ele>1886.724609375</ele>
        <time>2012-06-24T10:47:39Z</time>
      </trkpt>
      <trkpt lat="42.77079" lon="1.41238">
        <ele>1885.2827148438</ele>
        <time>2012-06-24T10:47:45Z</time>
      </trkpt>
      <trkpt lat="42.7708" lon="1.41241">
        <ele>1883.8405761719</ele>
        <time>2012-06-24T10:47:48Z</time>
      </trkpt>
      <trkpt lat="42.77078" lon="1.4125">
        <ele>1881.91796875</ele>
        <time>2012-06-24T10:47:56Z</time>
      </trkpt>
      <trkpt lat="42.77077" lon="1.41255">
        <ele>1880.9567871094</ele>
        <time>2012-06-24T10:48:01Z</time>
      </trkpt>
      <trkpt lat="42.77073" lon="1.41255">
        <ele>1879.0339355469</ele>
        <time>2012-06-24T10:48:07Z</time>
      </trkpt>
      <trkpt lat="42.77071" lon="1.41257">
        <ele>1877.5920410156</ele>
        <time>2012-06-24T10:48:12Z</time>
      </trkpt>
      <trkpt lat="42.77071" lon="1.41263">
        <ele>1875.6694335938</ele>
        <time>2012-06-24T10:48:19Z</time>
      </trkpt>
      <trkpt lat="42.77071" lon="1.41267">
        <ele>1873.7468261719</ele>
        <time>2012-06-24T10:48:23Z</time>
      </trkpt>
      <trkpt lat="42.77069" lon="1.41271">
        <ele>1873.2663574219</ele>
        <time>2012-06-24T10:48:26Z</time>
      </trkpt>
      <trkpt lat="42.77066" lon="1.41272">
        <ele>1871.3435058594</ele>
        <time>2012-06-24T10:48:32Z</time>
      </trkpt>
      <trkpt lat="42.77063" lon="1.41271">
        <ele>1869.4211425781</ele>
        <time>2012-06-24T10:48:38Z</time>
      </trkpt>
      <trkpt lat="42.77059" lon="1.4127">
        <ele>1867.498046875</ele>
        <time>2012-06-24T10:48:44Z</time>
      </trkpt>
      <trkpt lat="42.77055" lon="1.41269">
        <ele>1865.5756835938</ele>
        <time>2012-06-24T10:48:48Z</time>
      </trkpt>
      <trkpt lat="42.77052" lon="1.41267">
        <ele>1865.0949707031</ele>
        <time>2012-06-24T10:48:50Z</time>
      </trkpt>
      <trkpt lat="42.77044" lon="1.41258">
        <ele>1863.1723632812</ele>
        <time>2012-06-24T10:48:55Z</time>
      </trkpt>
      <trkpt lat="42.77044" lon="1.41249">
        <ele>1862.2109375</ele>
        <time>2012-06-24T10:48:59Z</time>
      </trkpt>
      <trkpt lat="42.77045" lon="1.41247">
        <ele>1860.2883300781</ele>
        <time>2012-06-24T10:49:03Z</time>
      </trkpt>
      <trkpt lat="42.77042" lon="1.41242">
        <ele>1858.3657226562</ele>
        <time>2012-06-24T10:49:09Z</time>
      </trkpt>
      <trkpt lat="42.77039" lon="1.41237">
        <ele>1856.923828125</ele>
        <time>2012-06-24T10:49:14Z</time>
      </trkpt>
      <trkpt lat="42.77036" lon="1.41233">
        <ele>1855.4819335938</ele>
        <time>2012-06-24T10:49:19Z</time>
      </trkpt>
      <trkpt lat="42.77035" lon="1.41232">
        <ele>1855.0012207031</ele>
        <time>2012-06-24T10:49:20Z</time>
      </trkpt>
      <trkpt lat="42.77029" lon="1.41231">
        <ele>1854.0400390625</ele>
        <time>2012-06-24T10:49:25Z</time>
      </trkpt>
      <trkpt lat="42.77027" lon="1.41226">
        <ele>1852.1171875</ele>
        <time>2012-06-24T10:49:31Z</time>
      </trkpt>
      <trkpt lat="42.77028" lon="1.41218">
        <ele>1849.7138671875</ele>
        <time>2012-06-24T10:49:37Z</time>
      </trkpt>
      <trkpt lat="42.77029" lon="1.41214">
        <ele>1848.7524414062</ele>
        <time>2012-06-24T10:49:43Z</time>
      </trkpt>
      <trkpt lat="42.77026" lon="1.41214">
        <ele>1848.7524414062</ele>
        <time>2012-06-24T10:49:49Z</time>
      </trkpt>
      <trkpt lat="42.77023" lon="1.41214">
        <ele>1847.310546875</ele>
        <time>2012-06-24T10:49:54Z</time>
      </trkpt>
      <trkpt lat="42.77019" lon="1.41221">
        <ele>1844.4265136719</ele>
        <time>2012-06-24T10:50:01Z</time>
      </trkpt>
      <trkpt lat="42.77016" lon="1.41221">
        <ele>1842.9846191406</ele>
        <time>2012-06-24T10:50:06Z</time>
      </trkpt>
      <trkpt lat="42.77013" lon="1.41225">
        <ele>1842.0234375</ele>
        <time>2012-06-24T10:50:11Z</time>
      </trkpt>
      <trkpt lat="42.7701" lon="1.41226">
        <ele>1840.5812988281</ele>
        <time>2012-06-24T10:50:17Z</time>
      </trkpt>
      <trkpt lat="42.77009" lon="1.41222">
        <ele>1839.1394042969</ele>
        <time>2012-06-24T10:50:22Z</time>
      </trkpt>
      <trkpt lat="42.77006" lon="1.41219">
        <ele>1837.6975097656</ele>
        <time>2012-06-24T10:50:29Z</time>
      </trkpt>
      <trkpt lat="42.77002" lon="1.41217">
        <ele>1835.2939453125</ele>
        <time>2012-06-24T10:50:34Z</time>
      </trkpt>
      <trkpt lat="42.77" lon="1.41213">
        <ele>1833.3713378906</ele>
        <time>2012-06-24T10:50:39Z</time>
      </trkpt>
      <trkpt lat="42.76997" lon="1.4121">
        <ele>1830.9682617188</ele>
        <time>2012-06-24T10:50:45Z</time>
      </trkpt>
      <trkpt lat="42.76993" lon="1.41212">
        <ele>1829.5261230469</ele>
        <time>2012-06-24T10:50:51Z</time>
      </trkpt>
      <trkpt lat="42.76987" lon="1.41215">
        <ele>1828.0842285156</ele>
        <time>2012-06-24T10:50:57Z</time>
      </trkpt>
      <trkpt lat="42.76986" lon="1.41218">
        <ele>1827.123046875</ele>
        <time>2012-06-24T10:50:59Z</time>
      </trkpt>
      <trkpt lat="42.76987" lon="1.41224">
        <ele>1825.6809082031</ele>
        <time>2012-06-24T10:51:03Z</time>
      </trkpt>
      <trkpt lat="42.76986" lon="1.41229">
        <ele>1823.2778320312</ele>
        <time>2012-06-24T10:51:09Z</time>
      </trkpt>
      <trkpt lat="42.76984" lon="1.41233">
        <ele>1820.8745117188</ele>
        <time>2012-06-24T10:51:15Z</time>
      </trkpt>
      <trkpt lat="42.76981" lon="1.41237">
        <ele>1818.9516601562</ele>
        <time>2012-06-24T10:51:21Z</time>
      </trkpt>
      <trkpt lat="42.76979" lon="1.41241">
        <ele>1818.4709472656</ele>
        <time>2012-06-24T10:51:26Z</time>
      </trkpt>
      <trkpt lat="42.76976" lon="1.41247">
        <ele>1816.5483398438</ele>
        <time>2012-06-24T10:51:32Z</time>
      </trkpt>
      <trkpt lat="42.76974" lon="1.41253">
        <ele>1814.1450195312</ele>
        <time>2012-06-24T10:51:39Z</time>
      </trkpt>
      <trkpt lat="42.7697" lon="1.41258">
        <ele>1812.2224121094</ele>
        <time>2012-06-24T10:51:44Z</time>
      </trkpt>
      <trkpt lat="42.76968" lon="1.41257">
        <ele>1810.7805175781</ele>
        <time>2012-06-24T10:51:49Z</time>
      </trkpt>
      <trkpt lat="42.76966" lon="1.4126">
        <ele>1809.8190917969</ele>
        <time>2012-06-24T10:51:54Z</time>
      </trkpt>
      <trkpt lat="42.76962" lon="1.41268">
        <ele>1809.3386230469</ele>
        <time>2012-06-24T10:51:59Z</time>
      </trkpt>
      <trkpt lat="42.7696" lon="1.41272">
        <ele>1808.8579101562</ele>
        <time>2012-06-24T10:52:02Z</time>
      </trkpt>
      <trkpt lat="42.76959" lon="1.41277">
        <ele>1808.3771972656</ele>
        <time>2012-06-24T10:52:06Z</time>
      </trkpt>
      <trkpt lat="42.76958" lon="1.41285">
        <ele>1807.416015625</ele>
        <time>2012-06-24T10:52:10Z</time>
      </trkpt>
      <trkpt lat="42.76958" lon="1.41293">
        <ele>1805.9738769531</ele>
        <time>2012-06-24T10:52:16Z</time>
      </trkpt>
      <trkpt lat="42.76956" lon="1.41298">
        <ele>1804.0515136719</ele>
        <time>2012-06-24T10:52:22Z</time>
      </trkpt>
      <trkpt lat="42.76955" lon="1.41303">
        <ele>1802.1284179688</ele>
        <time>2012-06-24T10:52:27Z</time>
      </trkpt>
      <trkpt lat="42.76953" lon="1.41307">
        <ele>1800.2060546875</ele>
        <time>2012-06-24T10:52:31Z</time>
      </trkpt>
      <trkpt lat="42.76951" lon="1.41314">
        <ele>1799.2446289062</ele>
        <time>2012-06-24T10:52:36Z</time>
      </trkpt>
      <trkpt lat="42.7695" lon="1.41319">
        <ele>1797.802734375</ele>
        <time>2012-06-24T10:52:40Z</time>
      </trkpt>
      <trkpt lat="42.76948" lon="1.41321">
        <ele>1797.3220214844</ele>
        <time>2012-06-24T10:52:42Z</time>
      </trkpt>
      <trkpt lat="42.76946" lon="1.4133">
        <ele>1795.3994140625</ele>
        <time>2012-06-24T10:52:50Z</time>
      </trkpt>
      <trkpt lat="42.76945" lon="1.41336">
        <ele>1792.99609375</ele>
        <time>2012-06-24T10:52:57Z</time>
      </trkpt>
      <trkpt lat="42.76944" lon="1.41339">
        <ele>1791.5541992188</ele>
        <time>2012-06-24T10:53:01Z</time>
      </trkpt>
      <trkpt lat="42.76944" lon="1.41344">
        <ele>1791.0734863281</ele>
        <time>2012-06-24T10:53:05Z</time>
      </trkpt>
      <trkpt lat="42.76942" lon="1.41348">
        <ele>1789.1508789062</ele>
        <time>2012-06-24T10:53:10Z</time>
      </trkpt>
      <trkpt lat="42.7694" lon="1.41353">
        <ele>1787.7087402344</ele>
        <time>2012-06-24T10:53:14Z</time>
      </trkpt>
      <trkpt lat="42.76937" lon="1.41358">
        <ele>1785.3054199219</ele>
        <time>2012-06-24T10:53:20Z</time>
      </trkpt>
      <trkpt lat="42.76934" lon="1.41363">
        <ele>1781.9409179688</ele>
        <time>2012-06-24T10:53:25Z</time>
      </trkpt>
      <trkpt lat="42.76931" lon="1.41367">
        <ele>1780.0183105469</ele>
        <time>2012-06-24T10:53:31Z</time>
      </trkpt>
      <trkpt lat="42.7693" lon="1.41372">
        <ele>1779.0568847656</ele>
        <time>2012-06-24T10:53:36Z</time>
      </trkpt>
      <trkpt lat="42.76931" lon="1.41377">
        <ele>1776.6538085938</ele>
        <time>2012-06-24T10:53:41Z</time>
      </trkpt>
      <trkpt lat="42.76929" lon="1.4138">
        <ele>1776.1730957031</ele>
        <time>2012-06-24T10:53:46Z</time>
      </trkpt>
      <trkpt lat="42.76927" lon="1.41384">
        <ele>1775.2116699219</ele>
        <time>2012-06-24T10:53:51Z</time>
      </trkpt>
      <trkpt lat="42.76927" lon="1.41392">
        <ele>1772.3278808594</ele>
        <time>2012-06-24T10:53:57Z</time>
      </trkpt>
      <trkpt lat="42.76929" lon="1.41397">
        <ele>1770.8857421875</ele>
        <time>2012-06-24T10:54:03Z</time>
      </trkpt>
      <trkpt lat="42.76927" lon="1.41399">
        <ele>1769.4438476562</ele>
        <time>2012-06-24T10:54:07Z</time>
      </trkpt>
      <trkpt lat="42.76923" lon="1.41396">
        <ele>1768.9631347656</ele>
        <time>2012-06-24T10:54:12Z</time>
      </trkpt>
      <trkpt lat="42.7692" lon="1.41395">
        <ele>1767.5209960938</ele>
        <time>2012-06-24T10:54:18Z</time>
      </trkpt>
      <trkpt lat="42.7692" lon="1.414">
        <ele>1765.1179199219</ele>
        <time>2012-06-24T10:54:24Z</time>
      </trkpt>
      <trkpt lat="42.76915" lon="1.414">
        <ele>1762.7145996094</ele>
        <time>2012-06-24T10:54:30Z</time>
      </trkpt>
      <trkpt lat="42.76915" lon="1.41408">
        <ele>1761.2727050781</ele>
        <time>2012-06-24T10:54:38Z</time>
      </trkpt>
      <trkpt lat="42.76912" lon="1.41408">
        <ele>1760.3112792969</ele>
        <time>2012-06-24T10:54:43Z</time>
      </trkpt>
      <trkpt lat="42.76909" lon="1.41405">
        <ele>1758.8693847656</ele>
        <time>2012-06-24T10:54:48Z</time>
      </trkpt>
      <trkpt lat="42.76907" lon="1.41403">
        <ele>1755.5046386719</ele>
        <time>2012-06-24T10:54:54Z</time>
      </trkpt>
      <trkpt lat="42.76904" lon="1.41404">
        <ele>1753.58203125</ele>
        <time>2012-06-24T10:54:59Z</time>
      </trkpt>
      <trkpt lat="42.76902" lon="1.41405">
        <ele>1752.6206054688</ele>
        <time>2012-06-24T10:55:04Z</time>
      </trkpt>
      <trkpt lat="42.76899" lon="1.41405">
        <ele>1751.6594238281</ele>
        <time>2012-06-24T10:55:10Z</time>
      </trkpt>
      <trkpt lat="42.76899" lon="1.41413">
        <ele>1749.7368164062</ele>
        <time>2012-06-24T10:55:16Z</time>
      </trkpt>
      <trkpt lat="42.76896" lon="1.41413">
        <ele>1748.775390625</ele>
        <time>2012-06-24T10:55:21Z</time>
      </trkpt>
      <trkpt lat="42.76893" lon="1.41411">
        <ele>1748.775390625</ele>
        <time>2012-06-24T10:55:24Z</time>
      </trkpt>
      <trkpt lat="42.7689" lon="1.41404">
        <ele>1747.8142089844</ele>
        <time>2012-06-24T10:55:28Z</time>
      </trkpt>
      <trkpt lat="42.76886" lon="1.41402">
        <ele>1747.8142089844</ele>
        <time>2012-06-24T10:55:32Z</time>
      </trkpt>
      <trkpt lat="42.7688" lon="1.41403">
        <ele>1747.3334960938</ele>
        <time>2012-06-24T10:55:38Z</time>
      </trkpt>
      <trkpt lat="42.76878" lon="1.41399">
        <ele>1745.8916015625</ele>
        <time>2012-06-24T10:55:44Z</time>
      </trkpt>
      <trkpt lat="42.76878" lon="1.41397">
        <ele>1744.4494628906</ele>
        <time>2012-06-24T10:55:49Z</time>
      </trkpt>
      <trkpt lat="42.76876" lon="1.41393">
        <ele>1741.5656738281</ele>
        <time>2012-06-24T10:55:55Z</time>
      </trkpt>
      <trkpt lat="42.76873" lon="1.41391">
        <ele>1740.1237792969</ele>
        <time>2012-06-24T10:56:00Z</time>
      </trkpt>
      <trkpt lat="42.76869" lon="1.41389">
        <ele>1737.7202148438</ele>
        <time>2012-06-24T10:56:06Z</time>
      </trkpt>
      <trkpt lat="42.76866" lon="1.4139">
        <ele>1736.7587890625</ele>
        <time>2012-06-24T10:56:10Z</time>
      </trkpt>
      <trkpt lat="42.76863" lon="1.41393">
        <ele>1734.8364257812</ele>
        <time>2012-06-24T10:56:15Z</time>
      </trkpt>
      <trkpt lat="42.76859" lon="1.41397">
        <ele>1732.4331054688</ele>
        <time>2012-06-24T10:56:22Z</time>
      </trkpt>
      <trkpt lat="42.76856" lon="1.41401">
        <ele>1729.068359375</ele>
        <time>2012-06-24T10:56:28Z</time>
      </trkpt>
      <trkpt lat="42.76852" lon="1.41407">
        <ele>1727.6264648438</ele>
        <time>2012-06-24T10:56:35Z</time>
      </trkpt>
      <trkpt lat="42.76848" lon="1.41411">
        <ele>1727.1459960938</ele>
        <time>2012-06-24T10:56:41Z</time>
      </trkpt>
      <trkpt lat="42.76845" lon="1.41409">
        <ele>1724.7426757812</ele>
        <time>2012-06-24T10:56:46Z</time>
      </trkpt>
      <trkpt lat="42.7684" lon="1.41406">
        <ele>1723.7810058594</ele>
        <time>2012-06-24T10:56:51Z</time>
      </trkpt>
      <trkpt lat="42.76836" lon="1.41409">
        <ele>1721.8583984375</ele>
        <time>2012-06-24T10:56:56Z</time>
      </trkpt>
      <trkpt lat="42.76832" lon="1.41416">
        <ele>1720.8972167969</ele>
        <time>2012-06-24T10:57:00Z</time>
      </trkpt>
      <trkpt lat="42.76826" lon="1.41429">
        <ele>1716.5712890625</ele>
        <time>2012-06-24T10:57:06Z</time>
      </trkpt>
      <trkpt lat="42.76821" lon="1.41434">
        <ele>1715.6101074219</ele>
        <time>2012-06-24T10:57:10Z</time>
      </trkpt>
      <trkpt lat="42.7682" lon="1.41436">
        <ele>1715.1293945312</ele>
        <time>2012-06-24T10:57:12Z</time>
      </trkpt>
      <trkpt lat="42.76817" lon="1.41439">
        <ele>1714.16796875</ele>
        <time>2012-06-24T10:57:18Z</time>
      </trkpt>
      <trkpt lat="42.76812" lon="1.41445">
        <ele>1712.7260742188</ele>
        <time>2012-06-24T10:57:24Z</time>
      </trkpt>
      <trkpt lat="42.76808" lon="1.41452">
        <ele>1711.2841796875</ele>
        <time>2012-06-24T10:57:29Z</time>
      </trkpt>
      <trkpt lat="42.76804" lon="1.41457">
        <ele>1709.3615722656</ele>
        <time>2012-06-24T10:57:34Z</time>
      </trkpt>
      <trkpt lat="42.76799" lon="1.41459">
        <ele>1706.4772949219</ele>
        <time>2012-06-24T10:57:41Z</time>
      </trkpt>
      <trkpt lat="42.76795" lon="1.41461">
        <ele>1703.5935058594</ele>
        <time>2012-06-24T10:57:47Z</time>
      </trkpt>
      <trkpt lat="42.76794" lon="1.41463">
        <ele>1701.6708984375</ele>
        <time>2012-06-24T10:57:51Z</time>
      </trkpt>
      <trkpt lat="42.76793" lon="1.41466">
        <ele>1700.7094726562</ele>
        <time>2012-06-24T10:57:55Z</time>
      </trkpt>
      <trkpt lat="42.7679" lon="1.41464">
        <ele>1699.7482910156</ele>
        <time>2012-06-24T10:58:00Z</time>
      </trkpt>
      <trkpt lat="42.76786" lon="1.41464">
        <ele>1698.3061523438</ele>
        <time>2012-06-24T10:58:05Z</time>
      </trkpt>
      <trkpt lat="42.76783" lon="1.41463">
        <ele>1696.3837890625</ele>
        <time>2012-06-24T10:58:10Z</time>
      </trkpt>
      <trkpt lat="42.76778" lon="1.41459">
        <ele>1695.4223632812</ele>
        <time>2012-06-24T10:58:15Z</time>
      </trkpt>
      <trkpt lat="42.76777" lon="1.41457">
        <ele>1694.9416503906</ele>
        <time>2012-06-24T10:58:17Z</time>
      </trkpt>
      <trkpt lat="42.76772" lon="1.41452">
        <ele>1694.9416503906</ele>
        <time>2012-06-24T10:58:23Z</time>
      </trkpt>
      <trkpt lat="42.7677" lon="1.41451">
        <ele>1694.4609375</ele>
        <time>2012-06-24T10:58:25Z</time>
      </trkpt>
      <trkpt lat="42.76768" lon="1.41453">
        <ele>1692.5385742188</ele>
        <time>2012-06-24T10:58:30Z</time>
      </trkpt>
      <trkpt lat="42.7677" lon="1.4146">
        <ele>1691.5769042969</ele>
        <time>2012-06-24T10:58:33Z</time>
      </trkpt>
      <trkpt lat="42.76766" lon="1.41463">
        <ele>1690.1350097656</ele>
        <time>2012-06-24T10:58:38Z</time>
      </trkpt>
      <trkpt lat="42.7676" lon="1.41463">
        <ele>1686.7702636719</ele>
        <time>2012-06-24T10:58:45Z</time>
      </trkpt>
      <trkpt lat="42.76756" lon="1.41461">
        <ele>1686.2897949219</ele>
        <time>2012-06-24T10:58:50Z</time>
      </trkpt>
      <trkpt lat="42.76751" lon="1.41456">
        <ele>1686.2897949219</ele>
        <time>2012-06-24T10:58:55Z</time>
      </trkpt>
      <trkpt lat="42.76744" lon="1.41455">
        <ele>1685.8090820312</ele>
        <time>2012-06-24T10:59:00Z</time>
      </trkpt>
      <trkpt lat="42.7674" lon="1.41455">
        <ele>1684.8479003906</ele>
        <time>2012-06-24T10:59:05Z</time>
      </trkpt>
      <trkpt lat="42.76733" lon="1.41457">
        <ele>1682.4445800781</ele>
        <time>2012-06-24T10:59:13Z</time>
      </trkpt>
      <trkpt lat="42.76733" lon="1.41453">
        <ele>1680.5219726562</ele>
        <time>2012-06-24T10:59:18Z</time>
      </trkpt>
      <trkpt lat="42.7673" lon="1.41455">
        <ele>1678.5993652344</ele>
        <time>2012-06-24T10:59:23Z</time>
      </trkpt>
      <trkpt lat="42.76725" lon="1.41458">
        <ele>1676.1960449219</ele>
        <time>2012-06-24T10:59:29Z</time>
      </trkpt>
      <trkpt lat="42.7672" lon="1.41457">
        <ele>1675.7150878906</ele>
        <time>2012-06-24T10:59:33Z</time>
      </trkpt>
      <trkpt lat="42.76711" lon="1.4145">
        <ele>1673.3120117188</ele>
        <time>2012-06-24T10:59:38Z</time>
      </trkpt>
      <trkpt lat="42.76706" lon="1.41446">
        <ele>1672.3505859375</ele>
        <time>2012-06-24T10:59:42Z</time>
      </trkpt>
      <trkpt lat="42.76704" lon="1.41449">
        <ele>1671.8698730469</ele>
        <time>2012-06-24T10:59:46Z</time>
      </trkpt>
      <trkpt lat="42.76702" lon="1.4145">
        <ele>1671.3891601562</ele>
        <time>2012-06-24T10:59:48Z</time>
      </trkpt>
      <trkpt lat="42.76695" lon="1.4145">
        <ele>1670.9086914062</ele>
        <time>2012-06-24T10:59:53Z</time>
      </trkpt>
      <trkpt lat="42.7669" lon="1.41453">
        <ele>1670.4279785156</ele>
        <time>2012-06-24T10:59:56Z</time>
      </trkpt>
      <trkpt lat="42.76682" lon="1.41457">
        <ele>1669.466796875</ele>
        <time>2012-06-24T11:00:00Z</time>
      </trkpt>
      <trkpt lat="42.76675" lon="1.41462">
        <ele>1669.947265625</ele>
        <time>2012-06-24T11:00:03Z</time>
      </trkpt>
      <trkpt lat="42.76668" lon="1.41464">
        <ele>1669.466796875</ele>
        <time>2012-06-24T11:00:09Z</time>
      </trkpt>
      <trkpt lat="42.76662" lon="1.41473">
        <ele>1668.5053710938</ele>
        <time>2012-06-24T11:00:16Z</time>
      </trkpt>
      <trkpt lat="42.76659" lon="1.41477">
        <ele>1668.0246582031</ele>
        <time>2012-06-24T11:00:20Z</time>
      </trkpt>
      <trkpt lat="42.76656" lon="1.41484">
        <ele>1667.0634765625</ele>
        <time>2012-06-24T11:00:27Z</time>
      </trkpt>
      <trkpt lat="42.76655" lon="1.41488">
        <ele>1666.5827636719</ele>
        <time>2012-06-24T11:00:33Z</time>
      </trkpt>
      <trkpt lat="42.76655" lon="1.41494">
        <ele>1666.1020507812</ele>
        <time>2012-06-24T11:00:40Z</time>
      </trkpt>
      <trkpt lat="42.76656" lon="1.41497">
        <ele>1665.1408691406</ele>
        <time>2012-06-24T11:00:47Z</time>
      </trkpt>
      <trkpt lat="42.76654" lon="1.41507">
        <ele>1665.1408691406</ele>
        <time>2012-06-24T11:00:51Z</time>
      </trkpt>
      <trkpt lat="42.76652" lon="1.41515">
        <ele>1664.66015625</ele>
        <time>2012-06-24T11:00:54Z</time>
      </trkpt>
      <trkpt lat="42.76648" lon="1.41523">
        <ele>1663.2182617188</ele>
        <time>2012-06-24T11:00:59Z</time>
      </trkpt>
      <trkpt lat="42.76647" lon="1.41525">
        <ele>1663.2182617188</ele>
        <time>2012-06-24T11:01:00Z</time>
      </trkpt>
      <trkpt lat="42.7664" lon="1.41542">
        <ele>1661.7763671875</ele>
        <time>2012-06-24T11:01:06Z</time>
      </trkpt>
      <trkpt lat="42.76638" lon="1.41553">
        <ele>1661.7763671875</ele>
        <time>2012-06-24T11:01:10Z</time>
      </trkpt>
      <trkpt lat="42.76636" lon="1.4156">
        <ele>1661.7763671875</ele>
        <time>2012-06-24T11:01:15Z</time>
      </trkpt>
      <trkpt lat="42.76635" lon="1.41561">
        <ele>1661.2956542969</ele>
        <time>2012-06-24T11:01:17Z</time>
      </trkpt>
      <trkpt lat="42.76635" lon="1.41566">
        <ele>1661.7763671875</ele>
        <time>2012-06-24T11:01:21Z</time>
      </trkpt>
      <trkpt lat="42.76633" lon="1.41573">
        <ele>1663.2182617188</ele>
        <time>2012-06-24T11:01:27Z</time>
      </trkpt>
      <trkpt lat="42.76633" lon="1.41577">
        <ele>1663.6987304688</ele>
        <time>2012-06-24T11:01:29Z</time>
      </trkpt>
      <trkpt lat="42.76633" lon="1.41583">
        <ele>1664.66015625</ele>
        <time>2012-06-24T11:01:33Z</time>
      </trkpt>
      <trkpt lat="42.76633" lon="1.41592">
        <ele>1665.1408691406</ele>
        <time>2012-06-24T11:01:38Z</time>
      </trkpt>
      <trkpt lat="42.76634" lon="1.41604">
        <ele>1664.66015625</ele>
        <time>2012-06-24T11:01:44Z</time>
      </trkpt>
      <trkpt lat="42.7663" lon="1.41612">
        <ele>1664.66015625</ele>
        <time>2012-06-24T11:01:49Z</time>
      </trkpt>
      <trkpt lat="42.76625" lon="1.4162">
        <ele>1665.6215820312</ele>
        <time>2012-06-24T11:01:55Z</time>
      </trkpt>
      <trkpt lat="42.76621" lon="1.41628">
        <ele>1666.5827636719</ele>
        <time>2012-06-24T11:02:00Z</time>
      </trkpt>
      <trkpt lat="42.76617" lon="1.41634">
        <ele>1666.1020507812</ele>
        <time>2012-06-24T11:02:05Z</time>
      </trkpt>
      <trkpt lat="42.76612" lon="1.41644">
        <ele>1666.5827636719</ele>
        <time>2012-06-24T11:02:12Z</time>
      </trkpt>
      <trkpt lat="42.76612" lon="1.41646">
        <ele>1666.5827636719</ele>
        <time>2012-06-24T11:02:13Z</time>
      </trkpt>
      <trkpt lat="42.76608" lon="1.41655">
        <ele>1667.5439453125</ele>
        <time>2012-06-24T11:02:21Z</time>
      </trkpt>
      <trkpt lat="42.76602" lon="1.41659">
        <ele>1668.0246582031</ele>
        <time>2012-06-24T11:02:27Z</time>
      </trkpt>
      <trkpt lat="42.76598" lon="1.41663">
        <ele>1667.5439453125</ele>
        <time>2012-06-24T11:02:31Z</time>
      </trkpt>
      <trkpt lat="42.76597" lon="1.41665">
        <ele>1666.5827636719</ele>
        <time>2012-06-24T11:02:36Z</time>
      </trkpt>
      <trkpt lat="42.76593" lon="1.41673">
        <ele>1665.6215820312</ele>
        <time>2012-06-24T11:02:39Z</time>
      </trkpt>
      <trkpt lat="42.7659" lon="1.41682">
        <ele>1665.1408691406</ele>
        <time>2012-06-24T11:02:42Z</time>
      </trkpt>
      <trkpt lat="42.76593" lon="1.417">
        <ele>1661.7763671875</ele>
        <time>2012-06-24T11:02:48Z</time>
      </trkpt>
      <trkpt lat="42.76596" lon="1.41709">
        <ele>1660.3342285156</ele>
        <time>2012-06-24T11:02:52Z</time>
      </trkpt>
      <trkpt lat="42.76603" lon="1.41717">
        <ele>1660.3342285156</ele>
        <time>2012-06-24T11:02:59Z</time>
      </trkpt>
      <trkpt lat="42.76607" lon="1.41726">
        <ele>1660.3342285156</ele>
        <time>2012-06-24T11:03:05Z</time>
      </trkpt>
      <trkpt lat="42.76611" lon="1.41732">
        <ele>1660.3342285156</ele>
        <time>2012-06-24T11:03:10Z</time>
      </trkpt>
      <trkpt lat="42.76612" lon="1.41733">
        <ele>1660.8149414062</ele>
        <time>2012-06-24T11:03:11Z</time>
      </trkpt>
      <trkpt lat="42.76616" lon="1.4174">
        <ele>1661.7763671875</ele>
        <time>2012-06-24T11:03:17Z</time>
      </trkpt>
      <trkpt lat="42.7662" lon="1.41747">
        <ele>1662.7375488281</ele>
        <time>2012-06-24T11:03:23Z</time>
      </trkpt>
      <trkpt lat="42.76626" lon="1.41756">
        <ele>1662.7375488281</ele>
        <time>2012-06-24T11:03:29Z</time>
      </trkpt>
      <trkpt lat="42.76629" lon="1.41762">
        <ele>1662.2568359375</ele>
        <time>2012-06-24T11:03:33Z</time>
      </trkpt>
      <trkpt lat="42.76629" lon="1.41768">
        <ele>1662.2568359375</ele>
        <time>2012-06-24T11:03:39Z</time>
      </trkpt>
      <trkpt lat="42.76628" lon="1.41771">
        <ele>1662.7375488281</ele>
        <time>2012-06-24T11:03:41Z</time>
      </trkpt>
      <trkpt lat="42.76627" lon="1.41776">
        <ele>1662.7375488281</ele>
        <time>2012-06-24T11:03:45Z</time>
      </trkpt>
      <trkpt lat="42.76627" lon="1.41778">
        <ele>1663.2182617188</ele>
        <time>2012-06-24T11:03:47Z</time>
      </trkpt>
      <trkpt lat="42.76625" lon="1.41784">
        <ele>1663.2182617188</ele>
        <time>2012-06-24T11:03:51Z</time>
      </trkpt>
      <trkpt lat="42.76621" lon="1.4179">
        <ele>1661.7763671875</ele>
        <time>2012-06-24T11:03:56Z</time>
      </trkpt>
      <trkpt lat="42.76619" lon="1.41798">
        <ele>1662.2568359375</ele>
        <time>2012-06-24T11:04:02Z</time>
      </trkpt>
      <trkpt lat="42.76614" lon="1.41807">
        <ele>1663.6987304688</ele>
        <time>2012-06-24T11:04:08Z</time>
      </trkpt>
      <trkpt lat="42.76612" lon="1.4181">
        <ele>1663.6987304688</ele>
        <time>2012-06-24T11:04:10Z</time>
      </trkpt>
      <trkpt lat="42.76607" lon="1.41818">
        <ele>1664.1794433594</ele>
        <time>2012-06-24T11:04:15Z</time>
      </trkpt>
      <trkpt lat="42.76606" lon="1.41826">
        <ele>1664.66015625</ele>
        <time>2012-06-24T11:04:18Z</time>
      </trkpt>
      <trkpt lat="42.76603" lon="1.41836">
        <ele>1663.6987304688</ele>
        <time>2012-06-24T11:04:25Z</time>
      </trkpt>
      <trkpt lat="42.76603" lon="1.41838">
        <ele>1664.1794433594</ele>
        <time>2012-06-24T11:04:26Z</time>
      </trkpt>
      <trkpt lat="42.76603" lon="1.41849">
        <ele>1663.2182617188</ele>
        <time>2012-06-24T11:04:33Z</time>
      </trkpt>
      <trkpt lat="42.76606" lon="1.41852">
        <ele>1664.1794433594</ele>
        <time>2012-06-24T11:04:36Z</time>
      </trkpt>
      <trkpt lat="42.76606" lon="1.4186">
        <ele>1665.6215820312</ele>
        <time>2012-06-24T11:04:43Z</time>
      </trkpt>
      <trkpt lat="42.76604" lon="1.41865">
        <ele>1665.6215820312</ele>
        <time>2012-06-24T11:04:48Z</time>
      </trkpt>
      <trkpt lat="42.76603" lon="1.41867">
        <ele>1666.1020507812</ele>
        <time>2012-06-24T11:04:49Z</time>
      </trkpt>
      <trkpt lat="42.76597" lon="1.41876">
        <ele>1667.5439453125</ele>
        <time>2012-06-24T11:04:56Z</time>
      </trkpt>
      <trkpt lat="42.76591" lon="1.41886">
        <ele>1667.0634765625</ele>
        <time>2012-06-24T11:05:03Z</time>
      </trkpt>
      <trkpt lat="42.76585" lon="1.41894">
        <ele>1667.0634765625</ele>
        <time>2012-06-24T11:05:08Z</time>
      </trkpt>
      <trkpt lat="42.76583" lon="1.41897">
        <ele>1667.0634765625</ele>
        <time>2012-06-24T11:05:10Z</time>
      </trkpt>
      <trkpt lat="42.7658" lon="1.41906">
        <ele>1667.5439453125</ele>
        <time>2012-06-24T11:05:17Z</time>
      </trkpt>
      <trkpt lat="42.76579" lon="1.41908">
        <ele>1667.0634765625</ele>
        <time>2012-06-24T11:05:19Z</time>
      </trkpt>
      <trkpt lat="42.76579" lon="1.41909">
        <ele>1664.66015625</ele>
        <time>2012-06-24T11:05:33Z</time>
      </trkpt>
      <trkpt lat="42.76577" lon="1.41914">
        <ele>1665.1408691406</ele>
        <time>2012-06-24T11:05:38Z</time>
      </trkpt>
      <trkpt lat="42.76574" lon="1.41919">
        <ele>1664.1794433594</ele>
        <time>2012-06-24T11:05:43Z</time>
      </trkpt>
      <trkpt lat="42.76571" lon="1.41923">
        <ele>1662.7375488281</ele>
        <time>2012-06-24T11:05:47Z</time>
      </trkpt>
      <trkpt lat="42.76567" lon="1.41921">
        <ele>1662.2568359375</ele>
        <time>2012-06-24T11:05:50Z</time>
      </trkpt>
      <trkpt lat="42.76563" lon="1.41922">
        <ele>1662.2568359375</ele>
        <time>2012-06-24T11:05:52Z</time>
      </trkpt>
      <trkpt lat="42.76559" lon="1.41931">
        <ele>1661.2956542969</ele>
        <time>2012-06-24T11:05:57Z</time>
      </trkpt>
      <trkpt lat="42.76555" lon="1.41937">
        <ele>1659.8532714844</ele>
        <time>2012-06-24T11:06:01Z</time>
      </trkpt>
      <trkpt lat="42.76553" lon="1.41945">
        <ele>1659.3728027344</ele>
        <time>2012-06-24T11:06:04Z</time>
      </trkpt>
      <trkpt lat="42.76547" lon="1.41951">
        <ele>1659.3728027344</ele>
        <time>2012-06-24T11:06:10Z</time>
      </trkpt>
      <trkpt lat="42.76542" lon="1.41956">
        <ele>1657.9309082031</ele>
        <time>2012-06-24T11:06:15Z</time>
      </trkpt>
      <trkpt lat="42.76539" lon="1.4196">
        <ele>1657.9309082031</ele>
        <time>2012-06-24T11:06:19Z</time>
      </trkpt>
      <trkpt lat="42.76535" lon="1.41966">
        <ele>1658.4113769531</ele>
        <time>2012-06-24T11:06:24Z</time>
      </trkpt>
      <trkpt lat="42.76532" lon="1.41972">
        <ele>1658.8920898438</ele>
        <time>2012-06-24T11:06:29Z</time>
      </trkpt>
      <trkpt lat="42.7653" lon="1.41979">
        <ele>1656.4887695312</ele>
        <time>2012-06-24T11:06:35Z</time>
      </trkpt>
      <trkpt lat="42.7653" lon="1.4198">
        <ele>1656.0080566406</ele>
        <time>2012-06-24T11:06:36Z</time>
      </trkpt>
      <trkpt lat="42.76524" lon="1.41985">
        <ele>1654.5661621094</ele>
        <time>2012-06-24T11:06:44Z</time>
      </trkpt>
      <trkpt lat="42.76522" lon="1.41988">
        <ele>1654.5661621094</ele>
        <time>2012-06-24T11:06:46Z</time>
      </trkpt>
      <trkpt lat="42.76518" lon="1.41996">
        <ele>1653.1242675781</ele>
        <time>2012-06-24T11:06:52Z</time>
      </trkpt>
      <trkpt lat="42.76516" lon="1.41999">
        <ele>1652.6435546875</ele>
        <time>2012-06-24T11:06:56Z</time>
      </trkpt>
      <trkpt lat="42.76511" lon="1.42004">
        <ele>1652.6435546875</ele>
        <time>2012-06-24T11:07:00Z</time>
      </trkpt>
      <trkpt lat="42.76511" lon="1.42011">
        <ele>1651.6823730469</ele>
        <time>2012-06-24T11:07:04Z</time>
      </trkpt>
      <trkpt lat="42.76511" lon="1.42012">
        <ele>1651.6823730469</ele>
        <time>2012-06-24T11:07:05Z</time>
      </trkpt>
      <trkpt lat="42.76508" lon="1.42018">
        <ele>1650.7209472656</ele>
        <time>2012-06-24T11:07:11Z</time>
      </trkpt>
      <trkpt lat="42.76504" lon="1.42024">
        <ele>1651.2016601562</ele>
        <time>2012-06-24T11:07:17Z</time>
      </trkpt>
      <trkpt lat="42.76502" lon="1.4203">
        <ele>1651.2016601562</ele>
        <time>2012-06-24T11:07:22Z</time>
      </trkpt>
      <trkpt lat="42.76502" lon="1.42032">
        <ele>1650.7209472656</ele>
        <time>2012-06-24T11:07:28Z</time>
      </trkpt>
      <trkpt lat="42.76501" lon="1.42037">
        <ele>1651.2016601562</ele>
        <time>2012-06-24T11:07:34Z</time>
      </trkpt>
      <trkpt lat="42.765" lon="1.42042">
        <ele>1652.6435546875</ele>
        <time>2012-06-24T11:07:40Z</time>
      </trkpt>
      <trkpt lat="42.76497" lon="1.42046">
        <ele>1653.1242675781</ele>
        <time>2012-06-24T11:07:45Z</time>
      </trkpt>
      <trkpt lat="42.76493" lon="1.42051">
        <ele>1652.6435546875</ele>
        <time>2012-06-24T11:07:51Z</time>
      </trkpt>
      <trkpt lat="42.7649" lon="1.42055">
        <ele>1652.1628417969</ele>
        <time>2012-06-24T11:07:56Z</time>
      </trkpt>
      <trkpt lat="42.76487" lon="1.42063">
        <ele>1653.1242675781</ele>
        <time>2012-06-24T11:08:03Z</time>
      </trkpt>
      <trkpt lat="42.76484" lon="1.42068">
        <ele>1653.1242675781</ele>
        <time>2012-06-24T11:08:08Z</time>
      </trkpt>
      <trkpt lat="42.76481" lon="1.42072">
        <ele>1653.1242675781</ele>
        <time>2012-06-24T11:08:14Z</time>
      </trkpt>
      <trkpt lat="42.76479" lon="1.42076">
        <ele>1654.0856933594</ele>
        <time>2012-06-24T11:08:19Z</time>
      </trkpt>
      <trkpt lat="42.76477" lon="1.42082">
        <ele>1655.5275878906</ele>
        <time>2012-06-24T11:08:25Z</time>
      </trkpt>
      <trkpt lat="42.76475" lon="1.42087">
        <ele>1655.046875</ele>
        <time>2012-06-24T11:08:31Z</time>
      </trkpt>
      <trkpt lat="42.7647" lon="1.42094">
        <ele>1655.5275878906</ele>
        <time>2012-06-24T11:08:37Z</time>
      </trkpt>
      <trkpt lat="42.76469" lon="1.42097">
        <ele>1656.0080566406</ele>
        <time>2012-06-24T11:08:40Z</time>
      </trkpt>
      <trkpt lat="42.76464" lon="1.42105">
        <ele>1656.4887695312</ele>
        <time>2012-06-24T11:08:46Z</time>
      </trkpt>
      <trkpt lat="42.76456" lon="1.42115">
        <ele>1657.4501953125</ele>
        <time>2012-06-24T11:08:54Z</time>
      </trkpt>
      <trkpt lat="42.76453" lon="1.42123">
        <ele>1658.8920898438</ele>
        <time>2012-06-24T11:09:01Z</time>
      </trkpt>
      <trkpt lat="42.76452" lon="1.42125">
        <ele>1658.8920898438</ele>
        <time>2012-06-24T11:09:03Z</time>
      </trkpt>
      <trkpt lat="42.76448" lon="1.42134">
        <ele>1659.3728027344</ele>
        <time>2012-06-24T11:09:10Z</time>
      </trkpt>
      <trkpt lat="42.76445" lon="1.42146">
        <ele>1660.3342285156</ele>
        <time>2012-06-24T11:09:18Z</time>
      </trkpt>
      <trkpt lat="42.76447" lon="1.42153">
        <ele>1661.2956542969</ele>
        <time>2012-06-24T11:09:24Z</time>
      </trkpt>
      <trkpt lat="42.76445" lon="1.42164">
        <ele>1663.2182617188</ele>
        <time>2012-06-24T11:09:31Z</time>
      </trkpt>
      <trkpt lat="42.76445" lon="1.42167">
        <ele>1663.6987304688</ele>
        <time>2012-06-24T11:09:33Z</time>
      </trkpt>
      <trkpt lat="42.76446" lon="1.4217">
        <ele>1663.6987304688</ele>
        <time>2012-06-24T11:09:35Z</time>
      </trkpt>
      <trkpt lat="42.7645" lon="1.42176">
        <ele>1663.2182617188</ele>
        <time>2012-06-24T11:09:40Z</time>
      </trkpt>
      <trkpt lat="42.76447" lon="1.4218">
        <ele>1663.6987304688</ele>
        <time>2012-06-24T11:09:43Z</time>
      </trkpt>
      <trkpt lat="42.76443" lon="1.42185">
        <ele>1664.66015625</ele>
        <time>2012-06-24T11:09:47Z</time>
      </trkpt>
      <trkpt lat="42.76438" lon="1.42193">
        <ele>1664.1794433594</ele>
        <time>2012-06-24T11:09:53Z</time>
      </trkpt>
      <trkpt lat="42.76437" lon="1.422">
        <ele>1663.6987304688</ele>
        <time>2012-06-24T11:09:57Z</time>
      </trkpt>
      <trkpt lat="42.7644" lon="1.42212">
        <ele>1662.2568359375</ele>
        <time>2012-06-24T11:10:05Z</time>
      </trkpt>
      <trkpt lat="42.7644" lon="1.42217">
        <ele>1661.2956542969</ele>
        <time>2012-06-24T11:10:08Z</time>
      </trkpt>
      <trkpt lat="42.76443" lon="1.42226">
        <ele>1659.3728027344</ele>
        <time>2012-06-24T11:10:15Z</time>
      </trkpt>
      <trkpt lat="42.76443" lon="1.42234">
        <ele>1659.3728027344</ele>
        <time>2012-06-24T11:10:22Z</time>
      </trkpt>
      <trkpt lat="42.7644" lon="1.42238">
        <ele>1659.3728027344</ele>
        <time>2012-06-24T11:10:27Z</time>
      </trkpt>
      <trkpt lat="42.76435" lon="1.4224">
        <ele>1659.8532714844</ele>
        <time>2012-06-24T11:10:32Z</time>
      </trkpt>
      <trkpt lat="42.76434" lon="1.42241">
        <ele>1659.8532714844</ele>
        <time>2012-06-24T11:10:33Z</time>
      </trkpt>
      <trkpt lat="42.7643" lon="1.42247">
        <ele>1660.8149414062</ele>
        <time>2012-06-24T11:10:38Z</time>
      </trkpt>
      <trkpt lat="42.76426" lon="1.42255">
        <ele>1660.8149414062</ele>
        <time>2012-06-24T11:10:44Z</time>
      </trkpt>
      <trkpt lat="42.76421" lon="1.42261">
        <ele>1660.8149414062</ele>
        <time>2012-06-24T11:10:47Z</time>
      </trkpt>
      <trkpt lat="42.76414" lon="1.42271">
        <ele>1662.2568359375</ele>
        <time>2012-06-24T11:10:55Z</time>
      </trkpt>
      <trkpt lat="42.76411" lon="1.42281">
        <ele>1662.7375488281</ele>
        <time>2012-06-24T11:11:01Z</time>
      </trkpt>
      <trkpt lat="42.76408" lon="1.42287">
        <ele>1664.1794433594</ele>
        <time>2012-06-24T11:11:06Z</time>
      </trkpt>
      <trkpt lat="42.76407" lon="1.42292">
        <ele>1665.6215820312</ele>
        <time>2012-06-24T11:11:11Z</time>
      </trkpt>
      <trkpt lat="42.76406" lon="1.42299">
        <ele>1666.1020507812</ele>
        <time>2012-06-24T11:11:16Z</time>
      </trkpt>
      <trkpt lat="42.76405" lon="1.42304">
        <ele>1667.0634765625</ele>
        <time>2012-06-24T11:11:20Z</time>
      </trkpt>
      <trkpt lat="42.76404" lon="1.42308">
        <ele>1666.5827636719</ele>
        <time>2012-06-24T11:11:24Z</time>
      </trkpt>
      <trkpt lat="42.76403" lon="1.42311">
        <ele>1667.5439453125</ele>
        <time>2012-06-24T11:11:26Z</time>
      </trkpt>
      <trkpt lat="42.76403" lon="1.42319">
        <ele>1668.9860839844</ele>
        <time>2012-06-24T11:11:32Z</time>
      </trkpt>
      <trkpt lat="42.76405" lon="1.42326">
        <ele>1669.466796875</ele>
        <time>2012-06-24T11:11:38Z</time>
      </trkpt>
      <trkpt lat="42.76406" lon="1.42332">
        <ele>1669.947265625</ele>
        <time>2012-06-24T11:11:42Z</time>
      </trkpt>
      <trkpt lat="42.76408" lon="1.4234">
        <ele>1670.9086914062</ele>
        <time>2012-06-24T11:11:47Z</time>
      </trkpt>
      <trkpt lat="42.7641" lon="1.42348">
        <ele>1671.3891601562</ele>
        <time>2012-06-24T11:11:53Z</time>
      </trkpt>
      <trkpt lat="42.76413" lon="1.42352">
        <ele>1671.8698730469</ele>
        <time>2012-06-24T11:11:58Z</time>
      </trkpt>
      <trkpt lat="42.76414" lon="1.42358">
        <ele>1671.3891601562</ele>
        <time>2012-06-24T11:12:04Z</time>
      </trkpt>
      <trkpt lat="42.76415" lon="1.42367">
        <ele>1671.3891601562</ele>
        <time>2012-06-24T11:12:10Z</time>
      </trkpt>
      <trkpt lat="42.76415" lon="1.42371">
        <ele>1671.8698730469</ele>
        <time>2012-06-24T11:12:13Z</time>
      </trkpt>
      <trkpt lat="42.76413" lon="1.42378">
        <ele>1671.8698730469</ele>
        <time>2012-06-24T11:12:18Z</time>
      </trkpt>
      <trkpt lat="42.76414" lon="1.4239">
        <ele>1671.8698730469</ele>
        <time>2012-06-24T11:12:26Z</time>
      </trkpt>
      <trkpt lat="42.76413" lon="1.42393">
        <ele>1671.8698730469</ele>
        <time>2012-06-24T11:12:28Z</time>
      </trkpt>
      <trkpt lat="42.76414" lon="1.424">
        <ele>1671.8698730469</ele>
        <time>2012-06-24T11:12:33Z</time>
      </trkpt>
      <trkpt lat="42.76414" lon="1.42407">
        <ele>1672.8312988281</ele>
        <time>2012-06-24T11:12:38Z</time>
      </trkpt>
      <trkpt lat="42.76416" lon="1.42412">
        <ele>1671.3891601562</ele>
        <time>2012-06-24T11:12:42Z</time>
      </trkpt>
      <trkpt lat="42.76416" lon="1.42417">
        <ele>1670.4279785156</ele>
        <time>2012-06-24T11:12:45Z</time>
      </trkpt>
      <trkpt lat="42.76415" lon="1.4242">
        <ele>1669.947265625</ele>
        <time>2012-06-24T11:12:48Z</time>
      </trkpt>
      <trkpt lat="42.76417" lon="1.42427">
        <ele>1669.466796875</ele>
        <time>2012-06-24T11:12:51Z</time>
      </trkpt>
      <trkpt lat="42.76417" lon="1.4243">
        <ele>1668.9860839844</ele>
        <time>2012-06-24T11:12:53Z</time>
      </trkpt>
      <trkpt lat="42.76418" lon="1.42438">
        <ele>1668.0246582031</ele>
        <time>2012-06-24T11:12:58Z</time>
      </trkpt>
      <trkpt lat="42.76417" lon="1.42447">
        <ele>1668.5053710938</ele>
        <time>2012-06-24T11:13:03Z</time>
      </trkpt>
      <trkpt lat="42.76416" lon="1.42461">
        <ele>1669.947265625</ele>
        <time>2012-06-24T11:13:08Z</time>
      </trkpt>
      <trkpt lat="42.76416" lon="1.42466">
        <ele>1670.4279785156</ele>
        <time>2012-06-24T11:13:10Z</time>
      </trkpt>
      <trkpt lat="42.76413" lon="1.4247">
        <ele>1671.8698730469</ele>
        <time>2012-06-24T11:13:15Z</time>
      </trkpt>
      <trkpt lat="42.76413" lon="1.42475">
        <ele>1671.8698730469</ele>
        <time>2012-06-24T11:13:20Z</time>
      </trkpt>
      <trkpt lat="42.76412" lon="1.42485">
        <ele>1670.9086914062</ele>
        <time>2012-06-24T11:13:24Z</time>
      </trkpt>
      <trkpt lat="42.76409" lon="1.42493">
        <ele>1671.3891601562</ele>
        <time>2012-06-24T11:13:29Z</time>
      </trkpt>
      <trkpt lat="42.76409" lon="1.42495">
        <ele>1671.3891601562</ele>
        <time>2012-06-24T11:13:30Z</time>
      </trkpt>
      <trkpt lat="42.76406" lon="1.42499">
        <ele>1671.3891601562</ele>
        <time>2012-06-24T11:13:35Z</time>
      </trkpt>
      <trkpt lat="42.76407" lon="1.42501">
        <ele>1671.3891601562</ele>
        <time>2012-06-24T11:13:36Z</time>
      </trkpt>
      <trkpt lat="42.76408" lon="1.42507">
        <ele>1671.8698730469</ele>
        <time>2012-06-24T11:13:39Z</time>
      </trkpt>
      <trkpt lat="42.76408" lon="1.42509">
        <ele>1671.3891601562</ele>
        <time>2012-06-24T11:13:41Z</time>
      </trkpt>
      <trkpt lat="42.76405" lon="1.4251">
        <ele>1671.8698730469</ele>
        <time>2012-06-24T11:13:45Z</time>
      </trkpt>
      <trkpt lat="42.76403" lon="1.42516">
        <ele>1671.8698730469</ele>
        <time>2012-06-24T11:13:52Z</time>
      </trkpt>
      <trkpt lat="42.76401" lon="1.42518">
        <ele>1673.3120117188</ele>
        <time>2012-06-24T11:13:58Z</time>
      </trkpt>
      <trkpt lat="42.76398" lon="1.42521">
        <ele>1674.2731933594</ele>
        <time>2012-06-24T11:14:04Z</time>
      </trkpt>
      <trkpt lat="42.76395" lon="1.42523">
        <ele>1675.7150878906</ele>
        <time>2012-06-24T11:14:09Z</time>
      </trkpt>
      <trkpt lat="42.76389" lon="1.42527">
        <ele>1677.1574707031</ele>
        <time>2012-06-24T11:14:15Z</time>
      </trkpt>
      <trkpt lat="42.76387" lon="1.4253">
        <ele>1677.1574707031</ele>
        <time>2012-06-24T11:14:19Z</time>
      </trkpt>
      <trkpt lat="42.76385" lon="1.42531">
        <ele>1677.1574707031</ele>
        <time>2012-06-24T11:14:21Z</time>
      </trkpt>
      <trkpt lat="42.76379" lon="1.42537">
        <ele>1677.1574707031</ele>
        <time>2012-06-24T11:14:26Z</time>
      </trkpt>
      <trkpt lat="42.76375" lon="1.42546">
        <ele>1677.6379394531</ele>
        <time>2012-06-24T11:14:31Z</time>
      </trkpt>
      <trkpt lat="42.76373" lon="1.42551">
        <ele>1677.1574707031</ele>
        <time>2012-06-24T11:14:36Z</time>
      </trkpt>
      <trkpt lat="42.76372" lon="1.42552">
        <ele>1676.6767578125</ele>
        <time>2012-06-24T11:14:37Z</time>
      </trkpt>
      <trkpt lat="42.7637" lon="1.42554">
        <ele>1676.6767578125</ele>
        <time>2012-06-24T11:14:39Z</time>
      </trkpt>
      <trkpt lat="42.76365" lon="1.42559">
        <ele>1676.6767578125</ele>
        <time>2012-06-24T11:14:45Z</time>
      </trkpt>
      <trkpt lat="42.76362" lon="1.42563">
        <ele>1676.6767578125</ele>
        <time>2012-06-24T11:14:50Z</time>
      </trkpt>
      <trkpt lat="42.76364" lon="1.42571">
        <ele>1675.7150878906</ele>
        <time>2012-06-24T11:14:56Z</time>
      </trkpt>
      <trkpt lat="42.76365" lon="1.42581">
        <ele>1673.3120117188</ele>
        <time>2012-06-24T11:15:02Z</time>
      </trkpt>
      <trkpt lat="42.76366" lon="1.42583">
        <ele>1673.3120117188</ele>
        <time>2012-06-24T11:15:03Z</time>
      </trkpt>
      <trkpt lat="42.76365" lon="1.42587">
        <ele>1672.3505859375</ele>
        <time>2012-06-24T11:15:07Z</time>
      </trkpt>
      <trkpt lat="42.76357" lon="1.42597">
        <ele>1672.3505859375</ele>
        <time>2012-06-24T11:15:16Z</time>
      </trkpt>
      <trkpt lat="42.76352" lon="1.42602">
        <ele>1672.3505859375</ele>
        <time>2012-06-24T11:15:22Z</time>
      </trkpt>
      <trkpt lat="42.7635" lon="1.42608">
        <ele>1673.7924804688</ele>
        <time>2012-06-24T11:15:27Z</time>
      </trkpt>
      <trkpt lat="42.76347" lon="1.42617">
        <ele>1674.75390625</ele>
        <time>2012-06-24T11:15:32Z</time>
      </trkpt>
      <trkpt lat="42.76344" lon="1.42624">
        <ele>1674.2731933594</ele>
        <time>2012-06-24T11:15:37Z</time>
      </trkpt>
      <trkpt lat="42.76344" lon="1.42629">
        <ele>1675.234375</ele>
        <time>2012-06-24T11:15:40Z</time>
      </trkpt>
      <trkpt lat="42.76343" lon="1.42639">
        <ele>1674.75390625</ele>
        <time>2012-06-24T11:15:46Z</time>
      </trkpt>
      <trkpt lat="42.76341" lon="1.42645">
        <ele>1672.8312988281</ele>
        <time>2012-06-24T11:15:51Z</time>
      </trkpt>
      <trkpt lat="42.76339" lon="1.4265">
        <ele>1671.8698730469</ele>
        <time>2012-06-24T11:15:56Z</time>
      </trkpt>
      <trkpt lat="42.76335" lon="1.4265">
        <ele>1670.4279785156</ele>
        <time>2012-06-24T11:16:02Z</time>
      </trkpt>
      <trkpt lat="42.76333" lon="1.42653">
        <ele>1668.5053710938</ele>
        <time>2012-06-24T11:16:07Z</time>
      </trkpt>
      <trkpt lat="42.76329" lon="1.42659">
        <ele>1664.66015625</ele>
        <time>2012-06-24T11:16:14Z</time>
      </trkpt>
      <trkpt lat="42.76326" lon="1.42668">
        <ele>1663.2182617188</ele>
        <time>2012-06-24T11:16:21Z</time>
      </trkpt>
      <trkpt lat="42.76322" lon="1.42669">
        <ele>1660.8149414062</ele>
        <time>2012-06-24T11:16:26Z</time>
      </trkpt>
      <trkpt lat="42.7632" lon="1.42667">
        <ele>1659.3728027344</ele>
        <time>2012-06-24T11:16:30Z</time>
      </trkpt>
      <trkpt lat="42.76318" lon="1.42671">
        <ele>1657.9309082031</ele>
        <time>2012-06-24T11:16:34Z</time>
      </trkpt>
      <trkpt lat="42.76316" lon="1.42675">
        <ele>1656.9694824219</ele>
        <time>2012-06-24T11:16:37Z</time>
      </trkpt>
      <trkpt lat="42.76312" lon="1.42679">
        <ele>1654.5661621094</ele>
        <time>2012-06-24T11:16:42Z</time>
      </trkpt>
      <trkpt lat="42.76307" lon="1.42684">
        <ele>1651.2016601562</ele>
        <time>2012-06-24T11:16:49Z</time>
      </trkpt>
      <trkpt lat="42.76303" lon="1.42687">
        <ele>1649.759765625</ele>
        <time>2012-06-24T11:16:51Z</time>
      </trkpt>
      <trkpt lat="42.763" lon="1.42691">
        <ele>1648.3176269531</ele>
        <time>2012-06-24T11:16:56Z</time>
      </trkpt>
      <trkpt lat="42.76295" lon="1.42697">
        <ele>1647.8371582031</ele>
        <time>2012-06-24T11:17:02Z</time>
      </trkpt>
      <trkpt lat="42.76294" lon="1.42703">
        <ele>1648.7983398438</ele>
        <time>2012-06-24T11:17:07Z</time>
      </trkpt>
      <trkpt lat="42.7629" lon="1.42711">
        <ele>1649.2790527344</ele>
        <time>2012-06-24T11:17:14Z</time>
      </trkpt>
      <trkpt lat="42.76288" lon="1.42717">
        <ele>1649.2790527344</ele>
        <time>2012-06-24T11:17:19Z</time>
      </trkpt>
      <trkpt lat="42.76283" lon="1.42721">
        <ele>1648.3176269531</ele>
        <time>2012-06-24T11:17:26Z</time>
      </trkpt>
      <trkpt lat="42.76278" lon="1.42725">
        <ele>1648.3176269531</ele>
        <time>2012-06-24T11:17:32Z</time>
      </trkpt>
      <trkpt lat="42.76274" lon="1.42731">
        <ele>1646.8757324219</ele>
        <time>2012-06-24T11:17:39Z</time>
      </trkpt>
      <trkpt lat="42.76269" lon="1.4274">
        <ele>1645.9145507812</ele>
        <time>2012-06-24T11:17:46Z</time>
      </trkpt>
      <trkpt lat="42.76266" lon="1.42748">
        <ele>1647.3564453125</ele>
        <time>2012-06-24T11:17:52Z</time>
      </trkpt>
      <trkpt lat="42.76262" lon="1.42755">
        <ele>1646.8757324219</ele>
        <time>2012-06-24T11:17:59Z</time>
      </trkpt>
      <trkpt lat="42.76258" lon="1.42762">
        <ele>1647.3564453125</ele>
        <time>2012-06-24T11:18:05Z</time>
      </trkpt>
      <trkpt lat="42.76255" lon="1.42768">
        <ele>1646.8757324219</ele>
        <time>2012-06-24T11:18:12Z</time>
      </trkpt>
      <trkpt lat="42.76252" lon="1.42774">
        <ele>1648.3176269531</ele>
        <time>2012-06-24T11:18:17Z</time>
      </trkpt>
      <trkpt lat="42.76247" lon="1.42781">
        <ele>1647.3564453125</ele>
        <time>2012-06-24T11:18:25Z</time>
      </trkpt>
      <trkpt lat="42.76243" lon="1.42785">
        <ele>1646.3952636719</ele>
        <time>2012-06-24T11:18:31Z</time>
      </trkpt>
      <trkpt lat="42.76238" lon="1.42793">
        <ele>1645.9145507812</ele>
        <time>2012-06-24T11:18:37Z</time>
      </trkpt>
      <trkpt lat="42.76233" lon="1.42803">
        <ele>1645.4338378906</ele>
        <time>2012-06-24T11:18:44Z</time>
      </trkpt>
      <trkpt lat="42.76231" lon="1.42805">
        <ele>1645.4338378906</ele>
        <time>2012-06-24T11:18:46Z</time>
      </trkpt>
      <trkpt lat="42.76229" lon="1.42815">
        <ele>1646.3952636719</ele>
        <time>2012-06-24T11:18:52Z</time>
      </trkpt>
      <trkpt lat="42.76228" lon="1.42817">
        <ele>1645.4338378906</ele>
        <time>2012-06-24T11:18:54Z</time>
      </trkpt>
      <trkpt lat="42.76222" lon="1.42825">
        <ele>1643.5109863281</ele>
        <time>2012-06-24T11:18:59Z</time>
      </trkpt>
      <trkpt lat="42.7622" lon="1.42826">
        <ele>1643.0302734375</ele>
        <time>2012-06-24T11:19:01Z</time>
      </trkpt>
      <trkpt lat="42.76213" lon="1.42832">
        <ele>1641.1076660156</ele>
        <time>2012-06-24T11:19:07Z</time>
      </trkpt>
      <trkpt lat="42.76215" lon="1.4284">
        <ele>1640.146484375</ele>
        <time>2012-06-24T11:19:12Z</time>
      </trkpt>
      <trkpt lat="42.76215" lon="1.42842">
        <ele>1639.6657714844</ele>
        <time>2012-06-24T11:19:13Z</time>
      </trkpt>
      <trkpt lat="42.76217" lon="1.42849">
        <ele>1638.7045898438</ele>
        <time>2012-06-24T11:19:17Z</time>
      </trkpt>
      <trkpt lat="42.76217" lon="1.42858">
        <ele>1637.2624511719</ele>
        <time>2012-06-24T11:19:22Z</time>
      </trkpt>
      <trkpt lat="42.76217" lon="1.42866">
        <ele>1636.7817382812</ele>
        <time>2012-06-24T11:19:27Z</time>
      </trkpt>
      <trkpt lat="42.76216" lon="1.42867">
        <ele>1636.7817382812</ele>
        <time>2012-06-24T11:19:28Z</time>
      </trkpt>
      <trkpt lat="42.76215" lon="1.42879">
        <ele>1635.8205566406</ele>
        <time>2012-06-24T11:19:34Z</time>
      </trkpt>
      <trkpt lat="42.76214" lon="1.42889">
        <ele>1635.33984375</ele>
        <time>2012-06-24T11:19:39Z</time>
      </trkpt>
      <trkpt lat="42.76215" lon="1.42894">
        <ele>1635.8205566406</ele>
        <time>2012-06-24T11:19:43Z</time>
      </trkpt>
      <trkpt lat="42.76213" lon="1.42899">
        <ele>1636.7817382812</ele>
        <time>2012-06-24T11:19:47Z</time>
      </trkpt>
      <trkpt lat="42.7621" lon="1.42907">
        <ele>1636.3012695312</ele>
        <time>2012-06-24T11:19:54Z</time>
      </trkpt>
      <trkpt lat="42.76208" lon="1.42913">
        <ele>1636.3012695312</ele>
        <time>2012-06-24T11:19:58Z</time>
      </trkpt>
      <trkpt lat="42.76205" lon="1.42923">
        <ele>1637.2624511719</ele>
        <time>2012-06-24T11:20:05Z</time>
      </trkpt>
      <trkpt lat="42.76202" lon="1.42927">
        <ele>1637.2624511719</ele>
        <time>2012-06-24T11:20:08Z</time>
      </trkpt>
      <trkpt lat="42.76198" lon="1.42936">
        <ele>1636.3012695312</ele>
        <time>2012-06-24T11:20:15Z</time>
      </trkpt>
      <trkpt lat="42.76197" lon="1.42942">
        <ele>1634.859375</ele>
        <time>2012-06-24T11:20:18Z</time>
      </trkpt>
      <trkpt lat="42.76195" lon="1.42958">
        <ele>1632.9365234375</ele>
        <time>2012-06-24T11:20:25Z</time>
      </trkpt>
      <trkpt lat="42.76192" lon="1.42966">
        <ele>1632.4560546875</ele>
        <time>2012-06-24T11:20:30Z</time>
      </trkpt>
      <trkpt lat="42.76189" lon="1.42975">
        <ele>1631.4946289062</ele>
        <time>2012-06-24T11:20:36Z</time>
      </trkpt>
      <trkpt lat="42.76188" lon="1.42979">
        <ele>1631.0141601562</ele>
        <time>2012-06-24T11:20:39Z</time>
      </trkpt>
      <trkpt lat="42.76186" lon="1.4299">
        <ele>1631.4946289062</ele>
        <time>2012-06-24T11:20:45Z</time>
      </trkpt>
      <trkpt lat="42.7618" lon="1.42997">
        <ele>1632.4560546875</ele>
        <time>2012-06-24T11:20:51Z</time>
      </trkpt>
      <trkpt lat="42.76176" lon="1.43006">
        <ele>1632.9365234375</ele>
        <time>2012-06-24T11:20:57Z</time>
      </trkpt>
      <trkpt lat="42.76172" lon="1.43008">
        <ele>1633.4172363281</ele>
        <time>2012-06-24T11:21:00Z</time>
      </trkpt>
      <trkpt lat="42.76167" lon="1.43017">
        <ele>1633.4172363281</ele>
        <time>2012-06-24T11:21:07Z</time>
      </trkpt>
      <trkpt lat="42.76165" lon="1.43028">
        <ele>1633.4172363281</ele>
        <time>2012-06-24T11:21:13Z</time>
      </trkpt>
      <trkpt lat="42.7616" lon="1.43038">
        <ele>1632.9365234375</ele>
        <time>2012-06-24T11:21:19Z</time>
      </trkpt>
      <trkpt lat="42.76153" lon="1.43046">
        <ele>1632.9365234375</ele>
        <time>2012-06-24T11:21:25Z</time>
      </trkpt>
      <trkpt lat="42.76151" lon="1.43047">
        <ele>1632.4560546875</ele>
        <time>2012-06-24T11:21:31Z</time>
      </trkpt>
      <trkpt lat="42.7615" lon="1.43048">
        <ele>1631.4946289062</ele>
        <time>2012-06-24T11:21:36Z</time>
      </trkpt>
      <trkpt lat="42.7615" lon="1.43049">
        <ele>1631.9753417969</ele>
        <time>2012-06-24T11:21:37Z</time>
      </trkpt>
      <trkpt lat="42.76146" lon="1.4306">
        <ele>1632.4560546875</ele>
        <time>2012-06-24T11:21:42Z</time>
      </trkpt>
      <trkpt lat="42.76142" lon="1.43066">
        <ele>1631.9753417969</ele>
        <time>2012-06-24T11:21:45Z</time>
      </trkpt>
      <trkpt lat="42.76144" lon="1.43075">
        <ele>1630.052734375</ele>
        <time>2012-06-24T11:21:50Z</time>
      </trkpt>
      <trkpt lat="42.76144" lon="1.43077">
        <ele>1630.052734375</ele>
        <time>2012-06-24T11:21:51Z</time>
      </trkpt>
      <trkpt lat="42.76138" lon="1.43087">
        <ele>1630.052734375</ele>
        <time>2012-06-24T11:21:58Z</time>
      </trkpt>
      <trkpt lat="42.76135" lon="1.43092">
        <ele>1630.052734375</ele>
        <time>2012-06-24T11:22:05Z</time>
      </trkpt>
      <trkpt lat="42.7613" lon="1.431">
        <ele>1630.052734375</ele>
        <time>2012-06-24T11:22:11Z</time>
      </trkpt>
      <trkpt lat="42.76126" lon="1.43106">
        <ele>1630.5334472656</ele>
        <time>2012-06-24T11:22:14Z</time>
      </trkpt>
      <trkpt lat="42.7612" lon="1.43113">
        <ele>1632.4560546875</ele>
        <time>2012-06-24T11:22:20Z</time>
      </trkpt>
      <trkpt lat="42.76114" lon="1.43114">
        <ele>1632.9365234375</ele>
        <time>2012-06-24T11:22:25Z</time>
      </trkpt>
      <trkpt lat="42.76104" lon="1.43118">
        <ele>1635.33984375</ele>
        <time>2012-06-24T11:22:33Z</time>
      </trkpt>
      <trkpt lat="42.76099" lon="1.43123">
        <ele>1636.3012695312</ele>
        <time>2012-06-24T11:22:39Z</time>
      </trkpt>
      <trkpt lat="42.76097" lon="1.43125">
        <ele>1636.3012695312</ele>
        <time>2012-06-24T11:22:40Z</time>
      </trkpt>
      <trkpt lat="42.76092" lon="1.43135">
        <ele>1635.33984375</ele>
        <time>2012-06-24T11:22:47Z</time>
      </trkpt>
      <trkpt lat="42.76091" lon="1.43141">
        <ele>1635.33984375</ele>
        <time>2012-06-24T11:22:50Z</time>
      </trkpt>
      <trkpt lat="42.76091" lon="1.43149">
        <ele>1634.3786621094</ele>
        <time>2012-06-24T11:22:53Z</time>
      </trkpt>
      <trkpt lat="42.76093" lon="1.43159">
        <ele>1634.3786621094</ele>
        <time>2012-06-24T11:22:57Z</time>
      </trkpt>
      <trkpt lat="42.76094" lon="1.43174">
        <ele>1631.9753417969</ele>
        <time>2012-06-24T11:23:02Z</time>
      </trkpt>
      <trkpt lat="42.76094" lon="1.43184">
        <ele>1631.0141601562</ele>
        <time>2012-06-24T11:23:05Z</time>
      </trkpt>
      <trkpt lat="42.76091" lon="1.43188">
        <ele>1629.5720214844</ele>
        <time>2012-06-24T11:23:09Z</time>
      </trkpt>
      <trkpt lat="42.76089" lon="1.4319">
        <ele>1629.5720214844</ele>
        <time>2012-06-24T11:23:11Z</time>
      </trkpt>
      <trkpt lat="42.76084" lon="1.43193">
        <ele>1629.0913085938</ele>
        <time>2012-06-24T11:23:15Z</time>
      </trkpt>
      <trkpt lat="42.76071" lon="1.43203">
        <ele>1629.5720214844</ele>
        <time>2012-06-24T11:23:25Z</time>
      </trkpt>
      <trkpt lat="42.76063" lon="1.43206">
        <ele>1629.5720214844</ele>
        <time>2012-06-24T11:23:32Z</time>
      </trkpt>
      <trkpt lat="42.76053" lon="1.4321">
        <ele>1628.1301269531</ele>
        <time>2012-06-24T11:23:39Z</time>
      </trkpt>
      <trkpt lat="42.76045" lon="1.43216">
        <ele>1630.052734375</ele>
        <time>2012-06-24T11:23:43Z</time>
      </trkpt>
      <trkpt lat="42.76038" lon="1.43224">
        <ele>1630.052734375</ele>
        <time>2012-06-24T11:23:51Z</time>
      </trkpt>
      <trkpt lat="42.7603" lon="1.43229">
        <ele>1630.5334472656</ele>
        <time>2012-06-24T11:23:58Z</time>
      </trkpt>
      <trkpt lat="42.76025" lon="1.43234">
        <ele>1631.0141601562</ele>
        <time>2012-06-24T11:24:02Z</time>
      </trkpt>
      <trkpt lat="42.7602" lon="1.43237">
        <ele>1631.0141601562</ele>
        <time>2012-06-24T11:24:06Z</time>
      </trkpt>
      <trkpt lat="42.76012" lon="1.43242">
        <ele>1631.0141601562</ele>
        <time>2012-06-24T11:24:12Z</time>
      </trkpt>
      <trkpt lat="42.76001" lon="1.43253">
        <ele>1630.052734375</ele>
        <time>2012-06-24T11:24:18Z</time>
      </trkpt>
      <trkpt lat="42.75998" lon="1.43256">
        <ele>1629.0913085938</ele>
        <time>2012-06-24T11:24:20Z</time>
      </trkpt>
      <trkpt lat="42.75992" lon="1.43263">
        <ele>1629.0913085938</ele>
        <time>2012-06-24T11:24:24Z</time>
      </trkpt>
      <trkpt lat="42.75987" lon="1.43267">
        <ele>1628.6108398438</ele>
        <time>2012-06-24T11:24:27Z</time>
      </trkpt>
      <trkpt lat="42.75982" lon="1.43273">
        <ele>1629.0913085938</ele>
        <time>2012-06-24T11:24:32Z</time>
      </trkpt>
      <trkpt lat="42.7598" lon="1.43275">
        <ele>1629.0913085938</ele>
        <time>2012-06-24T11:24:34Z</time>
      </trkpt>
      <trkpt lat="42.75974" lon="1.43284">
        <ele>1628.6108398438</ele>
        <time>2012-06-24T11:24:41Z</time>
      </trkpt>
      <trkpt lat="42.75972" lon="1.43292">
        <ele>1628.6108398438</ele>
        <time>2012-06-24T11:24:47Z</time>
      </trkpt>
      <trkpt lat="42.75972" lon="1.43296">
        <ele>1627.6491699219</ele>
        <time>2012-06-24T11:24:49Z</time>
      </trkpt>
      <trkpt lat="42.75972" lon="1.4331">
        <ele>1625.7265625</ele>
        <time>2012-06-24T11:24:55Z</time>
      </trkpt>
      <trkpt lat="42.75972" lon="1.43316">
        <ele>1624.7653808594</ele>
        <time>2012-06-24T11:24:57Z</time>
      </trkpt>
      <trkpt lat="42.75971" lon="1.43325">
        <ele>1624.2846679688</ele>
        <time>2012-06-24T11:25:03Z</time>
      </trkpt>
      <trkpt lat="42.7597" lon="1.43329">
        <ele>1622.8427734375</ele>
        <time>2012-06-24T11:25:06Z</time>
      </trkpt>
      <trkpt lat="42.75969" lon="1.43336">
        <ele>1623.3234863281</ele>
        <time>2012-06-24T11:25:11Z</time>
      </trkpt>
      <trkpt lat="42.75962" lon="1.43346">
        <ele>1623.8039550781</ele>
        <time>2012-06-24T11:25:18Z</time>
      </trkpt>
      <trkpt lat="42.75959" lon="1.43353">
        <ele>1624.2846679688</ele>
        <time>2012-06-24T11:25:22Z</time>
      </trkpt>
      <trkpt lat="42.75956" lon="1.43365">
        <ele>1623.8039550781</ele>
        <time>2012-06-24T11:25:29Z</time>
      </trkpt>
      <trkpt lat="42.75955" lon="1.43379">
        <ele>1624.2846679688</ele>
        <time>2012-06-24T11:25:36Z</time>
      </trkpt>
      <trkpt lat="42.75954" lon="1.43388">
        <ele>1624.7653808594</ele>
        <time>2012-06-24T11:25:41Z</time>
      </trkpt>
      <trkpt lat="42.75954" lon="1.43397">
        <ele>1623.8039550781</ele>
        <time>2012-06-24T11:25:46Z</time>
      </trkpt>
      <trkpt lat="42.75955" lon="1.43399">
        <ele>1623.8039550781</ele>
        <time>2012-06-24T11:25:47Z</time>
      </trkpt>
      <trkpt lat="42.75955" lon="1.43402">
        <ele>1624.2846679688</ele>
        <time>2012-06-24T11:25:49Z</time>
      </trkpt>
      <trkpt lat="42.7595" lon="1.43411">
        <ele>1621.8813476562</ele>
        <time>2012-06-24T11:25:56Z</time>
      </trkpt>
      <trkpt lat="42.75947" lon="1.43419">
        <ele>1619.9587402344</ele>
        <time>2012-06-24T11:26:02Z</time>
      </trkpt>
      <trkpt lat="42.75948" lon="1.43423">
        <ele>1619.9587402344</ele>
        <time>2012-06-24T11:26:04Z</time>
      </trkpt>
      <trkpt lat="42.75947" lon="1.4343">
        <ele>1619.4782714844</ele>
        <time>2012-06-24T11:26:11Z</time>
      </trkpt>
      <trkpt lat="42.75944" lon="1.43437">
        <ele>1618.9975585938</ele>
        <time>2012-06-24T11:26:16Z</time>
      </trkpt>
      <trkpt lat="42.75942" lon="1.43445">
        <ele>1618.5168457031</ele>
        <time>2012-06-24T11:26:22Z</time>
      </trkpt>
      <trkpt lat="42.7594" lon="1.4345">
        <ele>1617.0749511719</ele>
        <time>2012-06-24T11:26:28Z</time>
      </trkpt>
      <trkpt lat="42.75938" lon="1.43457">
        <ele>1616.5942382812</ele>
        <time>2012-06-24T11:26:34Z</time>
      </trkpt>
      <trkpt lat="42.75937" lon="1.4346">
        <ele>1615.6330566406</ele>
        <time>2012-06-24T11:26:36Z</time>
      </trkpt>
      <trkpt lat="42.75936" lon="1.43472">
        <ele>1615.15234375</ele>
        <time>2012-06-24T11:26:42Z</time>
      </trkpt>
      <trkpt lat="42.75933" lon="1.43482">
        <ele>1616.1135253906</ele>
        <time>2012-06-24T11:26:48Z</time>
      </trkpt>
      <trkpt lat="42.75932" lon="1.43488">
        <ele>1616.1135253906</ele>
        <time>2012-06-24T11:26:51Z</time>
      </trkpt>
      <trkpt lat="42.75931" lon="1.43495">
        <ele>1615.6330566406</ele>
        <time>2012-06-24T11:26:56Z</time>
      </trkpt>
      <trkpt lat="42.7593" lon="1.43501">
        <ele>1614.6716308594</ele>
        <time>2012-06-24T11:27:00Z</time>
      </trkpt>
      <trkpt lat="42.75927" lon="1.43512">
        <ele>1613.7102050781</ele>
        <time>2012-06-24T11:27:05Z</time>
      </trkpt>
      <trkpt lat="42.75927" lon="1.43513">
        <ele>1613.7102050781</ele>
        <time>2012-06-24T11:27:06Z</time>
      </trkpt>
      <trkpt lat="42.75925" lon="1.43529">
        <ele>1613.7102050781</ele>
        <time>2012-06-24T11:27:15Z</time>
      </trkpt>
      <trkpt lat="42.75924" lon="1.43533">
        <ele>1613.7102050781</ele>
        <time>2012-06-24T11:27:17Z</time>
      </trkpt>
      <trkpt lat="42.75916" lon="1.43549">
        <ele>1613.7102050781</ele>
        <time>2012-06-24T11:27:28Z</time>
      </trkpt>
      <trkpt lat="42.75914" lon="1.4355">
        <ele>1614.1909179688</ele>
        <time>2012-06-24T11:27:29Z</time>
      </trkpt>
      <trkpt lat="42.75913" lon="1.43557">
        <ele>1613.7102050781</ele>
        <time>2012-06-24T11:27:33Z</time>
      </trkpt>
      <trkpt lat="42.75912" lon="1.43564">
        <ele>1614.1909179688</ele>
        <time>2012-06-24T11:27:37Z</time>
      </trkpt>
      <trkpt lat="42.75908" lon="1.43572">
        <ele>1614.1909179688</ele>
        <time>2012-06-24T11:27:42Z</time>
      </trkpt>
      <trkpt lat="42.75901" lon="1.43583">
        <ele>1614.6716308594</ele>
        <time>2012-06-24T11:27:46Z</time>
      </trkpt>
      <trkpt lat="42.75891" lon="1.43597">
        <ele>1614.6716308594</ele>
        <time>2012-06-24T11:27:52Z</time>
      </trkpt>
      <trkpt lat="42.75891" lon="1.43608">
        <ele>1613.7102050781</ele>
        <time>2012-06-24T11:27:58Z</time>
      </trkpt>
      <trkpt lat="42.7589" lon="1.43615">
        <ele>1613.7102050781</ele>
        <time>2012-06-24T11:28:03Z</time>
      </trkpt>
      <trkpt lat="42.75888" lon="1.43622">
        <ele>1613.2297363281</ele>
        <time>2012-06-24T11:28:09Z</time>
      </trkpt>
      <trkpt lat="42.75888" lon="1.43625">
        <ele>1613.2297363281</ele>
        <time>2012-06-24T11:28:13Z</time>
      </trkpt>
      <trkpt lat="42.75886" lon="1.43631">
        <ele>1613.2297363281</ele>
        <time>2012-06-24T11:28:19Z</time>
      </trkpt>
      <trkpt lat="42.75884" lon="1.43637">
        <ele>1613.7102050781</ele>
        <time>2012-06-24T11:28:25Z</time>
      </trkpt>
      <trkpt lat="42.75883" lon="1.43641">
        <ele>1613.7102050781</ele>
        <time>2012-06-24T11:28:30Z</time>
      </trkpt>
      <trkpt lat="42.75881" lon="1.43645">
        <ele>1612.7490234375</ele>
        <time>2012-06-24T11:28:40Z</time>
      </trkpt>
      <trkpt lat="42.75878" lon="1.43652">
        <ele>1612.7490234375</ele>
        <time>2012-06-24T11:28:46Z</time>
      </trkpt>
      <trkpt lat="42.75876" lon="1.43654">
        <ele>1612.7490234375</ele>
        <time>2012-06-24T11:28:48Z</time>
      </trkpt>
      <trkpt lat="42.75871" lon="1.43663">
        <ele>1612.2683105469</ele>
        <time>2012-06-24T11:28:55Z</time>
      </trkpt>
      <trkpt lat="42.75866" lon="1.43673">
        <ele>1612.2683105469</ele>
        <time>2012-06-24T11:29:02Z</time>
      </trkpt>
      <trkpt lat="42.75864" lon="1.43676">
        <ele>1612.2683105469</ele>
        <time>2012-06-24T11:29:04Z</time>
      </trkpt>
      <trkpt lat="42.7586" lon="1.43682">
        <ele>1612.2683105469</ele>
        <time>2012-06-24T11:29:09Z</time>
      </trkpt>
      <trkpt lat="42.75851" lon="1.43692">
        <ele>1612.2683105469</ele>
        <time>2012-06-24T11:29:18Z</time>
      </trkpt>
      <trkpt lat="42.7585" lon="1.43694">
        <ele>1612.2683105469</ele>
        <time>2012-06-24T11:29:20Z</time>
      </trkpt>
      <trkpt lat="42.75843" lon="1.43699">
        <ele>1612.2683105469</ele>
        <time>2012-06-24T11:29:27Z</time>
      </trkpt>
      <trkpt lat="42.75837" lon="1.43704">
        <ele>1611.7875976562</ele>
        <time>2012-06-24T11:29:32Z</time>
      </trkpt>
      <trkpt lat="42.75835" lon="1.43704">
        <ele>1611.3068847656</ele>
        <time>2012-06-24T11:29:33Z</time>
      </trkpt>
      <trkpt lat="42.75828" lon="1.43708">
        <ele>1612.2683105469</ele>
        <time>2012-06-24T11:29:41Z</time>
      </trkpt>
      <trkpt lat="42.75823" lon="1.43716">
        <ele>1613.7102050781</ele>
        <time>2012-06-24T11:29:48Z</time>
      </trkpt>
      <trkpt lat="42.75819" lon="1.43726">
        <ele>1614.6716308594</ele>
        <time>2012-06-24T11:29:54Z</time>
      </trkpt>
      <trkpt lat="42.75817" lon="1.43732">
        <ele>1614.1909179688</ele>
        <time>2012-06-24T11:29:58Z</time>
      </trkpt>
      <trkpt lat="42.75815" lon="1.43742">
        <ele>1614.1909179688</ele>
        <time>2012-06-24T11:30:04Z</time>
      </trkpt>
      <trkpt lat="42.75809" lon="1.43747">
        <ele>1613.2297363281</ele>
        <time>2012-06-24T11:30:09Z</time>
      </trkpt>
      <trkpt lat="42.75807" lon="1.43751">
        <ele>1613.2297363281</ele>
        <time>2012-06-24T11:30:12Z</time>
      </trkpt>
      <trkpt lat="42.75806" lon="1.4376">
        <ele>1612.7490234375</ele>
        <time>2012-06-24T11:30:18Z</time>
      </trkpt>
      <trkpt lat="42.75803" lon="1.43765">
        <ele>1612.7490234375</ele>
        <time>2012-06-24T11:30:22Z</time>
      </trkpt>
      <trkpt lat="42.75796" lon="1.43769">
        <ele>1612.2683105469</ele>
        <time>2012-06-24T11:30:27Z</time>
      </trkpt>
      <trkpt lat="42.7579" lon="1.43775">
        <ele>1612.2683105469</ele>
        <time>2012-06-24T11:30:33Z</time>
      </trkpt>
      <trkpt lat="42.75784" lon="1.43781">
        <ele>1613.2297363281</ele>
        <time>2012-06-24T11:30:39Z</time>
      </trkpt>
      <trkpt lat="42.75776" lon="1.4379">
        <ele>1612.7490234375</ele>
        <time>2012-06-24T11:30:46Z</time>
      </trkpt>
      <trkpt lat="42.75774" lon="1.43792">
        <ele>1612.7490234375</ele>
        <time>2012-06-24T11:30:47Z</time>
      </trkpt>
      <trkpt lat="42.75769" lon="1.43801">
        <ele>1612.2683105469</ele>
        <time>2012-06-24T11:30:53Z</time>
      </trkpt>
      <trkpt lat="42.75761" lon="1.43809">
        <ele>1612.7490234375</ele>
        <time>2012-06-24T11:31:00Z</time>
      </trkpt>
      <trkpt lat="42.75761" lon="1.4381">
        <ele>1612.7490234375</ele>
        <time>2012-06-24T11:31:01Z</time>
      </trkpt>
      <trkpt lat="42.75756" lon="1.43819">
        <ele>1610.826171875</ele>
        <time>2012-06-24T11:31:07Z</time>
      </trkpt>
      <trkpt lat="42.75751" lon="1.43825">
        <ele>1609.3842773438</ele>
        <time>2012-06-24T11:31:12Z</time>
      </trkpt>
      <trkpt lat="42.75746" lon="1.43836">
        <ele>1609.3842773438</ele>
        <time>2012-06-24T11:31:19Z</time>
      </trkpt>
      <trkpt lat="42.75745" lon="1.43838">
        <ele>1608.9035644531</ele>
        <time>2012-06-24T11:31:20Z</time>
      </trkpt>
      <trkpt lat="42.75737" lon="1.4384">
        <ele>1608.9035644531</ele>
        <time>2012-06-24T11:31:26Z</time>
      </trkpt>
      <trkpt lat="42.75734" lon="1.43846">
        <ele>1607.4616699219</ele>
        <time>2012-06-24T11:31:30Z</time>
      </trkpt>
      <trkpt lat="42.75726" lon="1.4385">
        <ele>1606.5002441406</ele>
        <time>2012-06-24T11:31:36Z</time>
      </trkpt>
      <trkpt lat="42.75725" lon="1.43851">
        <ele>1606.01953125</ele>
        <time>2012-06-24T11:31:37Z</time>
      </trkpt>
      <trkpt lat="42.75723" lon="1.43855">
        <ele>1605.0583496094</ele>
        <time>2012-06-24T11:31:40Z</time>
      </trkpt>
      <trkpt lat="42.75721" lon="1.43862">
        <ele>1605.0583496094</ele>
        <time>2012-06-24T11:31:45Z</time>
      </trkpt>
      <trkpt lat="42.75716" lon="1.43866">
        <ele>1605.0583496094</ele>
        <time>2012-06-24T11:31:50Z</time>
      </trkpt>
      <trkpt lat="42.75712" lon="1.43875">
        <ele>1603.1357421875</ele>
        <time>2012-06-24T11:31:56Z</time>
      </trkpt>
      <trkpt lat="42.75711" lon="1.43879">
        <ele>1602.6550292969</ele>
        <time>2012-06-24T11:31:58Z</time>
      </trkpt>
      <trkpt lat="42.7571" lon="1.4389">
        <ele>1601.6938476562</ele>
        <time>2012-06-24T11:32:04Z</time>
      </trkpt>
      <trkpt lat="42.75709" lon="1.43893">
        <ele>1601.6938476562</ele>
        <time>2012-06-24T11:32:06Z</time>
      </trkpt>
      <trkpt lat="42.75705" lon="1.43901">
        <ele>1602.1743164062</ele>
        <time>2012-06-24T11:32:13Z</time>
      </trkpt>
      <trkpt lat="42.757" lon="1.43909">
        <ele>1601.6938476562</ele>
        <time>2012-06-24T11:32:19Z</time>
      </trkpt>
      <trkpt lat="42.75698" lon="1.43914">
        <ele>1601.6938476562</ele>
        <time>2012-06-24T11:32:22Z</time>
      </trkpt>
      <trkpt lat="42.75695" lon="1.4392">
        <ele>1602.6550292969</ele>
        <time>2012-06-24T11:32:27Z</time>
      </trkpt>
      <trkpt lat="42.75693" lon="1.43924">
        <ele>1602.6550292969</ele>
        <time>2012-06-24T11:32:30Z</time>
      </trkpt>
      <trkpt lat="42.75686" lon="1.43929">
        <ele>1602.6550292969</ele>
        <time>2012-06-24T11:32:35Z</time>
      </trkpt>
      <trkpt lat="42.75685" lon="1.43932">
        <ele>1603.6164550781</ele>
        <time>2012-06-24T11:32:37Z</time>
      </trkpt>
      <trkpt lat="42.75685" lon="1.43935">
        <ele>1603.6164550781</ele>
        <time>2012-06-24T11:32:40Z</time>
      </trkpt>
      <trkpt lat="42.75686" lon="1.43938">
        <ele>1603.6164550781</ele>
        <time>2012-06-24T11:32:42Z</time>
      </trkpt>
      <trkpt lat="42.75686" lon="1.4394">
        <ele>1604.0971679688</ele>
        <time>2012-06-24T11:32:44Z</time>
      </trkpt>
      <trkpt lat="42.75684" lon="1.43947">
        <ele>1604.5776367188</ele>
        <time>2012-06-24T11:32:49Z</time>
      </trkpt>
      <trkpt lat="42.75681" lon="1.43952">
        <ele>1604.5776367188</ele>
        <time>2012-06-24T11:32:53Z</time>
      </trkpt>
      <trkpt lat="42.75678" lon="1.43956">
        <ele>1605.0583496094</ele>
        <time>2012-06-24T11:32:57Z</time>
      </trkpt>
      <trkpt lat="42.75674" lon="1.4396">
        <ele>1605.0583496094</ele>
        <time>2012-06-24T11:33:02Z</time>
      </trkpt>
      <trkpt lat="42.75672" lon="1.43965">
        <ele>1605.5390625</ele>
        <time>2012-06-24T11:33:06Z</time>
      </trkpt>
      <trkpt lat="42.75667" lon="1.43971">
        <ele>1605.5390625</ele>
        <time>2012-06-24T11:33:11Z</time>
      </trkpt>
      <trkpt lat="42.75661" lon="1.43977">
        <ele>1605.5390625</ele>
        <time>2012-06-24T11:33:18Z</time>
      </trkpt>
      <trkpt lat="42.75655" lon="1.43982">
        <ele>1604.5776367188</ele>
        <time>2012-06-24T11:33:24Z</time>
      </trkpt>
      <trkpt lat="42.75649" lon="1.43989">
        <ele>1604.0971679688</ele>
        <time>2012-06-24T11:33:30Z</time>
      </trkpt>
      <trkpt lat="42.75645" lon="1.43993">
        <ele>1603.6164550781</ele>
        <time>2012-06-24T11:33:35Z</time>
      </trkpt>
      <trkpt lat="42.75644" lon="1.44001">
        <ele>1603.6164550781</ele>
        <time>2012-06-24T11:33:40Z</time>
      </trkpt>
      <trkpt lat="42.75639" lon="1.44011">
        <ele>1601.6938476562</ele>
        <time>2012-06-24T11:33:48Z</time>
      </trkpt>
      <trkpt lat="42.75638" lon="1.44012">
        <ele>1601.6938476562</ele>
        <time>2012-06-24T11:33:49Z</time>
      </trkpt>
      <trkpt lat="42.75632" lon="1.44017">
        <ele>1602.1743164062</ele>
        <time>2012-06-24T11:33:54Z</time>
      </trkpt>
      <trkpt lat="42.75626" lon="1.44025">
        <ele>1603.1357421875</ele>
        <time>2012-06-24T11:34:01Z</time>
      </trkpt>
      <trkpt lat="42.75622" lon="1.44037">
        <ele>1604.0971679688</ele>
        <time>2012-06-24T11:34:09Z</time>
      </trkpt>
      <trkpt lat="42.75621" lon="1.44038">
        <ele>1604.0971679688</ele>
        <time>2012-06-24T11:34:10Z</time>
      </trkpt>
      <trkpt lat="42.75621" lon="1.44045">
        <ele>1605.0583496094</ele>
        <time>2012-06-24T11:34:14Z</time>
      </trkpt>
      <trkpt lat="42.7562" lon="1.44054">
        <ele>1606.01953125</ele>
        <time>2012-06-24T11:34:20Z</time>
      </trkpt>
      <trkpt lat="42.75616" lon="1.44059">
        <ele>1605.5390625</ele>
        <time>2012-06-24T11:34:24Z</time>
      </trkpt>
      <trkpt lat="42.7561" lon="1.44066">
        <ele>1605.0583496094</ele>
        <time>2012-06-24T11:34:30Z</time>
      </trkpt>
      <trkpt lat="42.75605" lon="1.44071">
        <ele>1605.0583496094</ele>
        <time>2012-06-24T11:34:35Z</time>
      </trkpt>
      <trkpt lat="42.756" lon="1.44079">
        <ele>1605.0583496094</ele>
        <time>2012-06-24T11:34:42Z</time>
      </trkpt>
      <trkpt lat="42.75594" lon="1.44085">
        <ele>1605.0583496094</ele>
        <time>2012-06-24T11:34:48Z</time>
      </trkpt>
      <trkpt lat="42.75594" lon="1.44085">
        <ele>1605.0583496094</ele>
        <time>2012-06-24T11:34:49Z</time>
      </trkpt>
      <trkpt lat="42.7559" lon="1.44092">
        <ele>1605.0583496094</ele>
        <time>2012-06-24T11:34:55Z</time>
      </trkpt>
      <trkpt lat="42.75585" lon="1.441">
        <ele>1604.0971679688</ele>
        <time>2012-06-24T11:35:01Z</time>
      </trkpt>
      <trkpt lat="42.75582" lon="1.44104">
        <ele>1603.6164550781</ele>
        <time>2012-06-24T11:35:04Z</time>
      </trkpt>
      <trkpt lat="42.7558" lon="1.44108">
        <ele>1604.0971679688</ele>
        <time>2012-06-24T11:35:07Z</time>
      </trkpt>
      <trkpt lat="42.75576" lon="1.44115">
        <ele>1603.6164550781</ele>
        <time>2012-06-24T11:35:12Z</time>
      </trkpt>
      <trkpt lat="42.75575" lon="1.44124">
        <ele>1603.1357421875</ele>
        <time>2012-06-24T11:35:17Z</time>
      </trkpt>
      <trkpt lat="42.75571" lon="1.44137">
        <ele>1603.6164550781</ele>
        <time>2012-06-24T11:35:25Z</time>
      </trkpt>
      <trkpt lat="42.7557" lon="1.44138">
        <ele>1603.6164550781</ele>
        <time>2012-06-24T11:35:26Z</time>
      </trkpt>
      <trkpt lat="42.75568" lon="1.44145">
        <ele>1603.1357421875</ele>
        <time>2012-06-24T11:35:32Z</time>
      </trkpt>
      <trkpt lat="42.75567" lon="1.44146">
        <ele>1603.1357421875</ele>
        <time>2012-06-24T11:35:33Z</time>
      </trkpt>
      <trkpt lat="42.75566" lon="1.44149">
        <ele>1603.1357421875</ele>
        <time>2012-06-24T11:35:35Z</time>
      </trkpt>
      <trkpt lat="42.75565" lon="1.44158">
        <ele>1603.1357421875</ele>
        <time>2012-06-24T11:35:42Z</time>
      </trkpt>
      <trkpt lat="42.75561" lon="1.44165">
        <ele>1603.1357421875</ele>
        <time>2012-06-24T11:35:48Z</time>
      </trkpt>
      <trkpt lat="42.7556" lon="1.44166">
        <ele>1603.1357421875</ele>
        <time>2012-06-24T11:35:49Z</time>
      </trkpt>
      <trkpt lat="42.75558" lon="1.44174">
        <ele>1603.6164550781</ele>
        <time>2012-06-24T11:35:55Z</time>
      </trkpt>
      <trkpt lat="42.75555" lon="1.44187">
        <ele>1603.6164550781</ele>
        <time>2012-06-24T11:36:03Z</time>
      </trkpt>
      <trkpt lat="42.75552" lon="1.44196">
        <ele>1604.5776367188</ele>
        <time>2012-06-24T11:36:09Z</time>
      </trkpt>
      <trkpt lat="42.75549" lon="1.44204">
        <ele>1605.0583496094</ele>
        <time>2012-06-24T11:36:15Z</time>
      </trkpt>
      <trkpt lat="42.75546" lon="1.44211">
        <ele>1605.0583496094</ele>
        <time>2012-06-24T11:36:20Z</time>
      </trkpt>
      <trkpt lat="42.7554" lon="1.44218">
        <ele>1605.0583496094</ele>
        <time>2012-06-24T11:36:26Z</time>
      </trkpt>
      <trkpt lat="42.75538" lon="1.44228">
        <ele>1603.6164550781</ele>
        <time>2012-06-24T11:36:32Z</time>
      </trkpt>
      <trkpt lat="42.75539" lon="1.44237">
        <ele>1602.6550292969</ele>
        <time>2012-06-24T11:36:38Z</time>
      </trkpt>
      <trkpt lat="42.75541" lon="1.44248">
        <ele>1602.1743164062</ele>
        <time>2012-06-24T11:36:44Z</time>
      </trkpt>
      <trkpt lat="42.75541" lon="1.44259">
        <ele>1602.1743164062</ele>
        <time>2012-06-24T11:36:52Z</time>
      </trkpt>
      <trkpt lat="42.75537" lon="1.44266">
        <ele>1602.1743164062</ele>
        <time>2012-06-24T11:36:58Z</time>
      </trkpt>
      <trkpt lat="42.75536" lon="1.44267">
        <ele>1602.1743164062</ele>
        <time>2012-06-24T11:37:00Z</time>
      </trkpt>
      <trkpt lat="42.75528" lon="1.44277">
        <ele>1600.732421875</ele>
        <time>2012-06-24T11:37:08Z</time>
      </trkpt>
      <trkpt lat="42.75526" lon="1.44278">
        <ele>1600.732421875</ele>
        <time>2012-06-24T11:37:10Z</time>
      </trkpt>
      <trkpt lat="42.7552" lon="1.44284">
        <ele>1600.732421875</ele>
        <time>2012-06-24T11:37:15Z</time>
      </trkpt>
      <trkpt lat="42.75513" lon="1.44292">
        <ele>1599.7712402344</ele>
        <time>2012-06-24T11:37:22Z</time>
      </trkpt>
      <trkpt lat="42.75507" lon="1.44296">
        <ele>1597.8486328125</ele>
        <time>2012-06-24T11:37:27Z</time>
      </trkpt>
      <trkpt lat="42.75498" lon="1.44301">
        <ele>1596.8872070312</ele>
        <time>2012-06-24T11:37:34Z</time>
      </trkpt>
      <trkpt lat="42.75492" lon="1.44311">
        <ele>1596.4067382812</ele>
        <time>2012-06-24T11:37:39Z</time>
      </trkpt>
      <trkpt lat="42.75489" lon="1.44317">
        <ele>1595.92578125</ele>
        <time>2012-06-24T11:37:42Z</time>
      </trkpt>
      <trkpt lat="42.75484" lon="1.44326">
        <ele>1595.4450683594</ele>
        <time>2012-06-24T11:37:48Z</time>
      </trkpt>
      <trkpt lat="42.75482" lon="1.44332">
        <ele>1594.9643554688</ele>
        <time>2012-06-24T11:37:52Z</time>
      </trkpt>
      <trkpt lat="42.75483" lon="1.44336">
        <ele>1594.4836425781</ele>
        <time>2012-06-24T11:37:54Z</time>
      </trkpt>
      <trkpt lat="42.75481" lon="1.44343">
        <ele>1593.5224609375</ele>
        <time>2012-06-24T11:37:59Z</time>
      </trkpt>
      <trkpt lat="42.75479" lon="1.44349">
        <ele>1592.0805664062</ele>
        <time>2012-06-24T11:38:04Z</time>
      </trkpt>
      <trkpt lat="42.75476" lon="1.44361">
        <ele>1591.119140625</ele>
        <time>2012-06-24T11:38:13Z</time>
      </trkpt>
      <trkpt lat="42.75476" lon="1.44362">
        <ele>1591.119140625</ele>
        <time>2012-06-24T11:38:14Z</time>
      </trkpt>
      <trkpt lat="42.75472" lon="1.44374">
        <ele>1591.119140625</ele>
        <time>2012-06-24T11:38:22Z</time>
      </trkpt>
      <trkpt lat="42.7547" lon="1.44379">
        <ele>1591.5998535156</ele>
        <time>2012-06-24T11:38:25Z</time>
      </trkpt>
      <trkpt lat="42.75469" lon="1.44388">
        <ele>1590.1579589844</ele>
        <time>2012-06-24T11:38:31Z</time>
      </trkpt>
      <trkpt lat="42.75469" lon="1.4439">
        <ele>1589.6772460938</ele>
        <time>2012-06-24T11:38:32Z</time>
      </trkpt>
      <trkpt lat="42.75468" lon="1.44397">
        <ele>1589.1965332031</ele>
        <time>2012-06-24T11:38:36Z</time>
      </trkpt>
      <trkpt lat="42.75464" lon="1.44404">
        <ele>1587.7546386719</ele>
        <time>2012-06-24T11:38:42Z</time>
      </trkpt>
      <trkpt lat="42.75463" lon="1.44409">
        <ele>1587.7546386719</ele>
        <time>2012-06-24T11:38:45Z</time>
      </trkpt>
      <trkpt lat="42.75459" lon="1.44418">
        <ele>1588.2353515625</ele>
        <time>2012-06-24T11:38:52Z</time>
      </trkpt>
      <trkpt lat="42.75456" lon="1.44423">
        <ele>1588.7160644531</ele>
        <time>2012-06-24T11:38:56Z</time>
      </trkpt>
      <trkpt lat="42.75452" lon="1.44427">
        <ele>1588.7160644531</ele>
        <time>2012-06-24T11:39:02Z</time>
      </trkpt>
      <trkpt lat="42.75451" lon="1.44431">
        <ele>1588.2353515625</ele>
        <time>2012-06-24T11:39:05Z</time>
      </trkpt>
      <trkpt lat="42.75448" lon="1.44436">
        <ele>1588.7160644531</ele>
        <time>2012-06-24T11:39:11Z</time>
      </trkpt>
      <trkpt lat="42.75447" lon="1.44439">
        <ele>1588.2353515625</ele>
        <time>2012-06-24T11:39:13Z</time>
      </trkpt>
      <trkpt lat="42.75444" lon="1.44449">
        <ele>1588.7160644531</ele>
        <time>2012-06-24T11:39:20Z</time>
      </trkpt>
      <trkpt lat="42.75442" lon="1.44451">
        <ele>1589.1965332031</ele>
        <time>2012-06-24T11:39:22Z</time>
      </trkpt>
      <trkpt lat="42.75441" lon="1.44453">
        <ele>1588.7160644531</ele>
        <time>2012-06-24T11:39:24Z</time>
      </trkpt>
      <trkpt lat="42.7544" lon="1.44461">
        <ele>1588.7160644531</ele>
        <time>2012-06-24T11:39:29Z</time>
      </trkpt>
      <trkpt lat="42.75438" lon="1.44462">
        <ele>1588.7160644531</ele>
        <time>2012-06-24T11:39:31Z</time>
      </trkpt>
      <trkpt lat="42.75433" lon="1.44465">
        <ele>1588.7160644531</ele>
        <time>2012-06-24T11:39:35Z</time>
      </trkpt>
      <trkpt lat="42.75426" lon="1.44463">
        <ele>1588.7160644531</ele>
        <time>2012-06-24T11:39:41Z</time>
      </trkpt>
      <trkpt lat="42.75425" lon="1.44463">
        <ele>1588.2353515625</ele>
        <time>2012-06-24T11:39:42Z</time>
      </trkpt>
      <trkpt lat="42.75417" lon="1.44469">
        <ele>1588.2353515625</ele>
        <time>2012-06-24T11:39:48Z</time>
      </trkpt>
      <trkpt lat="42.75414" lon="1.4447">
        <ele>1587.7546386719</ele>
        <time>2012-06-24T11:39:50Z</time>
      </trkpt>
      <trkpt lat="42.75409" lon="1.4447">
        <ele>1588.2353515625</ele>
        <time>2012-06-24T11:39:54Z</time>
      </trkpt>
      <trkpt lat="42.75404" lon="1.4447">
        <ele>1588.7160644531</ele>
        <time>2012-06-24T11:39:58Z</time>
      </trkpt>
      <trkpt lat="42.75398" lon="1.44468">
        <ele>1588.2353515625</ele>
        <time>2012-06-24T11:40:02Z</time>
      </trkpt>
      <trkpt lat="42.75396" lon="1.44467">
        <ele>1588.7160644531</ele>
        <time>2012-06-24T11:40:04Z</time>
      </trkpt>
      <trkpt lat="42.75389" lon="1.44472">
        <ele>1589.1965332031</ele>
        <time>2012-06-24T11:40:12Z</time>
      </trkpt>
      <trkpt lat="42.75388" lon="1.44481">
        <ele>1590.1579589844</ele>
        <time>2012-06-24T11:40:18Z</time>
      </trkpt>
      <trkpt lat="42.75383" lon="1.44488">
        <ele>1589.6772460938</ele>
        <time>2012-06-24T11:40:23Z</time>
      </trkpt>
      <trkpt lat="42.75382" lon="1.44489">
        <ele>1589.6772460938</ele>
        <time>2012-06-24T11:40:24Z</time>
      </trkpt>
      <trkpt lat="42.75378" lon="1.44495">
        <ele>1589.1965332031</ele>
        <time>2012-06-24T11:40:29Z</time>
      </trkpt>
      <trkpt lat="42.75375" lon="1.445">
        <ele>1589.6772460938</ele>
        <time>2012-06-24T11:40:33Z</time>
      </trkpt>
      <trkpt lat="42.75372" lon="1.44505">
        <ele>1588.2353515625</ele>
        <time>2012-06-24T11:40:38Z</time>
      </trkpt>
      <trkpt lat="42.75371" lon="1.44515">
        <ele>1587.7546386719</ele>
        <time>2012-06-24T11:40:43Z</time>
      </trkpt>
      <trkpt lat="42.75371" lon="1.44518">
        <ele>1587.2739257812</ele>
        <time>2012-06-24T11:40:45Z</time>
      </trkpt>
      <trkpt lat="42.75371" lon="1.44527">
        <ele>1586.7932128906</ele>
        <time>2012-06-24T11:40:50Z</time>
      </trkpt>
      <trkpt lat="42.7537" lon="1.44534">
        <ele>1585.83203125</ele>
        <time>2012-06-24T11:40:55Z</time>
      </trkpt>
      <trkpt lat="42.75365" lon="1.44539">
        <ele>1584.3901367188</ele>
        <time>2012-06-24T11:40:59Z</time>
      </trkpt>
      <trkpt lat="42.75357" lon="1.44541">
        <ele>1583.4287109375</ele>
        <time>2012-06-24T11:41:06Z</time>
      </trkpt>
      <trkpt lat="42.75352" lon="1.44537">
        <ele>1582.4675292969</ele>
        <time>2012-06-24T11:41:09Z</time>
      </trkpt>
      <trkpt lat="42.7535" lon="1.44531">
        <ele>1581.0256347656</ele>
        <time>2012-06-24T11:41:13Z</time>
      </trkpt>
      <trkpt lat="42.75348" lon="1.44522">
        <ele>1580.0642089844</ele>
        <time>2012-06-24T11:41:18Z</time>
      </trkpt>
      <trkpt lat="42.75346" lon="1.44513">
        <ele>1579.1025390625</ele>
        <time>2012-06-24T11:41:24Z</time>
      </trkpt>
      <trkpt lat="42.75348" lon="1.44505">
        <ele>1577.1801757812</ele>
        <time>2012-06-24T11:41:29Z</time>
      </trkpt>
      <trkpt lat="42.75349" lon="1.44501">
        <ele>1575.2573242188</ele>
        <time>2012-06-24T11:41:33Z</time>
      </trkpt>
      <trkpt lat="42.75348" lon="1.44494">
        <ele>1573.3349609375</ele>
        <time>2012-06-24T11:41:37Z</time>
      </trkpt>
      <trkpt lat="42.75344" lon="1.44485">
        <ele>1573.3349609375</ele>
        <time>2012-06-24T11:41:44Z</time>
      </trkpt>
      <trkpt lat="42.75344" lon="1.4448">
        <ele>1572.8542480469</ele>
        <time>2012-06-24T11:41:48Z</time>
      </trkpt>
      <trkpt lat="42.75343" lon="1.4447">
        <ele>1570.931640625</ele>
        <time>2012-06-24T11:41:54Z</time>
      </trkpt>
      <trkpt lat="42.75343" lon="1.44468">
        <ele>1570.931640625</ele>
        <time>2012-06-24T11:41:55Z</time>
      </trkpt>
      <trkpt lat="42.75343" lon="1.44463">
        <ele>1570.4509277344</ele>
        <time>2012-06-24T11:41:58Z</time>
      </trkpt>
      <trkpt lat="42.75343" lon="1.44458">
        <ele>1569.4897460938</ele>
        <time>2012-06-24T11:42:02Z</time>
      </trkpt>
      <trkpt lat="42.75343" lon="1.44454">
        <ele>1569.4897460938</ele>
        <time>2012-06-24T11:42:04Z</time>
      </trkpt>
      <trkpt lat="42.75342" lon="1.44443">
        <ele>1569.0090332031</ele>
        <time>2012-06-24T11:42:11Z</time>
      </trkpt>
      <trkpt lat="42.75342" lon="1.4444">
        <ele>1568.0476074219</ele>
        <time>2012-06-24T11:42:13Z</time>
      </trkpt>
      <trkpt lat="42.75334" lon="1.44429">
        <ele>1568.5283203125</ele>
        <time>2012-06-24T11:42:22Z</time>
      </trkpt>
      <trkpt lat="42.75333" lon="1.44428">
        <ele>1568.5283203125</ele>
        <time>2012-06-24T11:42:23Z</time>
      </trkpt>
      <trkpt lat="42.75323" lon="1.44419">
        <ele>1566.6057128906</ele>
        <time>2012-06-24T11:42:32Z</time>
      </trkpt>
      <trkpt lat="42.75319" lon="1.44413">
        <ele>1565.64453125</ele>
        <time>2012-06-24T11:42:37Z</time>
      </trkpt>
      <trkpt lat="42.75318" lon="1.44413">
        <ele>1566.125</ele>
        <time>2012-06-24T11:42:38Z</time>
      </trkpt>
      <trkpt lat="42.75315" lon="1.4441">
        <ele>1567.0864257812</ele>
        <time>2012-06-24T11:42:43Z</time>
      </trkpt>
      <trkpt lat="42.75311" lon="1.44406">
        <ele>1568.0476074219</ele>
        <time>2012-06-24T11:42:48Z</time>
      </trkpt>
      <trkpt lat="42.75304" lon="1.44399">
        <ele>1567.0864257812</ele>
        <time>2012-06-24T11:42:56Z</time>
      </trkpt>
      <trkpt lat="42.75301" lon="1.44394">
        <ele>1565.64453125</ele>
        <time>2012-06-24T11:43:00Z</time>
      </trkpt>
      <trkpt lat="42.75294" lon="1.44388">
        <ele>1563.2409667969</ele>
        <time>2012-06-24T11:43:07Z</time>
      </trkpt>
      <trkpt lat="42.7529" lon="1.44385">
        <ele>1560.3569335938</ele>
        <time>2012-06-24T11:43:12Z</time>
      </trkpt>
      <trkpt lat="42.75287" lon="1.44386">
        <ele>1557.9538574219</ele>
        <time>2012-06-24T11:43:17Z</time>
      </trkpt>
      <trkpt lat="42.75289" lon="1.44394">
        <ele>1555.0698242188</ele>
        <time>2012-06-24T11:43:22Z</time>
      </trkpt>
      <trkpt lat="42.7529" lon="1.44399">
        <ele>1553.1472167969</ele>
        <time>2012-06-24T11:43:26Z</time>
      </trkpt>
      <trkpt lat="42.7529" lon="1.44404">
        <ele>1550.7438964844</ele>
        <time>2012-06-24T11:43:31Z</time>
      </trkpt>
      <trkpt lat="42.75286" lon="1.44402">
        <ele>1548.8212890625</ele>
        <time>2012-06-24T11:43:36Z</time>
      </trkpt>
      <trkpt lat="42.75283" lon="1.44397">
        <ele>1548.3405761719</ele>
        <time>2012-06-24T11:43:41Z</time>
      </trkpt>
      <trkpt lat="42.7528" lon="1.44392">
        <ele>1548.8212890625</ele>
        <time>2012-06-24T11:43:46Z</time>
      </trkpt>
      <trkpt lat="42.75278" lon="1.4439">
        <ele>1547.8598632812</ele>
        <time>2012-06-24T11:43:51Z</time>
      </trkpt>
      <trkpt lat="42.75278" lon="1.44395">
        <ele>1546.8984375</ele>
        <time>2012-06-24T11:43:57Z</time>
      </trkpt>
      <trkpt lat="42.75277" lon="1.44399">
        <ele>1545.4565429688</ele>
        <time>2012-06-24T11:44:02Z</time>
      </trkpt>
      <trkpt lat="42.75274" lon="1.44398">
        <ele>1544.0146484375</ele>
        <time>2012-06-24T11:44:07Z</time>
      </trkpt>
      <trkpt lat="42.75269" lon="1.44399">
        <ele>1542.5727539062</ele>
        <time>2012-06-24T11:44:12Z</time>
      </trkpt>
      <trkpt lat="42.75266" lon="1.44401">
        <ele>1540.1694335938</ele>
        <time>2012-06-24T11:44:18Z</time>
      </trkpt>
      <trkpt lat="42.75262" lon="1.44403">
        <ele>1538.7275390625</ele>
        <time>2012-06-24T11:44:22Z</time>
      </trkpt>
      <trkpt lat="42.75259" lon="1.44404">
        <ele>1536.8046875</ele>
        <time>2012-06-24T11:44:26Z</time>
      </trkpt>
      <trkpt lat="42.75256" lon="1.44407">
        <ele>1534.8823242188</ele>
        <time>2012-06-24T11:44:31Z</time>
      </trkpt>
      <trkpt lat="42.75251" lon="1.44409">
        <ele>1533.9208984375</ele>
        <time>2012-06-24T11:44:35Z</time>
      </trkpt>
      <trkpt lat="42.75248" lon="1.44409">
        <ele>1532.9594726562</ele>
        <time>2012-06-24T11:44:38Z</time>
      </trkpt>
      <trkpt lat="42.75242" lon="1.44409">
        <ele>1531.5173339844</ele>
        <time>2012-06-24T11:44:44Z</time>
      </trkpt>
      <trkpt lat="42.7524" lon="1.44414">
        <ele>1529.5947265625</ele>
        <time>2012-06-24T11:44:50Z</time>
      </trkpt>
      <trkpt lat="42.75235" lon="1.4442">
        <ele>1528.1528320312</ele>
        <time>2012-06-24T11:44:56Z</time>
      </trkpt>
      <trkpt lat="42.7523" lon="1.4442">
        <ele>1527.6721191406</ele>
        <time>2012-06-24T11:45:00Z</time>
      </trkpt>
      <trkpt lat="42.75227" lon="1.44422">
        <ele>1526.7109375</ele>
        <time>2012-06-24T11:45:04Z</time>
      </trkpt>
      <trkpt lat="42.75225" lon="1.44424">
        <ele>1527.1916503906</ele>
        <time>2012-06-24T11:45:06Z</time>
      </trkpt>
      <trkpt lat="42.7522" lon="1.44424">
        <ele>1525.2687988281</ele>
        <time>2012-06-24T11:45:12Z</time>
      </trkpt>
      <trkpt lat="42.75219" lon="1.44424">
        <ele>1525.2687988281</ele>
        <time>2012-06-24T11:45:13Z</time>
      </trkpt>
      <trkpt lat="42.75212" lon="1.44424">
        <ele>1523.3464355469</ele>
        <time>2012-06-24T11:45:19Z</time>
      </trkpt>
      <trkpt lat="42.75206" lon="1.44424">
        <ele>1522.8657226562</ele>
        <time>2012-06-24T11:45:23Z</time>
      </trkpt>
      <trkpt lat="42.75199" lon="1.44424">
        <ele>1522.3850097656</ele>
        <time>2012-06-24T11:45:29Z</time>
      </trkpt>
      <trkpt lat="42.7519" lon="1.44427">
        <ele>1522.3850097656</ele>
        <time>2012-06-24T11:45:36Z</time>
      </trkpt>
      <trkpt lat="42.75184" lon="1.44432">
        <ele>1523.8269042969</ele>
        <time>2012-06-24T11:45:41Z</time>
      </trkpt>
      <trkpt lat="42.75181" lon="1.44437">
        <ele>1523.3464355469</ele>
        <time>2012-06-24T11:45:45Z</time>
      </trkpt>
      <trkpt lat="42.75176" lon="1.44444">
        <ele>1520.9431152344</ele>
        <time>2012-06-24T11:45:51Z</time>
      </trkpt>
      <trkpt lat="42.75173" lon="1.44445">
        <ele>1520.9431152344</ele>
        <time>2012-06-24T11:45:53Z</time>
      </trkpt>
      <trkpt lat="42.75166" lon="1.44451">
        <ele>1520.4624023438</ele>
        <time>2012-06-24T11:45:59Z</time>
      </trkpt>
      <trkpt lat="42.75161" lon="1.44457">
        <ele>1520.4624023438</ele>
        <time>2012-06-24T11:46:03Z</time>
      </trkpt>
      <trkpt lat="42.75153" lon="1.44462">
        <ele>1519.5012207031</ele>
        <time>2012-06-24T11:46:09Z</time>
      </trkpt>
      <trkpt lat="42.75149" lon="1.44465">
        <ele>1519.0205078125</ele>
        <time>2012-06-24T11:46:13Z</time>
      </trkpt>
      <trkpt lat="42.75148" lon="1.44466">
        <ele>1518.5397949219</ele>
        <time>2012-06-24T11:46:14Z</time>
      </trkpt>
      <trkpt lat="42.7514" lon="1.44469">
        <ele>1517.5783691406</ele>
        <time>2012-06-24T11:46:21Z</time>
      </trkpt>
      <trkpt lat="42.75137" lon="1.44471">
        <ele>1517.0979003906</ele>
        <time>2012-06-24T11:46:24Z</time>
      </trkpt>
      <trkpt lat="42.75139" lon="1.44473">
        <ele>1515.1750488281</ele>
        <time>2012-06-24T11:46:29Z</time>
      </trkpt>
      <trkpt lat="42.75139" lon="1.44477">
        <ele>1514.6943359375</ele>
        <time>2012-06-24T11:46:32Z</time>
      </trkpt>
      <trkpt lat="42.75135" lon="1.44479">
        <ele>1513.2524414062</ele>
        <time>2012-06-24T11:46:36Z</time>
      </trkpt>
      <trkpt lat="42.75128" lon="1.44483">
        <ele>1510.8491210938</ele>
        <time>2012-06-24T11:46:43Z</time>
      </trkpt>
      <trkpt lat="42.75121" lon="1.44486">
        <ele>1509.4072265625</ele>
        <time>2012-06-24T11:46:49Z</time>
      </trkpt>
      <trkpt lat="42.75114" lon="1.44489">
        <ele>1508.9265136719</ele>
        <time>2012-06-24T11:46:54Z</time>
      </trkpt>
      <trkpt lat="42.75105" lon="1.4449">
        <ele>1507.9653320312</ele>
        <time>2012-06-24T11:47:01Z</time>
      </trkpt>
      <trkpt lat="42.75098" lon="1.44491">
        <ele>1507.9653320312</ele>
        <time>2012-06-24T11:47:07Z</time>
      </trkpt>
      <trkpt lat="42.75094" lon="1.4449">
        <ele>1508.4458007812</ele>
        <time>2012-06-24T11:47:10Z</time>
      </trkpt>
      <trkpt lat="42.75088" lon="1.44484">
        <ele>1507.4846191406</ele>
        <time>2012-06-24T11:47:16Z</time>
      </trkpt>
      <trkpt lat="42.75085" lon="1.44482">
        <ele>1507.9653320312</ele>
        <time>2012-06-24T11:47:19Z</time>
      </trkpt>
      <trkpt lat="42.75082" lon="1.44479">
        <ele>1509.4072265625</ele>
        <time>2012-06-24T11:47:25Z</time>
      </trkpt>
      <trkpt lat="42.75078" lon="1.44477">
        <ele>1510.8491210938</ele>
        <time>2012-06-24T11:47:31Z</time>
      </trkpt>
      <trkpt lat="42.75074" lon="1.44475">
        <ele>1511.3298339844</ele>
        <time>2012-06-24T11:47:36Z</time>
      </trkpt>
      <trkpt lat="42.75069" lon="1.44474">
        <ele>1512.7717285156</ele>
        <time>2012-06-24T11:47:42Z</time>
      </trkpt>
      <trkpt lat="42.75064" lon="1.44474">
        <ele>1513.2524414062</ele>
        <time>2012-06-24T11:47:47Z</time>
      </trkpt>
      <trkpt lat="42.75057" lon="1.44479">
        <ele>1513.7329101562</ele>
        <time>2012-06-24T11:47:56Z</time>
      </trkpt>
      <trkpt lat="42.75053" lon="1.44485">
        <ele>1514.2136230469</ele>
        <time>2012-06-24T11:48:02Z</time>
      </trkpt>
      <trkpt lat="42.75048" lon="1.44491">
        <ele>1515.6557617188</ele>
        <time>2012-06-24T11:48:09Z</time>
      </trkpt>
      <trkpt lat="42.75043" lon="1.44493">
        <ele>1516.1364746094</ele>
        <time>2012-06-24T11:48:14Z</time>
      </trkpt>
      <trkpt lat="42.7504" lon="1.44493">
        <ele>1516.6171875</ele>
        <time>2012-06-24T11:48:17Z</time>
      </trkpt>
      <trkpt lat="42.75033" lon="1.44491">
        <ele>1518.0590820312</ele>
        <time>2012-06-24T11:48:25Z</time>
      </trkpt>
      <trkpt lat="42.75027" lon="1.4449">
        <ele>1518.5397949219</ele>
        <time>2012-06-24T11:48:31Z</time>
      </trkpt>
      <trkpt lat="42.7502" lon="1.44491">
        <ele>1519.0205078125</ele>
        <time>2012-06-24T11:48:39Z</time>
      </trkpt>
      <trkpt lat="42.75018" lon="1.44493">
        <ele>1519.0205078125</ele>
        <time>2012-06-24T11:48:45Z</time>
      </trkpt>
      <trkpt lat="42.75013" lon="1.44498">
        <ele>1519.9816894531</ele>
        <time>2012-06-24T11:48:51Z</time>
      </trkpt>
      <trkpt lat="42.75008" lon="1.44503">
        <ele>1521.4235839844</ele>
        <time>2012-06-24T11:48:57Z</time>
      </trkpt>
      <trkpt lat="42.75004" lon="1.44505">
        <ele>1522.3850097656</ele>
        <time>2012-06-24T11:49:02Z</time>
      </trkpt>
      <trkpt lat="42.75002" lon="1.44505">
        <ele>1522.3850097656</ele>
        <time>2012-06-24T11:49:05Z</time>
      </trkpt>
      <trkpt lat="42.75" lon="1.44502">
        <ele>1520.9431152344</ele>
        <time>2012-06-24T11:49:21Z</time>
      </trkpt>
      <trkpt lat="42.74998" lon="1.44495">
        <ele>1521.904296875</ele>
        <time>2012-06-24T11:49:29Z</time>
      </trkpt>
      <trkpt lat="42.74995" lon="1.44493">
        <ele>1522.8657226562</ele>
        <time>2012-06-24T11:49:35Z</time>
      </trkpt>
      <trkpt lat="42.74995" lon="1.44496">
        <ele>1522.3850097656</ele>
        <time>2012-06-24T11:49:40Z</time>
      </trkpt>
      <trkpt lat="42.7499" lon="1.44509">
        <ele>1524.3076171875</ele>
        <time>2012-06-24T11:49:49Z</time>
      </trkpt>
      <trkpt lat="42.74984" lon="1.44513">
        <ele>1525.7495117188</ele>
        <time>2012-06-24T11:49:56Z</time>
      </trkpt>
      <trkpt lat="42.74978" lon="1.44518">
        <ele>1526.7109375</ele>
        <time>2012-06-24T11:50:02Z</time>
      </trkpt>
      <trkpt lat="42.74973" lon="1.44523">
        <ele>1527.1916503906</ele>
        <time>2012-06-24T11:50:08Z</time>
      </trkpt>
      <trkpt lat="42.74972" lon="1.44524">
        <ele>1527.1916503906</ele>
        <time>2012-06-24T11:50:09Z</time>
      </trkpt>
      <trkpt lat="42.74968" lon="1.44526">
        <ele>1527.1916503906</ele>
        <time>2012-06-24T11:50:13Z</time>
      </trkpt>
      <trkpt lat="42.74963" lon="1.44532">
        <ele>1526.2302246094</ele>
        <time>2012-06-24T11:50:21Z</time>
      </trkpt>
      <trkpt lat="42.74958" lon="1.44537">
        <ele>1525.7495117188</ele>
        <time>2012-06-24T11:50:27Z</time>
      </trkpt>
      <trkpt lat="42.74952" lon="1.44542">
        <ele>1525.7495117188</ele>
        <time>2012-06-24T11:50:33Z</time>
      </trkpt>
      <trkpt lat="42.74945" lon="1.4455">
        <ele>1526.2302246094</ele>
        <time>2012-06-24T11:50:40Z</time>
      </trkpt>
      <trkpt lat="42.74939" lon="1.44557">
        <ele>1525.7495117188</ele>
        <time>2012-06-24T11:50:46Z</time>
      </trkpt>
      <trkpt lat="42.74932" lon="1.44563">
        <ele>1524.7883300781</ele>
        <time>2012-06-24T11:50:53Z</time>
      </trkpt>
      <trkpt lat="42.74928" lon="1.44565">
        <ele>1524.7883300781</ele>
        <time>2012-06-24T11:50:56Z</time>
      </trkpt>
      <trkpt lat="42.74921" lon="1.4457">
        <ele>1522.8657226562</ele>
        <time>2012-06-24T11:51:03Z</time>
      </trkpt>
      <trkpt lat="42.74916" lon="1.44573">
        <ele>1522.8657226562</ele>
        <time>2012-06-24T11:51:07Z</time>
      </trkpt>
      <trkpt lat="42.74913" lon="1.44574">
        <ele>1523.3464355469</ele>
        <time>2012-06-24T11:51:10Z</time>
      </trkpt>
      <trkpt lat="42.74903" lon="1.44581">
        <ele>1523.8269042969</ele>
        <time>2012-06-24T11:51:18Z</time>
      </trkpt>
      <trkpt lat="42.74898" lon="1.4459">
        <ele>1524.7883300781</ele>
        <time>2012-06-24T11:51:25Z</time>
      </trkpt>
      <trkpt lat="42.74894" lon="1.44596">
        <ele>1524.7883300781</ele>
        <time>2012-06-24T11:51:30Z</time>
      </trkpt>
      <trkpt lat="42.74887" lon="1.44603">
        <ele>1525.2687988281</ele>
        <time>2012-06-24T11:51:37Z</time>
      </trkpt>
      <trkpt lat="42.7488" lon="1.44609">
        <ele>1523.3464355469</ele>
        <time>2012-06-24T11:51:44Z</time>
      </trkpt>
      <trkpt lat="42.74875" lon="1.44611">
        <ele>1522.3850097656</ele>
        <time>2012-06-24T11:51:49Z</time>
      </trkpt>
      <trkpt lat="42.74871" lon="1.44614">
        <ele>1520.9431152344</ele>
        <time>2012-06-24T11:51:53Z</time>
      </trkpt>
      <trkpt lat="42.74871" lon="1.44619">
        <ele>1519.0205078125</ele>
        <time>2012-06-24T11:51:58Z</time>
      </trkpt>
      <trkpt lat="42.74871" lon="1.44623">
        <ele>1517.5783691406</ele>
        <time>2012-06-24T11:52:01Z</time>
      </trkpt>
      <trkpt lat="42.74867" lon="1.44624">
        <ele>1516.1364746094</ele>
        <time>2012-06-24T11:52:05Z</time>
      </trkpt>
      <trkpt lat="42.7486" lon="1.44627">
        <ele>1513.2524414062</ele>
        <time>2012-06-24T11:52:12Z</time>
      </trkpt>
      <trkpt lat="42.74859" lon="1.44627">
        <ele>1513.2524414062</ele>
        <time>2012-06-24T11:52:13Z</time>
      </trkpt>
      <trkpt lat="42.7486" lon="1.4463">
        <ele>1510.8491210938</ele>
        <time>2012-06-24T11:52:18Z</time>
      </trkpt>
      <trkpt lat="42.7486" lon="1.44634">
        <ele>1509.8876953125</ele>
        <time>2012-06-24T11:52:22Z</time>
      </trkpt>
      <trkpt lat="42.74858" lon="1.44635">
        <ele>1509.4072265625</ele>
        <time>2012-06-24T11:52:24Z</time>
      </trkpt>
      <trkpt lat="42.74856" lon="1.44638">
        <ele>1509.4072265625</ele>
        <time>2012-06-24T11:52:27Z</time>
      </trkpt>
      <trkpt lat="42.74855" lon="1.44643">
        <ele>1508.4458007812</ele>
        <time>2012-06-24T11:52:31Z</time>
      </trkpt>
      <trkpt lat="42.74848" lon="1.44645">
        <ele>1506.5231933594</ele>
        <time>2012-06-24T11:52:37Z</time>
      </trkpt>
      <trkpt lat="42.74847" lon="1.44646">
        <ele>1505.5620117188</ele>
        <time>2012-06-24T11:52:42Z</time>
      </trkpt>
      <trkpt lat="42.74844" lon="1.44648">
        <ele>1503.1586914062</ele>
        <time>2012-06-24T11:52:47Z</time>
      </trkpt>
      <trkpt lat="42.74841" lon="1.44651">
        <ele>1501.716796875</ele>
        <time>2012-06-24T11:52:53Z</time>
      </trkpt>
      <trkpt lat="42.74839" lon="1.44652">
        <ele>1500.2749023438</ele>
        <time>2012-06-24T11:52:59Z</time>
      </trkpt>
      <trkpt lat="42.74837" lon="1.44656">
        <ele>1500.2749023438</ele>
        <time>2012-06-24T11:53:09Z</time>
      </trkpt>
      <trkpt lat="42.74835" lon="1.44659">
        <ele>1499.7939453125</ele>
        <time>2012-06-24T11:53:14Z</time>
      </trkpt>
      <trkpt lat="42.74832" lon="1.44662">
        <ele>1498.8325195312</ele>
        <time>2012-06-24T11:53:18Z</time>
      </trkpt>
      <trkpt lat="42.74828" lon="1.44665">
        <ele>1497.8713378906</ele>
        <time>2012-06-24T11:53:23Z</time>
      </trkpt>
      <trkpt lat="42.74826" lon="1.44666">
        <ele>1497.8713378906</ele>
        <time>2012-06-24T11:53:24Z</time>
      </trkpt>
      <trkpt lat="42.74822" lon="1.44671">
        <ele>1497.390625</ele>
        <time>2012-06-24T11:53:29Z</time>
      </trkpt>
      <trkpt lat="42.74816" lon="1.44675">
        <ele>1496.4294433594</ele>
        <time>2012-06-24T11:53:34Z</time>
      </trkpt>
      <trkpt lat="42.74816" lon="1.44676">
        <ele>1495.4680175781</ele>
        <time>2012-06-24T11:53:36Z</time>
      </trkpt>
      <trkpt lat="42.74819" lon="1.4468">
        <ele>1494.5065917969</ele>
        <time>2012-06-24T11:53:40Z</time>
      </trkpt>
      <trkpt lat="42.74813" lon="1.44684">
        <ele>1493.0646972656</ele>
        <time>2012-06-24T11:53:46Z</time>
      </trkpt>
      <trkpt lat="42.74811" lon="1.44687">
        <ele>1493.0646972656</ele>
        <time>2012-06-24T11:53:49Z</time>
      </trkpt>
      <trkpt lat="42.7481" lon="1.44694">
        <ele>1492.103515625</ele>
        <time>2012-06-24T11:53:54Z</time>
      </trkpt>
      <trkpt lat="42.74806" lon="1.44695">
        <ele>1489.7001953125</ele>
        <time>2012-06-24T11:54:00Z</time>
      </trkpt>
      <trkpt lat="42.74804" lon="1.447">
        <ele>1486.8161621094</ele>
        <time>2012-06-24T11:54:06Z</time>
      </trkpt>
      <trkpt lat="42.748" lon="1.44702">
        <ele>1485.8549804688</ele>
        <time>2012-06-24T11:54:09Z</time>
      </trkpt>
      <trkpt lat="42.74797" lon="1.44702">
        <ele>1483.9321289062</ele>
        <time>2012-06-24T11:54:13Z</time>
      </trkpt>
      <trkpt lat="42.74798" lon="1.44703">
        <ele>1483.4514160156</ele>
        <time>2012-06-24T11:54:14Z</time>
      </trkpt>
      <trkpt lat="42.74795" lon="1.44706">
        <ele>1482.0095214844</ele>
        <time>2012-06-24T11:54:18Z</time>
      </trkpt>
      <trkpt lat="42.74788" lon="1.44704">
        <ele>1480.5676269531</ele>
        <time>2012-06-24T11:54:24Z</time>
      </trkpt>
      <trkpt lat="42.74787" lon="1.44705">
        <ele>1480.0869140625</ele>
        <time>2012-06-24T11:54:25Z</time>
      </trkpt>
      <trkpt lat="42.74781" lon="1.44708">
        <ele>1480.0869140625</ele>
        <time>2012-06-24T11:54:31Z</time>
      </trkpt>
      <trkpt lat="42.74785" lon="1.44713">
        <ele>1479.1254882812</ele>
        <time>2012-06-24T11:54:37Z</time>
      </trkpt>
      <trkpt lat="42.74786" lon="1.44716">
        <ele>1477.68359375</ele>
        <time>2012-06-24T11:54:41Z</time>
      </trkpt>
      <trkpt lat="42.74783" lon="1.44719">
        <ele>1476.7224121094</ele>
        <time>2012-06-24T11:54:45Z</time>
      </trkpt>
      <trkpt lat="42.74777" lon="1.44724">
        <ele>1474.7998046875</ele>
        <time>2012-06-24T11:54:53Z</time>
      </trkpt>
      <trkpt lat="42.74773" lon="1.44726">
        <ele>1473.8383789062</ele>
        <time>2012-06-24T11:54:57Z</time>
      </trkpt>
      <trkpt lat="42.7477" lon="1.4473">
        <ele>1472.8771972656</ele>
        <time>2012-06-24T11:55:01Z</time>
      </trkpt>
      <trkpt lat="42.74763" lon="1.44738">
        <ele>1469.5126953125</ele>
        <time>2012-06-24T11:55:10Z</time>
      </trkpt>
      <trkpt lat="42.74757" lon="1.44744">
        <ele>1468.0705566406</ele>
        <time>2012-06-24T11:55:17Z</time>
      </trkpt>
      <trkpt lat="42.74755" lon="1.44747">
        <ele>1467.5895996094</ele>
        <time>2012-06-24T11:55:21Z</time>
      </trkpt>
      <trkpt lat="42.74751" lon="1.44749">
        <ele>1467.5895996094</ele>
        <time>2012-06-24T11:55:26Z</time>
      </trkpt>
      <trkpt lat="42.74746" lon="1.44752">
        <ele>1467.5895996094</ele>
        <time>2012-06-24T11:55:32Z</time>
      </trkpt>
      <trkpt lat="42.74741" lon="1.44751">
        <ele>1467.1091308594</ele>
        <time>2012-06-24T11:55:38Z</time>
      </trkpt>
      <trkpt lat="42.74738" lon="1.44755">
        <ele>1466.6284179688</ele>
        <time>2012-06-24T11:55:43Z</time>
      </trkpt>
      <trkpt lat="42.74734" lon="1.4476">
        <ele>1469.0319824219</ele>
        <time>2012-06-24T11:55:49Z</time>
      </trkpt>
      <trkpt lat="42.74733" lon="1.44769">
        <ele>1474.3190917969</ele>
        <time>2012-06-24T11:55:55Z</time>
      </trkpt>
      <trkpt lat="42.74731" lon="1.44772">
        <ele>1473.8383789062</ele>
        <time>2012-06-24T11:56:00Z</time>
      </trkpt>
      <trkpt lat="42.74728" lon="1.44779">
        <ele>1473.3579101562</ele>
        <time>2012-06-24T11:56:06Z</time>
      </trkpt>
      <trkpt lat="42.74726" lon="1.44781">
        <ele>1471.9157714844</ele>
        <time>2012-06-24T11:56:11Z</time>
      </trkpt>
      <trkpt lat="42.74723" lon="1.44783">
        <ele>1471.9157714844</ele>
        <time>2012-06-24T11:56:18Z</time>
      </trkpt>
      <trkpt lat="42.74719" lon="1.44786">
        <ele>1470.9545898438</ele>
        <time>2012-06-24T11:56:25Z</time>
      </trkpt>
      <trkpt lat="42.74715" lon="1.44788">
        <ele>1469.0319824219</ele>
        <time>2012-06-24T11:56:31Z</time>
      </trkpt>
      <trkpt lat="42.74711" lon="1.44797">
        <ele>1468.5512695312</ele>
        <time>2012-06-24T11:56:37Z</time>
      </trkpt>
      <trkpt lat="42.7471" lon="1.44802">
        <ele>1466.6284179688</ele>
        <time>2012-06-24T11:56:41Z</time>
      </trkpt>
      <trkpt lat="42.74709" lon="1.44808">
        <ele>1464.2250976562</ele>
        <time>2012-06-24T11:56:46Z</time>
      </trkpt>
      <trkpt lat="42.74707" lon="1.44813">
        <ele>1461.3413085938</ele>
        <time>2012-06-24T11:56:51Z</time>
      </trkpt>
      <trkpt lat="42.74706" lon="1.44815">
        <ele>1460.8605957031</ele>
        <time>2012-06-24T11:56:53Z</time>
      </trkpt>
      <trkpt lat="42.74703" lon="1.44818">
        <ele>1460.8605957031</ele>
        <time>2012-06-24T11:56:57Z</time>
      </trkpt>
      <trkpt lat="42.74697" lon="1.44824">
        <ele>1458.9379882812</ele>
        <time>2012-06-24T11:57:02Z</time>
      </trkpt>
      <trkpt lat="42.74693" lon="1.44823">
        <ele>1457.49609375</ele>
        <time>2012-06-24T11:57:06Z</time>
      </trkpt>
      <trkpt lat="42.74688" lon="1.44825">
        <ele>1455.5734863281</ele>
        <time>2012-06-24T11:57:10Z</time>
      </trkpt>
      <trkpt lat="42.74685" lon="1.44826">
        <ele>1455.5734863281</ele>
        <time>2012-06-24T11:57:14Z</time>
      </trkpt>
      <trkpt lat="42.74681" lon="1.44828">
        <ele>1453.6508789062</ele>
        <time>2012-06-24T11:57:19Z</time>
      </trkpt>
      <trkpt lat="42.74676" lon="1.44833">
        <ele>1453.1701660156</ele>
        <time>2012-06-24T11:57:24Z</time>
      </trkpt>
      <trkpt lat="42.74673" lon="1.44836">
        <ele>1450.7666015625</ele>
        <time>2012-06-24T11:57:29Z</time>
      </trkpt>
      <trkpt lat="42.74667" lon="1.4484">
        <ele>1448.8439941406</ele>
        <time>2012-06-24T11:57:35Z</time>
      </trkpt>
      <trkpt lat="42.7466" lon="1.44842">
        <ele>1448.36328125</ele>
        <time>2012-06-24T11:57:41Z</time>
      </trkpt>
      <trkpt lat="42.74655" lon="1.44846">
        <ele>1447.8828125</ele>
        <time>2012-06-24T11:57:47Z</time>
      </trkpt>
      <trkpt lat="42.74646" lon="1.44849">
        <ele>1447.4020996094</ele>
        <time>2012-06-24T11:57:55Z</time>
      </trkpt>
      <trkpt lat="42.74642" lon="1.44853">
        <ele>1444.5180664062</ele>
        <time>2012-06-24T11:58:02Z</time>
      </trkpt>
      <trkpt lat="42.74636" lon="1.4486">
        <ele>1441.6342773438</ele>
        <time>2012-06-24T11:58:10Z</time>
      </trkpt>
      <trkpt lat="42.7463" lon="1.44868">
        <ele>1440.1923828125</ele>
        <time>2012-06-24T11:58:17Z</time>
      </trkpt>
      <trkpt lat="42.74623" lon="1.44878">
        <ele>1441.6342773438</ele>
        <time>2012-06-24T11:58:24Z</time>
      </trkpt>
      <trkpt lat="42.74617" lon="1.44886">
        <ele>1443.076171875</ele>
        <time>2012-06-24T11:58:30Z</time>
      </trkpt>
      <trkpt lat="42.74612" lon="1.44897">
        <ele>1448.36328125</ele>
        <time>2012-06-24T11:58:36Z</time>
      </trkpt>
      <trkpt lat="42.74609" lon="1.44902">
        <ele>1447.4020996094</ele>
        <time>2012-06-24T11:58:41Z</time>
      </trkpt>
      <trkpt lat="42.74607" lon="1.44907">
        <ele>1445.4794921875</ele>
        <time>2012-06-24T11:58:46Z</time>
      </trkpt>
      <trkpt lat="42.74606" lon="1.44911">
        <ele>1442.595703125</ele>
        <time>2012-06-24T11:58:50Z</time>
      </trkpt>
      <trkpt lat="42.74603" lon="1.44915">
        <ele>1441.1535644531</ele>
        <time>2012-06-24T11:58:54Z</time>
      </trkpt>
      <trkpt lat="42.746" lon="1.44917">
        <ele>1439.2309570312</ele>
        <time>2012-06-24T11:58:57Z</time>
      </trkpt>
      <trkpt lat="42.74589" lon="1.44925">
        <ele>1441.1535644531</ele>
        <time>2012-06-24T11:59:05Z</time>
      </trkpt>
      <trkpt lat="42.74586" lon="1.44928">
        <ele>1440.1923828125</ele>
        <time>2012-06-24T11:59:09Z</time>
      </trkpt>
      <trkpt lat="42.74584" lon="1.44931">
        <ele>1437.7890625</ele>
        <time>2012-06-24T11:59:13Z</time>
      </trkpt>
      <trkpt lat="42.7458" lon="1.44943">
        <ele>1439.2309570312</ele>
        <time>2012-06-24T11:59:19Z</time>
      </trkpt>
      <trkpt lat="42.74577" lon="1.44954">
        <ele>1442.595703125</ele>
        <time>2012-06-24T11:59:25Z</time>
      </trkpt>
      <trkpt lat="42.74574" lon="1.44961">
        <ele>1441.1535644531</ele>
        <time>2012-06-24T11:59:31Z</time>
      </trkpt>
      <trkpt lat="42.74571" lon="1.44962">
        <ele>1437.3083496094</ele>
        <time>2012-06-24T11:59:36Z</time>
      </trkpt>
      <trkpt lat="42.74567" lon="1.44965">
        <ele>1434.4243164062</ele>
        <time>2012-06-24T11:59:40Z</time>
      </trkpt>
      <trkpt lat="42.74567" lon="1.44969">
        <ele>1432.9821777344</ele>
        <time>2012-06-24T11:59:43Z</time>
      </trkpt>
      <trkpt lat="42.74563" lon="1.44975">
        <ele>1430.0983886719</ele>
        <time>2012-06-24T11:59:49Z</time>
      </trkpt>
      <trkpt lat="42.74561" lon="1.4498">
        <ele>1427.2145996094</ele>
        <time>2012-06-24T11:59:53Z</time>
      </trkpt>
      <trkpt lat="42.74558" lon="1.44987">
        <ele>1428.17578125</ele>
        <time>2012-06-24T11:59:57Z</time>
      </trkpt>
      <trkpt lat="42.74557" lon="1.44988">
        <ele>1428.6564941406</ele>
        <time>2012-06-24T11:59:58Z</time>
      </trkpt>
      <trkpt lat="42.74556" lon="1.44996">
        <ele>1432.5017089844</ele>
        <time>2012-06-24T12:00:05Z</time>
      </trkpt>
      <trkpt lat="42.74551" lon="1.45004">
        <ele>1435.8662109375</ele>
        <time>2012-06-24T12:00:12Z</time>
      </trkpt>
      <trkpt lat="42.74546" lon="1.4501">
        <ele>1436.8276367188</ele>
        <time>2012-06-24T12:00:18Z</time>
      </trkpt>
      <trkpt lat="42.74539" lon="1.45017">
        <ele>1440.1923828125</ele>
        <time>2012-06-24T12:00:24Z</time>
      </trkpt>
      <trkpt lat="42.74536" lon="1.45024">
        <ele>1444.0375976562</ele>
        <time>2012-06-24T12:00:29Z</time>
      </trkpt>
      <trkpt lat="42.74535" lon="1.45029">
        <ele>1444.9987792969</ele>
        <time>2012-06-24T12:00:35Z</time>
      </trkpt>
      <trkpt lat="42.74532" lon="1.45026">
        <ele>1439.2309570312</ele>
        <time>2012-06-24T12:00:39Z</time>
      </trkpt>
      <trkpt lat="42.74527" lon="1.45027">
        <ele>1436.8276367188</ele>
        <time>2012-06-24T12:00:45Z</time>
      </trkpt>
      <trkpt lat="42.74525" lon="1.45031">
        <ele>1432.9821777344</ele>
        <time>2012-06-24T12:00:52Z</time>
      </trkpt>
      <trkpt lat="42.74523" lon="1.45038">
        <ele>1435.3854980469</ele>
        <time>2012-06-24T12:00:58Z</time>
      </trkpt>
      <trkpt lat="42.74524" lon="1.45046">
        <ele>1436.8276367188</ele>
        <time>2012-06-24T12:01:05Z</time>
      </trkpt>
      <trkpt lat="42.74524" lon="1.45051">
        <ele>1436.8276367188</ele>
        <time>2012-06-24T12:01:10Z</time>
      </trkpt>
      <trkpt lat="42.7452" lon="1.45056">
        <ele>1435.8662109375</ele>
        <time>2012-06-24T12:01:15Z</time>
      </trkpt>
      <trkpt lat="42.74514" lon="1.45059">
        <ele>1436.3471679688</ele>
        <time>2012-06-24T12:01:20Z</time>
      </trkpt>
      <trkpt lat="42.74507" lon="1.45063">
        <ele>1435.8662109375</ele>
        <time>2012-06-24T12:01:25Z</time>
      </trkpt>
      <trkpt lat="42.74505" lon="1.45065">
        <ele>1435.8662109375</ele>
        <time>2012-06-24T12:01:27Z</time>
      </trkpt>
      <trkpt lat="42.745" lon="1.45073">
        <ele>1437.3083496094</ele>
        <time>2012-06-24T12:01:35Z</time>
      </trkpt>
      <trkpt lat="42.74498" lon="1.45081">
        <ele>1442.1149902344</ele>
        <time>2012-06-24T12:01:40Z</time>
      </trkpt>
      <trkpt lat="42.74496" lon="1.45084">
        <ele>1444.0375976562</ele>
        <time>2012-06-24T12:01:42Z</time>
      </trkpt>
      <trkpt lat="42.74494" lon="1.45091">
        <ele>1445.9602050781</ele>
        <time>2012-06-24T12:01:48Z</time>
      </trkpt>
      <trkpt lat="42.74491" lon="1.45096">
        <ele>1447.4020996094</ele>
        <time>2012-06-24T12:01:53Z</time>
      </trkpt>
      <trkpt lat="42.74488" lon="1.451">
        <ele>1445.9602050781</ele>
        <time>2012-06-24T12:01:58Z</time>
      </trkpt>
      <trkpt lat="42.74486" lon="1.45104">
        <ele>1443.5568847656</ele>
        <time>2012-06-24T12:02:04Z</time>
      </trkpt>
      <trkpt lat="42.74483" lon="1.4511">
        <ele>1443.5568847656</ele>
        <time>2012-06-24T12:02:10Z</time>
      </trkpt>
      <trkpt lat="42.74478" lon="1.45116">
        <ele>1443.076171875</ele>
        <time>2012-06-24T12:02:16Z</time>
      </trkpt>
      <trkpt lat="42.7447" lon="1.45125">
        <ele>1441.1535644531</ele>
        <time>2012-06-24T12:02:24Z</time>
      </trkpt>
      <trkpt lat="42.74464" lon="1.45131">
        <ele>1438.7504882812</ele>
        <time>2012-06-24T12:02:29Z</time>
      </trkpt>
      <trkpt lat="42.7446" lon="1.45131">
        <ele>1437.7890625</ele>
        <time>2012-06-24T12:02:33Z</time>
      </trkpt>
      <trkpt lat="42.74453" lon="1.45136">
        <ele>1435.3854980469</ele>
        <time>2012-06-24T12:02:39Z</time>
      </trkpt>
      <trkpt lat="42.74446" lon="1.4514">
        <ele>1434.9050292969</ele>
        <time>2012-06-24T12:02:43Z</time>
      </trkpt>
      <trkpt lat="42.74438" lon="1.45141">
        <ele>1432.5017089844</ele>
        <time>2012-06-24T12:02:49Z</time>
      </trkpt>
      <trkpt lat="42.74432" lon="1.45141">
        <ele>1432.9821777344</ele>
        <time>2012-06-24T12:02:53Z</time>
      </trkpt>
      <trkpt lat="42.74423" lon="1.4514">
        <ele>1432.5017089844</ele>
        <time>2012-06-24T12:02:59Z</time>
      </trkpt>
      <trkpt lat="42.7442" lon="1.45139">
        <ele>1432.5017089844</ele>
        <time>2012-06-24T12:03:01Z</time>
      </trkpt>
      <trkpt lat="42.74417" lon="1.45139">
        <ele>1430.0983886719</ele>
        <time>2012-06-24T12:03:07Z</time>
      </trkpt>
      <trkpt lat="42.74417" lon="1.45142">
        <ele>1429.1369628906</ele>
        <time>2012-06-24T12:03:09Z</time>
      </trkpt>
      <trkpt lat="42.74419" lon="1.45149">
        <ele>1428.6564941406</ele>
        <time>2012-06-24T12:03:13Z</time>
      </trkpt>
      <trkpt lat="42.74421" lon="1.45154">
        <ele>1424.3305664062</ele>
        <time>2012-06-24T12:03:18Z</time>
      </trkpt>
      <trkpt lat="42.74424" lon="1.45159">
        <ele>1422.4079589844</ele>
        <time>2012-06-24T12:03:23Z</time>
      </trkpt>
      <trkpt lat="42.74426" lon="1.45167">
        <ele>1421.4465332031</ele>
        <time>2012-06-24T12:03:28Z</time>
      </trkpt>
      <trkpt lat="42.74428" lon="1.45176">
        <ele>1419.0432128906</ele>
        <time>2012-06-24T12:03:34Z</time>
      </trkpt>
      <trkpt lat="42.7443" lon="1.45181">
        <ele>1416.1591796875</ele>
        <time>2012-06-24T12:03:39Z</time>
      </trkpt>
      <trkpt lat="42.74432" lon="1.45186">
        <ele>1415.6787109375</ele>
        <time>2012-06-24T12:03:43Z</time>
      </trkpt>
      <trkpt lat="42.74434" lon="1.45192">
        <ele>1414.7172851562</ele>
        <time>2012-06-24T12:03:48Z</time>
      </trkpt>
      <trkpt lat="42.74437" lon="1.45198">
        <ele>1413.275390625</ele>
        <time>2012-06-24T12:03:53Z</time>
      </trkpt>
      <trkpt lat="42.74438" lon="1.45206">
        <ele>1411.8334960938</ele>
        <time>2012-06-24T12:03:57Z</time>
      </trkpt>
      <trkpt lat="42.74435" lon="1.45208">
        <ele>1410.3913574219</ele>
        <time>2012-06-24T12:04:02Z</time>
      </trkpt>
      <trkpt lat="42.74434" lon="1.45207">
        <ele>1409.9106445312</ele>
        <time>2012-06-24T12:04:03Z</time>
      </trkpt>
      <trkpt lat="42.74428" lon="1.45204">
        <ele>1410.3913574219</ele>
        <time>2012-06-24T12:04:08Z</time>
      </trkpt>
      <trkpt lat="42.74425" lon="1.45202">
        <ele>1410.8720703125</ele>
        <time>2012-06-24T12:04:11Z</time>
      </trkpt>
      <trkpt lat="42.7442" lon="1.45198">
        <ele>1410.8720703125</ele>
        <time>2012-06-24T12:04:15Z</time>
      </trkpt>
      <trkpt lat="42.74414" lon="1.45195">
        <ele>1412.3139648438</ele>
        <time>2012-06-24T12:04:20Z</time>
      </trkpt>
      <trkpt lat="42.74412" lon="1.45192">
        <ele>1412.3139648438</ele>
        <time>2012-06-24T12:04:23Z</time>
      </trkpt>
      <trkpt lat="42.74408" lon="1.4519">
        <ele>1410.8720703125</ele>
        <time>2012-06-24T12:04:29Z</time>
      </trkpt>
      <trkpt lat="42.74408" lon="1.45196">
        <ele>1408.9494628906</ele>
        <time>2012-06-24T12:04:34Z</time>
      </trkpt>
      <trkpt lat="42.74411" lon="1.45203">
        <ele>1404.1430664062</ele>
        <time>2012-06-24T12:04:40Z</time>
      </trkpt>
      <trkpt lat="42.74411" lon="1.45206">
        <ele>1401.2587890625</ele>
        <time>2012-06-24T12:04:44Z</time>
      </trkpt>
      <trkpt lat="42.74412" lon="1.45212">
        <ele>1396.9328613281</ele>
        <time>2012-06-24T12:04:49Z</time>
      </trkpt>
      <trkpt lat="42.74414" lon="1.4522">
        <ele>1393.568359375</ele>
        <time>2012-06-24T12:04:55Z</time>
      </trkpt>
      <trkpt lat="42.74411" lon="1.45222">
        <ele>1391.6457519531</ele>
        <time>2012-06-24T12:05:00Z</time>
      </trkpt>
      <trkpt lat="42.74408" lon="1.45218">
        <ele>1389.2424316406</ele>
        <time>2012-06-24T12:05:05Z</time>
      </trkpt>
      <trkpt lat="42.74407" lon="1.45221">
        <ele>1388.7619628906</ele>
        <time>2012-06-24T12:05:11Z</time>
      </trkpt>
      <trkpt lat="42.74408" lon="1.45227">
        <ele>1386.3583984375</ele>
        <time>2012-06-24T12:05:15Z</time>
      </trkpt>
      <trkpt lat="42.74406" lon="1.45226">
        <ele>1385.3969726562</ele>
        <time>2012-06-24T12:05:18Z</time>
      </trkpt>
      <trkpt lat="42.74404" lon="1.45229">
        <ele>1383.4743652344</ele>
        <time>2012-06-24T12:05:22Z</time>
      </trkpt>
      <trkpt lat="42.74404" lon="1.45232">
        <ele>1383.955078125</ele>
        <time>2012-06-24T12:05:24Z</time>
      </trkpt>
      <trkpt lat="42.74405" lon="1.45239">
        <ele>1382.5131835938</ele>
        <time>2012-06-24T12:05:28Z</time>
      </trkpt>
      <trkpt lat="42.74404" lon="1.45243">
        <ele>1381.5517578125</ele>
        <time>2012-06-24T12:05:31Z</time>
      </trkpt>
      <trkpt lat="42.74401" lon="1.4524">
        <ele>1380.5905761719</ele>
        <time>2012-06-24T12:05:34Z</time>
      </trkpt>
      <trkpt lat="42.74397" lon="1.45237">
        <ele>1380.5905761719</ele>
        <time>2012-06-24T12:05:39Z</time>
      </trkpt>
      <trkpt lat="42.74396" lon="1.45242">
        <ele>1379.1484375</ele>
        <time>2012-06-24T12:05:45Z</time>
      </trkpt>
      <trkpt lat="42.74396" lon="1.45248">
        <ele>1378.66796875</ele>
        <time>2012-06-24T12:05:49Z</time>
      </trkpt>
      <trkpt lat="42.744" lon="1.45258">
        <ele>1375.7839355469</ele>
        <time>2012-06-24T12:05:55Z</time>
      </trkpt>
      <trkpt lat="42.74402" lon="1.45265">
        <ele>1372.4194335938</ele>
        <time>2012-06-24T12:05:59Z</time>
      </trkpt>
      <trkpt lat="42.744" lon="1.45265">
        <ele>1371.9384765625</ele>
        <time>2012-06-24T12:06:01Z</time>
      </trkpt>
      <trkpt lat="42.74396" lon="1.45265">
        <ele>1369.0546875</ele>
        <time>2012-06-24T12:06:06Z</time>
      </trkpt>
      <trkpt lat="42.7439" lon="1.45257">
        <ele>1368.0932617188</ele>
        <time>2012-06-24T12:06:13Z</time>
      </trkpt>
      <trkpt lat="42.74388" lon="1.4526">
        <ele>1366.1706542969</ele>
        <time>2012-06-24T12:06:19Z</time>
      </trkpt>
      <trkpt lat="42.74389" lon="1.45267">
        <ele>1363.7673339844</ele>
        <time>2012-06-24T12:06:24Z</time>
      </trkpt>
      <trkpt lat="42.74389" lon="1.45269">
        <ele>1363.2868652344</ele>
        <time>2012-06-24T12:06:25Z</time>
      </trkpt>
      <trkpt lat="42.74389" lon="1.45278">
        <ele>1363.7673339844</ele>
        <time>2012-06-24T12:06:28Z</time>
      </trkpt>
      <trkpt lat="42.74385" lon="1.4528">
        <ele>1362.3254394531</ele>
        <time>2012-06-24T12:06:32Z</time>
      </trkpt>
      <trkpt lat="42.74384" lon="1.45279">
        <ele>1361.8449707031</ele>
        <time>2012-06-24T12:06:34Z</time>
      </trkpt>
      <trkpt lat="42.74382" lon="1.45276">
        <ele>1359.9221191406</ele>
        <time>2012-06-24T12:06:39Z</time>
      </trkpt>
      <trkpt lat="42.74377" lon="1.45272">
        <ele>1355.5961914062</ele>
        <time>2012-06-24T12:06:51Z</time>
      </trkpt>
      <trkpt lat="42.74376" lon="1.45278">
        <ele>1354.154296875</ele>
        <time>2012-06-24T12:06:55Z</time>
      </trkpt>
      <trkpt lat="42.74378" lon="1.45287">
        <ele>1351.7509765625</ele>
        <time>2012-06-24T12:06:59Z</time>
      </trkpt>
      <trkpt lat="42.74374" lon="1.45287">
        <ele>1349.34765625</ele>
        <time>2012-06-24T12:07:04Z</time>
      </trkpt>
      <trkpt lat="42.74371" lon="1.45284">
        <ele>1349.34765625</ele>
        <time>2012-06-24T12:07:09Z</time>
      </trkpt>
      <trkpt lat="42.74367" lon="1.45284">
        <ele>1348.3862304688</ele>
        <time>2012-06-24T12:07:13Z</time>
      </trkpt>
      <trkpt lat="42.74363" lon="1.45282">
        <ele>1347.4250488281</ele>
        <time>2012-06-24T12:07:17Z</time>
      </trkpt>
      <trkpt lat="42.74363" lon="1.45285">
        <ele>1346.9443359375</ele>
        <time>2012-06-24T12:07:19Z</time>
      </trkpt>
      <trkpt lat="42.74362" lon="1.45292">
        <ele>1344.541015625</ele>
        <time>2012-06-24T12:07:24Z</time>
      </trkpt>
      <trkpt lat="42.74364" lon="1.45304">
        <ele>1341.1765136719</ele>
        <time>2012-06-24T12:07:30Z</time>
      </trkpt>
      <trkpt lat="42.74364" lon="1.45306">
        <ele>1338.2924804688</ele>
        <time>2012-06-24T12:07:33Z</time>
      </trkpt>
      <trkpt lat="42.74363" lon="1.45306">
        <ele>1337.8117675781</ele>
        <time>2012-06-24T12:07:34Z</time>
      </trkpt>
      <trkpt lat="42.74355" lon="1.45303">
        <ele>1336.3698730469</ele>
        <time>2012-06-24T12:07:40Z</time>
      </trkpt>
      <trkpt lat="42.74353" lon="1.45304">
        <ele>1334.447265625</ele>
        <time>2012-06-24T12:07:43Z</time>
      </trkpt>
      <trkpt lat="42.74351" lon="1.45318">
        <ele>1330.1213378906</ele>
        <time>2012-06-24T12:07:49Z</time>
      </trkpt>
      <trkpt lat="42.74348" lon="1.45331">
        <ele>1327.2375488281</ele>
        <time>2012-06-24T12:07:55Z</time>
      </trkpt>
      <trkpt lat="42.74345" lon="1.45336">
        <ele>1325.3146972656</ele>
        <time>2012-06-24T12:07:58Z</time>
      </trkpt>
      <trkpt lat="42.7434" lon="1.45331">
        <ele>1323.3920898438</ele>
        <time>2012-06-24T12:08:03Z</time>
      </trkpt>
      <trkpt lat="42.74337" lon="1.45329">
        <ele>1320.9887695312</ele>
        <time>2012-06-24T12:08:06Z</time>
      </trkpt>
      <trkpt lat="42.74335" lon="1.45331">
        <ele>1319.546875</ele>
        <time>2012-06-24T12:08:09Z</time>
      </trkpt>
      <trkpt lat="42.74332" lon="1.45339">
        <ele>1318.1047363281</ele>
        <time>2012-06-24T12:08:14Z</time>
      </trkpt>
      <trkpt lat="42.74331" lon="1.45348">
        <ele>1316.1821289062</ele>
        <time>2012-06-24T12:08:21Z</time>
      </trkpt>
      <trkpt lat="42.74331" lon="1.4535">
        <ele>1315.7016601562</ele>
        <time>2012-06-24T12:08:22Z</time>
      </trkpt>
      <trkpt lat="42.74332" lon="1.45356">
        <ele>1311.8564453125</ele>
        <time>2012-06-24T12:08:26Z</time>
      </trkpt>
      <trkpt lat="42.74339" lon="1.45367">
        <ele>1308.0112304688</ele>
        <time>2012-06-24T12:08:33Z</time>
      </trkpt>
      <trkpt lat="42.74339" lon="1.4537">
        <ele>1307.0495605469</ele>
        <time>2012-06-24T12:08:35Z</time>
      </trkpt>
      <trkpt lat="42.74338" lon="1.45373">
        <ele>1307.0495605469</ele>
        <time>2012-06-24T12:08:38Z</time>
      </trkpt>
      <trkpt lat="42.74332" lon="1.45375">
        <ele>1305.126953125</ele>
        <time>2012-06-24T12:08:43Z</time>
      </trkpt>
      <trkpt lat="42.7433" lon="1.45376">
        <ele>1304.6462402344</ele>
        <time>2012-06-24T12:08:45Z</time>
      </trkpt>
      <trkpt lat="42.74326" lon="1.45375">
        <ele>1302.2429199219</ele>
        <time>2012-06-24T12:08:49Z</time>
      </trkpt>
      <trkpt lat="42.74319" lon="1.45369">
        <ele>1301.2817382812</ele>
        <time>2012-06-24T12:08:55Z</time>
      </trkpt>
      <trkpt lat="42.74317" lon="1.45367">
        <ele>1300.8010253906</ele>
        <time>2012-06-24T12:08:57Z</time>
      </trkpt>
      <trkpt lat="42.74313" lon="1.45363">
        <ele>1299.83984375</ele>
        <time>2012-06-24T12:09:03Z</time>
      </trkpt>
      <trkpt lat="42.74311" lon="1.45365">
        <ele>1298.3977050781</ele>
        <time>2012-06-24T12:09:09Z</time>
      </trkpt>
      <trkpt lat="42.74312" lon="1.45371">
        <ele>1295.5139160156</ele>
        <time>2012-06-24T12:09:14Z</time>
      </trkpt>
      <trkpt lat="42.74313" lon="1.45374">
        <ele>1294.0720214844</ele>
        <time>2012-06-24T12:09:16Z</time>
      </trkpt>
      <trkpt lat="42.74316" lon="1.4538">
        <ele>1291.6684570312</ele>
        <time>2012-06-24T12:09:20Z</time>
      </trkpt>
      <trkpt lat="42.74318" lon="1.45389">
        <ele>1289.7458496094</ele>
        <time>2012-06-24T12:09:24Z</time>
      </trkpt>
      <trkpt lat="42.74317" lon="1.45391">
        <ele>1288.3039550781</ele>
        <time>2012-06-24T12:09:26Z</time>
      </trkpt>
      <trkpt lat="42.7431" lon="1.45388">
        <ele>1286.8618164062</ele>
        <time>2012-06-24T12:09:33Z</time>
      </trkpt>
      <trkpt lat="42.74303" lon="1.45384">
        <ele>1285.9006347656</ele>
        <time>2012-06-24T12:09:38Z</time>
      </trkpt>
      <trkpt lat="42.74302" lon="1.45382">
        <ele>1284.939453125</ele>
        <time>2012-06-24T12:09:40Z</time>
      </trkpt>
      <trkpt lat="42.743" lon="1.45383">
        <ele>1285.419921875</ele>
        <time>2012-06-24T12:09:42Z</time>
      </trkpt>
      <trkpt lat="42.74301" lon="1.45393">
        <ele>1280.6135253906</ele>
        <time>2012-06-24T12:09:49Z</time>
      </trkpt>
      <trkpt lat="42.74302" lon="1.45403">
        <ele>1275.806640625</ele>
        <time>2012-06-24T12:09:54Z</time>
      </trkpt>
      <trkpt lat="42.74302" lon="1.45405">
        <ele>1274.8454589844</ele>
        <time>2012-06-24T12:09:55Z</time>
      </trkpt>
      <trkpt lat="42.74305" lon="1.45418">
        <ele>1271.9614257812</ele>
        <time>2012-06-24T12:10:00Z</time>
      </trkpt>
      <trkpt lat="42.74308" lon="1.45429">
        <ele>1267.6354980469</ele>
        <time>2012-06-24T12:10:05Z</time>
      </trkpt>
      <trkpt lat="42.74308" lon="1.45433">
        <ele>1266.6743164062</ele>
        <time>2012-06-24T12:10:07Z</time>
      </trkpt>
      <trkpt lat="42.74306" lon="1.45437">
        <ele>1267.1550292969</ele>
        <time>2012-06-24T12:10:09Z</time>
      </trkpt>
      <trkpt lat="42.74304" lon="1.45442">
        <ele>1266.1936035156</ele>
        <time>2012-06-24T12:10:11Z</time>
      </trkpt>
      <trkpt lat="42.743" lon="1.45452">
        <ele>1265.7131347656</ele>
        <time>2012-06-24T12:10:16Z</time>
      </trkpt>
      <trkpt lat="42.74297" lon="1.45449">
        <ele>1263.7902832031</ele>
        <time>2012-06-24T12:10:21Z</time>
      </trkpt>
      <trkpt lat="42.74292" lon="1.45446">
        <ele>1262.3483886719</ele>
        <time>2012-06-24T12:10:26Z</time>
      </trkpt>
      <trkpt lat="42.7429" lon="1.45444">
        <ele>1262.8291015625</ele>
        <time>2012-06-24T12:10:29Z</time>
      </trkpt>
      <trkpt lat="42.74285" lon="1.45438">
        <ele>1261.8679199219</ele>
        <time>2012-06-24T12:10:35Z</time>
      </trkpt>
      <trkpt lat="42.74281" lon="1.45434">
        <ele>1261.3872070312</ele>
        <time>2012-06-24T12:10:39Z</time>
      </trkpt>
      <trkpt lat="42.74276" lon="1.45431">
        <ele>1258.5029296875</ele>
        <time>2012-06-24T12:10:45Z</time>
      </trkpt>
      <trkpt lat="42.7427" lon="1.45427">
        <ele>1255.619140625</ele>
        <time>2012-06-24T12:10:52Z</time>
      </trkpt>
      <trkpt lat="42.74268" lon="1.45426">
        <ele>1254.6577148438</ele>
        <time>2012-06-24T12:10:56Z</time>
      </trkpt>
      <trkpt lat="42.74265" lon="1.45423">
        <ele>1255.1384277344</ele>
        <time>2012-06-24T12:11:01Z</time>
      </trkpt>
      <trkpt lat="42.74263" lon="1.45422">
        <ele>1253.6965332031</ele>
        <time>2012-06-24T12:11:06Z</time>
      </trkpt>
      <trkpt lat="42.7426" lon="1.4542">
        <ele>1251.7739257812</ele>
        <time>2012-06-24T12:11:10Z</time>
      </trkpt>
      <trkpt lat="42.7426" lon="1.45424">
        <ele>1249.3706054688</ele>
        <time>2012-06-24T12:11:15Z</time>
      </trkpt>
      <trkpt lat="42.74259" lon="1.45435">
        <ele>1247.4479980469</ele>
        <time>2012-06-24T12:11:23Z</time>
      </trkpt>
      <trkpt lat="42.74259" lon="1.45437">
        <ele>1247.4479980469</ele>
        <time>2012-06-24T12:11:24Z</time>
      </trkpt>
      <trkpt lat="42.7426" lon="1.45443">
        <ele>1244.5639648438</ele>
        <time>2012-06-24T12:11:30Z</time>
      </trkpt>
      <trkpt lat="42.74261" lon="1.45449">
        <ele>1241.19921875</ele>
        <time>2012-06-24T12:11:35Z</time>
      </trkpt>
      <trkpt lat="42.7426" lon="1.45461">
        <ele>1243.1218261719</ele>
        <time>2012-06-24T12:11:46Z</time>
      </trkpt>
      <trkpt lat="42.74259" lon="1.45469">
        <ele>1239.7573242188</ele>
        <time>2012-06-24T12:11:54Z</time>
      </trkpt>
      <trkpt lat="42.74255" lon="1.45468">
        <ele>1240.7185058594</ele>
        <time>2012-06-24T12:11:58Z</time>
      </trkpt>
      <trkpt lat="42.74253" lon="1.4547">
        <ele>1237.3540039062</ele>
        <time>2012-06-24T12:12:02Z</time>
      </trkpt>
      <trkpt lat="42.74253" lon="1.45477">
        <ele>1234.9509277344</ele>
        <time>2012-06-24T12:12:06Z</time>
      </trkpt>
      <trkpt lat="42.7425" lon="1.45487">
        <ele>1234.4702148438</ele>
        <time>2012-06-24T12:12:12Z</time>
      </trkpt>
      <trkpt lat="42.74246" lon="1.45488">
        <ele>1234.9509277344</ele>
        <time>2012-06-24T12:12:16Z</time>
      </trkpt>
      <trkpt lat="42.74245" lon="1.45485">
        <ele>1235.912109375</ele>
        <time>2012-06-24T12:12:19Z</time>
      </trkpt>
      <trkpt lat="42.74241" lon="1.45479">
        <ele>1236.3928222656</ele>
        <time>2012-06-24T12:12:23Z</time>
      </trkpt>
      <trkpt lat="42.74239" lon="1.45471">
        <ele>1236.8732910156</ele>
        <time>2012-06-24T12:12:28Z</time>
      </trkpt>
      <trkpt lat="42.74236" lon="1.45464">
        <ele>1240.2380371094</ele>
        <time>2012-06-24T12:12:32Z</time>
      </trkpt>
      <trkpt lat="42.74233" lon="1.45462">
        <ele>1240.7185058594</ele>
        <time>2012-06-24T12:12:37Z</time>
      </trkpt>
      <trkpt lat="42.74231" lon="1.45467">
        <ele>1241.19921875</ele>
        <time>2012-06-24T12:12:42Z</time>
      </trkpt>
      <trkpt lat="42.7423" lon="1.45473">
        <ele>1241.19921875</ele>
        <time>2012-06-24T12:12:46Z</time>
      </trkpt>
      <trkpt lat="42.74229" lon="1.45474">
        <ele>1241.19921875</ele>
        <time>2012-06-24T12:12:47Z</time>
      </trkpt>
      <trkpt lat="42.74227" lon="1.45479">
        <ele>1241.19921875</ele>
        <time>2012-06-24T12:12:52Z</time>
      </trkpt>
      <trkpt lat="42.74227" lon="1.4548">
        <ele>1241.6799316406</ele>
        <time>2012-06-24T12:12:53Z</time>
      </trkpt>
      <trkpt lat="42.74225" lon="1.45485">
        <ele>1241.19921875</ele>
        <time>2012-06-24T12:12:56Z</time>
      </trkpt>
      <trkpt lat="42.74222" lon="1.4548">
        <ele>1234.4702148438</ele>
        <time>2012-06-24T12:13:00Z</time>
      </trkpt>
      <trkpt lat="42.74218" lon="1.45471">
        <ele>1233.9895019531</ele>
        <time>2012-06-24T12:13:05Z</time>
      </trkpt>
      <trkpt lat="42.74213" lon="1.45463">
        <ele>1234.9509277344</ele>
        <time>2012-06-24T12:13:09Z</time>
      </trkpt>
      <trkpt lat="42.74212" lon="1.4546">
        <ele>1231.5861816406</ele>
        <time>2012-06-24T12:13:11Z</time>
      </trkpt>
      <trkpt lat="42.74209" lon="1.45455">
        <ele>1227.2602539062</ele>
        <time>2012-06-24T12:13:14Z</time>
      </trkpt>
      <trkpt lat="42.74205" lon="1.45447">
        <ele>1215.2438964844</ele>
        <time>2012-06-24T12:13:20Z</time>
      </trkpt>
      <trkpt lat="42.74202" lon="1.45443">
        <ele>1208.9951171875</ele>
        <time>2012-06-24T12:13:25Z</time>
      </trkpt>
      <trkpt lat="42.74204" lon="1.45448">
        <ele>1202.2658691406</ele>
        <time>2012-06-24T12:13:29Z</time>
      </trkpt>
      <trkpt lat="42.74205" lon="1.45454">
        <ele>1198.4206542969</ele>
        <time>2012-06-24T12:13:33Z</time>
      </trkpt>
      <trkpt lat="42.74208" lon="1.45464">
        <ele>1196.4982910156</ele>
        <time>2012-06-24T12:13:38Z</time>
      </trkpt>
      <trkpt lat="42.74206" lon="1.45473">
        <ele>1203.2272949219</ele>
        <time>2012-06-24T12:13:43Z</time>
      </trkpt>
      <trkpt lat="42.74206" lon="1.45478">
        <ele>1204.1887207031</ele>
        <time>2012-06-24T12:13:48Z</time>
      </trkpt>
      <trkpt lat="42.74204" lon="1.45482">
        <ele>1202.7465820312</ele>
        <time>2012-06-24T12:13:52Z</time>
      </trkpt>
      <trkpt lat="42.74204" lon="1.45486">
        <ele>1197.9401855469</ele>
        <time>2012-06-24T12:13:56Z</time>
      </trkpt>
      <trkpt lat="42.74204" lon="1.45491">
        <ele>1196.017578125</ele>
        <time>2012-06-24T12:14:00Z</time>
      </trkpt>
      <trkpt lat="42.74202" lon="1.45496">
        <ele>1192.6528320312</ele>
        <time>2012-06-24T12:14:05Z</time>
      </trkpt>
      <trkpt lat="42.742" lon="1.45494">
        <ele>1197.9401855469</ele>
        <time>2012-06-24T12:14:09Z</time>
      </trkpt>
      <trkpt lat="42.74196" lon="1.45491">
        <ele>1207.0725097656</ele>
        <time>2012-06-24T12:14:14Z</time>
      </trkpt>
      <trkpt lat="42.74192" lon="1.45487">
        <ele>1215.724609375</ele>
        <time>2012-06-24T12:14:18Z</time>
      </trkpt>
      <trkpt lat="42.74187" lon="1.45482">
        <ele>1221.4921875</ele>
        <time>2012-06-24T12:14:24Z</time>
      </trkpt>
      <trkpt lat="42.74184" lon="1.45479">
        <ele>1219.5698242188</ele>
        <time>2012-06-24T12:14:29Z</time>
      </trkpt>
      <trkpt lat="42.74181" lon="1.45479">
        <ele>1217.6469726562</ele>
        <time>2012-06-24T12:14:33Z</time>
      </trkpt>
      <trkpt lat="42.74179" lon="1.45476">
        <ele>1211.3984375</ele>
        <time>2012-06-24T12:14:37Z</time>
      </trkpt>
      <trkpt lat="42.74174" lon="1.45471">
        <ele>1204.1887207031</ele>
        <time>2012-06-24T12:14:42Z</time>
      </trkpt>
      <trkpt lat="42.74173" lon="1.4547">
        <ele>1201.7854003906</ele>
        <time>2012-06-24T12:14:43Z</time>
      </trkpt>
      <trkpt lat="42.74169" lon="1.45463">
        <ele>1192.6528320312</ele>
        <time>2012-06-24T12:14:49Z</time>
      </trkpt>
      <trkpt lat="42.74167" lon="1.45464">
        <ele>1183.5202636719</ele>
        <time>2012-06-24T12:14:54Z</time>
      </trkpt>
      <trkpt lat="42.74166" lon="1.45466">
        <ele>1182.0783691406</ele>
        <time>2012-06-24T12:14:55Z</time>
      </trkpt>
      <trkpt lat="42.74168" lon="1.45471">
        <ele>1176.791015625</ele>
        <time>2012-06-24T12:15:00Z</time>
      </trkpt>
      <trkpt lat="42.74164" lon="1.45476">
        <ele>1167.6584472656</ele>
        <time>2012-06-24T12:15:28Z</time>
      </trkpt>
      <trkpt lat="42.74165" lon="1.45486">
        <ele>1165.7360839844</ele>
        <time>2012-06-24T12:15:34Z</time>
      </trkpt>
      <trkpt lat="42.74163" lon="1.45491">
        <ele>1165.7360839844</ele>
        <time>2012-06-24T12:15:37Z</time>
      </trkpt>
      <trkpt lat="42.74163" lon="1.45499">
        <ele>1163.8129882812</ele>
        <time>2012-06-24T12:15:43Z</time>
      </trkpt>
      <trkpt lat="42.74156" lon="1.45497">
        <ele>1168.1391601562</ele>
        <time>2012-06-24T12:15:48Z</time>
      </trkpt>
      <trkpt lat="42.74153" lon="1.45495">
        <ele>1169.1005859375</ele>
        <time>2012-06-24T12:15:50Z</time>
      </trkpt>
      <trkpt lat="42.74153" lon="1.45492">
        <ele>1164.2939453125</ele>
        <time>2012-06-24T12:15:57Z</time>
      </trkpt>
      <trkpt lat="42.74151" lon="1.45495">
        <ele>1156.1225585938</ele>
        <time>2012-06-24T12:16:22Z</time>
      </trkpt>
      <trkpt lat="42.74149" lon="1.45502">
        <ele>1155.6420898438</ele>
        <time>2012-06-24T12:16:26Z</time>
      </trkpt>
      <trkpt lat="42.74141" lon="1.45502">
        <ele>1162.8518066406</ele>
        <time>2012-06-24T12:16:30Z</time>
      </trkpt>
      <trkpt lat="42.74137" lon="1.45501">
        <ele>1165.7360839844</ele>
        <time>2012-06-24T12:16:33Z</time>
      </trkpt>
      <trkpt lat="42.74129" lon="1.45497">
        <ele>1161.4099121094</ele>
        <time>2012-06-24T12:16:40Z</time>
      </trkpt>
      <trkpt lat="42.74127" lon="1.45494">
        <ele>1152.27734375</ele>
        <time>2012-06-24T12:16:46Z</time>
      </trkpt>
      <trkpt lat="42.74127" lon="1.45495">
        <ele>1149.3935546875</ele>
        <time>2012-06-24T12:16:52Z</time>
      </trkpt>
      <trkpt lat="42.74127" lon="1.45498">
        <ele>1142.6643066406</ele>
        <time>2012-06-24T12:16:58Z</time>
      </trkpt>
      <trkpt lat="42.74127" lon="1.45499">
        <ele>1142.18359375</ele>
        <time>2012-06-24T12:16:59Z</time>
      </trkpt>
      <trkpt lat="42.74128" lon="1.45508">
        <ele>1140.7414550781</ele>
        <time>2012-06-24T12:17:05Z</time>
      </trkpt>
      <trkpt lat="42.74128" lon="1.4551">
        <ele>1139.2995605469</ele>
        <time>2012-06-24T12:17:07Z</time>
      </trkpt>
      <trkpt lat="42.74121" lon="1.4551">
        <ele>1136.8962402344</ele>
        <time>2012-06-24T12:17:12Z</time>
      </trkpt>
      <trkpt lat="42.74118" lon="1.45506">
        <ele>1136.4157714844</ele>
        <time>2012-06-24T12:17:15Z</time>
      </trkpt>
      <trkpt lat="42.74116" lon="1.45507">
        <ele>1134.0124511719</ele>
        <time>2012-06-24T12:17:20Z</time>
      </trkpt>
      <trkpt lat="42.74116" lon="1.45509">
        <ele>1133.0510253906</ele>
        <time>2012-06-24T12:17:22Z</time>
      </trkpt>
      <trkpt lat="42.74112" lon="1.45508">
        <ele>1130.1669921875</ele>
        <time>2012-06-24T12:17:27Z</time>
      </trkpt>
      <trkpt lat="42.74111" lon="1.45511">
        <ele>1128.7250976562</ele>
        <time>2012-06-24T12:17:32Z</time>
      </trkpt>
      <trkpt lat="42.7411" lon="1.45514">
        <ele>1128.2443847656</ele>
        <time>2012-06-24T12:17:33Z</time>
      </trkpt>
      <trkpt lat="42.7411" lon="1.45519">
        <ele>1126.8024902344</ele>
        <time>2012-06-24T12:17:37Z</time>
      </trkpt>
      <trkpt lat="42.74112" lon="1.45523">
        <ele>1125.3603515625</ele>
        <time>2012-06-24T12:17:41Z</time>
      </trkpt>
      <trkpt lat="42.74113" lon="1.45527">
        <ele>1126.3217773438</ele>
        <time>2012-06-24T12:17:45Z</time>
      </trkpt>
      <trkpt lat="42.7411" lon="1.45528">
        <ele>1128.2443847656</ele>
        <time>2012-06-24T12:17:47Z</time>
      </trkpt>
      <trkpt lat="42.74101" lon="1.45529">
        <ele>1128.7250976562</ele>
        <time>2012-06-24T12:17:52Z</time>
      </trkpt>
      <trkpt lat="42.7409" lon="1.45522">
        <ele>1118.1506347656</ele>
        <time>2012-06-24T12:17:59Z</time>
      </trkpt>
      <trkpt lat="42.74088" lon="1.45521">
        <ele>1115.2666015625</ele>
        <time>2012-06-24T12:18:01Z</time>
      </trkpt>
      <trkpt lat="42.74091" lon="1.45529">
        <ele>1109.9792480469</ele>
        <time>2012-06-24T12:18:06Z</time>
      </trkpt>
      <trkpt lat="42.74092" lon="1.45535">
        <ele>1109.0180664062</ele>
        <time>2012-06-24T12:18:11Z</time>
      </trkpt>
      <trkpt lat="42.7409" lon="1.45534">
        <ele>1108.5373535156</ele>
        <time>2012-06-24T12:18:13Z</time>
      </trkpt>
      <trkpt lat="42.74082" lon="1.45527">
        <ele>1104.6921386719</ele>
        <time>2012-06-24T12:18:18Z</time>
      </trkpt>
      <trkpt lat="42.74077" lon="1.45523">
        <ele>1101.3276367188</ele>
        <time>2012-06-24T12:18:21Z</time>
      </trkpt>
      <trkpt lat="42.7407" lon="1.4552">
        <ele>1101.3276367188</ele>
        <time>2012-06-24T12:18:26Z</time>
      </trkpt>
      <trkpt lat="42.74068" lon="1.4552">
        <ele>1101.8083496094</ele>
        <time>2012-06-24T12:18:29Z</time>
      </trkpt>
      <trkpt lat="42.7407" lon="1.45531">
        <ele>1099.4047851562</ele>
        <time>2012-06-24T12:18:34Z</time>
      </trkpt>
      <trkpt lat="42.74073" lon="1.45537">
        <ele>1095.5595703125</ele>
        <time>2012-06-24T12:18:39Z</time>
      </trkpt>
      <trkpt lat="42.74076" lon="1.45541">
        <ele>1094.5981445312</ele>
        <time>2012-06-24T12:18:43Z</time>
      </trkpt>
      <trkpt lat="42.74079" lon="1.45549">
        <ele>1091.7143554688</ele>
        <time>2012-06-24T12:18:50Z</time>
      </trkpt>
      <trkpt lat="42.7408" lon="1.45555">
        <ele>1089.7917480469</ele>
        <time>2012-06-24T12:18:54Z</time>
      </trkpt>
      <trkpt lat="42.74084" lon="1.45562">
        <ele>1088.8305664062</ele>
        <time>2012-06-24T12:18:59Z</time>
      </trkpt>
      <trkpt lat="42.74081" lon="1.45564">
        <ele>1089.3110351562</ele>
        <time>2012-06-24T12:19:03Z</time>
      </trkpt>
      <trkpt lat="42.74079" lon="1.45564">
        <ele>1090.2724609375</ele>
        <time>2012-06-24T12:19:04Z</time>
      </trkpt>
      <trkpt lat="42.74067" lon="1.45568">
        <ele>1093.15625</ele>
        <time>2012-06-24T12:19:10Z</time>
      </trkpt>
      <trkpt lat="42.74059" lon="1.45564">
        <ele>1087.3884277344</ele>
        <time>2012-06-24T12:19:16Z</time>
      </trkpt>
      <trkpt lat="42.74057" lon="1.45563">
        <ele>1085.4658203125</ele>
        <time>2012-06-24T12:19:19Z</time>
      </trkpt>
      <trkpt lat="42.74052" lon="1.45562">
        <ele>1084.0239257812</ele>
        <time>2012-06-24T12:19:24Z</time>
      </trkpt>
      <trkpt lat="42.74053" lon="1.45568">
        <ele>1080.1784667969</ele>
        <time>2012-06-24T12:19:30Z</time>
      </trkpt>
      <trkpt lat="42.74054" lon="1.4557">
        <ele>1080.1784667969</ele>
        <time>2012-06-24T12:19:31Z</time>
      </trkpt>
      <trkpt lat="42.74057" lon="1.45574">
        <ele>1076.8139648438</ele>
        <time>2012-06-24T12:19:36Z</time>
      </trkpt>
      <trkpt lat="42.7406" lon="1.45579">
        <ele>1075.3718261719</ele>
        <time>2012-06-24T12:19:41Z</time>
      </trkpt>
      <trkpt lat="42.74062" lon="1.45584">
        <ele>1074.8913574219</ele>
        <time>2012-06-24T12:19:45Z</time>
      </trkpt>
      <trkpt lat="42.74063" lon="1.45587">
        <ele>1075.8525390625</ele>
        <time>2012-06-24T12:19:47Z</time>
      </trkpt>
      <trkpt lat="42.74057" lon="1.45586">
        <ele>1080.1784667969</ele>
        <time>2012-06-24T12:19:52Z</time>
      </trkpt>
      <trkpt lat="42.74056" lon="1.45586">
        <ele>1079.6977539062</ele>
        <time>2012-06-24T12:19:53Z</time>
      </trkpt>
      <trkpt lat="42.74048" lon="1.45587">
        <ele>1081.1398925781</ele>
        <time>2012-06-24T12:19:58Z</time>
      </trkpt>
      <trkpt lat="42.74043" lon="1.45587">
        <ele>1080.1784667969</ele>
        <time>2012-06-24T12:20:00Z</time>
      </trkpt>
      <trkpt lat="42.74039" lon="1.45584">
        <ele>1075.3718261719</ele>
        <time>2012-06-24T12:20:04Z</time>
      </trkpt>
      <trkpt lat="42.74036" lon="1.45585">
        <ele>1072.4880371094</ele>
        <time>2012-06-24T12:20:08Z</time>
      </trkpt>
      <trkpt lat="42.74037" lon="1.45586">
        <ele>1071.5266113281</ele>
        <time>2012-06-24T12:20:09Z</time>
      </trkpt>
      <trkpt lat="42.74043" lon="1.45594">
        <ele>1064.7973632812</ele>
        <time>2012-06-24T12:20:15Z</time>
      </trkpt>
      <trkpt lat="42.74045" lon="1.45593">
        <ele>1063.8359375</ele>
        <time>2012-06-24T12:20:16Z</time>
      </trkpt>
      <trkpt lat="42.74046" lon="1.45597">
        <ele>1059.5102539062</ele>
        <time>2012-06-24T12:20:21Z</time>
      </trkpt>
      <trkpt lat="42.74041" lon="1.45598">
        <ele>1057.1069335938</ele>
        <time>2012-06-24T12:20:26Z</time>
      </trkpt>
      <trkpt lat="42.74039" lon="1.45598">
        <ele>1057.1069335938</ele>
        <time>2012-06-24T12:20:28Z</time>
      </trkpt>
      <trkpt lat="42.74034" lon="1.45598">
        <ele>1056.1455078125</ele>
        <time>2012-06-24T12:20:32Z</time>
      </trkpt>
      <trkpt lat="42.74028" lon="1.45599">
        <ele>1055.6650390625</ele>
        <time>2012-06-24T12:20:38Z</time>
      </trkpt>
      <trkpt lat="42.74025" lon="1.45598">
        <ele>1055.6650390625</ele>
        <time>2012-06-24T12:20:42Z</time>
      </trkpt>
      <trkpt lat="42.74024" lon="1.45604">
        <ele>1054.7036132812</ele>
        <time>2012-06-24T12:20:54Z</time>
      </trkpt>
      <trkpt lat="42.74027" lon="1.45607">
        <ele>1052.3002929688</ele>
        <time>2012-06-24T12:20:59Z</time>
      </trkpt>
      <trkpt lat="42.7403" lon="1.45611">
        <ele>1052.3002929688</ele>
        <time>2012-06-24T12:21:05Z</time>
      </trkpt>
      <trkpt lat="42.74031" lon="1.45618">
        <ele>1051.3388671875</ele>
        <time>2012-06-24T12:21:11Z</time>
      </trkpt>
      <trkpt lat="42.7403" lon="1.45624">
        <ele>1049.8969726562</ele>
        <time>2012-06-24T12:21:17Z</time>
      </trkpt>
      <trkpt lat="42.74026" lon="1.45629">
        <ele>1049.4162597656</ele>
        <time>2012-06-24T12:21:23Z</time>
      </trkpt>
      <trkpt lat="42.74021" lon="1.45631">
        <ele>1047.0129394531</ele>
        <time>2012-06-24T12:21:29Z</time>
      </trkpt>
      <trkpt lat="42.74019" lon="1.45631">
        <ele>1046.0517578125</ele>
        <time>2012-06-24T12:21:30Z</time>
      </trkpt>
      <trkpt lat="42.74017" lon="1.45625">
        <ele>1044.1291503906</ele>
        <time>2012-06-24T12:21:35Z</time>
      </trkpt>
      <trkpt lat="42.74011" lon="1.4562">
        <ele>1042.6872558594</ele>
        <time>2012-06-24T12:21:41Z</time>
      </trkpt>
      <trkpt lat="42.74007" lon="1.45615">
        <ele>1045.5710449219</ele>
        <time>2012-06-24T12:21:46Z</time>
      </trkpt>
      <trkpt lat="42.74004" lon="1.45612">
        <ele>1045.0903320312</ele>
        <time>2012-06-24T12:21:52Z</time>
      </trkpt>
      <trkpt lat="42.74002" lon="1.45622">
        <ele>1039.8032226562</ele>
        <time>2012-06-24T12:22:09Z</time>
      </trkpt>
      <trkpt lat="42.74002" lon="1.45629">
        <ele>1036.4387207031</ele>
        <time>2012-06-24T12:22:15Z</time>
      </trkpt>
      <trkpt lat="42.74004" lon="1.45631">
        <ele>1034.9965820312</ele>
        <time>2012-06-24T12:22:19Z</time>
      </trkpt>
      <trkpt lat="42.73999" lon="1.45636">
        <ele>1033.0737304688</ele>
        <time>2012-06-24T12:22:28Z</time>
      </trkpt>
      <trkpt lat="42.73994" lon="1.45633">
        <ele>1033.0737304688</ele>
        <time>2012-06-24T12:22:33Z</time>
      </trkpt>
      <trkpt lat="42.73991" lon="1.45631">
        <ele>1034.5158691406</ele>
        <time>2012-06-24T12:22:38Z</time>
      </trkpt>
      <trkpt lat="42.73988" lon="1.45637">
        <ele>1031.6318359375</ele>
        <time>2012-06-24T12:22:47Z</time>
      </trkpt>
      <trkpt lat="42.73988" lon="1.45641">
        <ele>1028.748046875</ele>
        <time>2012-06-24T12:22:51Z</time>
      </trkpt>
      <trkpt lat="42.73988" lon="1.45647">
        <ele>1026.8254394531</ele>
        <time>2012-06-24T12:22:57Z</time>
      </trkpt>
      <trkpt lat="42.73989" lon="1.45652">
        <ele>1025.8640136719</ele>
        <time>2012-06-24T12:23:01Z</time>
      </trkpt>
      <trkpt lat="42.73991" lon="1.45658">
        <ele>1023.4609375</ele>
        <time>2012-06-24T12:23:05Z</time>
      </trkpt>
      <trkpt lat="42.73997" lon="1.45661">
        <ele>1018.6540527344</ele>
        <time>2012-06-24T12:23:11Z</time>
      </trkpt>
      <trkpt lat="42.74" lon="1.45668">
        <ele>1017.2121582031</ele>
        <time>2012-06-24T12:23:16Z</time>
      </trkpt>
      <trkpt lat="42.74003" lon="1.45675">
        <ele>1014.8088378906</ele>
        <time>2012-06-24T12:23:20Z</time>
      </trkpt>
      <trkpt lat="42.74009" lon="1.4568">
        <ele>1011.4443359375</ele>
        <time>2012-06-24T12:23:25Z</time>
      </trkpt>
      <trkpt lat="42.74012" lon="1.45682">
        <ele>1008.5603027344</ele>
        <time>2012-06-24T12:23:28Z</time>
      </trkpt>
      <trkpt lat="42.74016" lon="1.45687">
        <ele>1007.1184082031</ele>
        <time>2012-06-24T12:23:32Z</time>
      </trkpt>
      <trkpt lat="42.74016" lon="1.4569">
        <ele>1005.1958007812</ele>
        <time>2012-06-24T12:23:38Z</time>
      </trkpt>
      <trkpt lat="42.74014" lon="1.4569">
        <ele>1004.2346191406</ele>
        <time>2012-06-24T12:23:40Z</time>
      </trkpt>
      <trkpt lat="42.74008" lon="1.4569">
        <ele>1003.7536621094</ele>
        <time>2012-06-24T12:23:44Z</time>
      </trkpt>
      <trkpt lat="42.74006" lon="1.45691">
        <ele>1003.2729492188</ele>
        <time>2012-06-24T12:23:46Z</time>
      </trkpt>
      <trkpt lat="42.73997" lon="1.45697">
        <ele>1003.2729492188</ele>
        <time>2012-06-24T12:23:53Z</time>
      </trkpt>
      <trkpt lat="42.73994" lon="1.45698">
        <ele>1002.3115234375</ele>
        <time>2012-06-24T12:23:56Z</time>
      </trkpt>
      <trkpt lat="42.73988" lon="1.45699">
        <ele>1002.3115234375</ele>
        <time>2012-06-24T12:24:02Z</time>
      </trkpt>
      <trkpt lat="42.73983" lon="1.45696">
        <ele>1000.3891601562</ele>
        <time>2012-06-24T12:24:07Z</time>
      </trkpt>
      <trkpt lat="42.7398" lon="1.45692">
        <ele>999.427734375</ele>
        <time>2012-06-24T12:24:12Z</time>
      </trkpt>
      <trkpt lat="42.73976" lon="1.45693">
        <ele>999.427734375</ele>
        <time>2012-06-24T12:24:17Z</time>
      </trkpt>
      <trkpt lat="42.73969" lon="1.45691">
        <ele>1002.7922363281</ele>
        <time>2012-06-24T12:24:22Z</time>
      </trkpt>
      <trkpt lat="42.73959" lon="1.4569">
        <ele>1005.1958007812</ele>
        <time>2012-06-24T12:24:28Z</time>
      </trkpt>
      <trkpt lat="42.73953" lon="1.45689">
        <ele>1004.2346191406</ele>
        <time>2012-06-24T12:24:33Z</time>
      </trkpt>
      <trkpt lat="42.73952" lon="1.45689">
        <ele>1005.1958007812</ele>
        <time>2012-06-24T12:24:34Z</time>
      </trkpt>
      <trkpt lat="42.73946" lon="1.45686">
        <ele>1005.6765136719</ele>
        <time>2012-06-24T12:24:40Z</time>
      </trkpt>
      <trkpt lat="42.73943" lon="1.45688">
        <ele>1004.2346191406</ele>
        <time>2012-06-24T12:24:44Z</time>
      </trkpt>
      <trkpt lat="42.73947" lon="1.45696">
        <ele>998.94702148438</ele>
        <time>2012-06-24T12:24:51Z</time>
      </trkpt>
      <trkpt lat="42.73948" lon="1.45698">
        <ele>997.0244140625</ele>
        <time>2012-06-24T12:24:53Z</time>
      </trkpt>
      <trkpt lat="42.73952" lon="1.45703">
        <ele>993.17919921875</ele>
        <time>2012-06-24T12:24:59Z</time>
      </trkpt>
      <trkpt lat="42.73955" lon="1.45707">
        <ele>989.333984375</ele>
        <time>2012-06-24T12:25:04Z</time>
      </trkpt>
      <trkpt lat="42.73961" lon="1.45711">
        <ele>987.89184570312</ele>
        <time>2012-06-24T12:25:09Z</time>
      </trkpt>
      <trkpt lat="42.73967" lon="1.45716">
        <ele>985.96923828125</ele>
        <time>2012-06-24T12:25:15Z</time>
      </trkpt>
      <trkpt lat="42.73971" lon="1.45722">
        <ele>984.52734375</ele>
        <time>2012-06-24T12:25:20Z</time>
      </trkpt>
      <trkpt lat="42.73963" lon="1.4572">
        <ele>984.04663085938</ele>
        <time>2012-06-24T12:25:26Z</time>
      </trkpt>
      <trkpt lat="42.73959" lon="1.4572">
        <ele>985.96923828125</ele>
        <time>2012-06-24T12:25:29Z</time>
      </trkpt>
      <trkpt lat="42.73951" lon="1.45724">
        <ele>985.48852539062</ele>
        <time>2012-06-24T12:25:35Z</time>
      </trkpt>
      <trkpt lat="42.73944" lon="1.45726">
        <ele>985.48852539062</ele>
        <time>2012-06-24T12:25:40Z</time>
      </trkpt>
      <trkpt lat="42.73938" lon="1.45728">
        <ele>984.52734375</ele>
        <time>2012-06-24T12:25:44Z</time>
      </trkpt>
      <trkpt lat="42.73932" lon="1.45729">
        <ele>982.60473632812</ele>
        <time>2012-06-24T12:25:50Z</time>
      </trkpt>
      <trkpt lat="42.7393" lon="1.45731">
        <ele>981.16284179688</ele>
        <time>2012-06-24T12:25:54Z</time>
      </trkpt>
      <trkpt lat="42.73925" lon="1.45736">
        <ele>979.720703125</ele>
        <time>2012-06-24T12:25:59Z</time>
      </trkpt>
      <trkpt lat="42.73922" lon="1.45736">
        <ele>978.27880859375</ele>
        <time>2012-06-24T12:26:03Z</time>
      </trkpt>
      <trkpt lat="42.73918" lon="1.45737">
        <ele>975.87548828125</ele>
        <time>2012-06-24T12:26:09Z</time>
      </trkpt>
      <trkpt lat="42.73914" lon="1.4574">
        <ele>975.87548828125</ele>
        <time>2012-06-24T12:26:13Z</time>
      </trkpt>
      <trkpt lat="42.73912" lon="1.45739">
        <ele>974.91430664062</ele>
        <time>2012-06-24T12:26:19Z</time>
      </trkpt>
      <trkpt lat="42.73907" lon="1.45735">
        <ele>980.20141601562</ele>
        <time>2012-06-24T12:26:33Z</time>
      </trkpt>
      <trkpt lat="42.73903" lon="1.45739">
        <ele>980.20141601562</ele>
        <time>2012-06-24T12:26:38Z</time>
      </trkpt>
      <trkpt lat="42.739" lon="1.45742">
        <ele>981.16284179688</ele>
        <time>2012-06-24T12:26:44Z</time>
      </trkpt>
      <trkpt lat="42.73897" lon="1.45743">
        <ele>985.96923828125</ele>
        <time>2012-06-24T12:26:49Z</time>
      </trkpt>
      <trkpt lat="42.73893" lon="1.45742">
        <ele>982.1240234375</ele>
        <time>2012-06-24T12:26:56Z</time>
      </trkpt>
      <trkpt lat="42.73889" lon="1.45744">
        <ele>980.20141601562</ele>
        <time>2012-06-24T12:27:01Z</time>
      </trkpt>
      <trkpt lat="42.73885" lon="1.45746">
        <ele>984.04663085938</ele>
        <time>2012-06-24T12:27:05Z</time>
      </trkpt>
      <trkpt lat="42.73882" lon="1.45749">
        <ele>987.4111328125</ele>
        <time>2012-06-24T12:27:08Z</time>
      </trkpt>
      <trkpt lat="42.73878" lon="1.4575">
        <ele>984.52734375</ele>
        <time>2012-06-24T12:27:13Z</time>
      </trkpt>
      <trkpt lat="42.73874" lon="1.45752">
        <ele>984.52734375</ele>
        <time>2012-06-24T12:27:17Z</time>
      </trkpt>
      <trkpt lat="42.7387" lon="1.45759">
        <ele>968.66552734375</ele>
        <time>2012-06-24T12:27:39Z</time>
      </trkpt>
      <trkpt lat="42.73859" lon="1.45764">
        <ele>977.31762695312</ele>
        <time>2012-06-24T12:27:54Z</time>
      </trkpt>
      <trkpt lat="42.73854" lon="1.45767">
        <ele>966.74291992188</ele>
        <time>2012-06-24T12:28:07Z</time>
      </trkpt>
      <trkpt lat="42.73845" lon="1.45775">
        <ele>953.28442382812</ele>
        <time>2012-06-24T12:28:26Z</time>
      </trkpt>
      <trkpt lat="42.73844" lon="1.45767">
        <ele>949.919921875</ele>
        <time>2012-06-24T12:28:49Z</time>
      </trkpt>
      <trkpt lat="42.73846" lon="1.45784">
        <ele>947.5166015625</ele>
        <time>2012-06-24T12:29:24Z</time>
      </trkpt>
      <trkpt lat="42.73846" lon="1.45791">
        <ele>952.8037109375</ele>
        <time>2012-06-24T12:29:35Z</time>
      </trkpt>
      <trkpt lat="42.7384" lon="1.45802">
        <ele>953.28442382812</ele>
        <time>2012-06-24T12:29:41Z</time>
      </trkpt>
      <trkpt lat="42.73838" lon="1.45807">
        <ele>949.43920898438</ele>
        <time>2012-06-24T12:29:49Z</time>
      </trkpt>
      <trkpt lat="42.73836" lon="1.45815">
        <ele>944.15209960938</ele>
        <time>2012-06-24T12:29:54Z</time>
      </trkpt>
      <trkpt lat="42.73838" lon="1.45818">
        <ele>939.82592773438</ele>
        <time>2012-06-24T12:29:58Z</time>
      </trkpt>
      <trkpt lat="42.73838" lon="1.45827">
        <ele>938.38403320312</ele>
        <time>2012-06-24T12:30:03Z</time>
      </trkpt>
      <trkpt lat="42.73839" lon="1.45834">
        <ele>937.42260742188</ele>
        <time>2012-06-24T12:30:07Z</time>
      </trkpt>
      <trkpt lat="42.73844" lon="1.45835">
        <ele>933.57739257812</ele>
        <time>2012-06-24T12:30:12Z</time>
      </trkpt>
      <trkpt lat="42.73851" lon="1.45835">
        <ele>932.13549804688</ele>
        <time>2012-06-24T12:30:18Z</time>
      </trkpt>
      <trkpt lat="42.73852" lon="1.45836">
        <ele>931.65478515625</ele>
        <time>2012-06-24T12:30:19Z</time>
      </trkpt>
      <trkpt lat="42.73855" lon="1.45841">
        <ele>933.57739257812</ele>
        <time>2012-06-24T12:30:23Z</time>
      </trkpt>
      <trkpt lat="42.73857" lon="1.45847">
        <ele>930.212890625</ele>
        <time>2012-06-24T12:30:28Z</time>
      </trkpt>
      <trkpt lat="42.7386" lon="1.45862">
        <ele>924.92578125</ele>
        <time>2012-06-24T12:30:39Z</time>
      </trkpt>
      <trkpt lat="42.73863" lon="1.45867">
        <ele>922.52221679688</ele>
        <time>2012-06-24T12:30:43Z</time>
      </trkpt>
      <trkpt lat="42.73869" lon="1.45869">
        <ele>922.04150390625</ele>
        <time>2012-06-24T12:30:48Z</time>
      </trkpt>
      <trkpt lat="42.73872" lon="1.45874">
        <ele>920.11889648438</ele>
        <time>2012-06-24T12:30:52Z</time>
      </trkpt>
      <trkpt lat="42.73879" lon="1.45893">
        <ele>915.79321289062</ele>
        <time>2012-06-24T12:31:11Z</time>
      </trkpt>
      <trkpt lat="42.7388" lon="1.45898">
        <ele>915.79321289062</ele>
        <time>2012-06-24T12:31:14Z</time>
      </trkpt>
      <trkpt lat="42.73882" lon="1.45906">
        <ele>914.35107421875</ele>
        <time>2012-06-24T12:31:20Z</time>
      </trkpt>
      <trkpt lat="42.73883" lon="1.45917">
        <ele>913.87036132812</ele>
        <time>2012-06-24T12:31:27Z</time>
      </trkpt>
      <trkpt lat="42.73883" lon="1.45922">
        <ele>913.87036132812</ele>
        <time>2012-06-24T12:31:29Z</time>
      </trkpt>
      <trkpt lat="42.73889" lon="1.45928">
        <ele>911.94799804688</ele>
        <time>2012-06-24T12:31:36Z</time>
      </trkpt>
      <trkpt lat="42.73893" lon="1.4593">
        <ele>910.98657226562</ele>
        <time>2012-06-24T12:31:41Z</time>
      </trkpt>
      <trkpt lat="42.73898" lon="1.45932">
        <ele>907.14111328125</ele>
        <time>2012-06-24T12:31:46Z</time>
      </trkpt>
      <trkpt lat="42.73902" lon="1.45932">
        <ele>908.10278320312</ele>
        <time>2012-06-24T12:31:48Z</time>
      </trkpt>
      <trkpt lat="42.73905" lon="1.45933">
        <ele>909.06396484375</ele>
        <time>2012-06-24T12:31:50Z</time>
      </trkpt>
      <trkpt lat="42.73909" lon="1.45939">
        <ele>907.62182617188</ele>
        <time>2012-06-24T12:31:54Z</time>
      </trkpt>
      <trkpt lat="42.73911" lon="1.45941">
        <ele>907.14111328125</ele>
        <time>2012-06-24T12:31:56Z</time>
      </trkpt>
      <trkpt lat="42.73919" lon="1.45944">
        <ele>905.69921875</ele>
        <time>2012-06-24T12:32:02Z</time>
      </trkpt>
      <trkpt lat="42.73923" lon="1.45949">
        <ele>903.77661132812</ele>
        <time>2012-06-24T12:32:08Z</time>
      </trkpt>
      <trkpt lat="42.7393" lon="1.45951">
        <ele>900.412109375</ele>
        <time>2012-06-24T12:32:14Z</time>
      </trkpt>
      <trkpt lat="42.73935" lon="1.45957">
        <ele>898.4892578125</ele>
        <time>2012-06-24T12:32:20Z</time>
      </trkpt>
      <trkpt lat="42.7394" lon="1.45959">
        <ele>898.96997070312</ele>
        <time>2012-06-24T12:32:24Z</time>
      </trkpt>
      <trkpt lat="42.73946" lon="1.4596">
        <ele>898.96997070312</ele>
        <time>2012-06-24T12:32:29Z</time>
      </trkpt>
      <trkpt lat="42.7395" lon="1.45961">
        <ele>896.56689453125</ele>
        <time>2012-06-24T12:32:33Z</time>
      </trkpt>
      <trkpt lat="42.73951" lon="1.45962">
        <ele>896.08618164062</ele>
        <time>2012-06-24T12:32:34Z</time>
      </trkpt>
      <trkpt lat="42.73953" lon="1.45965">
        <ele>896.56689453125</ele>
        <time>2012-06-24T12:32:36Z</time>
      </trkpt>
      <trkpt lat="42.73957" lon="1.45969">
        <ele>897.04736328125</ele>
        <time>2012-06-24T12:32:40Z</time>
      </trkpt>
      <trkpt lat="42.73965" lon="1.45966">
        <ele>893.68286132812</ele>
        <time>2012-06-24T12:32:46Z</time>
      </trkpt>
      <trkpt lat="42.73971" lon="1.45963">
        <ele>893.2021484375</ele>
        <time>2012-06-24T12:32:49Z</time>
      </trkpt>
      <trkpt lat="42.7398" lon="1.45964">
        <ele>892.24096679688</ele>
        <time>2012-06-24T12:32:56Z</time>
      </trkpt>
      <trkpt lat="42.73981" lon="1.45966">
        <ele>892.7216796875</ele>
        <time>2012-06-24T12:32:57Z</time>
      </trkpt>
      <trkpt lat="42.73985" lon="1.45973">
        <ele>892.7216796875</ele>
        <time>2012-06-24T12:33:03Z</time>
      </trkpt>
      <trkpt lat="42.73988" lon="1.45977">
        <ele>890.31811523438</ele>
        <time>2012-06-24T12:33:07Z</time>
      </trkpt>
      <trkpt lat="42.73992" lon="1.4598">
        <ele>889.83740234375</ele>
        <time>2012-06-24T12:33:11Z</time>
      </trkpt>
      <trkpt lat="42.73996" lon="1.45984">
        <ele>888.3955078125</ele>
        <time>2012-06-24T12:33:15Z</time>
      </trkpt>
      <trkpt lat="42.74" lon="1.45987">
        <ele>886.95336914062</ele>
        <time>2012-06-24T12:33:20Z</time>
      </trkpt>
      <trkpt lat="42.74008" lon="1.45993">
        <ele>887.43408203125</ele>
        <time>2012-06-24T12:33:26Z</time>
      </trkpt>
      <trkpt lat="42.7401" lon="1.45995">
        <ele>885.51147460938</ele>
        <time>2012-06-24T12:33:30Z</time>
      </trkpt>
      <trkpt lat="42.74013" lon="1.45999">
        <ele>884.06958007812</ele>
        <time>2012-06-24T12:33:34Z</time>
      </trkpt>
      <trkpt lat="42.74016" lon="1.46001">
        <ele>883.10815429688</ele>
        <time>2012-06-24T12:33:37Z</time>
      </trkpt>
      <trkpt lat="42.74021" lon="1.46009">
        <ele>882.14697265625</ele>
        <time>2012-06-24T12:33:42Z</time>
      </trkpt>
      <trkpt lat="42.74025" lon="1.46014">
        <ele>879.26293945312</ele>
        <time>2012-06-24T12:33:47Z</time>
      </trkpt>
      <trkpt lat="42.74032" lon="1.46019">
        <ele>877.82104492188</ele>
        <time>2012-06-24T12:33:53Z</time>
      </trkpt>
      <trkpt lat="42.74035" lon="1.46025">
        <ele>876.37915039062</ele>
        <time>2012-06-24T12:33:58Z</time>
      </trkpt>
      <trkpt lat="42.74037" lon="1.46024">
        <ele>875.89819335938</ele>
        <time>2012-06-24T12:33:59Z</time>
      </trkpt>
      <trkpt lat="42.74043" lon="1.46026">
        <ele>875.41748046875</ele>
        <time>2012-06-24T12:34:04Z</time>
      </trkpt>
      <trkpt lat="42.74044" lon="1.46028">
        <ele>873.9755859375</ele>
        <time>2012-06-24T12:34:06Z</time>
      </trkpt>
      <trkpt lat="42.74048" lon="1.46035">
        <ele>874.45629882812</ele>
        <time>2012-06-24T12:34:10Z</time>
      </trkpt>
      <trkpt lat="42.74053" lon="1.46041">
        <ele>875.89819335938</ele>
        <time>2012-06-24T12:34:14Z</time>
      </trkpt>
      <trkpt lat="42.74057" lon="1.46043">
        <ele>875.89819335938</ele>
        <time>2012-06-24T12:34:17Z</time>
      </trkpt>
      <trkpt lat="42.74063" lon="1.46044">
        <ele>874.45629882812</ele>
        <time>2012-06-24T12:34:23Z</time>
      </trkpt>
      <trkpt lat="42.74065" lon="1.46048">
        <ele>873.01440429688</ele>
        <time>2012-06-24T12:34:29Z</time>
      </trkpt>
      <trkpt lat="42.74068" lon="1.46048">
        <ele>873.9755859375</ele>
        <time>2012-06-24T12:34:31Z</time>
      </trkpt>
      <trkpt lat="42.74075" lon="1.46055">
        <ele>874.93701171875</ele>
        <time>2012-06-24T12:34:36Z</time>
      </trkpt>
      <trkpt lat="42.74078" lon="1.46056">
        <ele>872.53369140625</ele>
        <time>2012-06-24T12:34:40Z</time>
      </trkpt>
      <trkpt lat="42.74082" lon="1.46059">
        <ele>871.572265625</ele>
        <time>2012-06-24T12:34:45Z</time>
      </trkpt>
      <trkpt lat="42.74092" lon="1.46063">
        <ele>869.64990234375</ele>
        <time>2012-06-24T12:34:54Z</time>
      </trkpt>
      <trkpt lat="42.74099" lon="1.46067">
        <ele>866.76586914062</ele>
        <time>2012-06-24T12:34:59Z</time>
      </trkpt>
      <trkpt lat="42.74105" lon="1.46072">
        <ele>865.8046875</ele>
        <time>2012-06-24T12:35:04Z</time>
      </trkpt>
      <trkpt lat="42.74109" lon="1.46077">
        <ele>864.84326171875</ele>
        <time>2012-06-24T12:35:08Z</time>
      </trkpt>
      <trkpt lat="42.74113" lon="1.46081">
        <ele>862.43994140625</ele>
        <time>2012-06-24T12:35:12Z</time>
      </trkpt>
      <trkpt lat="42.74117" lon="1.46085">
        <ele>862.92065429688</ele>
        <time>2012-06-24T12:35:16Z</time>
      </trkpt>
      <trkpt lat="42.74121" lon="1.4609">
        <ele>862.43994140625</ele>
        <time>2012-06-24T12:35:20Z</time>
      </trkpt>
      <trkpt lat="42.74125" lon="1.46094">
        <ele>862.92065429688</ele>
        <time>2012-06-24T12:35:24Z</time>
      </trkpt>
      <trkpt lat="42.74128" lon="1.46098">
        <ele>863.8818359375</ele>
        <time>2012-06-24T12:35:27Z</time>
      </trkpt>
      <trkpt lat="42.74133" lon="1.46107">
        <ele>864.36254882812</ele>
        <time>2012-06-24T12:35:34Z</time>
      </trkpt>
      <trkpt lat="42.74137" lon="1.4611">
        <ele>865.32397460938</ele>
        <time>2012-06-24T12:35:38Z</time>
      </trkpt>
      <trkpt lat="42.74142" lon="1.46115">
        <ele>868.20776367188</ele>
        <time>2012-06-24T12:35:42Z</time>
      </trkpt>
      <trkpt lat="42.7415" lon="1.4612">
        <ele>869.16918945312</ele>
        <time>2012-06-24T12:35:48Z</time>
      </trkpt>
      <trkpt lat="42.74152" lon="1.46121">
        <ele>870.13037109375</ele>
        <time>2012-06-24T12:35:49Z</time>
      </trkpt>
      <trkpt lat="42.74154" lon="1.46124">
        <ele>870.13037109375</ele>
        <time>2012-06-24T12:35:51Z</time>
      </trkpt>
      <trkpt lat="42.74156" lon="1.46142">
        <ele>869.64990234375</ele>
        <time>2012-06-24T12:36:01Z</time>
      </trkpt>
      <trkpt lat="42.74155" lon="1.46148">
        <ele>868.20776367188</ele>
        <time>2012-06-24T12:36:06Z</time>
      </trkpt>
      <trkpt lat="42.74158" lon="1.46152">
        <ele>866.28515625</ele>
        <time>2012-06-24T12:36:10Z</time>
      </trkpt>
      <trkpt lat="42.7416" lon="1.46153">
        <ele>865.32397460938</ele>
        <time>2012-06-24T12:36:14Z</time>
      </trkpt>
      <trkpt lat="42.74163" lon="1.46155">
        <ele>864.36254882812</ele>
        <time>2012-06-24T12:36:18Z</time>
      </trkpt>
      <trkpt lat="42.74167" lon="1.46158">
        <ele>861.95947265625</ele>
        <time>2012-06-24T12:36:24Z</time>
      </trkpt>
      <trkpt lat="42.74172" lon="1.46158">
        <ele>860.03662109375</ele>
        <time>2012-06-24T12:36:30Z</time>
      </trkpt>
      <trkpt lat="42.74175" lon="1.46159">
        <ele>858.11401367188</ele>
        <time>2012-06-24T12:36:34Z</time>
      </trkpt>
      <trkpt lat="42.74179" lon="1.4616">
        <ele>857.63330078125</ele>
        <time>2012-06-24T12:36:38Z</time>
      </trkpt>
      <trkpt lat="42.74181" lon="1.46162">
        <ele>857.15258789062</ele>
        <time>2012-06-24T12:36:39Z</time>
      </trkpt>
      <trkpt lat="42.74186" lon="1.46163">
        <ele>857.15258789062</ele>
        <time>2012-06-24T12:36:43Z</time>
      </trkpt>
      <trkpt lat="42.74193" lon="1.46163">
        <ele>860.03662109375</ele>
        <time>2012-06-24T12:36:47Z</time>
      </trkpt>
      <trkpt lat="42.74199" lon="1.46164">
        <ele>857.63330078125</ele>
        <time>2012-06-24T12:36:55Z</time>
      </trkpt>
      <trkpt lat="42.74201" lon="1.46166">
        <ele>856.19116210938</ele>
        <time>2012-06-24T12:36:59Z</time>
      </trkpt>
      <trkpt lat="42.74206" lon="1.4617">
        <ele>853.7880859375</ele>
        <time>2012-06-24T12:37:04Z</time>
      </trkpt>
      <trkpt lat="42.74212" lon="1.46172">
        <ele>853.30737304688</ele>
        <time>2012-06-24T12:37:08Z</time>
      </trkpt>
      <trkpt lat="42.74219" lon="1.46176">
        <ele>851.384765625</ele>
        <time>2012-06-24T12:37:13Z</time>
      </trkpt>
      <trkpt lat="42.74228" lon="1.46179">
        <ele>852.34594726562</ele>
        <time>2012-06-24T12:37:18Z</time>
      </trkpt>
      <trkpt lat="42.74231" lon="1.46181">
        <ele>851.86547851562</ele>
        <time>2012-06-24T12:37:20Z</time>
      </trkpt>
      <trkpt lat="42.74234" lon="1.46185">
        <ele>848.50073242188</ele>
        <time>2012-06-24T12:37:25Z</time>
      </trkpt>
      <trkpt lat="42.74238" lon="1.46189">
        <ele>847.53955078125</ele>
        <time>2012-06-24T12:37:30Z</time>
      </trkpt>
      <trkpt lat="42.74245" lon="1.46191">
        <ele>845.13623046875</ele>
        <time>2012-06-24T12:37:37Z</time>
      </trkpt>
      <trkpt lat="42.74251" lon="1.46196">
        <ele>844.17504882812</ele>
        <time>2012-06-24T12:37:41Z</time>
      </trkpt>
      <trkpt lat="42.74256" lon="1.46199">
        <ele>841.29077148438</ele>
        <time>2012-06-24T12:37:46Z</time>
      </trkpt>
      <trkpt lat="42.7426" lon="1.46202">
        <ele>841.29077148438</ele>
        <time>2012-06-24T12:37:52Z</time>
      </trkpt>
      <trkpt lat="42.74266" lon="1.46206">
        <ele>840.81005859375</ele>
        <time>2012-06-24T12:37:57Z</time>
      </trkpt>
      <trkpt lat="42.74274" lon="1.46208">
        <ele>838.40698242188</ele>
        <time>2012-06-24T12:38:03Z</time>
      </trkpt>
      <trkpt lat="42.74279" lon="1.4621">
        <ele>836.96484375</ele>
        <time>2012-06-24T12:38:09Z</time>
      </trkpt>
      <trkpt lat="42.7428" lon="1.4621">
        <ele>836.484375</ele>
        <time>2012-06-24T12:38:10Z</time>
      </trkpt>
      <trkpt lat="42.74286" lon="1.46208">
        <ele>836.484375</ele>
        <time>2012-06-24T12:38:15Z</time>
      </trkpt>
      <trkpt lat="42.74292" lon="1.46215">
        <ele>835.52294921875</ele>
        <time>2012-06-24T12:38:26Z</time>
      </trkpt>
      <trkpt lat="42.74286" lon="1.46221">
        <ele>832.15844726562</ele>
        <time>2012-06-24T12:38:32Z</time>
      </trkpt>
      <trkpt lat="42.74278" lon="1.46225">
        <ele>832.15844726562</ele>
        <time>2012-06-24T12:38:38Z</time>
      </trkpt>
      <trkpt lat="42.74277" lon="1.4623">
        <ele>832.63916015625</ele>
        <time>2012-06-24T12:38:42Z</time>
      </trkpt>
      <trkpt lat="42.74276" lon="1.46235">
        <ele>834.56176757812</ele>
        <time>2012-06-24T12:38:46Z</time>
      </trkpt>
      <trkpt lat="42.74274" lon="1.46243">
        <ele>836.00366210938</ele>
        <time>2012-06-24T12:38:52Z</time>
      </trkpt>
      <trkpt lat="42.74278" lon="1.46251">
        <ele>836.96484375</ele>
        <time>2012-06-24T12:38:58Z</time>
      </trkpt>
      <trkpt lat="42.74284" lon="1.46253">
        <ele>839.3681640625</ele>
        <time>2012-06-24T12:39:02Z</time>
      </trkpt>
      <trkpt lat="42.74289" lon="1.46257">
        <ele>841.771484375</ele>
        <time>2012-06-24T12:39:07Z</time>
      </trkpt>
      <trkpt lat="42.74292" lon="1.46262">
        <ele>842.25219726562</ele>
        <time>2012-06-24T12:39:13Z</time>
      </trkpt>
      <trkpt lat="42.74294" lon="1.46265">
        <ele>842.25219726562</ele>
        <time>2012-06-24T12:39:17Z</time>
      </trkpt>
    </trkseg>
  </trk>
</gpx>